Wetterdaten: Mittwoch, 09.05.2018
Datum Zeit Temp. A. Pool Temp. Feuchte A. Luftdruck Regen Wind Richtung Richtung Sonnenschein ET UV Solar Taupunkt Windchill Windben Empfang
09.05.2018 00:00 13,1 C 18,9 C 72 % 1006,9 hPa 0,0 l/m 7,8 km/h (2 Bft) O-NO 69 0 min 0,000 mm 0,0 UV-I 0 W/m 8,2 C 12,2 C 11,3 km/h (2 Bft) 100,00 %
09.05.2018 00:02 13,1 C 18,9 C 72 % 1006,9 hPa 0,0 l/m 7,8 km/h (2 Bft) O-NO 73 0 min 0,000 mm 0,0 UV-I 0 W/m 8,2 C 12,2 C 12,9 km/h (3 Bft) 97,67 %
09.05.2018 00:03 13,1 C 18,9 C 72 % 1006,9 hPa 0,0 l/m 6,0 km/h (2 Bft) O-NO 78 0 min 0,000 mm 0,0 UV-I 0 W/m 8,2 C 13,1 C 9,7 km/h (2 Bft) 100,00 %
09.05.2018 00:04 13,1 C 18,9 C 72 % 1006,9 hPa 0,0 l/m 6,9 km/h (2 Bft) O 88 0 min 0,000 mm 0,0 UV-I 0 W/m 8,2 C 12,8 C 11,3 km/h (2 Bft) 100,00 %
09.05.2018 00:05 13,1 C 18,9 C 72 % 1006,9 hPa 0,0 l/m 6,4 km/h (2 Bft) O-NO 76 0 min 0,000 mm 0,0 UV-I 0 W/m 8,2 C 13,1 C 9,7 km/h (2 Bft) 100,00 %
09.05.2018 00:06 13,1 C 18,9 C 72 % 1006,9 hPa 0,0 l/m 6,8 km/h (2 Bft) O 79 0 min 0,000 mm 0,0 UV-I 0 W/m 8,2 C 12,9 C 11,3 km/h (2 Bft) 100,00 %
09.05.2018 00:07 13,0 C 18,9 C 72 % 1006,9 hPa 0,0 l/m 6,1 km/h (2 Bft) O-NO 78 0 min 0,000 mm 0,0 UV-I 0 W/m 8,1 C 13,0 C 8,0 km/h (2 Bft) 100,00 %
09.05.2018 00:08 12,9 C 18,9 C 72 % 1007,0 hPa 0,0 l/m 4,8 km/h (1 Bft) O-NO 65 0 min 0,000 mm 0,0 UV-I 0 W/m 8,0 C 12,9 C 8,0 km/h (2 Bft) 95,65 %
09.05.2018 00:09 12,9 C 18,9 C 73 % 1007,0 hPa 0,0 l/m 8,1 km/h (2 Bft) NO 50 0 min 0,000 mm 0,0 UV-I 0 W/m 8,2 C 11,8 C 11,3 km/h (2 Bft) 100,00 %
09.05.2018 00:10 12,8 C 18,9 C 73 % 1007,0 hPa 0,0 l/m 8,0 km/h (2 Bft) O-NO 61 0 min 0,000 mm 0,0 UV-I 0 W/m 8,1 C 11,8 C 12,9 km/h (3 Bft) 100,00 %
09.05.2018 00:11 12,8 C 18,9 C 73 % 1007,0 hPa 0,0 l/m 9,0 km/h (2 Bft) O-NO 62 0 min 0,000 mm 0,0 UV-I 0 W/m 8,1 C 11,2 C 12,9 km/h (3 Bft) 100,00 %
09.05.2018 00:12 12,8 C 18,9 C 74 % 1007,0 hPa 0,0 l/m 9,1 km/h (2 Bft) O 83 0 min 0,000 mm 0,0 UV-I 0 W/m 8,3 C 11,2 C 14,5 km/h (3 Bft) 100,00 %
09.05.2018 00:13 12,8 C 18,9 C 74 % 1007,0 hPa 0,0 l/m 7,5 km/h (2 Bft) O-NO 57 0 min 0,000 mm 0,0 UV-I 0 W/m 8,3 C 12,1 C 12,9 km/h (3 Bft) 100,00 %
09.05.2018 00:14 12,8 C 18,9 C 74 % 1007,0 hPa 0,0 l/m 7,2 km/h (2 Bft) O-NO 64 0 min 0,000 mm 0,0 UV-I 0 W/m 8,3 C 12,3 C 9,7 km/h (2 Bft) 100,00 %
09.05.2018 00:15 12,8 C 18,3 C 74 % 1007,0 hPa 0,0 l/m 8,0 km/h (2 Bft) NO 40 0 min 0,000 mm 0,0 UV-I 0 W/m 8,3 C 11,8 C 9,7 km/h (2 Bft) 100,00 %
09.05.2018 00:16 12,8 C 18,9 C 74 % 1007,0 hPa 0,0 l/m 8,6 km/h (2 Bft) NO 47 0 min 0,000 mm 0,0 UV-I 0 W/m 8,3 C 11,4 C 12,9 km/h (3 Bft) 100,00 %
09.05.2018 00:17 12,8 C 18,9 C 74 % 1007,0 hPa 0,0 l/m 6,8 km/h (2 Bft) NO 54 0 min 0,000 mm 0,0 UV-I 0 W/m 8,3 C 12,6 C 9,7 km/h (2 Bft) 100,00 %
09.05.2018 00:18 12,8 C 18,9 C 74 % 1007,0 hPa 0,0 l/m 6,8 km/h (2 Bft) O-NO 67 0 min 0,000 mm 0,0 UV-I 0 W/m 8,3 C 12,6 C 11,3 km/h (2 Bft) 100,00 %
09.05.2018 00:19 12,9 C 18,9 C 73 % 1007,0 hPa 0,0 l/m 6,9 km/h (2 Bft) NO 45 0 min 0,000 mm 0,0 UV-I 0 W/m 8,2 C 12,6 C 9,7 km/h (2 Bft) 100,00 %
09.05.2018 00:20 12,9 C 18,9 C 73 % 1007,0 hPa 0,0 l/m 8,4 km/h (2 Bft) NO 53 0 min 0,000 mm 0,0 UV-I 0 W/m 8,2 C 11,7 C 12,9 km/h (3 Bft) 100,00 %
09.05.2018 00:21 12,9 C 18,9 C 73 % 1007,0 hPa 0,0 l/m 7,1 km/h (2 Bft) NO 56 0 min 0,000 mm 0,0 UV-I 0 W/m 8,2 C 12,5 C 9,7 km/h (2 Bft) 100,00 %
09.05.2018 00:22 12,9 C 18,9 C 74 % 1007,0 hPa 0,0 l/m 7,7 km/h (2 Bft) O-NO 57 0 min 0,000 mm 0,0 UV-I 0 W/m 8,4 C 12,1 C 11,3 km/h (2 Bft) 100,00 %
09.05.2018 00:23 12,9 C 18,9 C 74 % 1007,0 hPa 0,0 l/m 6,1 km/h (2 Bft) O-NO 61 0 min 0,000 mm 0,0 UV-I 0 W/m 8,4 C 12,9 C 8,0 km/h (2 Bft) 100,00 %
09.05.2018 00:24 12,9 C 18,9 C 74 % 1007,0 hPa 0,0 l/m 5,8 km/h (2 Bft) O-NO 65 0 min 0,000 mm 0,0 UV-I 0 W/m 8,4 C 12,9 C 8,0 km/h (2 Bft) 100,00 %
09.05.2018 00:25 12,9 C 18,9 C 74 % 1007,0 hPa 0,0 l/m 7,0 km/h (2 Bft) O-NO 72 0 min 0,000 mm 0,0 UV-I 0 W/m 8,4 C 12,5 C 12,9 km/h (3 Bft) 100,00 %
09.05.2018 00:26 13,0 C 18,9 C 74 % 1007,0 hPa 0,0 l/m 8,7 km/h (2 Bft) O 80 0 min 0,000 mm 0,0 UV-I 0 W/m 8,5 C 11,6 C 16,1 km/h (3 Bft) 100,00 %
09.05.2018 00:27 12,9 C 18,9 C 74 % 1007,0 hPa 0,0 l/m 8,6 km/h (2 Bft) O 80 0 min 0,000 mm 0,0 UV-I 0 W/m 8,4 C 11,5 C 14,5 km/h (3 Bft) 100,00 %
09.05.2018 00:28 12,9 C 18,9 C 74 % 1006,9 hPa 0,0 l/m 6,6 km/h (2 Bft) O 84 0 min 0,000 mm 0,0 UV-I 0 W/m 8,4 C 12,8 C 11,3 km/h (2 Bft) 100,00 %
09.05.2018 00:29 12,9 C 18,9 C 74 % 1006,9 hPa 0,0 l/m 7,5 km/h (2 Bft) O-NO 72 0 min 0,000 mm 0,0 UV-I 0 W/m 8,4 C 12,2 C 9,7 km/h (2 Bft) 95,65 %
09.05.2018 00:30 12,9 C 18,9 C 74 % 1007,0 hPa 0,0 l/m 6,4 km/h (2 Bft) O-NO 71 0 min 0,000 mm 0,0 UV-I 0 W/m 8,4 C 12,9 C 9,7 km/h (2 Bft) 100,00 %
09.05.2018 00:31 12,9 C 18,9 C 74 % 1007,0 hPa 0,0 l/m 5,4 km/h (1 Bft) O 84 0 min 0,000 mm 0,0 UV-I 0 W/m 8,4 C 12,9 C 8,0 km/h (2 Bft) 96,15 %
09.05.2018 00:32 12,9 C 18,9 C 74 % 1007,0 hPa 0,0 l/m 5,2 km/h (1 Bft) O-NO 61 0 min 0,000 mm 0,0 UV-I 0 W/m 8,4 C 12,9 C 8,0 km/h (2 Bft) 100,00 %
09.05.2018 00:33 12,8 C 18,9 C 74 % 1007,0 hPa 0,0 l/m 4,9 km/h (1 Bft) O-NO 60 0 min 0,000 mm 0,0 UV-I 0 W/m 8,3 C 12,8 C 8,0 km/h (2 Bft) 100,00 %
09.05.2018 00:34 12,8 C 18,9 C 74 % 1007,0 hPa 0,0 l/m 5,0 km/h (1 Bft) O-SO 113 0 min 0,000 mm 0,0 UV-I 0 W/m 8,3 C 12,8 C 8,0 km/h (2 Bft) 100,00 %
09.05.2018 00:35 12,8 C 18,9 C 74 % 1007,0 hPa 0,0 l/m 5,5 km/h (1 Bft) NO 51 0 min 0,000 mm 0,0 UV-I 0 W/m 8,3 C 12,8 C 9,7 km/h (2 Bft) 100,00 %
09.05.2018 00:36 12,7 C 18,9 C 75 % 1007,0 hPa 0,0 l/m 5,6 km/h (1 Bft) O-NO 68 0 min 0,000 mm 0,0 UV-I 0 W/m 8,4 C 12,7 C 8,0 km/h (2 Bft) 100,00 %
09.05.2018 00:37 12,7 C 18,9 C 75 % 1006,9 hPa 0,0 l/m 8,4 km/h (2 Bft) O 95 0 min 0,000 mm 0,0 UV-I 0 W/m 8,4 C 11,5 C 14,5 km/h (3 Bft) 100,00 %
09.05.2018 00:38 12,6 C 18,9 C 75 % 1006,9 hPa 0,0 l/m 5,9 km/h (2 Bft) O-NO 72 0 min 0,000 mm 0,0 UV-I 0 W/m 8,3 C 12,6 C 8,0 km/h (2 Bft) 100,00 %
09.05.2018 00:39 12,6 C 18,3 C 75 % 1006,9 hPa 0,0 l/m 4,8 km/h (1 Bft) O 101 0 min 0,000 mm 0,0 UV-I 0 W/m 8,3 C 12,6 C 6,4 km/h (2 Bft) 96,30 %
09.05.2018 00:40 12,6 C 18,3 C 76 % 1006,9 hPa 0,0 l/m 5,4 km/h (1 Bft) NO 52 0 min 0,000 mm 0,0 UV-I 0 W/m 8,5 C 12,6 C 9,7 km/h (2 Bft) 95,65 %
09.05.2018 00:41 12,6 C 18,3 C 75 % 1006,9 hPa 0,0 l/m 5,7 km/h (1 Bft) O-NO 73 0 min 0,000 mm 0,0 UV-I 0 W/m 8,3 C 12,6 C 6,4 km/h (2 Bft) 95,83 %
09.05.2018 00:42 12,6 C 18,3 C 76 % 1006,9 hPa 0,0 l/m 4,3 km/h (1 Bft) O-NO 76 0 min 0,000 mm 0,0 UV-I 0 W/m 8,5 C 12,6 C 6,4 km/h (2 Bft) 100,00 %
09.05.2018 00:43 12,6 C 18,3 C 76 % 1006,9 hPa 0,0 l/m 4,0 km/h (1 Bft) O-NO 78 0 min 0,000 mm 0,0 UV-I 0 W/m 8,5 C 12,6 C 6,4 km/h (2 Bft) 100,00 %
09.05.2018 00:44 12,5 C 18,3 C 76 % 1006,9 hPa 0,0 l/m 4,1 km/h (1 Bft) O 82 0 min 0,000 mm 0,0 UV-I 0 W/m 8,4 C 12,5 C 8,0 km/h (2 Bft) 100,00 %
09.05.2018 00:45 12,4 C 18,3 C 76 % 1006,9 hPa 0,0 l/m 4,8 km/h (1 Bft) O-SO 102 0 min 0,000 mm 0,0 UV-I 0 W/m 8,3 C 12,4 C 9,7 km/h (2 Bft) 100,00 %
09.05.2018 00:46 12,3 C 18,3 C 76 % 1007,0 hPa 0,0 l/m 6,8 km/h (2 Bft) O-SO 102 0 min 0,000 mm 0,0 UV-I 0 W/m 8,2 C 12,0 C 9,7 km/h (2 Bft) 95,65 %
09.05.2018 00:47 12,2 C 18,3 C 77 % 1006,9 hPa 0,0 l/m 6,9 km/h (2 Bft) O 84 0 min 0,000 mm 0,0 UV-I 0 W/m 8,3 C 11,9 C 11,3 km/h (2 Bft) 100,00 %
09.05.2018 00:48 12,2 C 18,3 C 77 % 1006,9 hPa 0,0 l/m 8,2 km/h (2 Bft) O 88 0 min 0,000 mm 0,0 UV-I 0 W/m 8,3 C 11,0 C 11,3 km/h (2 Bft) 91,30 %
09.05.2018 00:49 12,1 C 18,9 C 78 % 1006,9 hPa 0,0 l/m 8,4 km/h (2 Bft) O 96 0 min 0,000 mm 0,0 UV-I 0 W/m 8,4 C 10,8 C 16,1 km/h (3 Bft) 100,00 %
09.05.2018 00:50 12,1 C 18,9 C 78 % 1007,0 hPa 0,0 l/m 10,7 km/h (2 Bft) O 85 0 min 0,000 mm 0,0 UV-I 0 W/m 8,4 C 9,6 C 14,5 km/h (3 Bft) 86,96 %
09.05.2018 00:51 12,1 C 18,9 C 78 % 1006,9 hPa 0,0 l/m 10,3 km/h (2 Bft) O-SO 115 0 min 0,000 mm 0,0 UV-I 0 W/m 8,4 C 9,8 C 12,9 km/h (3 Bft) 96,30 %
09.05.2018 00:52 12,1 C 18,9 C 78 % 1006,9 hPa 0,0 l/m 9,6 km/h (2 Bft) O 85 0 min 0,000 mm 0,0 UV-I 0 W/m 8,4 C 10,1 C 12,9 km/h (3 Bft) 100,00 %
09.05.2018 00:53 12,1 C 18,3 C 78 % 1006,9 hPa 0,0 l/m 8,4 km/h (2 Bft) O-NO 74 0 min 0,000 mm 0,0 UV-I 0 W/m 8,4 C 10,8 C 11,3 km/h (2 Bft) 96,15 %
09.05.2018 00:54 12,1 C 18,3 C 79 % 1006,9 hPa 0,0 l/m 7,7 km/h (2 Bft) O-NO 68 0 min 0,000 mm 0,0 UV-I 0 W/m 8,6 C 11,2 C 12,9 km/h (3 Bft) 95,83 %
09.05.2018 00:55 12,1 C 18,3 C 79 % 1006,9 hPa 0,0 l/m 9,7 km/h (2 Bft) O 96 0 min 0,000 mm 0,0 UV-I 0 W/m 8,6 C 10,1 C 12,9 km/h (3 Bft) 88,46 %
09.05.2018 00:56 12,1 C 18,3 C 79 % 1006,9 hPa 0,0 l/m 8,0 km/h (2 Bft) O 98 0 min 0,000 mm 0,0 UV-I 0 W/m 8,6 C 11,1 C 11,3 km/h (2 Bft) 93,33 %
09.05.2018 00:57 12,1 C 18,3 C 79 % 1006,9 hPa 0,0 l/m 7,8 km/h (2 Bft) O 80 0 min 0,000 mm 0,0 UV-I 0 W/m 8,6 C 11,2 C 11,3 km/h (2 Bft) 96,15 %
09.05.2018 00:58 12,1 C 18,3 C 79 % 1006,9 hPa 0,0 l/m 9,2 km/h (2 Bft) O-SO 106 0 min 0,000 mm 0,0 UV-I 0 W/m 8,6 C 10,3 C 12,9 km/h (3 Bft) 100,00 %
09.05.2018 00:59 12,1 C 18,3 C 79 % 1006,9 hPa 0,0 l/m 7,3 km/h (2 Bft) O 88 0 min 0,000 mm 0,0 UV-I 0 W/m 8,6 C 11,5 C 11,3 km/h (2 Bft) 95,65 %
09.05.2018 01:00 12,1 C 18,3 C 80 % 1006,9 hPa 0,0 l/m 8,4 km/h (2 Bft) O 82 0 min 0,025 mm 0,0 UV-I 0 W/m 8,8 C 10,8 C 12,9 km/h (3 Bft) 100,00 %
09.05.2018 01:01 12,1 C 18,3 C 80 % 1006,9 hPa 0,0 l/m 9,3 km/h (2 Bft) O 89 0 min 0,000 mm 0,0 UV-I 0 W/m 8,8 C 10,3 C 11,3 km/h (2 Bft) 86,96 %
09.05.2018 01:02 12,1 C 18,3 C 80 % 1006,9 hPa 0,0 l/m 8,5 km/h (2 Bft) O-NO 78 0 min 0,000 mm 0,0 UV-I 0 W/m 8,8 C 10,8 C 11,3 km/h (2 Bft) 96,30 %
09.05.2018 01:03 12,1 C 18,3 C 80 % 1006,9 hPa 0,0 l/m 8,4 km/h (2 Bft) O-NO 73 0 min 0,000 mm 0,0 UV-I 0 W/m 8,8 C 10,8 C 11,3 km/h (2 Bft) 96,15 %
09.05.2018 01:04 12,1 C 18,3 C 80 % 1006,9 hPa 0,0 l/m 6,4 km/h (2 Bft) O 82 0 min 0,000 mm 0,0 UV-I 0 W/m 8,8 C 12,1 C 8,0 km/h (2 Bft) 95,83 %
09.05.2018 01:05 12,1 C 18,3 C 80 % 1006,9 hPa 0,0 l/m 5,0 km/h (1 Bft) O 86 0 min 0,000 mm 0,0 UV-I 0 W/m 8,8 C 12,1 C 6,4 km/h (2 Bft) 100,00 %
09.05.2018 01:06 12,1 C 18,3 C 80 % 1006,8 hPa 0,0 l/m 5,7 km/h (1 Bft) O 91 0 min 0,000 mm 0,0 UV-I 0 W/m 8,8 C 12,1 C 9,7 km/h (2 Bft) 95,83 %
09.05.2018 01:07 12,0 C 18,3 C 80 % 1006,8 hPa 0,0 l/m 5,6 km/h (1 Bft) O-NO 76 0 min 0,000 mm 0,0 UV-I 0 W/m 8,7 C 12,0 C 8,0 km/h (2 Bft) 96,15 %
09.05.2018 01:08 11,9 C 18,3 C 80 % 1006,8 hPa 0,0 l/m 3,8 km/h (1 Bft) O 79 0 min 0,000 mm 0,0 UV-I 0 W/m 8,6 C 11,9 C 6,4 km/h (2 Bft) 95,83 %
09.05.2018 01:09 11,9 C 18,3 C 80 % 1006,8 hPa 0,0 l/m 7,2 km/h (2 Bft) O-NO 69 0 min 0,000 mm 0,0 UV-I 0 W/m 8,6 C 11,4 C 11,3 km/h (2 Bft) 95,65 %
09.05.2018 01:10 11,8 C 18,3 C 80 % 1006,8 hPa 0,0 l/m 6,1 km/h (2 Bft) O-NO 74 0 min 0,000 mm 0,0 UV-I 0 W/m 8,5 C 11,8 C 8,0 km/h (2 Bft) 94,44 %
09.05.2018 01:11 11,7 C 18,3 C 81 % 1006,8 hPa 0,0 l/m 7,2 km/h (2 Bft) NO 53 0 min 0,000 mm 0,0 UV-I 0 W/m 8,5 C 11,2 C 11,3 km/h (2 Bft) 92,31 %
09.05.2018 01:12 11,8 C 18,3 C 82 % 1006,8 hPa 0,0 l/m 5,9 km/h (2 Bft) O-NO 75 0 min 0,000 mm 0,0 UV-I 0 W/m 8,8 C 11,8 C 8,0 km/h (2 Bft) 95,83 %
09.05.2018 01:13 11,8 C 18,3 C 82 % 1006,8 hPa 0,0 l/m 6,3 km/h (2 Bft) O 83 0 min 0,000 mm 0,0 UV-I 0 W/m 8,8 C 11,8 C 11,3 km/h (2 Bft) 91,30 %
09.05.2018 01:14 11,8 C 18,3 C 82 % 1006,8 hPa 0,0 l/m 8,4 km/h (2 Bft) O-NO 73 0 min 0,000 mm 0,0 UV-I 0 W/m 8,8 C 10,5 C 12,9 km/h (3 Bft) 91,67 %
09.05.2018 01:15 11,8 C 18,3 C 82 % 1006,8 hPa 0,0 l/m 8,6 km/h (2 Bft) O-NO 77 0 min 0,000 mm 0,0 UV-I 0 W/m 8,8 C 10,4 C 11,3 km/h (2 Bft) 100,00 %
09.05.2018 01:16 11,8 C 18,3 C 82 % 1006,8 hPa 0,0 l/m 8,2 km/h (2 Bft) NO 55 0 min 0,000 mm 0,0 UV-I 0 W/m 8,8 C 10,6 C 12,9 km/h (3 Bft) 96,15 %
09.05.2018 01:17 11,8 C 18,3 C 82 % 1006,8 hPa 0,0 l/m 9,3 km/h (2 Bft) O 82 0 min 0,000 mm 0,0 UV-I 0 W/m 8,8 C 10,0 C 12,9 km/h (3 Bft) 95,83 %
09.05.2018 01:18 11,8 C 18,3 C 82 % 1006,7 hPa 0,0 l/m 10,5 km/h (2 Bft) O-NO 67 0 min 0,000 mm 0,0 UV-I 0 W/m 8,8 C 9,3 C 14,5 km/h (3 Bft) 91,30 %
09.05.2018 01:19 11,8 C 18,3 C 82 % 1006,7 hPa 0,0 l/m 8,8 km/h (2 Bft) O 87 0 min 0,000 mm 0,0 UV-I 0 W/m 8,8 C 10,3 C 12,9 km/h (3 Bft) 95,83 %
09.05.2018 01:20 11,8 C 18,3 C 82 % 1006,7 hPa 0,0 l/m 8,6 km/h (2 Bft) O-NO 75 0 min 0,000 mm 0,0 UV-I 0 W/m 8,8 C 10,4 C 12,9 km/h (3 Bft) 95,65 %
09.05.2018 01:21 11,8 C 18,3 C 82 % 1006,7 hPa 0,0 l/m 7,1 km/h (2 Bft) O-NO 78 0 min 0,000 mm 0,0 UV-I 0 W/m 8,8 C 11,3 C 12,9 km/h (3 Bft) 91,67 %
09.05.2018 01:22 11,8 C 18,3 C 82 % 1006,6 hPa 0,0 l/m 5,5 km/h (1 Bft) O-NO 59 0 min 0,000 mm 0,0 UV-I 0 W/m 8,8 C 11,8 C 6,4 km/h (2 Bft) 95,65 %
09.05.2018 01:23 11,8 C 18,3 C 82 % 1006,6 hPa 0,0 l/m 7,6 km/h (2 Bft) O-NO 63 0 min 0,000 mm 0,0 UV-I 0 W/m 8,8 C 11,0 C 12,9 km/h (3 Bft) 95,83 %
09.05.2018 01:24 11,8 C 18,3 C 82 % 1006,6 hPa 0,0 l/m 7,8 km/h (2 Bft) O-NO 63 0 min 0,000 mm 0,0 UV-I 0 W/m 8,8 C 10,9 C 12,9 km/h (3 Bft) 95,83 %
09.05.2018 01:25 11,8 C 18,3 C 83 % 1006,7 hPa 0,0 l/m 7,0 km/h (2 Bft) O 80 0 min 0,000 mm 0,0 UV-I 0 W/m 9,0 C 11,4 C 11,3 km/h (2 Bft) 91,67 %
09.05.2018 01:26 11,8 C 18,3 C 82 % 1006,6 hPa 0,0 l/m 6,5 km/h (2 Bft) O 97 0 min 0,000 mm 0,0 UV-I 0 W/m 8,8 C 11,8 C 9,7 km/h (2 Bft) 95,65 %
09.05.2018 01:27 11,8 C 18,3 C 83 % 1006,6 hPa 0,0 l/m 5,1 km/h (1 Bft) O 84 0 min 0,000 mm 0,0 UV-I 0 W/m 9,0 C 11,8 C 8,0 km/h (2 Bft) 91,67 %
09.05.2018 01:28 11,8 C 18,3 C 82 % 1006,6 hPa 0,0 l/m 5,0 km/h (1 Bft) O 87 0 min 0,000 mm 0,0 UV-I 0 W/m 8,8 C 11,8 C 6,4 km/h (2 Bft) 95,65 %
09.05.2018 01:29 11,7 C 18,3 C 83 % 1006,6 hPa 0,0 l/m 6,8 km/h (2 Bft) O-NO 68 0 min 0,000 mm 0,0 UV-I 0 W/m 8,9 C 11,4 C 11,3 km/h (2 Bft) 95,83 %
09.05.2018 01:30 11,7 C 18,3 C 83 % 1006,6 hPa 0,0 l/m 5,8 km/h (2 Bft) O-NO 74 0 min 0,000 mm 0,0 UV-I 0 W/m 8,9 C 11,7 C 9,7 km/h (2 Bft) 91,67 %
09.05.2018 01:31 11,6 C 18,3 C 83 % 1006,6 hPa 0,0 l/m 6,3 km/h (2 Bft) O-NO 72 0 min 0,000 mm 0,0 UV-I 0 W/m 8,8 C 11,6 C 8,0 km/h (2 Bft) 91,30 %
09.05.2018 01:32 11,6 C 18,3 C 84 % 1006,6 hPa 0,0 l/m 5,5 km/h (1 Bft) O-NO 69 0 min 0,000 mm 0,0 UV-I 0 W/m 9,0 C 11,6 C 8,0 km/h (2 Bft) 96,00 %
09.05.2018 01:33 11,6 C 18,3 C 84 % 1006,6 hPa 0,0 l/m 6,8 km/h (2 Bft) O-NO 57 0 min 0,000 mm 0,0 UV-I 0 W/m 9,0 C 11,3 C 9,7 km/h (2 Bft) 95,65 %
09.05.2018 01:34 11,6 C 18,3 C 84 % 1006,6 hPa 0,0 l/m 4,6 km/h (1 Bft) O 81 0 min 0,000 mm 0,0 UV-I 0 W/m 9,0 C 11,6 C 6,4 km/h (2 Bft) 91,67 %
09.05.2018 01:35 11,6 C 18,3 C 84 % 1006,6 hPa 0,0 l/m 5,1 km/h (1 Bft) O-NO 76 0 min 0,000 mm 0,0 UV-I 0 W/m 9,0 C 11,6 C 6,4 km/h (2 Bft) 100,00 %
09.05.2018 01:36 11,5 C 18,3 C 84 % 1006,5 hPa 0,0 l/m 4,4 km/h (1 Bft) O 99 0 min 0,000 mm 0,0 UV-I 0 W/m 8,9 C 11,5 C 6,4 km/h (2 Bft) 91,67 %
09.05.2018 01:37 11,5 C 18,3 C 84 % 1006,5 hPa 0,0 l/m 3,0 km/h (1 Bft) O-NO 61 0 min 0,000 mm 0,0 UV-I 0 W/m 8,9 C 11,5 C 6,4 km/h (2 Bft) 100,00 %
09.05.2018 01:38 11,5 C 18,3 C 84 % 1006,5 hPa 0,0 l/m 2,9 km/h (1 Bft) O-NO 63 0 min 0,000 mm 0,0 UV-I 0 W/m 8,9 C 11,5 C 4,8 km/h (1 Bft) 91,67 %
09.05.2018 01:39 11,5 C 18,3 C 84 % 1006,5 hPa 0,0 l/m 3,0 km/h (1 Bft) O-SO 105 0 min 0,000 mm 0,0 UV-I 0 W/m 8,9 C 11,5 C 3,2 km/h (1 Bft) 95,65 %
09.05.2018 01:40 11,4 C 18,3 C 84 % 1006,5 hPa 0,0 l/m 4,4 km/h (1 Bft) O 90 0 min 0,000 mm 0,0 UV-I 0 W/m 8,8 C 11,4 C 4,8 km/h (1 Bft) 95,83 %
09.05.2018 01:41 11,4 C 18,3 C 85 % 1006,5 hPa 0,0 l/m 3,1 km/h (1 Bft) O-NO 71 0 min 0,000 mm 0,0 UV-I 0 W/m 9,0 C 11,4 C 4,8 km/h (1 Bft) 91,30 %
09.05.2018 01:42 11,4 C 18,3 C 85 % 1006,5 hPa 0,0 l/m 4,6 km/h (1 Bft) O-NO 78 0 min 0,000 mm 0,0 UV-I 0 W/m 9,0 C 11,4 C 6,4 km/h (2 Bft) 100,00 %
09.05.2018 01:43 11,4 C 18,3 C 85 % 1006,5 hPa 0,0 l/m 5,0 km/h (1 Bft) O 86 0 min 0,000 mm 0,0 UV-I 0 W/m 9,0 C 11,4 C 8,0 km/h (2 Bft) 91,30 %
09.05.2018 01:44 11,4 C 18,3 C 85 % 1006,5 hPa 0,0 l/m 3,4 km/h (1 Bft) O 81 0 min 0,000 mm 0,0 UV-I 0 W/m 9,0 C 11,4 C 4,8 km/h (1 Bft) 95,83 %
09.05.2018 01:45 11,3 C 18,3 C 85 % 1006,5 hPa 0,0 l/m 3,3 km/h (1 Bft) O-NO 65 0 min 0,000 mm 0,0 UV-I 0 W/m 8,9 C 11,3 C 4,8 km/h (1 Bft) 91,30 %
09.05.2018 01:46 11,3 C 18,3 C 85 % 1006,5 hPa 0,0 l/m 5,4 km/h (1 Bft) O 88 0 min 0,000 mm 0,0 UV-I 0 W/m 8,9 C 11,3 C 9,7 km/h (2 Bft) 100,00 %
09.05.2018 01:47 11,3 C 18,3 C 85 % 1006,5 hPa 0,0 l/m 5,5 km/h (1 Bft) O 82 0 min 0,000 mm 0,0 UV-I 0 W/m 8,9 C 11,3 C 8,0 km/h (2 Bft) 95,65 %
09.05.2018 01:48 11,3 C 18,3 C 85 % 1006,5 hPa 0,0 l/m 5,7 km/h (1 Bft) O-NO 64 0 min 0,000 mm 0,0 UV-I 0 W/m 8,9 C 11,3 C 12,9 km/h (3 Bft) 100,00 %
09.05.2018 01:49 11,4 C 18,3 C 85 % 1006,5 hPa 0,0 l/m 3,8 km/h (1 Bft) O-NO 74 0 min 0,000 mm 0,0 UV-I 0 W/m 9,0 C 11,4 C 4,8 km/h (1 Bft) 100,00 %
09.05.2018 01:50 11,3 C 18,3 C 85 % 1006,5 hPa 0,0 l/m 5,9 km/h (2 Bft) O-NO 69 0 min 0,000 mm 0,0 UV-I 0 W/m 8,9 C 11,3 C 9,7 km/h (2 Bft) 96,00 %
09.05.2018 01:51 11,3 C 18,3 C 85 % 1006,5 hPa 0,0 l/m 4,3 km/h (1 Bft) O-NO 70 0 min 0,000 mm 0,0 UV-I 0 W/m 8,9 C 11,3 C 6,4 km/h (2 Bft) 100,00 %
09.05.2018 01:52 11,3 C 18,3 C 85 % 1006,4 hPa 0,0 l/m 6,4 km/h (2 Bft) NO 46 0 min 0,000 mm 0,0 UV-I 0 W/m 8,9 C 11,3 C 11,3 km/h (2 Bft) 100,00 %
09.05.2018 01:53 11,3 C 18,3 C 85 % 1006,4 hPa 0,0 l/m 6,2 km/h (2 Bft) O-NO 62 0 min 0,000 mm 0,0 UV-I 0 W/m 8,9 C 11,3 C 8,0 km/h (2 Bft) 100,00 %
09.05.2018 01:54 11,3 C 18,3 C 85 % 1006,5 hPa 0,0 l/m 5,3 km/h (1 Bft) NO 41 0 min 0,000 mm 0,0 UV-I 0 W/m 8,9 C 11,3 C 8,0 km/h (2 Bft) 91,30 %
09.05.2018 01:55 11,3 C 18,3 C 85 % 1006,4 hPa 0,0 l/m 8,0 km/h (2 Bft) NO 55 0 min 0,000 mm 0,0 UV-I 0 W/m 8,9 C 10,2 C 9,7 km/h (2 Bft) 100,00 %
09.05.2018 01:56 11,3 C 18,3 C 85 % 1006,4 hPa 0,0 l/m 6,8 km/h (2 Bft) O 81 0 min 0,000 mm 0,0 UV-I 0 W/m 8,9 C 11,0 C 11,3 km/h (2 Bft) 100,00 %
09.05.2018 01:57 11,3 C 18,3 C 85 % 1006,4 hPa 0,0 l/m 6,8 km/h (2 Bft) O-NO 74 0 min 0,000 mm 0,0 UV-I 0 W/m 8,9 C 11,0 C 9,7 km/h (2 Bft) 100,00 %
09.05.2018 01:58 11,4 C 18,3 C 85 % 1006,4 hPa 0,0 l/m 5,6 km/h (1 Bft) O-NO 68 0 min 0,000 mm 0,0 UV-I 0 W/m 9,0 C 11,4 C 8,0 km/h (2 Bft) 100,00 %
09.05.2018 01:59 11,4 C 18,3 C 85 % 1006,4 hPa 0,0 l/m 6,7 km/h (2 Bft) O-NO 69 0 min 0,000 mm 0,0 UV-I 0 W/m 9,0 C 11,2 C 9,7 km/h (2 Bft) 100,00 %
09.05.2018 02:00 11,4 C 18,3 C 84 % 1006,4 hPa 0,0 l/m 6,2 km/h (2 Bft) O 85 0 min 0,026 mm 0,0 UV-I 0 W/m 8,8 C 11,4 C 8,0 km/h (2 Bft) 100,00 %
09.05.2018 02:01 11,4 C 18,3 C 84 % 1006,4 hPa 0,0 l/m 7,8 km/h (2 Bft) O-NO 69 0 min 0,000 mm 0,0 UV-I 0 W/m 8,8 C 10,5 C 12,9 km/h (3 Bft) 100,00 %
09.05.2018 02:02 11,4 C 18,3 C 84 % 1006,4 hPa 0,0 l/m 6,8 km/h (2 Bft) O-NO 76 0 min 0,000 mm 0,0 UV-I 0 W/m 8,8 C 11,1 C 9,7 km/h (2 Bft) 100,00 %
09.05.2018 02:03 11,4 C 18,3 C 84 % 1006,3 hPa 0,0 l/m 9,5 km/h (2 Bft) O 80 0 min 0,000 mm 0,0 UV-I 0 W/m 8,8 C 9,4 C 12,9 km/h (3 Bft) 100,00 %
09.05.2018 02:04 11,4 C 18,3 C 84 % 1006,3 hPa 0,0 l/m 7,8 km/h (2 Bft) O-NO 69 0 min 0,000 mm 0,0 UV-I 0 W/m 8,8 C 10,5 C 11,3 km/h (2 Bft) 100,00 %
09.05.2018 02:05 11,3 C 18,3 C 84 % 1006,3 hPa 0,0 l/m 6,9 km/h (2 Bft) O 80 0 min 0,000 mm 0,0 UV-I 0 W/m 8,7 C 11,0 C 9,7 km/h (2 Bft) 95,83 %
09.05.2018 02:06 11,3 C 18,3 C 84 % 1006,3 hPa 0,0 l/m 6,7 km/h (2 Bft) O 84 0 min 0,000 mm 0,0 UV-I 0 W/m 8,7 C 11,1 C 9,7 km/h (2 Bft) 95,83 %
09.05.2018 02:07 11,3 C 18,3 C 84 % 1006,3 hPa 0,0 l/m 8,4 km/h (2 Bft) O 83 0 min 0,000 mm 0,0 UV-I 0 W/m 8,7 C 10,0 C 12,9 km/h (3 Bft) 100,00 %
09.05.2018 02:08 11,3 C 18,3 C 84 % 1006,3 hPa 0,0 l/m 9,1 km/h (2 Bft) O 85 0 min 0,000 mm 0,0 UV-I 0 W/m 8,7 C 9,5 C 12,9 km/h (3 Bft) 100,00 %
09.05.2018 02:09 11,2 C 18,3 C 84 % 1006,3 hPa 0,0 l/m 8,3 km/h (2 Bft) O 93 0 min 0,000 mm 0,0 UV-I 0 W/m 8,6 C 9,9 C 12,9 km/h (3 Bft) 100,00 %
09.05.2018 02:10 11,2 C 18,3 C 84 % 1006,3 hPa 0,0 l/m 9,5 km/h (2 Bft) O-NO 78 0 min 0,000 mm 0,0 UV-I 0 W/m 8,6 C 9,2 C 12,9 km/h (3 Bft) 100,00 %
09.05.2018 02:11 11,2 C 18,3 C 84 % 1006,3 hPa 0,0 l/m 7,1 km/h (2 Bft) O-SO 113 0 min 0,000 mm 0,0 UV-I 0 W/m 8,6 C 10,7 C 11,3 km/h (2 Bft) 100,00 %
09.05.2018 02:12 11,2 C 18,3 C 84 % 1006,3 hPa 0,0 l/m 11,2 km/h (2 Bft) O-NO 64 0 min 0,000 mm 0,0 UV-I 0 W/m 8,6 C 8,3 C 14,5 km/h (3 Bft) 100,00 %
09.05.2018 02:13 11,2 C 18,3 C 85 % 1006,3 hPa 0,0 l/m 7,8 km/h (2 Bft) O 89 0 min 0,000 mm 0,0 UV-I 0 W/m 8,8 C 10,2 C 11,3 km/h (2 Bft) 100,00 %
09.05.2018 02:14 11,2 C 18,3 C 85 % 1006,3 hPa 0,0 l/m 9,3 km/h (2 Bft) O-NO 71 0 min 0,000 mm 0,0 UV-I 0 W/m 8,8 C 9,3 C 14,5 km/h (3 Bft) 100,00 %
09.05.2018 02:15 11,2 C 18,3 C 85 % 1006,3 hPa 0,0 l/m 12,3 km/h (3 Bft) O-NO 67 0 min 0,000 mm 0,0 UV-I 0 W/m 8,8 C 7,8 C 16,1 km/h (3 Bft) 100,00 %
09.05.2018 02:16 11,2 C 18,3 C 85 % 1006,3 hPa 0,0 l/m 12,3 km/h (3 Bft) O-NO 62 0 min 0,000 mm 0,0 UV-I 0 W/m 8,8 C 7,8 C 16,1 km/h (3 Bft) 100,00 %
09.05.2018 02:17 11,2 C 18,3 C 84 % 1006,3 hPa 0,0 l/m 12,2 km/h (2 Bft) O-NO 68 0 min 0,000 mm 0,0 UV-I 0 W/m 8,6 C 7,8 C 16,1 km/h (3 Bft) 100,00 %
09.05.2018 02:18 11,3 C 18,3 C 84 % 1006,2 hPa 0,0 l/m 12,0 km/h (2 Bft) O-NO 74 0 min 0,000 mm 0,0 UV-I 0 W/m 8,7 C 8,0 C 16,1 km/h (3 Bft) 100,00 %
09.05.2018 02:19 11,3 C 18,3 C 84 % 1006,2 hPa 0,0 l/m 10,7 km/h (2 Bft) NO 53 0 min 0,000 mm 0,0 UV-I 0 W/m 8,7 C 8,7 C 14,5 km/h (3 Bft) 100,00 %
09.05.2018 02:20 11,4 C 18,3 C 84 % 1006,2 hPa 0,0 l/m 9,9 km/h (2 Bft) O-NO 74 0 min 0,000 mm 0,0 UV-I 0 W/m 8,8 C 9,2 C 12,9 km/h (3 Bft) 100,00 %
09.05.2018 02:21 11,4 C 18,3 C 84 % 1006,2 hPa 0,0 l/m 12,8 km/h (3 Bft) O 94 0 min 0,000 mm 0,0 UV-I 0 W/m 8,8 C 7,8 C 16,1 km/h (3 Bft) 100,00 %
09.05.2018 02:22 11,4 C 18,3 C 83 % 1006,2 hPa 0,0 l/m 9,7 km/h (2 Bft) O-NO 76 0 min 0,000 mm 0,0 UV-I 0 W/m 8,6 C 9,3 C 14,5 km/h (3 Bft) 100,00 %
09.05.2018 02:23 11,4 C 18,3 C 83 % 1006,2 hPa 0,0 l/m 7,8 km/h (2 Bft) O-NO 76 0 min 0,000 mm 0,0 UV-I 0 W/m 8,6 C 10,5 C 11,3 km/h (2 Bft) 100,00 %
09.05.2018 02:24 11,4 C 18,3 C 83 % 1006,2 hPa 0,0 l/m 8,8 km/h (2 Bft) NO 50 0 min 0,000 mm 0,0 UV-I 0 W/m 8,6 C 9,8 C 12,9 km/h (3 Bft) 100,00 %
09.05.2018 02:25 11,4 C 18,3 C 83 % 1006,2 hPa 0,0 l/m 9,4 km/h (2 Bft) O-NO 71 0 min 0,000 mm 0,0 UV-I 0 W/m 8,6 C 9,5 C 14,5 km/h (3 Bft) 100,00 %
09.05.2018 02:26 11,4 C 18,3 C 83 % 1006,2 hPa 0,0 l/m 12,1 km/h (2 Bft) O-NO 67 0 min 0,000 mm 0,0 UV-I 0 W/m 8,6 C 8,1 C 16,1 km/h (3 Bft) 100,00 %
09.05.2018 02:27 11,3 C 18,3 C 84 % 1006,2 hPa 0,0 l/m 11,8 km/h (2 Bft) NO 48 0 min 0,000 mm 0,0 UV-I 0 W/m 8,7 C 8,1 C 17,7 km/h (3 Bft) 100,00 %
09.05.2018 02:28 11,3 C 18,3 C 84 % 1006,2 hPa 0,0 l/m 11,9 km/h (2 Bft) NO 44 0 min 0,000 mm 0,0 UV-I 0 W/m 8,7 C 8,1 C 14,5 km/h (3 Bft) 100,00 %
09.05.2018 02:29 11,3 C 18,3 C 84 % 1006,2 hPa 0,0 l/m 10,8 km/h (2 Bft) NO 36 0 min 0,000 mm 0,0 UV-I 0 W/m 8,7 C 8,6 C 14,5 km/h (3 Bft) 95,65 %
09.05.2018 02:30 11,3 C 18,3 C 84 % 1006,2 hPa 0,0 l/m 10,7 km/h (2 Bft) O-NO 58 0 min 0,000 mm 0,0 UV-I 0 W/m 8,7 C 8,7 C 14,5 km/h (3 Bft) 100,00 %
09.05.2018 02:31 11,3 C 18,3 C 84 % 1006,2 hPa 0,0 l/m 9,5 km/h (2 Bft) O-NO 77 0 min 0,000 mm 0,0 UV-I 0 W/m 8,7 C 9,3 C 14,5 km/h (3 Bft) 91,67 %
09.05.2018 02:32 11,3 C 18,3 C 84 % 1006,2 hPa 0,0 l/m 10,1 km/h (2 Bft) O-NO 59 0 min 0,000 mm 0,0 UV-I 0 W/m 8,7 C 9,0 C 14,5 km/h (3 Bft) 96,30 %
09.05.2018 02:33 11,3 C 18,3 C 84 % 1006,2 hPa 0,0 l/m 9,2 km/h (2 Bft) O-NO 57 0 min 0,000 mm 0,0 UV-I 0 W/m 8,7 C 9,5 C 12,9 km/h (3 Bft) 100,00 %
09.05.2018 02:34 11,3 C 18,3 C 84 % 1006,2 hPa 0,0 l/m 10,5 km/h (2 Bft) O-NO 61 0 min 0,000 mm 0,0 UV-I 0 W/m 8,7 C 8,8 C 14,5 km/h (3 Bft) 95,65 %
09.05.2018 02:35 11,3 C 18,3 C 84 % 1006,2 hPa 0,0 l/m 10,5 km/h (2 Bft) O-NO 62 0 min 0,000 mm 0,0 UV-I 0 W/m 8,7 C 8,8 C 16,1 km/h (3 Bft) 100,00 %
09.05.2018 02:36 11,2 C 18,3 C 84 % 1006,2 hPa 0,0 l/m 9,5 km/h (2 Bft) N-NO 28 0 min 0,000 mm 0,0 UV-I 0 W/m 8,6 C 9,2 C 14,5 km/h (3 Bft) 100,00 %
09.05.2018 02:37 11,2 C 18,3 C 84 % 1006,2 hPa 0,0 l/m 11,2 km/h (2 Bft) O-NO 59 0 min 0,000 mm 0,0 UV-I 0 W/m 8,6 C 8,3 C 16,1 km/h (3 Bft) 100,00 %
09.05.2018 02:38 11,2 C 18,3 C 84 % 1006,2 hPa 0,0 l/m 12,5 km/h (3 Bft) O-NO 61 0 min 0,000 mm 0,0 UV-I 0 W/m 8,6 C 7,7 C 16,1 km/h (3 Bft) 100,00 %
09.05.2018 02:39 11,2 C 18,3 C 84 % 1006,2 hPa 0,0 l/m 11,3 km/h (2 Bft) NO 46 0 min 0,000 mm 0,0 UV-I 0 W/m 8,6 C 8,2 C 16,1 km/h (3 Bft) 96,67 %
09.05.2018 02:40 11,2 C 18,3 C 84 % 1006,2 hPa 0,0 l/m 10,1 km/h (2 Bft) NO 54 0 min 0,000 mm 0,0 UV-I 0 W/m 8,6 C 8,9 C 17,7 km/h (3 Bft) 100,00 %
09.05.2018 02:41 11,3 C 18,3 C 84 % 1006,2 hPa 0,0 l/m 8,3 km/h (2 Bft) O-NO 71 0 min 0,000 mm 0,0 UV-I 0 W/m 8,7 C 10,0 C 11,3 km/h (2 Bft) 95,83 %
09.05.2018 02:42 11,3 C 18,3 C 83 % 1006,2 hPa 0,0 l/m 7,9 km/h (2 Bft) O-NO 71 0 min 0,000 mm 0,0 UV-I 0 W/m 8,5 C 10,3 C 9,7 km/h (2 Bft) 100,00 %
09.05.2018 02:43 11,3 C 18,3 C 83 % 1006,2 hPa 0,0 l/m 8,3 km/h (2 Bft) O-NO 78 0 min 0,000 mm 0,0 UV-I 0 W/m 8,5 C 10,0 C 11,3 km/h (2 Bft) 100,00 %
09.05.2018 02:44 11,3 C 18,3 C 83 % 1006,1 hPa 0,0 l/m 8,3 km/h (2 Bft) NO 40 0 min 0,000 mm 0,0 UV-I 0 W/m 8,5 C 10,0 C 11,3 km/h (2 Bft) 100,00 %
09.05.2018 02:45 11,3 C 18,3 C 83 % 1006,1 hPa 0,0 l/m 8,4 km/h (2 Bft) O-NO 76 0 min 0,000 mm 0,0 UV-I 0 W/m 8,5 C 10,0 C 11,3 km/h (2 Bft) 100,00 %
09.05.2018 02:46 11,3 C 18,3 C 83 % 1006,1 hPa 0,0 l/m 9,1 km/h (2 Bft) O-NO 63 0 min 0,000 mm 0,0 UV-I 0 W/m 8,5 C 9,5 C 12,9 km/h (3 Bft) 100,00 %
09.05.2018 02:47 11,2 C 18,3 C 83 % 1006,1 hPa 0,0 l/m 7,6 km/h (2 Bft) O-NO 67 0 min 0,000 mm 0,0 UV-I 0 W/m 8,4 C 10,4 C 11,3 km/h (2 Bft) 95,65 %
09.05.2018 02:48 11,2 C 18,3 C 83 % 1006,1 hPa 0,0 l/m 6,8 km/h (2 Bft) NO 56 0 min 0,000 mm 0,0 UV-I 0 W/m 8,4 C 10,9 C 8,0 km/h (2 Bft) 100,00 %
09.05.2018 02:49 11,2 C 18,3 C 83 % 1006,1 hPa 0,0 l/m 8,9 km/h (2 Bft) O-NO 60 0 min 0,000 mm 0,0 UV-I 0 W/m 8,4 C 9,6 C 12,9 km/h (3 Bft) 100,00 %
09.05.2018 02:50 11,1 C 18,3 C 83 % 1006,1 hPa 0,0 l/m 9,9 km/h (2 Bft) NO 41 0 min 0,000 mm 0,0 UV-I 0 W/m 8,3 C 8,9 C 12,9 km/h (3 Bft) 100,00 %
09.05.2018 02:51 11,1 C 18,3 C 83 % 1006,1 hPa 0,0 l/m 8,9 km/h (2 Bft) NO 53 0 min 0,000 mm 0,0 UV-I 0 W/m 8,3 C 9,4 C 11,3 km/h (2 Bft) 100,00 %
09.05.2018 02:52 11,0 C 18,3 C 84 % 1006,1 hPa 0,0 l/m 9,3 km/h (2 Bft) NO 40 0 min 0,000 mm 0,0 UV-I 0 W/m 8,4 C 9,1 C 16,1 km/h (3 Bft) 100,00 %
09.05.2018 02:53 10,9 C 18,3 C 84 % 1006,1 hPa 0,0 l/m 10,0 km/h (2 Bft) NO 47 0 min 0,000 mm 0,0 UV-I 0 W/m 8,3 C 8,6 C 14,5 km/h (3 Bft) 100,00 %
09.05.2018 02:54 11,0 C 18,3 C 84 % 1006,1 hPa 0,0 l/m 7,2 km/h (2 Bft) O-NO 63 0 min 0,000 mm 0,0 UV-I 0 W/m 8,4 C 10,4 C 9,7 km/h (2 Bft) 100,00 %
09.05.2018 02:55 11,1 C 18,3 C 84 % 1006,1 hPa 0,0 l/m 6,5 km/h (2 Bft) O-NO 59 0 min 0,000 mm 0,0 UV-I 0 W/m 8,5 C 11,1 C 9,7 km/h (2 Bft) 100,00 %
09.05.2018 02:56 11,1 C 18,3 C 84 % 1006,2 hPa 0,0 l/m 8,7 km/h (2 Bft) O 96 0 min 0,000 mm 0,0 UV-I 0 W/m 8,5 C 9,6 C 11,3 km/h (2 Bft) 100,00 %
09.05.2018 02:57 11,2 C 18,3 C 84 % 1006,2 hPa 0,0 l/m 9,0 km/h (2 Bft) O-NO 65 0 min 0,000 mm 0,0 UV-I 0 W/m 8,6 C 9,5 C 12,9 km/h (3 Bft) 100,00 %
09.05.2018 02:58 11,2 C 18,3 C 84 % 1006,2 hPa 0,0 l/m 6,9 km/h (2 Bft) O-NO 61 0 min 0,000 mm 0,0 UV-I 0 W/m 8,6 C 10,9 C 12,9 km/h (3 Bft) 100,00 %
09.05.2018 02:59 11,3 C 18,3 C 84 % 1006,2 hPa 0,0 l/m 8,3 km/h (2 Bft) O-NO 75 0 min 0,000 mm 0,0 UV-I 0 W/m 8,7 C 10,0 C 14,5 km/h (3 Bft) 100,00 %
09.05.2018 03:00 11,3 C 18,3 C 84 % 1006,1 hPa 0,0 l/m 9,1 km/h (2 Bft) N-NO 30 0 min 0,000 mm 0,0 UV-I 0 W/m 8,7 C 9,5 C 14,5 km/h (3 Bft) 100,00 %
09.05.2018 03:01 11,3 C 18,3 C 84 % 1006,2 hPa 0,0 l/m 8,7 km/h (2 Bft) O-NO 67 0 min 0,025 mm 0,0 UV-I 0 W/m 8,7 C 9,8 C 12,9 km/h (3 Bft) 100,00 %
09.05.2018 03:02 11,3 C 18,3 C 84 % 1006,2 hPa 0,0 l/m 6,8 km/h (2 Bft) O-NO 62 0 min 0,000 mm 0,0 UV-I 0 W/m 8,7 C 11,0 C 9,7 km/h (2 Bft) 100,00 %
09.05.2018 03:03 11,3 C 18,3 C 84 % 1006,2 hPa 0,0 l/m 7,6 km/h (2 Bft) NO 49 0 min 0,000 mm 0,0 UV-I 0 W/m 8,7 C 10,5 C 12,9 km/h (3 Bft) 100,00 %
09.05.2018 03:04 11,3 C 18,3 C 84 % 1006,2 hPa 0,0 l/m 10,4 km/h (2 Bft) NO 55 0 min 0,000 mm 0,0 UV-I 0 W/m 8,7 C 8,8 C 14,5 km/h (3 Bft) 100,00 %
09.05.2018 03:05 11,3 C 18,3 C 84 % 1006,2 hPa 0,0 l/m 7,9 km/h (2 Bft) O-NO 71 0 min 0,000 mm 0,0 UV-I 0 W/m 8,7 C 10,3 C 9,7 km/h (2 Bft) 100,00 %
09.05.2018 03:06 11,3 C 18,3 C 84 % 1006,2 hPa 0,0 l/m 10,2 km/h (2 Bft) NO 46 0 min 0,000 mm 0,0 UV-I 0 W/m 8,7 C 8,9 C 14,5 km/h (3 Bft) 100,00 %
09.05.2018 03:07 11,3 C 18,3 C 84 % 1006,2 hPa 0,0 l/m 10,7 km/h (2 Bft) NO 49 0 min 0,000 mm 0,0 UV-I 0 W/m 8,7 C 8,7 C 14,5 km/h (3 Bft) 95,83 %
09.05.2018 03:08 11,3 C 18,3 C 84 % 1006,2 hPa 0,0 l/m 9,8 km/h (2 Bft) NO 36 0 min 0,000 mm 0,0 UV-I 0 W/m 8,7 C 9,1 C 16,1 km/h (3 Bft) 100,00 %
09.05.2018 03:09 11,3 C 18,3 C 84 % 1006,2 hPa 0,0 l/m 9,9 km/h (2 Bft) NO 53 0 min 0,000 mm 0,0 UV-I 0 W/m 8,7 C 9,1 C 16,1 km/h (3 Bft) 95,83 %
09.05.2018 03:10 11,2 C 18,3 C 84 % 1006,2 hPa 0,0 l/m 9,4 km/h (2 Bft) O-NO 60 0 min 0,000 mm 0,0 UV-I 0 W/m 8,6 C 9,3 C 14,5 km/h (3 Bft) 100,00 %
09.05.2018 03:11 11,2 C 18,3 C 84 % 1006,2 hPa 0,0 l/m 8,3 km/h (2 Bft) NO 55 0 min 0,000 mm 0,0 UV-I 0 W/m 8,6 C 9,9 C 9,7 km/h (2 Bft) 92,86 %
09.05.2018 03:12 11,1 C 18,3 C 84 % 1006,2 hPa 0,0 l/m 11,0 km/h (2 Bft) O-NO 57 0 min 0,000 mm 0,0 UV-I 0 W/m 8,5 C 8,3 C 14,5 km/h (3 Bft) 100,00 %
09.05.2018 03:13 11,1 C 18,3 C 84 % 1006,2 hPa 0,0 l/m 9,3 km/h (2 Bft) NO 45 0 min 0,000 mm 0,0 UV-I 0 W/m 8,5 C 9,2 C 12,9 km/h (3 Bft) 95,83 %
09.05.2018 03:14 11,0 C 18,3 C 85 % 1006,2 hPa 0,0 l/m 9,3 km/h (2 Bft) O-NO 74 0 min 0,000 mm 0,0 UV-I 0 W/m 8,6 C 9,1 C 12,9 km/h (3 Bft) 100,00 %
09.05.2018 03:15 10,9 C 18,3 C 85 % 1006,2 hPa 0,0 l/m 9,1 km/h (2 Bft) O-NO 64 0 min 0,000 mm 0,0 UV-I 0 W/m 8,5 C 9,1 C 12,9 km/h (3 Bft) 95,83 %
09.05.2018 03:16 10,9 C 18,3 C 85 % 1006,2 hPa 0,0 l/m 6,4 km/h (2 Bft) O-NO 67 0 min 0,000 mm 0,0 UV-I 0 W/m 8,5 C 10,9 C 9,7 km/h (2 Bft) 96,15 %
09.05.2018 03:17 11,0 C 18,3 C 85 % 1006,2 hPa 0,0 l/m 6,2 km/h (2 Bft) NO 54 0 min 0,000 mm 0,0 UV-I 0 W/m 8,6 C 11,0 C 11,3 km/h (2 Bft) 100,00 %
09.05.2018 03:18 11,0 C 18,3 C 85 % 1006,2 hPa 0,0 l/m 5,9 km/h (2 Bft) O-NO 74 0 min 0,000 mm 0,0 UV-I 0 W/m 8,6 C 11,0 C 8,0 km/h (2 Bft) 95,65 %
09.05.2018 03:19 10,9 C 18,3 C 85 % 1006,2 hPa 0,0 l/m 4,3 km/h (1 Bft) O 82 0 min 0,000 mm 0,0 UV-I 0 W/m 8,5 C 10,9 C 6,4 km/h (2 Bft) 100,00 %
09.05.2018 03:20 10,9 C 18,3 C 85 % 1006,2 hPa 0,0 l/m 5,0 km/h (1 Bft) O-NO 76 0 min 0,000 mm 0,0 UV-I 0 W/m 8,5 C 10,9 C 9,7 km/h (2 Bft) 95,65 %
09.05.2018 03:21 10,9 C 18,3 C 85 % 1006,2 hPa 0,0 l/m 6,7 km/h (2 Bft) O 86 0 min 0,000 mm 0,0 UV-I 0 W/m 8,5 C 10,7 C 11,3 km/h (2 Bft) 100,00 %
09.05.2018 03:22 10,9 C 18,3 C 85 % 1006,2 hPa 0,0 l/m 7,6 km/h (2 Bft) O-SO 112 0 min 0,000 mm 0,0 UV-I 0 W/m 8,5 C 10,1 C 11,3 km/h (2 Bft) 95,65 %
09.05.2018 03:23 10,9 C 18,3 C 85 % 1006,3 hPa 0,0 l/m 5,8 km/h (2 Bft) O-NO 77 0 min 0,000 mm 0,0 UV-I 0 W/m 8,5 C 10,9 C 9,7 km/h (2 Bft) 100,00 %
09.05.2018 03:24 10,9 C 18,3 C 85 % 1006,3 hPa 0,0 l/m 8,0 km/h (2 Bft) O-SO 102 0 min 0,000 mm 0,0 UV-I 0 W/m 8,5 C 9,8 C 11,3 km/h (2 Bft) 95,65 %
09.05.2018 03:25 10,9 C 18,3 C 85 % 1006,3 hPa 0,0 l/m 6,4 km/h (2 Bft) O 84 0 min 0,000 mm 0,0 UV-I 0 W/m 8,5 C 10,9 C 9,7 km/h (2 Bft) 91,67 %
09.05.2018 03:26 10,8 C 18,3 C 85 % 1006,2 hPa 0,0 l/m 5,8 km/h (2 Bft) O 80 0 min 0,000 mm 0,0 UV-I 0 W/m 8,4 C 10,8 C 9,7 km/h (2 Bft) 100,00 %
09.05.2018 03:27 10,8 C 18,3 C 85 % 1006,2 hPa 0,0 l/m 5,5 km/h (1 Bft) O-NO 73 0 min 0,000 mm 0,0 UV-I 0 W/m 8,4 C 10,8 C 6,4 km/h (2 Bft) 95,65 %
09.05.2018 03:28 10,8 C 18,3 C 85 % 1006,2 hPa 0,0 l/m 6,4 km/h (2 Bft) O 87 0 min 0,000 mm 0,0 UV-I 0 W/m 8,4 C 10,8 C 8,0 km/h (2 Bft) 100,00 %
09.05.2018 03:29 10,8 C 18,3 C 85 % 1006,2 hPa 0,0 l/m 5,8 km/h (2 Bft) O 82 0 min 0,000 mm 0,0 UV-I 0 W/m 8,4 C 10,8 C 8,0 km/h (2 Bft) 95,65 %
09.05.2018 03:30 10,8 C 18,3 C 85 % 1006,2 hPa 0,0 l/m 7,1 km/h (2 Bft) O 81 0 min 0,000 mm 0,0 UV-I 0 W/m 8,4 C 10,3 C 9,7 km/h (2 Bft) 100,00 %
09.05.2018 03:31 10,8 C 18,3 C 85 % 1006,2 hPa 0,0 l/m 8,4 km/h (2 Bft) O 85 0 min 0,000 mm 0,0 UV-I 0 W/m 8,4 C 9,4 C 11,3 km/h (2 Bft) 91,30 %
09.05.2018 03:32 10,7 C 18,3 C 85 % 1006,2 hPa 0,0 l/m 6,8 km/h (2 Bft) O-NO 66 0 min 0,000 mm 0,0 UV-I 0 W/m 8,3 C 10,4 C 11,3 km/h (2 Bft) 100,00 %
09.05.2018 03:33 10,7 C 18,3 C 85 % 1006,2 hPa 0,0 l/m 5,2 km/h (1 Bft) O 96 0 min 0,000 mm 0,0 UV-I 0 W/m 8,3 C 10,7 C 6,4 km/h (2 Bft) 95,65 %
09.05.2018 03:34 10,7 C 18,3 C 85 % 1006,2 hPa 0,0 l/m 5,8 km/h (2 Bft) O 89 0 min 0,000 mm 0,0 UV-I 0 W/m 8,3 C 10,7 C 8,0 km/h (2 Bft) 95,83 %
09.05.2018 03:35 10,7 C 18,3 C 85 % 1006,1 hPa 0,0 l/m 6,6 km/h (2 Bft) O 79 0 min 0,000 mm 0,0 UV-I 0 W/m 8,3 C 10,6 C 9,7 km/h (2 Bft) 96,15 %
09.05.2018 03:36 10,6 C 18,3 C 85 % 1006,1 hPa 0,0 l/m 5,0 km/h (1 Bft) O-NO 67 0 min 0,000 mm 0,0 UV-I 0 W/m 8,2 C 10,6 C 8,0 km/h (2 Bft) 95,83 %
09.05.2018 03:37 10,6 C 18,3 C 85 % 1006,1 hPa 0,0 l/m 6,1 km/h (2 Bft) O-NO 61 0 min 0,000 mm 0,0 UV-I 0 W/m 8,2 C 10,6 C 8,0 km/h (2 Bft) 100,00 %
09.05.2018 03:38 10,5 C 18,3 C 86 % 1006,1 hPa 0,0 l/m 7,0 km/h (2 Bft) O-NO 62 0 min 0,000 mm 0,0 UV-I 0 W/m 8,3 C 10,1 C 9,7 km/h (2 Bft) 95,83 %
09.05.2018 03:39 10,4 C 18,3 C 86 % 1006,1 hPa 0,0 l/m 5,0 km/h (1 Bft) O-NO 76 0 min 0,000 mm 0,0 UV-I 0 W/m 8,2 C 10,4 C 6,4 km/h (2 Bft) 100,00 %
09.05.2018 03:40 10,4 C 18,3 C 86 % 1006,2 hPa 0,0 l/m 3,5 km/h (1 Bft) O-NO 76 0 min 0,000 mm 0,0 UV-I 0 W/m 8,2 C 10,4 C 4,8 km/h (1 Bft) 92,59 %
09.05.2018 03:41 10,4 C 18,3 C 86 % 1006,1 hPa 0,0 l/m 4,8 km/h (1 Bft) O 80 0 min 0,000 mm 0,0 UV-I 0 W/m 8,2 C 10,4 C 4,8 km/h (1 Bft) 100,00 %
09.05.2018 03:42 10,4 C 18,3 C 86 % 1006,1 hPa 0,0 l/m 6,4 km/h (2 Bft) O-NO 73 0 min 0,000 mm 0,0 UV-I 0 W/m 8,2 C 10,4 C 9,7 km/h (2 Bft) 95,83 %
09.05.2018 03:43 10,4 C 18,3 C 86 % 1006,1 hPa 0,0 l/m 5,5 km/h (1 Bft) O 93 0 min 0,000 mm 0,0 UV-I 0 W/m 8,2 C 10,4 C 11,3 km/h (2 Bft) 95,65 %
09.05.2018 03:44 10,5 C 18,3 C 86 % 1006,1 hPa 0,0 l/m 8,0 km/h (2 Bft) O-NO 65 0 min 0,000 mm 0,0 UV-I 0 W/m 8,3 C 9,4 C 14,5 km/h (3 Bft) 100,00 %
09.05.2018 03:45 10,5 C 18,3 C 86 % 1006,1 hPa 0,0 l/m 8,2 km/h (2 Bft) O 82 0 min 0,000 mm 0,0 UV-I 0 W/m 8,3 C 9,2 C 14,5 km/h (3 Bft) 100,00 %
09.05.2018 03:46 10,6 C 18,3 C 86 % 1006,1 hPa 0,0 l/m 9,9 km/h (2 Bft) NO 54 0 min 0,000 mm 0,0 UV-I 0 W/m 8,4 C 8,3 C 14,5 km/h (3 Bft) 100,00 %
09.05.2018 03:47 10,6 C 18,3 C 86 % 1006,1 hPa 0,0 l/m 8,1 km/h (2 Bft) O-NO 57 0 min 0,000 mm 0,0 UV-I 0 W/m 8,4 C 9,4 C 14,5 km/h (3 Bft) 100,00 %
09.05.2018 03:48 10,5 C 18,3 C 86 % 1006,1 hPa 0,0 l/m 8,4 km/h (2 Bft) O-NO 65 0 min 0,000 mm 0,0 UV-I 0 W/m 8,3 C 9,1 C 12,9 km/h (3 Bft) 100,00 %
09.05.2018 03:49 10,6 C 18,3 C 86 % 1006,1 hPa 0,0 l/m 6,3 km/h (2 Bft) O-NO 57 0 min 0,000 mm 0,0 UV-I 0 W/m 8,4 C 10,6 C 8,0 km/h (2 Bft) 100,00 %
09.05.2018 03:50 10,6 C 18,3 C 86 % 1006,1 hPa 0,0 l/m 6,9 km/h (2 Bft) O 92 0 min 0,000 mm 0,0 UV-I 0 W/m 8,4 C 10,3 C 11,3 km/h (2 Bft) 100,00 %
09.05.2018 03:51 10,6 C 18,3 C 86 % 1006,1 hPa 0,0 l/m 9,5 km/h (2 Bft) NO 55 0 min 0,000 mm 0,0 UV-I 0 W/m 8,4 C 8,5 C 14,5 km/h (3 Bft) 100,00 %
09.05.2018 03:52 10,6 C 18,3 C 86 % 1006,1 hPa 0,0 l/m 8,7 km/h (2 Bft) O-NO 70 0 min 0,000 mm 0,0 UV-I 0 W/m 8,4 C 9,0 C 11,3 km/h (2 Bft) 95,65 %
09.05.2018 03:53 10,6 C 18,3 C 86 % 1006,0 hPa 0,0 l/m 9,5 km/h (2 Bft) O-NO 74 0 min 0,000 mm 0,0 UV-I 0 W/m 8,4 C 8,5 C 14,5 km/h (3 Bft) 100,00 %
09.05.2018 03:54 10,6 C 18,3 C 86 % 1006,0 hPa 0,0 l/m 7,8 km/h (2 Bft) O-NO 69 0 min 0,000 mm 0,0 UV-I 0 W/m 8,4 C 9,6 C 11,3 km/h (2 Bft) 100,00 %
09.05.2018 03:55 10,6 C 18,3 C 86 % 1006,1 hPa 0,0 l/m 5,4 km/h (1 Bft) O-NO 75 0 min 0,000 mm 0,0 UV-I 0 W/m 8,4 C 10,6 C 8,0 km/h (2 Bft) 100,00 %
09.05.2018 03:56 10,6 C 18,3 C 85 % 1006,0 hPa 0,0 l/m 6,1 km/h (2 Bft) NO 47 0 min 0,000 mm 0,0 UV-I 0 W/m 8,2 C 10,6 C 8,0 km/h (2 Bft) 100,00 %
09.05.2018 03:57 10,6 C 18,3 C 85 % 1006,1 hPa 0,0 l/m 5,9 km/h (2 Bft) NO 53 0 min 0,000 mm 0,0 UV-I 0 W/m 8,2 C 10,6 C 8,0 km/h (2 Bft) 100,00 %
09.05.2018 03:58 10,6 C 18,3 C 85 % 1006,0 hPa 0,0 l/m 5,8 km/h (2 Bft) O-NO 75 0 min 0,000 mm 0,0 UV-I 0 W/m 8,2 C 10,6 C 8,0 km/h (2 Bft) 100,00 %
09.05.2018 03:59 10,5 C 18,3 C 85 % 1006,0 hPa 0,0 l/m 4,5 km/h (1 Bft) O-NO 61 0 min 0,000 mm 0,0 UV-I 0 W/m 8,1 C 10,5 C 8,0 km/h (2 Bft) 100,00 %
09.05.2018 04:00 10,5 C 18,3 C 86 % 1006,0 hPa 0,0 l/m 4,8 km/h (1 Bft) O 84 0 min 0,026 mm 0,0 UV-I 0 W/m 8,3 C 10,5 C 6,4 km/h (2 Bft) 100,00 %
09.05.2018 04:01 10,4 C 18,3 C 86 % 1006,0 hPa 0,0 l/m 6,4 km/h (2 Bft) O-NO 74 0 min 0,000 mm 0,0 UV-I 0 W/m 8,2 C 10,4 C 6,4 km/h (2 Bft) 100,00 %
09.05.2018 04:02 10,4 C 18,3 C 86 % 1006,0 hPa 0,0 l/m 5,9 km/h (2 Bft) O 80 0 min 0,000 mm 0,0 UV-I 0 W/m 8,2 C 10,4 C 6,4 km/h (2 Bft) 100,00 %
09.05.2018 04:03 10,4 C 18,3 C 86 % 1006,0 hPa 0,0 l/m 4,0 km/h (1 Bft) O 82 0 min 0,000 mm 0,0 UV-I 0 W/m 8,2 C 10,4 C 4,8 km/h (1 Bft) 100,00 %
09.05.2018 04:04 10,4 C 18,3 C 86 % 1006,0 hPa 0,0 l/m 2,8 km/h (1 Bft) O 81 0 min 0,000 mm 0,0 UV-I 0 W/m 8,2 C 10,4 C 4,8 km/h (1 Bft) 100,00 %
09.05.2018 04:05 10,3 C 18,3 C 86 % 1006,0 hPa 0,0 l/m 3,4 km/h (1 Bft) O 87 0 min 0,000 mm 0,0 UV-I 0 W/m 8,1 C 10,3 C 4,8 km/h (1 Bft) 100,00 %
09.05.2018 04:06 10,3 C 18,3 C 86 % 1006,0 hPa 0,0 l/m 3,9 km/h (1 Bft) O 86 0 min 0,000 mm 0,0 UV-I 0 W/m 8,1 C 10,3 C 6,4 km/h (2 Bft) 100,00 %
09.05.2018 04:07 10,2 C 18,3 C 86 % 1005,9 hPa 0,0 l/m 4,6 km/h (1 Bft) O 88 0 min 0,000 mm 0,0 UV-I 0 W/m 8,0 C 10,2 C 6,4 km/h (2 Bft) 95,83 %
09.05.2018 04:08 10,2 C 18,3 C 86 % 1005,9 hPa 0,0 l/m 3,6 km/h (1 Bft) O-NO 72 0 min 0,000 mm 0,0 UV-I 0 W/m 8,0 C 10,2 C 6,4 km/h (2 Bft) 100,00 %
09.05.2018 04:09 10,2 C 18,3 C 86 % 1005,9 hPa 0,0 l/m 5,0 km/h (1 Bft) O-NO 63 0 min 0,000 mm 0,0 UV-I 0 W/m 8,0 C 10,2 C 6,4 km/h (2 Bft) 100,00 %
09.05.2018 04:10 10,1 C 18,3 C 86 % 1005,9 hPa 0,0 l/m 3,6 km/h (1 Bft) O-NO 63 0 min 0,000 mm 0,0 UV-I 0 W/m 7,9 C 10,1 C 4,8 km/h (1 Bft) 100,00 %
09.05.2018 04:11 10,1 C 18,3 C 86 % 1005,9 hPa 0,0 l/m 3,0 km/h (1 Bft) O-NO 65 0 min 0,000 mm 0,0 UV-I 0 W/m 7,9 C 10,1 C 4,8 km/h (1 Bft) 100,00 %
09.05.2018 04:12 10,0 C 18,3 C 86 % 1005,9 hPa 0,0 l/m 3,3 km/h (1 Bft) O-NO 71 0 min 0,000 mm 0,0 UV-I 0 W/m 7,8 C 10,0 C 6,4 km/h (2 Bft) 100,00 %
09.05.2018 04:13 9,9 C 18,3 C 87 % 1005,8 hPa 0,0 l/m 1,8 km/h (1 Bft) O-NO 71 0 min 0,000 mm 0,0 UV-I 0 W/m 7,8 C 9,9 C 3,2 km/h (1 Bft) 100,00 %
09.05.2018 04:14 9,9 C 18,3 C 87 % 1005,8 hPa 0,0 l/m 1,6 km/h (1 Bft) O-NO 71 0 min 0,000 mm 0,0 UV-I 0 W/m 7,8 C 9,9 C 3,2 km/h (1 Bft) 100,00 %
09.05.2018 04:15 9,9 C 18,3 C 87 % 1005,8 hPa 0,0 l/m 1,8 km/h (1 Bft) O-NO 71 0 min 0,000 mm 0,0 UV-I 0 W/m 7,8 C 9,9 C 3,2 km/h (1 Bft) 100,00 %
09.05.2018 04:16 9,9 C 18,3 C 87 % 1005,8 hPa 0,0 l/m 3,3 km/h (1 Bft) O 87 0 min 0,000 mm 0,0 UV-I 0 W/m 7,8 C 9,9 C 4,8 km/h (1 Bft) 100,00 %
09.05.2018 04:17 9,9 C 18,3 C 87 % 1005,8 hPa 0,0 l/m 3,5 km/h (1 Bft) O 89 0 min 0,000 mm 0,0 UV-I 0 W/m 7,8 C 9,9 C 4,8 km/h (1 Bft) 100,00 %
09.05.2018 04:18 9,8 C 17,8 C 87 % 1005,8 hPa 0,0 l/m 4,8 km/h (1 Bft) O 98 0 min 0,000 mm 0,0 UV-I 0 W/m 7,7 C 9,8 C 6,4 km/h (2 Bft) 95,83 %
09.05.2018 04:19 9,8 C 18,3 C 87 % 1005,8 hPa 0,0 l/m 3,6 km/h (1 Bft) O-SO 103 0 min 0,000 mm 0,0 UV-I 0 W/m 7,7 C 9,8 C 4,8 km/h (1 Bft) 95,65 %
09.05.2018 04:20 9,8 C 18,3 C 87 % 1005,8 hPa 0,0 l/m 3,5 km/h (1 Bft) O-SO 105 0 min 0,000 mm 0,0 UV-I 0 W/m 7,7 C 9,8 C 4,8 km/h (1 Bft) 95,83 %
09.05.2018 04:21 9,9 C 18,3 C 87 % 1005,8 hPa 0,0 l/m 5,3 km/h (1 Bft) O-SO 105 0 min 0,000 mm 0,0 UV-I 0 W/m 7,8 C 9,9 C 6,4 km/h (2 Bft) 100,00 %
09.05.2018 04:22 9,9 C 17,8 C 87 % 1005,8 hPa 0,0 l/m 4,0 km/h (1 Bft) O-SO 108 0 min 0,000 mm 0,0 UV-I 0 W/m 7,8 C 9,9 C 6,4 km/h (2 Bft) 91,30 %
09.05.2018 04:23 9,9 C 18,3 C 87 % 1005,8 hPa 0,0 l/m 3,4 km/h (1 Bft) O 101 0 min 0,000 mm 0,0 UV-I 0 W/m 7,8 C 9,9 C 4,8 km/h (1 Bft) 100,00 %
09.05.2018 04:24 10,0 C 18,3 C 87 % 1005,8 hPa 0,0 l/m 3,2 km/h (1 Bft) O 101 0 min 0,000 mm 0,0 UV-I 0 W/m 7,9 C 10,0 C 4,8 km/h (1 Bft) 95,65 %
09.05.2018 04:25 9,9 C 18,3 C 87 % 1005,8 hPa 0,0 l/m 4,1 km/h (1 Bft) O-NO 67 0 min 0,000 mm 0,0 UV-I 0 W/m 7,8 C 9,9 C 6,4 km/h (2 Bft) 96,30 %
09.05.2018 04:26 9,8 C 17,8 C 87 % 1005,8 hPa 0,0 l/m 5,3 km/h (1 Bft) O-NO 63 0 min 0,000 mm 0,0 UV-I 0 W/m 7,7 C 9,8 C 8,0 km/h (2 Bft) 95,65 %
09.05.2018 04:27 9,8 C 17,8 C 87 % 1005,8 hPa 0,0 l/m 4,6 km/h (1 Bft) O-NO 58 0 min 0,000 mm 0,0 UV-I 0 W/m 7,7 C 9,8 C 6,4 km/h (2 Bft) 95,83 %
09.05.2018 04:28 9,8 C 17,8 C 87 % 1005,8 hPa 0,0 l/m 6,4 km/h (2 Bft) NO 42 0 min 0,000 mm 0,0 UV-I 0 W/m 7,7 C 9,8 C 9,7 km/h (2 Bft) 100,00 %
09.05.2018 04:29 9,8 C 17,8 C 87 % 1005,8 hPa 0,0 l/m 5,0 km/h (1 Bft) O-NO 59 0 min 0,000 mm 0,0 UV-I 0 W/m 7,7 C 9,8 C 6,4 km/h (2 Bft) 91,67 %
09.05.2018 04:30 9,8 C 17,8 C 87 % 1005,8 hPa 0,0 l/m 4,5 km/h (1 Bft) O-NO 76 0 min 0,000 mm 0,0 UV-I 0 W/m 7,7 C 9,8 C 6,4 km/h (2 Bft) 100,00 %
09.05.2018 04:31 9,8 C 17,8 C 87 % 1005,8 hPa 0,0 l/m 5,3 km/h (1 Bft) O-SO 111 0 min 0,000 mm 0,0 UV-I 0 W/m 7,7 C 9,8 C 6,4 km/h (2 Bft) 95,83 %
09.05.2018 04:32 9,8 C 17,8 C 87 % 1005,8 hPa 0,0 l/m 5,6 km/h (1 Bft) O 97 0 min 0,000 mm 0,0 UV-I 0 W/m 7,7 C 9,8 C 9,7 km/h (2 Bft) 100,00 %
09.05.2018 04:33 9,7 C 17,8 C 87 % 1005,8 hPa 0,0 l/m 5,6 km/h (1 Bft) O 94 0 min 0,000 mm 0,0 UV-I 0 W/m 7,6 C 9,7 C 9,7 km/h (2 Bft) 91,67 %
09.05.2018 04:34 9,7 C 17,8 C 87 % 1005,8 hPa 0,0 l/m 5,9 km/h (2 Bft) O 86 0 min 0,000 mm 0,0 UV-I 0 W/m 7,6 C 9,7 C 6,4 km/h (2 Bft) 100,00 %
09.05.2018 04:35 9,7 C 17,8 C 88 % 1005,8 hPa 0,0 l/m 4,3 km/h (1 Bft) O 88 0 min 0,000 mm 0,0 UV-I 0 W/m 7,8 C 9,7 C 4,8 km/h (1 Bft) 95,83 %
09.05.2018 04:36 9,7 C 17,8 C 88 % 1005,8 hPa 0,0 l/m 3,8 km/h (1 Bft) O 91 0 min 0,000 mm 0,0 UV-I 0 W/m 7,8 C 9,7 C 6,4 km/h (2 Bft) 91,30 %
09.05.2018 04:37 9,7 C 17,8 C 88 % 1005,8 hPa 0,0 l/m 4,0 km/h (1 Bft) O 93 0 min 0,000 mm 0,0 UV-I 0 W/m 7,8 C 9,7 C 6,4 km/h (2 Bft) 100,00 %
09.05.2018 04:38 9,7 C 17,8 C 88 % 1005,9 hPa 0,0 l/m 4,8 km/h (1 Bft) O 97 0 min 0,000 mm 0,0 UV-I 0 W/m 7,8 C 9,7 C 6,4 km/h (2 Bft) 95,65 %
09.05.2018 04:39 9,7 C 17,8 C 88 % 1005,9 hPa 0,0 l/m 4,4 km/h (1 Bft) O-SO 108 0 min 0,000 mm 0,0 UV-I 0 W/m 7,8 C 9,7 C 4,8 km/h (1 Bft) 100,00 %
09.05.2018 04:40 9,7 C 17,8 C 87 % 1005,9 hPa 0,0 l/m 3,5 km/h (1 Bft) O-SO 110 0 min 0,000 mm 0,0 UV-I 0 W/m 7,6 C 9,7 C 4,8 km/h (1 Bft) 95,83 %
09.05.2018 04:41 9,7 C 17,8 C 88 % 1005,9 hPa 0,0 l/m 4,1 km/h (1 Bft) O-SO 111 0 min 0,000 mm 0,0 UV-I 0 W/m 7,8 C 9,7 C 6,4 km/h (2 Bft) 100,00 %
09.05.2018 04:42 9,7 C 17,8 C 88 % 1005,9 hPa 0,0 l/m 4,0 km/h (1 Bft) O-SO 112 0 min 0,000 mm 0,0 UV-I 0 W/m 7,8 C 9,7 C 4,8 km/h (1 Bft) 95,83 %
09.05.2018 04:43 9,7 C 17,8 C 88 % 1005,8 hPa 0,0 l/m 2,1 km/h (1 Bft) O-SO 112 0 min 0,000 mm 0,0 UV-I 0 W/m 7,8 C 9,7 C 3,2 km/h (1 Bft) 95,65 %
09.05.2018 04:44 9,7 C 17,8 C 88 % 1005,8 hPa 0,0 l/m 2,0 km/h (1 Bft) O-SO 111 0 min 0,000 mm 0,0 UV-I 0 W/m 7,8 C 9,7 C 4,8 km/h (1 Bft) 95,83 %
09.05.2018 04:45 9,7 C 17,8 C 88 % 1005,8 hPa 0,0 l/m 3,7 km/h (1 Bft) O-SO 111 0 min 0,000 mm 0,0 UV-I 0 W/m 7,8 C 9,7 C 4,8 km/h (1 Bft) 100,00 %
09.05.2018 04:46 9,7 C 17,8 C 88 % 1005,8 hPa 0,0 l/m 3,6 km/h (1 Bft) O-NO 74 0 min 0,000 mm 0,0 UV-I 0 W/m 7,8 C 9,7 C 4,8 km/h (1 Bft) 95,83 %
09.05.2018 04:47 9,7 C 17,8 C 87 % 1005,8 hPa 0,0 l/m 2,9 km/h (1 Bft) O-NO 74 0 min 0,000 mm 0,0 UV-I 0 W/m 7,6 C 9,7 C 3,2 km/h (1 Bft) 95,65 %
09.05.2018 04:48 9,7 C 17,8 C 87 % 1005,8 hPa 0,0 l/m 2,9 km/h (1 Bft) O-NO 74 0 min 0,000 mm 0,0 UV-I 0 W/m 7,6 C 9,7 C 4,8 km/h (1 Bft) 95,83 %
09.05.2018 04:49 9,7 C 17,8 C 87 % 1005,8 hPa 0,0 l/m 2,7 km/h (1 Bft) O-NO 74 0 min 0,000 mm 0,0 UV-I 0 W/m 7,6 C 9,7 C 3,2 km/h (1 Bft) 100,00 %
09.05.2018 04:50 9,6 C 17,8 C 87 % 1005,9 hPa 0,0 l/m 4,0 km/h (1 Bft) O-NO 74 0 min 0,000 mm 0,0 UV-I 0 W/m 7,5 C 9,6 C 4,8 km/h (1 Bft) 95,83 %
09.05.2018 04:51 9,6 C 17,8 C 87 % 1005,9 hPa 0,0 l/m 3,4 km/h (1 Bft) O-NO 74 0 min 0,000 mm 0,0 UV-I 0 W/m 7,5 C 9,6 C 4,8 km/h (1 Bft) 92,00 %
09.05.2018 04:52 9,5 C 17,8 C 87 % 1005,9 hPa 0,0 l/m 3,0 km/h (1 Bft) O-NO 74 0 min 0,000 mm 0,0 UV-I 0 W/m 7,4 C 9,5 C 3,2 km/h (1 Bft) 100,00 %
09.05.2018 04:53 9,5 C 17,8 C 87 % 1005,9 hPa 0,0 l/m 2,9 km/h (1 Bft) O-NO 74 0 min 0,000 mm 0,0 UV-I 0 W/m 7,4 C 9,5 C 4,8 km/h (1 Bft) 97,37 %
09.05.2018 04:54 9,4 C 17,8 C 87 % 1005,9 hPa 0,0 l/m 3,4 km/h (1 Bft) O-NO 67 0 min 0,000 mm 0,0 UV-I 0 W/m 7,3 C 9,4 C 4,8 km/h (1 Bft) 100,00 %
09.05.2018 04:55 9,3 C 17,8 C 87 % 1005,9 hPa 0,0 l/m 2,9 km/h (1 Bft) O-NO 67 0 min 0,000 mm 0,0 UV-I 0 W/m 7,2 C 9,3 C 4,8 km/h (1 Bft) 95,65 %
09.05.2018 04:56 9,3 C 17,8 C 88 % 1005,9 hPa 0,0 l/m 3,8 km/h (1 Bft) NO 45 0 min 0,000 mm 0,0 UV-I 0 W/m 7,4 C 9,3 C 4,8 km/h (1 Bft) 97,56 %
09.05.2018 04:57 9,3 C 17,8 C 88 % 1005,9 hPa 0,0 l/m 4,2 km/h (1 Bft) NO 45 0 min 0,000 mm 0,0 UV-I 0 W/m 7,4 C 9,3 C 6,4 km/h (2 Bft) 97,44 %
09.05.2018 04:58 9,2 C 17,8 C 88 % 1005,9 hPa 0,0 l/m 4,2 km/h (1 Bft) NO 53 0 min 0,000 mm 0,0 UV-I 0 W/m 7,3 C 9,2 C 4,8 km/h (1 Bft) 100,00 %
09.05.2018 04:59 9,3 C 17,8 C 88 % 1005,9 hPa 0,0 l/m 4,1 km/h (1 Bft) NO 48 0 min 0,000 mm 0,0 UV-I 0 W/m 7,4 C 9,3 C 6,4 km/h (2 Bft) 95,83 %
09.05.2018 05:00 9,3 C 17,8 C 88 % 1005,8 hPa 0,0 l/m 6,2 km/h (2 Bft) O-NO 73 0 min 0,000 mm 0,0 UV-I 0 W/m 7,4 C 9,3 C 8,0 km/h (2 Bft) 100,00 %
09.05.2018 05:01 9,3 C 17,8 C 88 % 1005,9 hPa 0,0 l/m 3,4 km/h (1 Bft) O-NO 75 0 min 0,000 mm 0,0 UV-I 0 W/m 7,4 C 9,3 C 4,8 km/h (1 Bft) 91,67 %
09.05.2018 05:02 9,3 C 17,8 C 88 % 1005,8 hPa 0,0 l/m 2,9 km/h (1 Bft) O 80 0 min 0,000 mm 0,0 UV-I 0 W/m 7,4 C 9,3 C 4,8 km/h (1 Bft) 100,00 %
09.05.2018 05:03 9,4 C 17,8 C 88 % 1005,8 hPa 0,0 l/m 4,4 km/h (1 Bft) O 92 0 min 0,000 mm 0,0 UV-I 0 W/m 7,5 C 9,4 C 6,4 km/h (2 Bft) 100,00 %
09.05.2018 05:04 9,4 C 17,8 C 88 % 1005,8 hPa 0,0 l/m 5,6 km/h (1 Bft) O 92 0 min 0,000 mm 0,0 UV-I 0 W/m 7,5 C 9,4 C 6,4 km/h (2 Bft) 95,65 %
09.05.2018 05:05 9,4 C 17,8 C 88 % 1005,8 hPa 0,0 l/m 6,9 km/h (2 Bft) O-NO 70 0 min 0,000 mm 0,0 UV-I 0 W/m 7,5 C 9,0 C 9,7 km/h (2 Bft) 100,00 %
09.05.2018 05:06 9,4 C 17,8 C 88 % 1005,8 hPa 0,0 l/m 5,2 km/h (1 Bft) O 90 0 min 0,000 mm 0,0 UV-I 0 W/m 7,5 C 9,4 C 6,4 km/h (2 Bft) 91,30 %
09.05.2018 05:07 9,4 C 17,8 C 88 % 1005,8 hPa 0,0 l/m 4,8 km/h (1 Bft) O-NO 78 0 min 0,000 mm 0,0 UV-I 0 W/m 7,5 C 9,4 C 6,4 km/h (2 Bft) 100,00 %
09.05.2018 05:08 9,4 C 17,8 C 88 % 1005,8 hPa 0,0 l/m 3,4 km/h (1 Bft) O-NO 78 0 min 0,000 mm 0,0 UV-I 0 W/m 7,5 C 9,4 C 4,8 km/h (1 Bft) 91,30 %
09.05.2018 05:09 9,4 C 17,8 C 88 % 1005,8 hPa 0,0 l/m 4,6 km/h (1 Bft) O-NO 70 0 min 0,000 mm 0,0 UV-I 0 W/m 7,5 C 9,4 C 8,0 km/h (2 Bft) 100,00 %
09.05.2018 05:10 9,4 C 17,8 C 88 % 1005,8 hPa 0,0 l/m 4,0 km/h (1 Bft) O-NO 71 0 min 0,000 mm 0,0 UV-I 0 W/m 7,5 C 9,4 C 8,0 km/h (2 Bft) 97,14 %
09.05.2018 05:11 9,4 C 17,8 C 88 % 1005,8 hPa 0,0 l/m 4,2 km/h (1 Bft) N-NO 28 0 min 0,000 mm 0,0 UV-I 0 W/m 7,5 C 9,4 C 6,4 km/h (2 Bft) 95,83 %
09.05.2018 05:12 9,4 C 17,8 C 88 % 1005,8 hPa 0,0 l/m 4,5 km/h (1 Bft) O 80 0 min 0,000 mm 0,0 UV-I 0 W/m 7,5 C 9,4 C 6,4 km/h (2 Bft) 90,91 %
09.05.2018 05:13 9,3 C 17,8 C 88 % 1005,8 hPa 0,0 l/m 5,2 km/h (1 Bft) O 84 0 min 0,000 mm 0,0 UV-I 0 W/m 7,4 C 9,3 C 6,4 km/h (2 Bft) 96,15 %
09.05.2018 05:14 9,3 C 17,8 C 88 % 1005,9 hPa 0,0 l/m 4,4 km/h (1 Bft) O 85 0 min 0,000 mm 0,0 UV-I 0 W/m 7,4 C 9,3 C 6,4 km/h (2 Bft) 95,65 %
09.05.2018 05:15 9,3 C 17,8 C 88 % 1005,9 hPa 0,0 l/m 6,3 km/h (2 Bft) O 92 0 min 0,000 mm 0,0 UV-I 0 W/m 7,4 C 9,3 C 9,7 km/h (2 Bft) 95,83 %
09.05.2018 05:16 9,3 C 17,8 C 88 % 1005,8 hPa 0,0 l/m 6,4 km/h (2 Bft) O 100 0 min 0,000 mm 0,0 UV-I 0 W/m 7,4 C 9,3 C 9,7 km/h (2 Bft) 100,00 %
09.05.2018 05:17 9,3 C 17,8 C 88 % 1005,8 hPa 0,0 l/m 7,8 km/h (2 Bft) O 97 0 min 0,000 mm 0,0 UV-I 0 W/m 7,4 C 8,3 C 11,3 km/h (2 Bft) 95,83 %
09.05.2018 05:18 9,4 C 17,8 C 88 % 1005,8 hPa 0,0 l/m 7,5 km/h (2 Bft) O 83 0 min 0,000 mm 0,0 UV-I 0 W/m 7,5 C 8,6 C 11,3 km/h (2 Bft) 96,15 %
09.05.2018 05:19 9,4 C 17,8 C 89 % 1005,8 hPa 0,0 l/m 5,1 km/h (1 Bft) O 81 0 min 0,000 mm 0,0 UV-I 0 W/m 7,7 C 9,4 C 6,4 km/h (2 Bft) 100,00 %
09.05.2018 05:20 9,4 C 17,8 C 88 % 1005,8 hPa 0,0 l/m 4,8 km/h (1 Bft) O-NO 73 0 min 0,000 mm 0,0 UV-I 0 W/m 7,5 C 9,4 C 6,4 km/h (2 Bft) 91,30 %
09.05.2018 05:21 9,4 C 17,8 C 88 % 1005,8 hPa 0,0 l/m 4,2 km/h (1 Bft) O 82 0 min 0,000 mm 0,0 UV-I 2 W/m 7,5 C 9,4 C 6,4 km/h (2 Bft) 100,00 %
09.05.2018 05:22 9,4 C 17,8 C 88 % 1005,8 hPa 0,0 l/m 5,7 km/h (1 Bft) O 88 0 min 0,000 mm 0,0 UV-I 5 W/m 7,5 C 9,4 C 9,7 km/h (2 Bft) 91,30 %
09.05.2018 05:23 9,4 C 17,8 C 88 % 1005,8 hPa 0,0 l/m 4,4 km/h (1 Bft) O 82 0 min 0,000 mm 0,0 UV-I 5 W/m 7,5 C 9,4 C 4,8 km/h (1 Bft) 100,00 %
09.05.2018 05:24 9,3 C 17,8 C 88 % 1005,8 hPa 0,0 l/m 4,4 km/h (1 Bft) O-SO 119 0 min 0,000 mm 0,0 UV-I 5 W/m 7,4 C 9,3 C 6,4 km/h (2 Bft) 92,59 %
09.05.2018 05:25 9,3 C 17,8 C 88 % 1005,8 hPa 0,0 l/m 4,2 km/h (1 Bft) O-SO 119 0 min 0,000 mm 0,0 UV-I 5 W/m 7,4 C 9,3 C 6,4 km/h (2 Bft) 100,00 %
09.05.2018 05:26 9,3 C 17,8 C 88 % 1005,8 hPa 0,0 l/m 6,0 km/h (2 Bft) O-SO 113 0 min 0,000 mm 0,0 UV-I 5 W/m 7,4 C 9,3 C 9,7 km/h (2 Bft) 96,30 %
09.05.2018 05:27 9,2 C 17,8 C 88 % 1005,8 hPa 0,0 l/m 5,5 km/h (1 Bft) O 81 0 min 0,000 mm 0,0 UV-I 5 W/m 7,3 C 9,2 C 8,0 km/h (2 Bft) 95,65 %
09.05.2018 05:28 9,2 C 17,8 C 89 % 1005,8 hPa 0,0 l/m 8,2 km/h (2 Bft) O-SO 103 0 min 0,000 mm 0,0 UV-I 5 W/m 7,5 C 7,9 C 11,3 km/h (2 Bft) 100,00 %
09.05.2018 05:29 9,2 C 17,8 C 89 % 1005,8 hPa 0,0 l/m 8,0 km/h (2 Bft) O 97 0 min 0,000 mm 0,0 UV-I 5 W/m 7,5 C 8,0 C 11,3 km/h (2 Bft) 95,65 %
09.05.2018 05:30 9,2 C 17,8 C 89 % 1005,8 hPa 0,0 l/m 5,8 km/h (2 Bft) O 95 0 min 0,000 mm 0,0 UV-I 7 W/m 7,5 C 9,2 C 9,7 km/h (2 Bft) 100,00 %
09.05.2018 05:31 9,2 C 17,8 C 89 % 1005,8 hPa 0,0 l/m 4,9 km/h (1 Bft) O 99 0 min 0,000 mm 0,0 UV-I 7 W/m 7,5 C 9,2 C 6,4 km/h (2 Bft) 95,65 %
09.05.2018 05:32 9,2 C 17,8 C 89 % 1005,9 hPa 0,0 l/m 6,4 km/h (2 Bft) O 99 0 min 0,000 mm 0,0 UV-I 7 W/m 7,5 C 9,2 C 9,7 km/h (2 Bft) 100,00 %
09.05.2018 05:33 9,2 C 17,8 C 89 % 1005,8 hPa 0,0 l/m 6,2 km/h (2 Bft) O-SO 104 0 min 0,000 mm 0,0 UV-I 7 W/m 7,5 C 9,2 C 9,7 km/h (2 Bft) 95,65 %
09.05.2018 05:34 9,2 C 17,8 C 89 % 1005,8 hPa 0,0 l/m 4,7 km/h (1 Bft) O 94 0 min 0,000 mm 0,0 UV-I 7 W/m 7,5 C 9,2 C 9,7 km/h (2 Bft) 95,83 %
09.05.2018 05:35 9,2 C 17,8 C 89 % 1005,8 hPa 0,0 l/m 4,5 km/h (1 Bft) O 84 0 min 0,000 mm 0,0 UV-I 8 W/m 7,5 C 9,2 C 6,4 km/h (2 Bft) 95,65 %
09.05.2018 05:36 9,2 C 17,8 C 89 % 1005,8 hPa 0,0 l/m 5,1 km/h (1 Bft) O-NO 63 0 min 0,000 mm 0,0 UV-I 9 W/m 7,5 C 9,2 C 8,0 km/h (2 Bft) 91,67 %
09.05.2018 05:37 9,2 C 17,8 C 89 % 1005,8 hPa 0,0 l/m 5,7 km/h (1 Bft) O 79 0 min 0,000 mm 0,0 UV-I 9 W/m 7,5 C 9,2 C 6,4 km/h (2 Bft) 95,65 %
09.05.2018 05:38 9,2 C 17,8 C 89 % 1005,8 hPa 0,0 l/m 8,1 km/h (2 Bft) O-NO 74 0 min 0,000 mm 0,0 UV-I 11 W/m 7,5 C 7,9 C 12,9 km/h (3 Bft) 93,33 %
09.05.2018 05:39 9,3 C 17,8 C 89 % 1005,8 hPa 0,0 l/m 8,2 km/h (2 Bft) O-NO 76 0 min 0,000 mm 0,0 UV-I 11 W/m 7,6 C 8,0 C 11,3 km/h (2 Bft) 95,83 %
09.05.2018 05:40 9,3 C 17,8 C 89 % 1005,8 hPa 0,0 l/m 6,6 km/h (2 Bft) O-NO 71 0 min 0,000 mm 0,0 UV-I 12 W/m 7,6 C 9,2 C 8,0 km/h (2 Bft) 96,15 %
09.05.2018 05:41 9,4 C 17,8 C 89 % 1005,8 hPa 0,0 l/m 8,0 km/h (2 Bft) O-NO 69 0 min 0,000 mm 0,0 UV-I 12 W/m 7,7 C 8,2 C 11,3 km/h (2 Bft) 100,00 %
09.05.2018 05:42 9,4 C 17,8 C 89 % 1005,8 hPa 0,0 l/m 6,8 km/h (2 Bft) O 101 0 min 0,000 mm 0,0 UV-I 12 W/m 7,7 C 9,1 C 11,3 km/h (2 Bft) 96,15 %
09.05.2018 05:43 9,5 C 17,8 C 89 % 1005,8 hPa 0,0 l/m 6,8 km/h (2 Bft) O-NO 65 0 min 0,000 mm 0,0 UV-I 14 W/m 7,8 C 9,2 C 11,3 km/h (2 Bft) 95,83 %
09.05.2018 05:44 9,5 C 17,8 C 89 % 1005,8 hPa 0,0 l/m 6,4 km/h (2 Bft) O-NO 59 0 min 0,000 mm 0,0 UV-I 16 W/m 7,8 C 9,5 C 8,0 km/h (2 Bft) 95,65 %
09.05.2018 05:45 9,5 C 17,8 C 89 % 1005,8 hPa 0,0 l/m 5,6 km/h (1 Bft) O 81 1 min 0,000 mm 0,0 UV-I 16 W/m 7,8 C 9,5 C 8,0 km/h (2 Bft) 95,83 %
09.05.2018 05:46 9,5 C 17,8 C 88 % 1005,8 hPa 0,0 l/m 5,7 km/h (1 Bft) O 90 1 min 0,000 mm 0,0 UV-I 18 W/m 7,6 C 9,5 C 8,0 km/h (2 Bft) 100,00 %
09.05.2018 05:47 9,5 C 17,8 C 88 % 1005,8 hPa 0,0 l/m 6,4 km/h (2 Bft) O-SO 108 1 min 0,000 mm 0,0 UV-I 19 W/m 7,6 C 9,5 C 11,3 km/h (2 Bft) 100,00 %
09.05.2018 05:48 9,5 C 17,8 C 88 % 1005,8 hPa 0,0 l/m 7,1 km/h (2 Bft) O-SO 103 1 min 0,000 mm 0,0 UV-I 21 W/m 7,6 C 9,0 C 9,7 km/h (2 Bft) 96,15 %
09.05.2018 05:49 9,6 C 17,8 C 88 % 1005,8 hPa 0,0 l/m 8,5 km/h (2 Bft) O 92 1 min 0,000 mm 0,0 UV-I 23 W/m 7,7 C 8,1 C 12,9 km/h (3 Bft) 95,83 %
09.05.2018 05:50 9,7 C 17,8 C 88 % 1005,8 hPa 0,0 l/m 7,6 km/h (2 Bft) O 80 1 min 0,000 mm 0,0 UV-I 24 W/m 7,8 C 8,8 C 12,9 km/h (3 Bft) 91,30 %
09.05.2018 05:51 9,7 C 17,8 C 88 % 1005,8 hPa 0,0 l/m 8,4 km/h (2 Bft) O 97 1 min 0,000 mm 0,0 UV-I 25 W/m 7,8 C 8,3 C 11,3 km/h (2 Bft) 95,83 %
09.05.2018 05:52 9,7 C 17,8 C 87 % 1005,8 hPa 0,0 l/m 7,0 km/h (2 Bft) O 80 1 min 0,000 mm 0,0 UV-I 26 W/m 7,6 C 9,3 C 11,3 km/h (2 Bft) 100,00 %
09.05.2018 05:53 9,8 C 17,8 C 87 % 1005,8 hPa 0,0 l/m 9,7 km/h (2 Bft) O-SO 113 1 min 0,000 mm 0,0 UV-I 27 W/m 7,7 C 7,6 C 11,3 km/h (2 Bft) 100,00 %
09.05.2018 05:54 9,8 C 17,8 C 87 % 1005,8 hPa 0,0 l/m 9,5 km/h (2 Bft) O 101 1 min 0,000 mm 0,0 UV-I 30 W/m 7,7 C 7,7 C 12,9 km/h (3 Bft) 100,00 %
09.05.2018 05:55 9,8 C 17,8 C 87 % 1005,7 hPa 0,0 l/m 7,6 km/h (2 Bft) O-SO 103 1 min 0,000 mm 0,0 UV-I 30 W/m 7,7 C 8,9 C 11,3 km/h (2 Bft) 100,00 %
09.05.2018 05:56 9,8 C 17,8 C 87 % 1005,7 hPa 0,0 l/m 8,0 km/h (2 Bft) O 86 1 min 0,000 mm 0,0 UV-I 32 W/m 7,7 C 8,6 C 12,9 km/h (3 Bft) 100,00 %
09.05.2018 05:57 9,8 C 17,8 C 87 % 1005,7 hPa 0,0 l/m 8,8 km/h (2 Bft) O-SO 105 1 min 0,000 mm 0,0 UV-I 34 W/m 7,7 C 8,1 C 12,9 km/h (3 Bft) 96,15 %
09.05.2018 05:58 9,8 C 17,8 C 87 % 1005,7 hPa 0,0 l/m 7,1 km/h (2 Bft) O 100 1 min 0,000 mm 0,0 UV-I 35 W/m 7,7 C 9,3 C 12,9 km/h (3 Bft) 95,83 %
09.05.2018 05:59 9,8 C 17,8 C 87 % 1005,7 hPa 0,0 l/m 8,0 km/h (2 Bft) O 88 1 min 0,000 mm 0,0 UV-I 38 W/m 7,7 C 8,6 C 11,3 km/h (2 Bft) 100,00 %
09.05.2018 06:00 9,8 C 17,8 C 87 % 1005,7 hPa 0,0 l/m 8,5 km/h (2 Bft) O 96 1 min 0,025 mm 0,0 UV-I 39 W/m 7,7 C 8,3 C 12,9 km/h (3 Bft) 100,00 %
09.05.2018 06:01 9,8 C 17,8 C 87 % 1005,8 hPa 0,0 l/m 8,9 km/h (2 Bft) O 86 1 min 0,000 mm 0,0 UV-I 40 W/m 7,7 C 8,0 C 12,9 km/h (3 Bft) 100,00 %
09.05.2018 06:02 9,8 C 17,8 C 87 % 1005,7 hPa 0,0 l/m 7,7 km/h (2 Bft) O 80 1 min 0,000 mm 0,0 UV-I 43 W/m 7,7 C 8,9 C 11,3 km/h (2 Bft) 100,00 %
09.05.2018 06:03 9,8 C 17,8 C 87 % 1005,8 hPa 0,0 l/m 5,6 km/h (1 Bft) O 80 1 min 0,000 mm 0,0 UV-I 45 W/m 7,7 C 9,8 C 8,0 km/h (2 Bft) 95,65 %
09.05.2018 06:04 9,7 C 17,8 C 87 % 1005,7 hPa 0,0 l/m 5,5 km/h (1 Bft) O-NO 76 1 min 0,000 mm 0,0 UV-I 46 W/m 7,6 C 9,7 C 8,0 km/h (2 Bft) 100,00 %
09.05.2018 06:05 9,7 C 17,8 C 87 % 1005,7 hPa 0,0 l/m 4,7 km/h (1 Bft) O-NO 78 1 min 0,000 mm 0,0 UV-I 47 W/m 7,6 C 9,7 C 6,4 km/h (2 Bft) 100,00 %
09.05.2018 06:06 9,6 C 17,8 C 87 % 1005,7 hPa 0,0 l/m 4,8 km/h (1 Bft) O-NO 75 1 min 0,000 mm 0,0 UV-I 49 W/m 7,5 C 9,6 C 6,4 km/h (2 Bft) 100,00 %
09.05.2018 06:07 9,6 C 17,8 C 87 % 1005,8 hPa 0,0 l/m 5,0 km/h (1 Bft) O-NO 73 1 min 0,000 mm 0,0 UV-I 51 W/m 7,5 C 9,6 C 6,4 km/h (2 Bft) 95,65 %
09.05.2018 06:08 9,5 C 17,8 C 87 % 1005,8 hPa 0,0 l/m 3,5 km/h (1 Bft) O-NO 74 1 min 0,000 mm 0,0 UV-I 53 W/m 7,4 C 9,5 C 4,8 km/h (1 Bft) 100,00 %
09.05.2018 06:09 9,4 C 17,8 C 88 % 1005,8 hPa 0,0 l/m 4,0 km/h (1 Bft) NO 46 1 min 0,000 mm 0,0 UV-I 55 W/m 7,5 C 9,4 C 4,8 km/h (1 Bft) 100,00 %
09.05.2018 06:10 9,4 C 17,8 C 88 % 1005,7 hPa 0,0 l/m 5,6 km/h (1 Bft) O-NO 77 1 min 0,000 mm 0,0 UV-I 58 W/m 7,5 C 9,4 C 8,0 km/h (2 Bft) 100,00 %
09.05.2018 06:11 9,4 C 17,8 C 88 % 1005,8 hPa 0,0 l/m 5,5 km/h (1 Bft) O-NO 77 1 min 0,000 mm 0,0 UV-I 60 W/m 7,5 C 9,4 C 8,0 km/h (2 Bft) 100,00 %
09.05.2018 06:12 9,5 C 17,8 C 88 % 1005,8 hPa 0,0 l/m 6,0 km/h (2 Bft) O-NO 77 1 min 0,000 mm 0,0 UV-I 62 W/m 7,6 C 9,5 C 8,0 km/h (2 Bft) 100,00 %
09.05.2018 06:13 9,6 C 17,8 C 88 % 1005,8 hPa 0,0 l/m 6,2 km/h (2 Bft) NO 51 1 min 0,000 mm 0,0 UV-I 63 W/m 7,7 C 9,6 C 8,0 km/h (2 Bft) 100,00 %
09.05.2018 06:14 9,6 C 17,8 C 88 % 1005,7 hPa 0,0 l/m 9,0 km/h (2 Bft) NO 50 1 min 0,000 mm 0,0 UV-I 66 W/m 7,7 C 7,8 C 14,5 km/h (3 Bft) 95,65 %
09.05.2018 06:15 9,6 C 17,8 C 88 % 1005,7 hPa 0,0 l/m 9,9 km/h (2 Bft) O-NO 59 1 min 0,000 mm 0,0 UV-I 68 W/m 7,7 C 7,2 C 12,9 km/h (3 Bft) 91,67 %
09.05.2018 06:16 9,6 C 17,8 C 88 % 1005,7 hPa 0,0 l/m 11,1 km/h (2 Bft) NO 53 1 min 0,000 mm 0,0 UV-I 70 W/m 7,7 C 6,5 C 14,5 km/h (3 Bft) 95,65 %
09.05.2018 06:17 9,7 C 17,8 C 88 % 1005,7 hPa 0,0 l/m 8,3 km/h (2 Bft) NO 48 1 min 0,000 mm 0,0 UV-I 72 W/m 7,8 C 8,3 C 11,3 km/h (2 Bft) 100,00 %
09.05.2018 06:18 9,8 C 17,8 C 88 % 1005,7 hPa 0,0 l/m 7,6 km/h (2 Bft) O-NO 65 1 min 0,000 mm 0,0 UV-I 74 W/m 7,9 C 8,9 C 9,7 km/h (2 Bft) 100,00 %
09.05.2018 06:19 9,8 C 17,8 C 88 % 1005,7 hPa 0,0 l/m 6,8 km/h (2 Bft) O-NO 58 1 min 0,000 mm 0,0 UV-I 78 W/m 7,9 C 9,5 C 8,0 km/h (2 Bft) 100,00 %
09.05.2018 06:20 9,8 C 17,8 C 88 % 1005,7 hPa 0,0 l/m 6,3 km/h (2 Bft) O-NO 69 1 min 0,000 mm 0,0 UV-I 80 W/m 7,9 C 9,8 C 8,0 km/h (2 Bft) 95,65 %
09.05.2018 06:21 9,9 C 17,8 C 87 % 1005,8 hPa 0,0 l/m 7,0 km/h (2 Bft) O-NO 57 1 min 0,000 mm 0,0 UV-I 82 W/m 7,8 C 9,5 C 12,9 km/h (3 Bft) 95,83 %
09.05.2018 06:22 9,9 C 17,8 C 87 % 1005,7 hPa 0,0 l/m 7,2 km/h (2 Bft) O-NO 73 1 min 0,000 mm 0,0 UV-I 84 W/m 7,8 C 9,3 C 9,7 km/h (2 Bft) 100,00 %
09.05.2018 06:23 9,9 C 17,8 C 87 % 1005,8 hPa 0,0 l/m 8,4 km/h (2 Bft) NO 51 1 min 0,000 mm 0,0 UV-I 86 W/m 7,8 C 8,5 C 11,3 km/h (2 Bft) 100,00 %
09.05.2018 06:24 9,9 C 17,8 C 87 % 1005,7 hPa 0,0 l/m 6,9 km/h (2 Bft) NO 52 1 min 0,000 mm 0,0 UV-I 90 W/m 7,8 C 9,5 C 9,7 km/h (2 Bft) 100,00 %
09.05.2018 06:25 10,0 C 17,8 C 87 % 1005,8 hPa 0,0 l/m 6,7 km/h (2 Bft) NO 44 1 min 0,000 mm 0,0 UV-I 91 W/m 7,9 C 9,8 C 9,7 km/h (2 Bft) 100,00 %
09.05.2018 06:26 10,0 C 17,8 C 87 % 1005,8 hPa 0,0 l/m 7,1 km/h (2 Bft) O-NO 72 1 min 0,000 mm 0,0 UV-I 90 W/m 7,9 C 9,5 C 9,7 km/h (2 Bft) 96,15 %
09.05.2018 06:27 10,1 C 17,8 C 87 % 1005,7 hPa 0,0 l/m 7,0 km/h (2 Bft) O-NO 71 1 min 0,000 mm 0,0 UV-I 91 W/m 8,0 C 9,7 C 8,0 km/h (2 Bft) 100,00 %
09.05.2018 06:28 10,1 C 17,8 C 87 % 1005,7 hPa 0,0 l/m 6,4 km/h (2 Bft) NO 56 1 min 0,000 mm 0,0 UV-I 92 W/m 8,0 C 10,1 C 8,0 km/h (2 Bft) 90,91 %
09.05.2018 06:29 10,2 C 17,8 C 87 % 1005,7 hPa 0,0 l/m 7,6 km/h (2 Bft) O-NO 66 1 min 0,000 mm 0,0 UV-I 97 W/m 8,1 C 9,3 C 9,7 km/h (2 Bft) 100,00 %
09.05.2018 06:30 10,2 C 17,8 C 87 % 1005,7 hPa 0,0 l/m 6,4 km/h (2 Bft) NO 47 1 min 0,000 mm 0,0 UV-I 102 W/m 8,1 C 10,2 C 9,7 km/h (2 Bft) 100,00 %
09.05.2018 06:31 10,2 C 17,8 C 87 % 1005,8 hPa 0,0 l/m 6,0 km/h (2 Bft) NO 51 1 min 0,000 mm 0,0 UV-I 104 W/m 8,1 C 10,2 C 9,7 km/h (2 Bft) 100,00 %
09.05.2018 06:32 10,3 C 17,8 C 87 % 1005,7 hPa 0,0 l/m 6,6 km/h (2 Bft) O-NO 57 1 min 0,000 mm 0,0 UV-I 107 W/m 8,2 C 10,2 C 9,7 km/h (2 Bft) 100,00 %
09.05.2018 06:33 10,3 C 17,8 C 87 % 1005,7 hPa 0,0 l/m 7,6 km/h (2 Bft) O-NO 59 1 min 0,000 mm 0,0 UV-I 110 W/m 8,2 C 9,4 C 9,7 km/h (2 Bft) 95,65 %
09.05.2018 06:34 10,3 C 17,8 C 86 % 1005,7 hPa 0,0 l/m 7,5 km/h (2 Bft) O-NO 67 1 min 0,000 mm 0,0 UV-I 112 W/m 8,1 C 9,5 C 11,3 km/h (2 Bft) 100,00 %
09.05.2018 06:35 10,4 C 17,8 C 86 % 1005,7 hPa 0,0 l/m 5,7 km/h (1 Bft) O-NO 66 1 min 0,000 mm 0,0 UV-I 114 W/m 8,2 C 10,4 C 8,0 km/h (2 Bft) 100,00 %
09.05.2018 06:36 10,4 C 17,8 C 86 % 1005,7 hPa 0,0 l/m 5,6 km/h (1 Bft) O-NO 76 1 min 0,000 mm 0,0 UV-I 116 W/m 8,2 C 10,4 C 8,0 km/h (2 Bft) 100,00 %
09.05.2018 06:37 10,4 C 17,8 C 86 % 1005,7 hPa 0,0 l/m 7,7 km/h (2 Bft) O-NO 66 1 min 0,000 mm 0,0 UV-I 119 W/m 8,2 C 9,5 C 11,3 km/h (2 Bft) 100,00 %
09.05.2018 06:38 10,5 C 17,8 C 86 % 1005,7 hPa 0,0 l/m 9,3 km/h (2 Bft) O-NO 69 1 min 0,000 mm 0,0 UV-I 122 W/m 8,3 C 8,6 C 14,5 km/h (3 Bft) 100,00 %
09.05.2018 06:39 10,6 C 17,8 C 86 % 1005,7 hPa 0,0 l/m 7,0 km/h (2 Bft) NO 53 1 min 0,000 mm 0,0 UV-I 124 W/m 8,4 C 10,2 C 9,7 km/h (2 Bft) 95,65 %
09.05.2018 06:40 10,6 C 17,8 C 86 % 1005,7 hPa 0,0 l/m 7,8 km/h (2 Bft) O 86 1 min 0,000 mm 0,0 UV-I 127 W/m 8,4 C 9,6 C 12,9 km/h (3 Bft) 100,00 %
09.05.2018 06:41 10,7 C 17,8 C 86 % 1005,7 hPa 0,0 l/m 8,0 km/h (2 Bft) O 88 1 min 0,000 mm 0,0 UV-I 130 W/m 8,5 C 9,6 C 11,3 km/h (2 Bft) 100,00 %
09.05.2018 06:42 10,7 C 17,8 C 86 % 1005,7 hPa 0,0 l/m 7,3 km/h (2 Bft) O 95 1 min 0,000 mm 0,0 UV-I 134 W/m 8,5 C 10,1 C 11,3 km/h (2 Bft) 100,00 %
09.05.2018 06:43 10,7 C 17,8 C 86 % 1005,7 hPa 0,0 l/m 8,5 km/h (2 Bft) O-NO 76 1 min 0,000 mm 0,0 UV-I 136 W/m 8,5 C 9,3 C 11,3 km/h (2 Bft) 100,00 %
09.05.2018 06:44 10,7 C 17,8 C 85 % 1005,7 hPa 0,0 l/m 6,7 km/h (2 Bft) O-NO 76 1 min 0,000 mm 0,0 UV-I 140 W/m 8,3 C 10,5 C 11,3 km/h (2 Bft) 100,00 %
09.05.2018 06:45 10,8 C 17,8 C 86 % 1005,7 hPa 0,0 l/m 10,5 km/h (2 Bft) O-SO 105 1 min 0,000 mm 0,0 UV-I 143 W/m 8,6 C 8,2 C 14,5 km/h (3 Bft) 96,15 %
09.05.2018 06:46 10,8 C 17,8 C 86 % 1005,7 hPa 0,0 l/m 12,5 km/h (3 Bft) O-NO 59 1 min 0,000 mm 0,0 UV-I 147 W/m 8,6 C 7,2 C 16,1 km/h (3 Bft) 100,00 %
09.05.2018 06:47 10,8 C 17,8 C 86 % 1005,7 hPa 0,0 l/m 9,7 km/h (2 Bft) O-NO 75 1 min 0,000 mm 0,0 UV-I 149 W/m 8,6 C 8,6 C 14,5 km/h (3 Bft) 100,00 %
09.05.2018 06:48 10,9 C 17,8 C 86 % 1005,7 hPa 0,0 l/m 7,5 km/h (2 Bft) O 81 1 min 0,000 mm 0,0 UV-I 154 W/m 8,7 C 10,1 C 11,3 km/h (2 Bft) 100,00 %
09.05.2018 06:49 10,9 C 17,8 C 85 % 1005,7 hPa 0,0 l/m 8,8 km/h (2 Bft) O 84 1 min 0,000 mm 0,0 UV-I 157 W/m 8,5 C 9,3 C 11,3 km/h (2 Bft) 91,30 %
09.05.2018 06:50 10,9 C 17,8 C 85 % 1005,8 hPa 0,0 l/m 10,3 km/h (2 Bft) O 92 1 min 0,000 mm 0,0 UV-I 161 W/m 8,5 C 8,4 C 14,5 km/h (3 Bft) 100,00 %
09.05.2018 06:51 11,0 C 17,8 C 85 % 1005,8 hPa 0,0 l/m 8,6 km/h (2 Bft) O-NO 71 1 min 0,000 mm 0,0 UV-I 164 W/m 8,6 C 9,5 C 14,5 km/h (3 Bft) 95,83 %
09.05.2018 06:52 11,1 C 17,8 C 85 % 1005,8 hPa 0,0 l/m 8,9 km/h (2 Bft) O 82 1 min 0,000 mm 0,0 UV-I 168 W/m 8,7 C 9,4 C 12,9 km/h (3 Bft) 100,00 %
09.05.2018 06:53 11,1 C 17,8 C 85 % 1005,8 hPa 0,0 l/m 6,4 km/h (2 Bft) O 92 1 min 0,000 mm 0,0 UV-I 172 W/m 8,7 C 11,1 C 9,7 km/h (2 Bft) 95,83 %
09.05.2018 06:54 11,2 C 17,8 C 85 % 1005,8 hPa 0,0 l/m 5,5 km/h (1 Bft) O 93 1 min 0,000 mm 0,0 UV-I 177 W/m 8,8 C 11,2 C 8,0 km/h (2 Bft) 100,00 %
09.05.2018 06:55 11,2 C 17,8 C 85 % 1005,7 hPa 0,0 l/m 8,9 km/h (2 Bft) O-NO 69 1 min 0,000 mm 0,0 UV-I 182 W/m 8,8 C 9,6 C 12,9 km/h (3 Bft) 100,00 %
09.05.2018 06:56 11,2 C 17,8 C 85 % 1005,8 hPa 0,0 l/m 9,3 km/h (2 Bft) O 79 1 min 0,000 mm 0,0 UV-I 186 W/m 8,8 C 9,3 C 12,9 km/h (3 Bft) 95,65 %
09.05.2018 06:57 11,3 C 17,8 C 85 % 1005,8 hPa 0,0 l/m 11,7 km/h (2 Bft) O-NO 60 1 min 0,000 mm 0,0 UV-I 191 W/m 8,9 C 8,2 C 14,5 km/h (3 Bft) 100,00 %
09.05.2018 06:58 11,3 C 17,8 C 84 % 1005,8 hPa 0,0 l/m 8,7 km/h (2 Bft) O-NO 70 1 min 0,000 mm 0,0 UV-I 196 W/m 8,7 C 9,8 C 12,9 km/h (3 Bft) 100,00 %
09.05.2018 06:59 11,3 C 17,8 C 84 % 1005,8 hPa 0,0 l/m 6,4 km/h (2 Bft) O 98 1 min 0,000 mm 0,0 UV-I 202 W/m 8,7 C 11,3 C 9,7 km/h (2 Bft) 100,00 %
09.05.2018 07:00 11,4 C 17,8 C 84 % 1005,8 hPa 0,0 l/m 8,1 km/h (2 Bft) O-NO 71 1 min 0,051 mm 0,0 UV-I 207 W/m 8,8 C 10,3 C 11,3 km/h (2 Bft) 100,00 %
09.05.2018 07:01 11,4 C 17,8 C 84 % 1005,8 hPa 0,0 l/m 10,3 km/h (2 Bft) O-SO 103 1 min 0,000 mm 0,0 UV-I 212 W/m 8,8 C 9,0 C 14,5 km/h (3 Bft) 100,00 %
09.05.2018 07:02 11,5 C 17,8 C 84 % 1005,8 hPa 0,0 l/m 9,9 km/h (2 Bft) O-NO 68 1 min 0,000 mm 0,0 UV-I 217 W/m 8,9 C 9,3 C 16,1 km/h (3 Bft) 95,65 %
09.05.2018 07:03 11,5 C 17,8 C 84 % 1005,8 hPa 0,0 l/m 8,1 km/h (2 Bft) O-NO 73 1 min 0,000 mm 0,0 UV-I 223 W/m 8,9 C 10,4 C 12,9 km/h (3 Bft) 100,00 %
09.05.2018 07:04 11,6 C 17,8 C 84 % 1005,8 hPa 0,0 l/m 10,7 km/h (2 Bft) NO 52 1 min 0,000 mm 0,0 UV-I 229 W/m 9,0 C 9,0 C 14,5 km/h (3 Bft) 100,00 %
09.05.2018 07:05 11,6 C 17,8 C 84 % 1005,9 hPa 0,0 l/m 8,9 km/h (2 Bft) O 84 1 min 0,000 mm 0,0 UV-I 236 W/m 9,0 C 10,0 C 12,9 km/h (3 Bft) 100,00 %
09.05.2018 07:06 11,7 C 17,8 C 84 % 1005,9 hPa 0,0 l/m 13,0 km/h (3 Bft) O 96 1 min 0,000 mm 0,0 UV-I 242 W/m 9,1 C 8,0 C 17,7 km/h (3 Bft) 100,00 %
09.05.2018 07:07 11,7 C 17,8 C 84 % 1005,9 hPa 0,0 l/m 11,3 km/h (2 Bft) O-NO 70 1 min 0,000 mm 0,0 UV-I 249 W/m 9,1 C 8,8 C 16,1 km/h (3 Bft) 100,00 %
09.05.2018 07:09 11,8 C 17,8 C 83 % 1005,9 hPa 0,0 l/m 9,1 km/h (2 Bft) NO 55 2 min 0,000 mm 0,0 UV-I 259 W/m 9,0 C 10,1 C 14,5 km/h (3 Bft) 100,00 %
09.05.2018 07:10 11,8 C 17,8 C 83 % 1005,9 hPa 0,0 l/m 7,4 km/h (2 Bft) O-NO 68 1 min 0,000 mm 0,0 UV-I 271 W/m 9,0 C 11,1 C 14,5 km/h (3 Bft) 100,00 %
09.05.2018 07:11 11,9 C 17,8 C 83 % 1005,9 hPa 0,0 l/m 13,5 km/h (3 Bft) NO 54 1 min 0,000 mm 0,0 UV-I 277 W/m 9,1 C 8,0 C 17,7 km/h (3 Bft) 100,00 %
09.05.2018 07:12 11,9 C 17,8 C 83 % 1005,9 hPa 0,0 l/m 10,2 km/h (2 Bft) O 92 1 min 0,000 mm 0,0 UV-I 284 W/m 9,1 C 9,6 C 12,9 km/h (3 Bft) 100,00 %
09.05.2018 07:13 11,9 C 17,8 C 83 % 1005,9 hPa 0,0 l/m 8,5 km/h (2 Bft) O 82 1 min 0,000 mm 0,0 UV-I 290 W/m 9,1 C 10,5 C 11,3 km/h (2 Bft) 95,65 %
09.05.2018 07:14 12,0 C 17,8 C 83 % 1005,9 hPa 0,0 l/m 7,6 km/h (2 Bft) O-NO 69 1 min 0,000 mm 0,0 UV-I 297 W/m 9,2 C 11,2 C 11,3 km/h (2 Bft) 100,00 %
09.05.2018 07:15 12,1 C 17,8 C 83 % 1005,8 hPa 0,0 l/m 5,4 km/h (1 Bft) O-NO 60 1 min 0,000 mm 0,0 UV-I 301 W/m 9,3 C 12,1 C 8,0 km/h (2 Bft) 100,00 %
09.05.2018 07:16 12,1 C 17,8 C 83 % 1005,8 hPa 0,0 l/m 10,3 km/h (2 Bft) NO 44 1 min 0,000 mm 0,0 UV-I 307 W/m 9,3 C 9,8 C 14,5 km/h (3 Bft) 100,00 %
09.05.2018 07:17 12,2 C 17,8 C 83 % 1005,8 hPa 0,0 l/m 11,8 km/h (2 Bft) O-NO 71 1 min 0,000 mm 0,0 UV-I 312 W/m 9,4 C 9,1 C 16,1 km/h (3 Bft) 100,00 %
09.05.2018 07:18 12,3 C 17,8 C 83 % 1005,8 hPa 0,0 l/m 12,5 km/h (3 Bft) O-NO 76 1 min 0,000 mm 0,0 UV-I 317 W/m 9,5 C 8,9 C 17,7 km/h (3 Bft) 100,00 %
09.05.2018 07:19 12,3 C 17,8 C 82 % 1005,8 hPa 0,0 l/m 12,6 km/h (3 Bft) O-NO 67 1 min 0,000 mm 0,0 UV-I 321 W/m 9,3 C 8,9 C 17,7 km/h (3 Bft) 100,00 %
09.05.2018 07:20 12,3 C 17,8 C 81 % 1005,8 hPa 0,0 l/m 13,9 km/h (3 Bft) O-NO 69 1 min 0,000 mm 0,0 UV-I 324 W/m 9,1 C 8,4 C 17,7 km/h (3 Bft) 95,83 %
09.05.2018 07:21 12,3 C 17,8 C 81 % 1005,8 hPa 0,0 l/m 13,5 km/h (3 Bft) O-NO 67 1 min 0,000 mm 0,0 UV-I 325 W/m 9,1 C 8,5 C 16,1 km/h (3 Bft) 100,00 %
09.05.2018 07:22 12,4 C 17,8 C 82 % 1005,9 hPa 0,0 l/m 9,6 km/h (2 Bft) O-NO 71 1 min 0,000 mm 0,0 UV-I 323 W/m 9,4 C 10,5 C 12,9 km/h (3 Bft) 95,83 %
09.05.2018 07:23 12,4 C 17,8 C 81 % 1005,8 hPa 0,0 l/m 12,3 km/h (3 Bft) O-NO 68 1 min 0,000 mm 0,0 UV-I 317 W/m 9,2 C 9,1 C 16,1 km/h (3 Bft) 100,00 %
09.05.2018 07:24 12,4 C 17,8 C 81 % 1005,9 hPa 0,0 l/m 14,6 km/h (3 Bft) O-NO 61 1 min 0,000 mm 0,0 UV-I 329 W/m 9,2 C 8,2 C 19,3 km/h (3 Bft) 95,83 %
09.05.2018 07:25 12,5 C 17,8 C 81 % 1005,9 hPa 0,0 l/m 11,6 km/h (2 Bft) O-SO 108 1 min 0,000 mm 0,0 UV-I 340 W/m 9,3 C 9,6 C 14,5 km/h (3 Bft) 100,00 %
09.05.2018 07:26 12,5 C 17,8 C 82 % 1005,9 hPa 0,0 l/m 11,3 km/h (2 Bft) O 90 1 min 0,000 mm 0,0 UV-I 342 W/m 9,5 C 9,7 C 14,5 km/h (3 Bft) 95,83 %
09.05.2018 07:27 12,6 C 17,8 C 82 % 1005,9 hPa 0,0 l/m 11,9 km/h (2 Bft) O 91 1 min 0,000 mm 0,0 UV-I 343 W/m 9,6 C 9,6 C 14,5 km/h (3 Bft) 100,00 %
09.05.2018 07:28 12,7 C 17,8 C 81 % 1005,9 hPa 0,0 l/m 9,3 km/h (2 Bft) O-NO 73 1 min 0,000 mm 0,0 UV-I 345 W/m 9,5 C 10,9 C 12,9 km/h (3 Bft) 95,65 %
09.05.2018 07:29 12,7 C 17,8 C 81 % 1005,9 hPa 0,0 l/m 8,2 km/h (2 Bft) O-NO 73 1 min 0,000 mm 0,0 UV-I 346 W/m 9,5 C 11,6 C 12,9 km/h (3 Bft) 95,83 %
09.05.2018 07:30 12,8 C 17,8 C 81 % 1005,9 hPa 0,0 l/m 12,1 km/h (2 Bft) O-NO 71 1 min 0,000 mm 0,0 UV-I 349 W/m 9,6 C 9,7 C 16,1 km/h (3 Bft) 95,65 %
09.05.2018 07:31 12,8 C 17,8 C 80 % 1005,9 hPa 0,0 l/m 15,6 km/h (3 Bft) O-NO 68 1 min 0,000 mm 0,0 UV-I 351 W/m 9,4 C 8,3 C 20,9 km/h (4 Bft) 95,83 %
09.05.2018 07:32 12,8 C 17,8 C 80 % 1005,9 hPa 0,0 l/m 14,3 km/h (3 Bft) O-SO 103 1 min 0,000 mm 0,0 UV-I 353 W/m 9,4 C 8,8 C 17,7 km/h (3 Bft) 95,65 %
09.05.2018 07:33 12,8 C 17,8 C 80 % 1005,9 hPa 0,0 l/m 12,1 km/h (2 Bft) O 89 1 min 0,000 mm 0,3 UV-I 356 W/m 9,4 C 9,7 C 16,1 km/h (3 Bft) 96,30 %
09.05.2018 07:34 12,9 C 17,8 C 80 % 1005,9 hPa 0,0 l/m 8,0 km/h (2 Bft) O 100 1 min 0,000 mm 0,5 UV-I 356 W/m 9,5 C 11,9 C 12,9 km/h (3 Bft) 95,65 %
09.05.2018 07:35 12,9 C 17,8 C 80 % 1005,9 hPa 0,0 l/m 7,5 km/h (2 Bft) O 82 1 min 0,000 mm 0,5 UV-I 353 W/m 9,5 C 12,2 C 14,5 km/h (3 Bft) 95,83 %
09.05.2018 07:36 13,0 C 17,8 C 81 % 1005,9 hPa 0,0 l/m 13,2 km/h (3 Bft) O 80 1 min 0,000 mm 0,5 UV-I 359 W/m 9,8 C 9,5 C 16,1 km/h (3 Bft) 91,30 %
09.05.2018 07:37 13,0 C 17,8 C 80 % 1005,9 hPa 0,0 l/m 10,8 km/h (2 Bft) O 94 1 min 0,000 mm 0,5 UV-I 360 W/m 9,6 C 10,5 C 14,5 km/h (3 Bft) 95,83 %
09.05.2018 07:38 13,1 C 17,8 C 80 % 1005,9 hPa 0,0 l/m 10,5 km/h (2 Bft) O-NO 71 1 min 0,000 mm 0,5 UV-I 362 W/m 9,7 C 10,8 C 12,9 km/h (3 Bft) 91,30 %
09.05.2018 07:39 13,2 C 17,8 C 80 % 1005,9 hPa 0,0 l/m 10,4 km/h (2 Bft) O-SO 103 1 min 0,000 mm 0,5 UV-I 363 W/m 9,8 C 10,9 C 12,9 km/h (3 Bft) 95,83 %
09.05.2018 07:40 13,2 C 17,8 C 80 % 1005,9 hPa 0,0 l/m 7,2 km/h (2 Bft) O-NO 59 1 min 0,000 mm 0,5 UV-I 366 W/m 9,8 C 12,7 C 9,7 km/h (2 Bft) 95,65 %
09.05.2018 07:41 13,3 C 17,8 C 80 % 1005,9 hPa 0,0 l/m 9,4 km/h (2 Bft) O-NO 69 1 min 0,000 mm 0,5 UV-I 365 W/m 9,9 C 11,5 C 14,5 km/h (3 Bft) 95,83 %
09.05.2018 07:42 13,4 C 17,8 C 80 % 1006,0 hPa 0,0 l/m 12,6 km/h (3 Bft) O 97 1 min 0,000 mm 0,5 UV-I 360 W/m 10,0 C 10,2 C 17,7 km/h (3 Bft) 95,65 %
09.05.2018 07:43 13,4 C 17,8 C 79 % 1006,0 hPa 0,0 l/m 13,3 km/h (3 Bft) O 80 1 min 0,000 mm 0,5 UV-I 359 W/m 9,8 C 9,9 C 19,3 km/h (3 Bft) 95,83 %
09.05.2018 07:44 13,5 C 17,8 C 79 % 1006,0 hPa 0,0 l/m 13,9 km/h (3 Bft) O 82 1 min 0,000 mm 0,5 UV-I 356 W/m 9,9 C 9,8 C 17,7 km/h (3 Bft) 91,30 %
09.05.2018 07:45 13,5 C 17,8 C 80 % 1006,0 hPa 0,0 l/m 13,3 km/h (3 Bft) O-NO 70 1 min 0,000 mm 0,5 UV-I 353 W/m 10,1 C 10,0 C 17,7 km/h (3 Bft) 91,67 %
09.05.2018 07:46 13,6 C 17,8 C 79 % 1006,0 hPa 0,0 l/m 12,2 km/h (2 Bft) NO 53 1 min 0,000 mm 0,5 UV-I 352 W/m 10,0 C 10,6 C 16,1 km/h (3 Bft) 95,65 %
09.05.2018 07:47 13,6 C 17,8 C 79 % 1006,0 hPa 0,0 l/m 11,9 km/h (2 Bft) O-NO 70 1 min 0,000 mm 0,5 UV-I 352 W/m 10,0 C 10,7 C 16,1 km/h (3 Bft) 91,67 %
09.05.2018 07:48 13,6 C 17,8 C 79 % 1006,0 hPa 0,0 l/m 13,6 km/h (3 Bft) O 85 1 min 0,000 mm 0,5 UV-I 350 W/m 10,0 C 10,0 C 17,7 km/h (3 Bft) 92,31 %
09.05.2018 07:49 13,6 C 17,8 C 79 % 1006,0 hPa 0,0 l/m 13,6 km/h (3 Bft) O-NO 66 1 min 0,000 mm 0,5 UV-I 350 W/m 10,0 C 10,0 C 17,7 km/h (3 Bft) 95,83 %
09.05.2018 07:50 13,6 C 17,8 C 79 % 1006,0 hPa 0,0 l/m 9,1 km/h (2 Bft) O-NO 76 1 min 0,000 mm 0,6 UV-I 350 W/m 10,0 C 12,0 C 12,9 km/h (3 Bft) 93,33 %
09.05.2018 07:51 13,6 C 17,8 C 80 % 1006,0 hPa 0,0 l/m 15,2 km/h (3 Bft) O-NO 57 1 min 0,000 mm 0,6 UV-I 352 W/m 10,2 C 9,4 C 20,9 km/h (4 Bft) 96,55 %
09.05.2018 07:52 13,6 C 17,8 C 80 % 1006,0 hPa 0,0 l/m 14,1 km/h (3 Bft) O-NO 59 1 min 0,000 mm 0,6 UV-I 352 W/m 10,2 C 9,8 C 19,3 km/h (3 Bft) 95,83 %
09.05.2018 07:53 13,6 C 17,8 C 80 % 1006,0 hPa 0,0 l/m 11,7 km/h (2 Bft) NO 49 1 min 0,000 mm 0,6 UV-I 354 W/m 10,2 C 10,8 C 16,1 km/h (3 Bft) 95,65 %
09.05.2018 07:54 13,7 C 17,8 C 80 % 1006,0 hPa 0,0 l/m 11,6 km/h (2 Bft) NO 51 1 min 0,000 mm 0,6 UV-I 356 W/m 10,3 C 10,9 C 16,1 km/h (3 Bft) 95,83 %
09.05.2018 07:55 13,7 C 17,8 C 81 % 1006,0 hPa 0,0 l/m 11,6 km/h (2 Bft) NO 49 1 min 0,000 mm 0,6 UV-I 357 W/m 10,5 C 10,9 C 20,9 km/h (4 Bft) 100,00 %
09.05.2018 07:56 13,8 C 17,8 C 80 % 1006,0 hPa 0,0 l/m 16,8 km/h (3 Bft) O-NO 57 1 min 0,000 mm 0,6 UV-I 358 W/m 10,4 C 9,1 C 20,9 km/h (4 Bft) 91,67 %
09.05.2018 07:57 13,8 C 17,8 C 80 % 1006,1 hPa 0,0 l/m 15,3 km/h (3 Bft) O-NO 62 1 min 0,000 mm 0,6 UV-I 360 W/m 10,4 C 9,6 C 20,9 km/h (4 Bft) 100,00 %
09.05.2018 07:58 13,7 C 17,8 C 80 % 1006,0 hPa 0,0 l/m 11,2 km/h (2 Bft) NO 36 1 min 0,000 mm 0,6 UV-I 362 W/m 10,3 C 11,1 C 19,3 km/h (3 Bft) 95,83 %
09.05.2018 07:59 13,8 C 17,8 C 80 % 1006,0 hPa 0,0 l/m 15,5 km/h (3 Bft) O-NO 71 1 min 0,000 mm 0,6 UV-I 363 W/m 10,4 C 9,6 C 22,5 km/h (4 Bft) 100,00 %
09.05.2018 08:00 13,8 C 17,8 C 79 % 1006,0 hPa 0,0 l/m 10,5 km/h (2 Bft) O-NO 71 1 min 0,178 mm 0,6 UV-I 365 W/m 10,2 C 11,6 C 14,5 km/h (3 Bft) 95,83 %
09.05.2018 08:01 13,8 C 17,8 C 79 % 1006,1 hPa 0,0 l/m 8,2 km/h (2 Bft) O-NO 57 1 min 0,000 mm 0,6 UV-I 367 W/m 10,2 C 12,7 C 14,5 km/h (3 Bft) 100,00 %
09.05.2018 08:02 13,8 C 17,8 C 81 % 1006,1 hPa 0,0 l/m 12,1 km/h (2 Bft) O 90 1 min 0,000 mm 0,7 UV-I 368 W/m 10,6 C 10,8 C 17,7 km/h (3 Bft) 95,65 %
09.05.2018 08:03 13,9 C 17,8 C 81 % 1006,0 hPa 0,0 l/m 11,0 km/h (2 Bft) O 79 1 min 0,000 mm 0,7 UV-I 371 W/m 10,7 C 11,4 C 19,3 km/h (3 Bft) 96,15 %
09.05.2018 08:04 13,9 C 17,8 C 80 % 1006,0 hPa 0,0 l/m 14,8 km/h (3 Bft) O-NO 72 1 min 0,000 mm 0,7 UV-I 373 W/m 10,5 C 9,9 C 19,3 km/h (3 Bft) 100,00 %
09.05.2018 08:05 13,9 C 17,8 C 79 % 1006,1 hPa 0,0 l/m 13,9 km/h (3 Bft) O 89 1 min 0,000 mm 0,7 UV-I 375 W/m 10,3 C 10,3 C 17,7 km/h (3 Bft) 95,83 %
09.05.2018 08:06 13,9 C 17,8 C 79 % 1006,1 hPa 0,0 l/m 13,0 km/h (3 Bft) O-NO 75 1 min 0,000 mm 0,7 UV-I 377 W/m 10,3 C 10,6 C 16,1 km/h (3 Bft) 100,00 %
09.05.2018 08:07 13,9 C 17,8 C 79 % 1006,1 hPa 0,0 l/m 10,2 km/h (2 Bft) O-NO 74 1 min 0,000 mm 0,7 UV-I 379 W/m 10,3 C 11,8 C 14,5 km/h (3 Bft) 95,83 %
09.05.2018 08:08 13,8 C 17,8 C 79 % 1006,1 hPa 0,0 l/m 11,7 km/h (2 Bft) O-NO 62 1 min 0,000 mm 0,7 UV-I 382 W/m 10,2 C 11,0 C 16,1 km/h (3 Bft) 95,65 %
09.05.2018 08:09 13,9 C 17,8 C 79 % 1006,1 hPa 0,0 l/m 10,9 km/h (2 Bft) O-NO 74 1 min 0,000 mm 0,7 UV-I 382 W/m 10,3 C 11,5 C 14,5 km/h (3 Bft) 95,83 %
09.05.2018 08:10 13,9 C 17,8 C 79 % 1006,1 hPa 0,0 l/m 12,7 km/h (3 Bft) O 95 1 min 0,000 mm 0,7 UV-I 385 W/m 10,3 C 10,7 C 19,3 km/h (3 Bft) 95,65 %
09.05.2018 08:11 13,9 C 17,8 C 79 % 1006,2 hPa 0,0 l/m 13,5 km/h (3 Bft) O 98 1 min 0,000 mm 0,7 UV-I 387 W/m 10,3 C 10,4 C 17,7 km/h (3 Bft) 100,00 %
09.05.2018 08:12 13,9 C 17,8 C 79 % 1006,2 hPa 0,0 l/m 12,9 km/h (3 Bft) O 79 1 min 0,000 mm 0,7 UV-I 389 W/m 10,3 C 10,6 C 16,1 km/h (3 Bft) 95,65 %
09.05.2018 08:13 14,0 C 17,8 C 79 % 1006,2 hPa 0,0 l/m 12,1 km/h (2 Bft) O-NO 57 1 min 0,000 mm 0,8 UV-I 389 W/m 10,4 C 11,1 C 17,7 km/h (3 Bft) 100,00 %
09.05.2018 08:14 14,1 C 17,8 C 80 % 1006,1 hPa 0,0 l/m 10,9 km/h (2 Bft) O-NO 65 1 min 0,000 mm 0,8 UV-I 388 W/m 10,7 C 11,7 C 16,1 km/h (3 Bft) 95,65 %
09.05.2018 08:15 14,1 C 17,8 C 80 % 1006,2 hPa 0,0 l/m 8,5 km/h (2 Bft) O 81 1 min 0,000 mm 0,8 UV-I 388 W/m 10,7 C 12,9 C 11,3 km/h (2 Bft) 100,00 %
09.05.2018 08:16 14,2 C 17,8 C 79 % 1006,2 hPa 0,0 l/m 15,0 km/h (3 Bft) O-NO 72 1 min 0,000 mm 0,8 UV-I 386 W/m 10,6 C 10,2 C 24,1 km/h (4 Bft) 95,65 %
09.05.2018 08:17 14,2 C 17,8 C 78 % 1006,1 hPa 0,0 l/m 16,1 km/h (3 Bft) O-NO 76 1 min 0,000 mm 0,8 UV-I 371 W/m 10,4 C 9,9 C 19,3 km/h (3 Bft) 100,00 %
09.05.2018 08:18 14,1 C 17,8 C 78 % 1006,1 hPa 0,0 l/m 10,2 km/h (2 Bft) O-NO 69 1 min 0,000 mm 0,8 UV-I 350 W/m 10,3 C 12,0 C 14,5 km/h (3 Bft) 95,65 %
09.05.2018 08:19 14,2 C 17,8 C 79 % 1006,1 hPa 0,0 l/m 15,4 km/h (3 Bft) O 95 1 min 0,000 mm 0,8 UV-I 339 W/m 10,6 C 10,1 C 20,9 km/h (4 Bft) 100,00 %
09.05.2018 08:20 14,2 C 17,8 C 79 % 1006,1 hPa 0,0 l/m 15,5 km/h (3 Bft) O 98 1 min 0,000 mm 0,8 UV-I 308 W/m 10,6 C 10,1 C 17,7 km/h (3 Bft) 93,33 %
09.05.2018 08:21 14,1 C 17,8 C 78 % 1006,1 hPa 0,0 l/m 17,9 km/h (3 Bft) O-NO 75 1 min 0,000 mm 0,8 UV-I 331 W/m 10,3 C 9,2 C 20,9 km/h (4 Bft) 100,00 %
09.05.2018 08:22 14,1 C 17,8 C 79 % 1006,1 hPa 0,0 l/m 16,1 km/h (3 Bft) O 93 1 min 0,000 mm 0,8 UV-I 382 W/m 10,5 C 9,7 C 20,9 km/h (4 Bft) 95,65 %
09.05.2018 08:23 14,1 C 17,8 C 78 % 1006,1 hPa 0,0 l/m 11,5 km/h (2 Bft) O-NO 73 1 min 0,000 mm 0,8 UV-I 408 W/m 10,3 C 11,4 C 17,7 km/h (3 Bft) 91,67 %
09.05.2018 08:24 14,2 C 17,8 C 79 % 1006,1 hPa 0,0 l/m 10,7 km/h (2 Bft) O-NO 76 1 min 0,000 mm 0,9 UV-I 423 W/m 10,6 C 11,9 C 17,7 km/h (3 Bft) 95,65 %
09.05.2018 08:25 14,3 C 17,8 C 80 % 1006,1 hPa 0,0 l/m 13,1 km/h (3 Bft) O-NO 74 1 min 0,000 mm 0,9 UV-I 432 W/m 10,9 C 11,0 C 17,7 km/h (3 Bft) 95,83 %
09.05.2018 08:26 14,3 C 17,8 C 79 % 1006,0 hPa 0,0 l/m 9,9 km/h (2 Bft) NO 55 1 min 0,000 mm 0,9 UV-I 437 W/m 10,7 C 12,4 C 16,1 km/h (3 Bft) 100,00 %
09.05.2018 08:27 14,5 C 17,8 C 80 % 1006,0 hPa 0,0 l/m 15,8 km/h (3 Bft) O 90 1 min 0,000 mm 0,9 UV-I 443 W/m 11,1 C 10,3 C 20,9 km/h (4 Bft) 100,00 %
09.05.2018 08:28 14,6 C 17,8 C 79 % 1006,1 hPa 0,0 l/m 15,7 km/h (3 Bft) O-NO 67 1 min 0,000 mm 0,9 UV-I 444 W/m 11,0 C 10,5 C 20,9 km/h (4 Bft) 100,00 %
09.05.2018 08:29 14,6 C 17,8 C 78 % 1006,1 hPa 0,0 l/m 10,9 km/h (2 Bft) O-NO 78 1 min 0,000 mm 0,9 UV-I 446 W/m 10,8 C 12,3 C 14,5 km/h (3 Bft) 100,00 %
09.05.2018 08:30 14,6 C 17,8 C 78 % 1006,1 hPa 0,0 l/m 8,6 km/h (2 Bft) O 84 1 min 0,000 mm 0,9 UV-I 448 W/m 10,8 C 13,4 C 12,9 km/h (3 Bft) 100,00 %
09.05.2018 08:31 14,7 C 17,8 C 78 % 1006,1 hPa 0,0 l/m 12,2 km/h (2 Bft) O 81 1 min 0,000 mm 1,0 UV-I 452 W/m 10,9 C 11,8 C 16,1 km/h (3 Bft) 100,00 %
09.05.2018 08:32 14,7 C 17,8 C 78 % 1006,1 hPa 0,0 l/m 10,5 km/h (2 Bft) O-NO 78 1 min 0,000 mm 1,0 UV-I 430 W/m 10,9 C 12,6 C 16,1 km/h (3 Bft) 100,00 %
09.05.2018 08:33 14,8 C 17,8 C 78 % 1006,1 hPa 0,0 l/m 15,5 km/h (3 Bft) O 100 1 min 0,000 mm 1,0 UV-I 457 W/m 11,0 C 10,8 C 19,3 km/h (3 Bft) 100,00 %
09.05.2018 08:34 14,8 C 17,8 C 77 % 1006,1 hPa 0,0 l/m 10,6 km/h (2 Bft) O-NO 69 1 min 0,000 mm 1,0 UV-I 450 W/m 10,8 C 12,6 C 14,5 km/h (3 Bft) 100,00 %
09.05.2018 08:35 14,8 C 17,8 C 77 % 1006,2 hPa 0,0 l/m 10,7 km/h (2 Bft) O 85 1 min 0,000 mm 1,0 UV-I 435 W/m 10,8 C 12,6 C 17,7 km/h (3 Bft) 100,00 %
09.05.2018 08:36 14,8 C 17,8 C 77 % 1006,2 hPa 0,0 l/m 20,8 km/h (4 Bft) O-NO 67 1 min 0,000 mm 1,0 UV-I 389 W/m 10,8 C 9,3 C 25,7 km/h (4 Bft) 100,00 %
09.05.2018 08:37 14,8 C 17,8 C 77 % 1006,2 hPa 0,0 l/m 18,6 km/h (3 Bft) O-SO 103 1 min 0,000 mm 1,0 UV-I 400 W/m 10,8 C 9,9 C 22,5 km/h (4 Bft) 100,00 %
09.05.2018 08:38 14,8 C 17,8 C 77 % 1006,2 hPa 0,0 l/m 18,3 km/h (3 Bft) O 97 1 min 0,000 mm 1,0 UV-I 455 W/m 10,8 C 9,9 C 25,7 km/h (4 Bft) 95,83 %
09.05.2018 08:39 14,8 C 17,8 C 76 % 1006,1 hPa 0,0 l/m 16,8 km/h (3 Bft) O-NO 77 1 min 0,000 mm 1,0 UV-I 401 W/m 10,6 C 10,4 C 20,9 km/h (4 Bft) 100,00 %
09.05.2018 08:40 14,8 C 17,8 C 77 % 1006,2 hPa 0,0 l/m 14,3 km/h (3 Bft) O-SO 103 1 min 0,000 mm 1,0 UV-I 400 W/m 10,8 C 11,2 C 19,3 km/h (3 Bft) 100,00 %
09.05.2018 08:41 14,8 C 17,8 C 77 % 1006,1 hPa 0,0 l/m 16,5 km/h (3 Bft) O-SO 107 1 min 0,000 mm 1,0 UV-I 353 W/m 10,8 C 10,5 C 20,9 km/h (4 Bft) 95,65 %
09.05.2018 08:42 14,8 C 17,8 C 77 % 1006,1 hPa 0,0 l/m 16,8 km/h (3 Bft) O 100 1 min 0,000 mm 1,1 UV-I 382 W/m 10,8 C 10,4 C 20,9 km/h (4 Bft) 100,00 %
09.05.2018 08:43 14,8 C 17,8 C 77 % 1006,1 hPa 0,0 l/m 19,3 km/h (3 Bft) O-SO 103 1 min 0,000 mm 1,1 UV-I 437 W/m 10,8 C 9,7 C 27,4 km/h (4 Bft) 100,00 %
09.05.2018 08:44 14,8 C 17,8 C 77 % 1006,2 hPa 0,0 l/m 14,3 km/h (3 Bft) O 87 1 min 0,000 mm 1,0 UV-I 388 W/m 10,8 C 11,2 C 20,9 km/h (4 Bft) 100,00 %
09.05.2018 08:45 14,8 C 17,8 C 77 % 1006,1 hPa 0,0 l/m 13,1 km/h (3 Bft) O 80 1 min 0,000 mm 1,0 UV-I 367 W/m 10,8 C 11,6 C 19,3 km/h (3 Bft) 100,00 %
09.05.2018 08:46 14,8 C 17,8 C 77 % 1006,2 hPa 0,0 l/m 15,0 km/h (3 Bft) O 91 1 min 0,000 mm 1,1 UV-I 388 W/m 10,8 C 10,9 C 20,9 km/h (4 Bft) 100,00 %
09.05.2018 08:47 14,8 C 17,8 C 78 % 1006,2 hPa 0,0 l/m 11,2 km/h (2 Bft) O 94 1 min 0,000 mm 1,1 UV-I 430 W/m 11,0 C 12,4 C 14,5 km/h (3 Bft) 100,00 %
09.05.2018 08:48 14,9 C 17,8 C 78 % 1006,2 hPa 0,0 l/m 11,8 km/h (2 Bft) O-SO 115 1 min 0,000 mm 1,1 UV-I 463 W/m 11,1 C 12,2 C 17,7 km/h (3 Bft) 100,00 %
09.05.2018 08:49 15,0 C 17,8 C 78 % 1006,2 hPa 0,0 l/m 9,7 km/h (2 Bft) O 101 1 min 0,000 mm 1,1 UV-I 422 W/m 11,2 C 13,3 C 16,1 km/h (3 Bft) 100,00 %
09.05.2018 08:50 15,1 C 17,8 C 78 % 1006,2 hPa 0,0 l/m 13,1 km/h (3 Bft) O 84 1 min 0,000 mm 1,1 UV-I 388 W/m 11,3 C 12,0 C 16,1 km/h (3 Bft) 100,00 %
09.05.2018 08:51 15,1 C 17,8 C 78 % 1006,2 hPa 0,0 l/m 14,1 km/h (3 Bft) O 92 1 min 0,000 mm 1,1 UV-I 378 W/m 11,3 C 11,6 C 19,3 km/h (3 Bft) 100,00 %
09.05.2018 08:52 15,1 C 17,8 C 77 % 1006,2 hPa 0,0 l/m 12,1 km/h (2 Bft) O 86 1 min 0,000 mm 1,1 UV-I 395 W/m 11,1 C 12,3 C 22,5 km/h (4 Bft) 100,00 %
09.05.2018 08:53 15,1 C 17,8 C 77 % 1006,2 hPa 0,0 l/m 16,2 km/h (3 Bft) O 95 1 min 0,000 mm 1,1 UV-I 402 W/m 11,1 C 10,9 C 22,5 km/h (4 Bft) 100,00 %
09.05.2018 08:54 15,1 C 17,8 C 77 % 1006,2 hPa 0,0 l/m 14,5 km/h (3 Bft) O-SO 105 1 min 0,000 mm 1,1 UV-I 400 W/m 11,1 C 11,5 C 17,7 km/h (3 Bft) 100,00 %
09.05.2018 08:55 15,1 C 17,8 C 77 % 1006,2 hPa 0,0 l/m 12,9 km/h (3 Bft) O-SO 104 1 min 0,000 mm 1,1 UV-I 392 W/m 11,1 C 12,0 C 22,5 km/h (4 Bft) 100,00 %
09.05.2018 08:56 15,1 C 17,8 C 77 % 1006,2 hPa 0,0 l/m 16,6 km/h (3 Bft) O-SO 108 1 min 0,000 mm 1,1 UV-I 409 W/m 11,1 C 10,8 C 20,9 km/h (4 Bft) 100,00 %
09.05.2018 08:57 15,1 C 17,8 C 77 % 1006,2 hPa 0,0 l/m 17,1 km/h (3 Bft) O 82 1 min 0,000 mm 1,2 UV-I 412 W/m 11,1 C 10,7 C 19,3 km/h (3 Bft) 95,83 %
09.05.2018 08:58 15,2 C 17,8 C 77 % 1006,2 hPa 0,0 l/m 17,5 km/h (3 Bft) O-NO 74 1 min 0,000 mm 1,2 UV-I 428 W/m 11,2 C 10,7 C 22,5 km/h (4 Bft) 100,00 %
09.05.2018 08:59 15,2 C 17,8 C 77 % 1006,2 hPa 0,0 l/m 14,5 km/h (3 Bft) O-NO 61 1 min 0,000 mm 1,2 UV-I 484 W/m 11,2 C 11,6 C 22,5 km/h (4 Bft) 100,00 %
09.05.2018 09:00 15,3 C 17,8 C 77 % 1006,1 hPa 0,0 l/m 19,8 km/h (3 Bft) O 87 1 min 0,254 mm 1,3 UV-I 549 W/m 11,3 C 10,2 C 22,5 km/h (4 Bft) 100,00 %
09.05.2018 09:01 15,4 C 17,8 C 76 % 1006,2 hPa 0,0 l/m 18,6 km/h (3 Bft) O 88 1 min 0,000 mm 1,3 UV-I 556 W/m 11,2 C 10,6 C 24,1 km/h (4 Bft) 100,00 %
09.05.2018 09:02 15,4 C 17,8 C 76 % 1006,2 hPa 0,0 l/m 23,6 km/h (4 Bft) O 84 1 min 0,000 mm 1,4 UV-I 564 W/m 11,2 C 9,4 C 29,0 km/h (5 Bft) 100,00 %
09.05.2018 09:03 15,5 C 17,8 C 75 % 1006,1 hPa 0,0 l/m 21,3 km/h (4 Bft) O 96 1 min 0,000 mm 1,4 UV-I 564 W/m 11,1 C 10,1 C 27,4 km/h (4 Bft) 100,00 %
09.05.2018 09:04 15,5 C 17,8 C 75 % 1006,1 hPa 0,0 l/m 22,4 km/h (4 Bft) O 85 1 min 0,000 mm 1,4 UV-I 563 W/m 11,1 C 9,8 C 29,0 km/h (5 Bft) 100,00 %
09.05.2018 09:05 15,6 C 17,8 C 74 % 1006,2 hPa 0,0 l/m 21,2 km/h (4 Bft) O 90 1 min 0,000 mm 1,4 UV-I 539 W/m 11,0 C 10,2 C 27,4 km/h (4 Bft) 100,00 %
09.05.2018 09:06 15,6 C 17,8 C 74 % 1006,2 hPa 0,0 l/m 21,3 km/h (4 Bft) O-SO 105 1 min 0,000 mm 1,4 UV-I 540 W/m 11,0 C 10,2 C 27,4 km/h (4 Bft) 100,00 %
09.05.2018 09:07 15,7 C 17,8 C 75 % 1006,2 hPa 0,0 l/m 20,3 km/h (4 Bft) O 86 1 min 0,000 mm 1,4 UV-I 570 W/m 11,3 C 10,6 C 27,4 km/h (4 Bft) 100,00 %
09.05.2018 09:08 15,7 C 17,8 C 75 % 1006,2 hPa 0,0 l/m 21,8 km/h (4 Bft) O 80 1 min 0,000 mm 1,4 UV-I 577 W/m 11,3 C 10,2 C 27,4 km/h (4 Bft) 95,83 %
09.05.2018 09:09 15,8 C 17,8 C 75 % 1006,1 hPa 0,0 l/m 21,5 km/h (4 Bft) O 92 1 min 0,000 mm 1,5 UV-I 573 W/m 11,4 C 10,4 C 25,7 km/h (4 Bft) 100,00 %
09.05.2018 09:10 15,9 C 17,8 C 75 % 1006,2 hPa 0,0 l/m 15,2 km/h (3 Bft) O-SO 120 1 min 0,000 mm 1,5 UV-I 546 W/m 11,5 C 12,2 C 25,7 km/h (4 Bft) 95,83 %
09.05.2018 09:11 15,9 C 17,8 C 74 % 1006,2 hPa 0,0 l/m 15,8 km/h (3 Bft) O-NO 72 1 min 0,000 mm 1,4 UV-I 483 W/m 11,3 C 12,0 C 22,5 km/h (4 Bft) 91,30 %
09.05.2018 09:12 16,0 C 17,8 C 74 % 1006,1 hPa 0,0 l/m 19,0 km/h (3 Bft) O 92 1 min 0,000 mm 1,5 UV-I 504 W/m 11,4 C 11,3 C 25,7 km/h (4 Bft) 100,00 %
09.05.2018 09:13 16,1 C 17,8 C 74 % 1006,2 hPa 0,0 l/m 17,2 km/h (3 Bft) O 79 1 min 0,000 mm 1,5 UV-I 539 W/m 11,5 C 11,9 C 25,7 km/h (4 Bft) 86,96 %
09.05.2018 09:14 16,2 C 17,8 C 74 % 1006,2 hPa 0,0 l/m 14,8 km/h (3 Bft) O 88 1 min 0,000 mm 1,5 UV-I 539 W/m 11,6 C 12,7 C 19,3 km/h (3 Bft) 100,00 %
09.05.2018 09:15 16,3 C 17,8 C 74 % 1006,2 hPa 0,0 l/m 14,2 km/h (3 Bft) O 90 1 min 0,000 mm 1,6 UV-I 581 W/m 11,7 C 13,0 C 19,3 km/h (3 Bft) 95,65 %
09.05.2018 09:16 16,4 C 17,8 C 73 % 1006,2 hPa 0,0 l/m 14,7 km/h (3 Bft) O-NO 63 1 min 0,000 mm 1,5 UV-I 576 W/m 11,5 C 13,0 C 20,9 km/h (4 Bft) 100,00 %
09.05.2018 09:17 16,4 C 17,8 C 72 % 1006,1 hPa 0,0 l/m 14,5 km/h (3 Bft) O 84 1 min 0,000 mm 1,6 UV-I 608 W/m 11,3 C 13,0 C 20,9 km/h (4 Bft) 91,30 %
09.05.2018 09:18 16,4 C 17,8 C 72 % 1006,2 hPa 0,0 l/m 16,7 km/h (3 Bft) O-NO 71 1 min 0,000 mm 1,6 UV-I 611 W/m 11,3 C 12,4 C 19,3 km/h (3 Bft) 100,00 %
09.05.2018 09:19 16,5 C 17,8 C 72 % 1006,2 hPa 0,0 l/m 16,0 km/h (3 Bft) O 88 1 min 0,000 mm 1,6 UV-I 615 W/m 11,4 C 12,7 C 20,9 km/h (4 Bft) 95,65 %
09.05.2018 09:20 16,6 C 17,8 C 72 % 1006,2 hPa 0,0 l/m 15,2 km/h (3 Bft) O-NO 74 1 min 0,000 mm 1,7 UV-I 619 W/m 11,5 C 13,1 C 20,9 km/h (4 Bft) 91,67 %
09.05.2018 09:21 16,7 C 17,8 C 71 % 1006,1 hPa 0,0 l/m 14,5 km/h (3 Bft) O-NO 74 1 min 0,000 mm 1,7 UV-I 622 W/m 11,4 C 13,4 C 20,9 km/h (4 Bft) 100,00 %
09.05.2018 09:22 16,8 C 17,8 C 72 % 1006,1 hPa 0,0 l/m 15,8 km/h (3 Bft) O 84 1 min 0,000 mm 1,7 UV-I 624 W/m 11,7 C 13,1 C 20,9 km/h (4 Bft) 95,83 %
09.05.2018 09:23 16,8 C 17,8 C 71 % 1006,1 hPa 0,0 l/m 18,3 km/h (3 Bft) O 88 1 min 0,000 mm 1,6 UV-I 625 W/m 11,5 C 12,5 C 22,5 km/h (4 Bft) 95,65 %
09.05.2018 09:24 16,8 C 17,8 C 71 % 1006,1 hPa 0,0 l/m 14,0 km/h (3 Bft) O-NO 71 1 min 0,000 mm 1,7 UV-I 635 W/m 11,5 C 13,7 C 19,3 km/h (3 Bft) 95,83 %
09.05.2018 09:25 16,8 C 17,8 C 71 % 1006,1 hPa 0,0 l/m 18,1 km/h (3 Bft) O-NO 65 1 min 0,000 mm 1,6 UV-I 633 W/m 11,5 C 12,5 C 22,5 km/h (4 Bft) 100,00 %
09.05.2018 09:26 16,8 C 17,8 C 71 % 1006,1 hPa 0,0 l/m 13,7 km/h (3 Bft) O-NO 66 1 min 0,000 mm 1,6 UV-I 528 W/m 11,5 C 13,8 C 17,7 km/h (3 Bft) 95,65 %
09.05.2018 09:27 16,8 C 17,8 C 71 % 1006,1 hPa 0,0 l/m 12,2 km/h (2 Bft) O-NO 73 1 min 0,000 mm 1,6 UV-I 539 W/m 11,5 C 14,3 C 16,1 km/h (3 Bft) 95,83 %
09.05.2018 09:28 16,8 C 17,8 C 71 % 1006,1 hPa 0,0 l/m 12,9 km/h (3 Bft) O 80 1 min 0,000 mm 1,6 UV-I 550 W/m 11,5 C 14,0 C 17,7 km/h (3 Bft) 100,00 %
09.05.2018 09:29 16,9 C 17,8 C 70 % 1006,1 hPa 0,0 l/m 18,6 km/h (3 Bft) O 79 1 min 0,000 mm 1,6 UV-I 574 W/m 11,4 C 12,5 C 24,1 km/h (4 Bft) 100,00 %
09.05.2018 09:30 17,0 C 17,8 C 69 % 1006,1 hPa 0,0 l/m 13,6 km/h (3 Bft) O-NO 73 1 min 0,000 mm 1,7 UV-I 591 W/m 11,3 C 14,0 C 20,9 km/h (4 Bft) 96,15 %
09.05.2018 09:31 17,0 C 17,8 C 70 % 1006,1 hPa 0,0 l/m 12,8 km/h (3 Bft) NO 54 1 min 0,000 mm 1,6 UV-I 584 W/m 11,5 C 14,3 C 17,7 km/h (3 Bft) 95,83 %
09.05.2018 09:32 17,1 C 17,8 C 72 % 1006,1 hPa 0,0 l/m 17,9 km/h (3 Bft) O-NO 61 1 min 0,000 mm 1,7 UV-I 502 W/m 12,0 C 13,0 C 24,1 km/h (4 Bft) 100,00 %
09.05.2018 09:33 17,1 C 17,8 C 70 % 1006,1 hPa 0,0 l/m 18,7 km/h (3 Bft) O-NO 67 1 min 0,000 mm 1,7 UV-I 575 W/m 11,6 C 12,8 C 22,5 km/h (4 Bft) 95,83 %
09.05.2018 09:34 17,0 C 17,8 C 70 % 1006,1 hPa 0,0 l/m 15,7 km/h (3 Bft) NO 51 1 min 0,000 mm 1,8 UV-I 632 W/m 11,5 C 13,4 C 20,9 km/h (4 Bft) 100,00 %
09.05.2018 09:35 17,1 C 18,3 C 72 % 1006,0 hPa 0,0 l/m 22,1 km/h (4 Bft) O-NO 67 1 min 0,000 mm 1,8 UV-I 632 W/m 12,0 C 12,0 C 27,4 km/h (4 Bft) 91,67 %
09.05.2018 09:36 17,2 C 18,3 C 71 % 1006,0 hPa 0,0 l/m 22,9 km/h (4 Bft) NO 45 1 min 0,000 mm 1,8 UV-I 609 W/m 11,9 C 12,0 C 29,0 km/h (5 Bft) 95,65 %
09.05.2018 09:37 17,2 C 17,8 C 70 % 1006,0 hPa 0,0 l/m 18,5 km/h (3 Bft) O-NO 67 1 min 0,000 mm 1,8 UV-I 591 W/m 11,7 C 12,9 C 25,7 km/h (4 Bft) 87,50 %
09.05.2018 09:38 17,3 C 17,8 C 71 % 1006,0 hPa 0,0 l/m 20,4 km/h (4 Bft) O-NO 67 1 min 0,000 mm 1,8 UV-I 574 W/m 12,0 C 12,6 C 25,7 km/h (4 Bft) 100,00 %
09.05.2018 09:39 17,3 C 17,8 C 69 % 1006,0 hPa 0,0 l/m 21,5 km/h (4 Bft) O-NO 76 1 min 0,000 mm 1,7 UV-I 541 W/m 11,6 C 12,4 C 27,4 km/h (4 Bft) 100,00 %
09.05.2018 09:40 17,3 C 17,8 C 68 % 1006,0 hPa 0,0 l/m 16,9 km/h (3 Bft) O-NO 66 1 min 0,000 mm 1,7 UV-I 534 W/m 11,3 C 13,5 C 19,3 km/h (3 Bft) 95,65 %
09.05.2018 09:41 17,2 C 17,8 C 67 % 1006,0 hPa 0,0 l/m 19,6 km/h (3 Bft) O 87 1 min 0,000 mm 1,7 UV-I 571 W/m 11,0 C 12,7 C 27,4 km/h (4 Bft) 100,00 %
09.05.2018 09:42 17,2 C 18,3 C 67 % 1006,0 hPa 0,0 l/m 21,1 km/h (4 Bft) O-NO 63 1 min 0,000 mm 1,9 UV-I 620 W/m 11,0 C 12,3 C 25,7 km/h (4 Bft) 100,00 %
09.05.2018 09:43 17,2 C 17,8 C 68 % 1006,0 hPa 0,0 l/m 18,4 km/h (3 Bft) O-NO 63 1 min 0,000 mm 1,9 UV-I 617 W/m 11,2 C 13,0 C 24,1 km/h (4 Bft) 100,00 %
09.05.2018 09:44 17,2 C 17,8 C 69 % 1006,0 hPa 0,0 l/m 17,6 km/h (3 Bft) O-NO 62 1 min 0,000 mm 1,8 UV-I 588 W/m 11,5 C 13,2 C 22,5 km/h (4 Bft) 100,00 %
09.05.2018 09:45 17,2 C 17,8 C 68 % 1006,0 hPa 0,0 l/m 17,6 km/h (3 Bft) N-NO 30 1 min 0,000 mm 1,8 UV-I 576 W/m 11,2 C 13,2 C 24,1 km/h (4 Bft) 95,65 %
09.05.2018 09:46 17,2 C 17,8 C 68 % 1006,0 hPa 0,0 l/m 17,7 km/h (3 Bft) O-NO 69 1 min 0,000 mm 1,8 UV-I 570 W/m 11,2 C 13,1 C 24,1 km/h (4 Bft) 95,83 %
09.05.2018 09:47 17,3 C 17,8 C 68 % 1006,0 hPa 0,0 l/m 16,2 km/h (3 Bft) O-NO 78 1 min 0,000 mm 1,8 UV-I 565 W/m 11,3 C 13,6 C 22,5 km/h (4 Bft) 100,00 %
09.05.2018 09:48 17,3 C 18,3 C 67 % 1006,0 hPa 0,0 l/m 22,2 km/h (4 Bft) O-NO 73 1 min 0,000 mm 1,9 UV-I 591 W/m 11,1 C 12,3 C 27,4 km/h (4 Bft) 100,00 %
09.05.2018 09:49 17,3 C 17,8 C 67 % 1006,0 hPa 0,0 l/m 19,4 km/h (3 Bft) NO 53 1 min 0,000 mm 1,8 UV-I 536 W/m 11,1 C 12,9 C 22,5 km/h (4 Bft) 100,00 %
09.05.2018 09:50 17,3 C 17,8 C 67 % 1006,0 hPa 0,0 l/m 14,8 km/h (3 Bft) O-NO 66 1 min 0,000 mm 1,8 UV-I 518 W/m 11,1 C 14,0 C 20,9 km/h (4 Bft) 100,00 %
09.05.2018 09:51 17,3 C 18,3 C 67 % 1006,0 hPa 0,0 l/m 18,3 km/h (3 Bft) O 83 1 min 0,000 mm 1,8 UV-I 521 W/m 11,1 C 13,1 C 24,1 km/h (4 Bft) 100,00 %
09.05.2018 09:52 17,3 C 18,3 C 66 % 1006,0 hPa 0,0 l/m 19,0 km/h (3 Bft) O-NO 63 1 min 0,000 mm 1,9 UV-I 582 W/m 10,9 C 12,9 C 24,1 km/h (4 Bft) 100,00 %
09.05.2018 09:53 17,3 C 18,3 C 67 % 1006,1 hPa 0,0 l/m 15,9 km/h (3 Bft) O 96 1 min 0,000 mm 2,0 UV-I 635 W/m 11,1 C 13,7 C 20,9 km/h (4 Bft) 100,00 %
09.05.2018 09:54 17,3 C 18,3 C 67 % 1006,1 hPa 0,0 l/m 15,8 km/h (3 Bft) O 90 1 min 0,000 mm 2,1 UV-I 632 W/m 11,1 C 13,8 C 20,9 km/h (4 Bft) 100,00 %
09.05.2018 09:55 17,3 C 18,3 C 68 % 1006,1 hPa 0,0 l/m 18,2 km/h (3 Bft) O-NO 71 1 min 0,000 mm 2,1 UV-I 671 W/m 11,3 C 13,1 C 24,1 km/h (4 Bft) 100,00 %
09.05.2018 09:56 17,4 C 18,3 C 68 % 1006,1 hPa 0,0 l/m 17,6 km/h (3 Bft) O-NO 68 1 min 0,000 mm 2,1 UV-I 663 W/m 11,4 C 13,4 C 22,5 km/h (4 Bft) 100,00 %
09.05.2018 09:57 17,4 C 18,3 C 67 % 1006,2 hPa 0,0 l/m 18,7 km/h (3 Bft) O-NO 63 1 min 0,000 mm 2,1 UV-I 611 W/m 11,2 C 13,1 C 27,4 km/h (4 Bft) 100,00 %
09.05.2018 09:58 17,4 C 18,3 C 67 % 1006,2 hPa 0,0 l/m 16,5 km/h (3 Bft) O-NO 69 1 min 0,000 mm 2,1 UV-I 592 W/m 11,2 C 13,7 C 19,3 km/h (3 Bft) 100,00 %
09.05.2018 09:59 17,4 C 18,3 C 67 % 1006,1 hPa 0,0 l/m 17,0 km/h (3 Bft) O 85 1 min 0,000 mm 2,1 UV-I 600 W/m 11,2 C 13,6 C 24,1 km/h (4 Bft) 100,00 %
09.05.2018 10:00 17,5 C 18,3 C 67 % 1006,1 hPa 0,0 l/m 20,5 km/h (4 Bft) O-NO 74 1 min 0,381 mm 2,0 UV-I 563 W/m 11,3 C 12,9 C 25,7 km/h (4 Bft) 100,00 %
09.05.2018 10:01 17,5 C 18,3 C 66 % 1006,2 hPa 0,0 l/m 18,8 km/h (3 Bft) O 94 1 min 0,000 mm 2,0 UV-I 577 W/m 11,1 C 13,2 C 25,7 km/h (4 Bft) 100,00 %
09.05.2018 10:02 17,6 C 17,8 C 66 % 1006,2 hPa 0,0 l/m 21,1 km/h (4 Bft) O-NO 76 1 min 0,000 mm 2,1 UV-I 565 W/m 11,2 C 12,9 C 25,7 km/h (4 Bft) 100,00 %
09.05.2018 10:03 17,6 C 18,3 C 66 % 1006,2 hPa 0,0 l/m 19,2 km/h (3 Bft) O-NO 66 1 min 0,000 mm 2,0 UV-I 533 W/m 11,2 C 13,3 C 29,0 km/h (5 Bft) 100,00 %
09.05.2018 10:04 17,5 C 17,8 C 66 % 1006,2 hPa 0,0 l/m 18,3 km/h (3 Bft) O 82 1 min 0,000 mm 1,9 UV-I 506 W/m 11,1 C 13,4 C 20,9 km/h (4 Bft) 100,00 %
09.05.2018 10:05 17,5 C 18,3 C 66 % 1006,2 hPa 0,0 l/m 14,1 km/h (3 Bft) O-NO 78 1 min 0,000 mm 2,0 UV-I 566 W/m 11,1 C 14,5 C 20,9 km/h (4 Bft) 100,00 %
09.05.2018 10:06 17,5 C 18,3 C 66 % 1006,2 hPa 0,0 l/m 15,6 km/h (3 Bft) O-NO 59 1 min 0,000 mm 2,2 UV-I 624 W/m 11,1 C 14,1 C 20,9 km/h (4 Bft) 100,00 %
09.05.2018 10:07 17,6 C 18,3 C 66 % 1006,2 hPa 0,0 l/m 19,6 km/h (3 Bft) O 94 1 min 0,000 mm 2,3 UV-I 690 W/m 11,2 C 13,2 C 27,4 km/h (4 Bft) 100,00 %
09.05.2018 10:08 17,6 C 18,3 C 66 % 1006,2 hPa 0,0 l/m 18,7 km/h (3 Bft) O-SO 104 1 min 0,000 mm 2,4 UV-I 743 W/m 11,2 C 13,4 C 24,1 km/h (4 Bft) 100,00 %
09.05.2018 10:09 17,7 C 18,3 C 67 % 1006,2 hPa 0,0 l/m 18,7 km/h (3 Bft) O-NO 62 1 min 0,000 mm 2,5 UV-I 765 W/m 11,5 C 13,5 C 22,5 km/h (4 Bft) 100,00 %
09.05.2018 10:10 17,8 C 18,3 C 66 % 1006,2 hPa 0,0 l/m 19,7 km/h (3 Bft) O 82 1 min 0,000 mm 2,5 UV-I 769 W/m 11,4 C 13,4 C 25,7 km/h (4 Bft) 100,00 %
09.05.2018 10:11 17,9 C 18,3 C 66 % 1006,2 hPa 0,0 l/m 19,8 km/h (3 Bft) O 82 1 min 0,000 mm 2,5 UV-I 749 W/m 11,5 C 13,5 C 27,4 km/h (4 Bft) 100,00 %
09.05.2018 10:12 17,9 C 18,3 C 65 % 1006,2 hPa 0,0 l/m 16,8 km/h (3 Bft) O-NO 76 1 min 0,000 mm 2,5 UV-I 717 W/m 11,2 C 14,2 C 19,3 km/h (3 Bft) 100,00 %
09.05.2018 10:13 18,1 C 18,3 C 66 % 1006,2 hPa 0,0 l/m 13,0 km/h (3 Bft) O-NO 74 1 min 0,000 mm 2,5 UV-I 716 W/m 11,6 C 15,5 C 24,1 km/h (4 Bft) 100,00 %
09.05.2018 10:14 18,2 C 18,3 C 66 % 1006,2 hPa 0,0 l/m 16,0 km/h (3 Bft) O-NO 63 1 min 0,000 mm 2,4 UV-I 673 W/m 11,7 C 14,8 C 22,5 km/h (4 Bft) 91,30 %
09.05.2018 10:15 18,3 C 18,3 C 65 % 1006,2 hPa 0,0 l/m 20,1 km/h (4 Bft) O-NO 64 1 min 0,000 mm 2,3 UV-I 607 W/m 11,6 C 14,0 C 29,0 km/h (5 Bft) 100,00 %
09.05.2018 10:16 18,3 C 18,3 C 63 % 1006,2 hPa 0,0 l/m 16,9 km/h (3 Bft) O-NO 72 1 min 0,000 mm 2,3 UV-I 592 W/m 11,1 C 14,7 C 20,9 km/h (4 Bft) 95,65 %
09.05.2018 10:17 18,2 C 18,3 C 62 % 1006,2 hPa 0,0 l/m 15,5 km/h (3 Bft) O 101 1 min 0,000 mm 2,4 UV-I 635 W/m 10,8 C 14,9 C 20,9 km/h (4 Bft) 100,00 %
09.05.2018 10:18 18,2 C 18,3 C 63 % 1006,2 hPa 0,0 l/m 19,2 km/h (3 Bft) O 80 1 min 0,000 mm 2,4 UV-I 644 W/m 11,0 C 14,1 C 29,0 km/h (5 Bft) 100,00 %
09.05.2018 10:19 18,2 C 18,3 C 62 % 1006,3 hPa 0,0 l/m 18,6 km/h (3 Bft) O-NO 65 1 min 0,000 mm 2,4 UV-I 596 W/m 10,8 C 14,2 C 24,1 km/h (4 Bft) 100,00 %
09.05.2018 10:20 18,2 C 18,3 C 62 % 1006,3 hPa 0,0 l/m 21,6 km/h (4 Bft) O 96 1 min 0,000 mm 2,3 UV-I 609 W/m 10,8 C 13,6 C 25,7 km/h (4 Bft) 100,00 %
09.05.2018 10:21 18,2 C 18,3 C 62 % 1006,3 hPa 0,0 l/m 20,5 km/h (4 Bft) O 94 1 min 0,000 mm 2,2 UV-I 589 W/m 10,8 C 13,8 C 25,7 km/h (4 Bft) 95,65 %
09.05.2018 10:22 18,1 C 18,3 C 61 % 1006,3 hPa 0,0 l/m 19,7 km/h (3 Bft) O-NO 78 1 min 0,000 mm 2,2 UV-I 589 W/m 10,5 C 13,8 C 27,4 km/h (4 Bft) 100,00 %
09.05.2018 10:23 18,1 C 18,3 C 62 % 1006,3 hPa 0,0 l/m 21,4 km/h (4 Bft) O 98 1 min 0,000 mm 1,9 UV-I 589 W/m 10,7 C 13,5 C 29,0 km/h (5 Bft) 100,00 %
09.05.2018 10:24 17,9 C 18,3 C 62 % 1006,3 hPa 0,0 l/m 14,4 km/h (3 Bft) O 80 0 min 0,000 mm 1,7 UV-I 322 W/m 10,5 C 14,9 C 24,1 km/h (4 Bft) 100,00 %
09.05.2018 10:25 17,9 C 18,3 C 63 % 1006,3 hPa 0,0 l/m 15,0 km/h (3 Bft) O-SO 107 0 min 0,000 mm 1,7 UV-I 326 W/m 10,8 C 14,7 C 19,3 km/h (3 Bft) 100,00 %
09.05.2018 10:26 17,8 C 18,3 C 64 % 1006,3 hPa 0,0 l/m 11,9 km/h (2 Bft) O 89 0 min 0,000 mm 1,8 UV-I 331 W/m 10,9 C 15,5 C 16,1 km/h (3 Bft) 100,00 %
09.05.2018 10:27 17,8 C 17,8 C 64 % 1006,3 hPa 0,0 l/m 16,8 km/h (3 Bft) O-SO 102 0 min 0,000 mm 1,8 UV-I 312 W/m 10,9 C 14,1 C 19,3 km/h (3 Bft) 100,00 %
09.05.2018 10:28 17,8 C 18,3 C 64 % 1006,3 hPa 0,0 l/m 12,2 km/h (2 Bft) O 101 0 min 0,000 mm 1,8 UV-I 288 W/m 10,9 C 15,4 C 17,7 km/h (3 Bft) 100,00 %
09.05.2018 10:29 17,8 C 18,3 C 65 % 1006,3 hPa 0,0 l/m 12,9 km/h (3 Bft) O 88 0 min 0,000 mm 1,8 UV-I 340 W/m 11,1 C 15,2 C 17,7 km/h (3 Bft) 100,00 %
09.05.2018 10:30 17,8 C 18,3 C 64 % 1006,3 hPa 0,0 l/m 15,1 km/h (3 Bft) O 86 1 min 0,000 mm 2,1 UV-I 437 W/m 10,9 C 14,6 C 17,7 km/h (3 Bft) 100,00 %
09.05.2018 10:31 17,8 C 18,3 C 64 % 1006,3 hPa 0,0 l/m 11,9 km/h (2 Bft) O-NO 61 1 min 0,000 mm 2,7 UV-I 526 W/m 10,9 C 15,5 C 17,7 km/h (3 Bft) 95,65 %
09.05.2018 10:32 17,9 C 18,3 C 65 % 1006,3 hPa 0,0 l/m 15,8 km/h (3 Bft) O-NO 57 1 min 0,000 mm 2,8 UV-I 785 W/m 11,2 C 14,5 C 19,3 km/h (3 Bft) 100,00 %
09.05.2018 10:33 18,1 C 18,3 C 63 % 1006,3 hPa 0,0 l/m 17,7 km/h (3 Bft) O 79 1 min 0,000 mm 2,9 UV-I 781 W/m 10,9 C 14,3 C 20,9 km/h (4 Bft) 100,00 %
09.05.2018 10:34 18,2 C 18,3 C 61 % 1006,3 hPa 0,0 l/m 20,0 km/h (4 Bft) O 100 1 min 0,000 mm 3,0 UV-I 800 W/m 10,6 C 13,9 C 24,1 km/h (4 Bft) 100,00 %
09.05.2018 10:35 18,4 C 18,3 C 62 % 1006,3 hPa 0,0 l/m 13,9 km/h (3 Bft) O 86 1 min 0,000 mm 3,0 UV-I 799 W/m 11,0 C 15,6 C 20,9 km/h (4 Bft) 100,00 %
09.05.2018 10:36 18,6 C 18,3 C 62 % 1006,3 hPa 0,0 l/m 13,7 km/h (3 Bft) NO 51 1 min 0,000 mm 3,1 UV-I 824 W/m 11,2 C 15,9 C 17,7 km/h (3 Bft) 100,00 %
09.05.2018 10:37 18,8 C 18,3 C 65 % 1006,3 hPa 0,0 l/m 9,7 km/h (2 Bft) O-NO 64 1 min 0,000 mm 3,1 UV-I 811 W/m 12,1 C 17,4 C 12,9 km/h (3 Bft) 100,00 %
09.05.2018 10:38 19,0 C 18,3 C 64 % 1006,3 hPa 0,0 l/m 13,1 km/h (3 Bft) O-NO 67 1 min 0,000 mm 3,1 UV-I 789 W/m 12,0 C 16,6 C 24,1 km/h (4 Bft) 100,00 %
09.05.2018 10:39 19,1 C 18,3 C 65 % 1006,2 hPa 0,0 l/m 17,0 km/h (3 Bft) NO 41 1 min 0,000 mm 3,1 UV-I 762 W/m 12,4 C 15,7 C 22,5 km/h (4 Bft) 100,00 %
09.05.2018 10:40 19,2 C 18,3 C 65 % 1006,3 hPa 0,0 l/m 16,7 km/h (3 Bft) N-NO 30 1 min 0,000 mm 3,0 UV-I 757 W/m 12,5 C 15,9 C 22,5 km/h (4 Bft) 95,65 %
09.05.2018 10:41 19,2 C 18,3 C 63 % 1006,2 hPa 0,0 l/m 20,2 km/h (4 Bft) O-NO 75 1 min 0,000 mm 3,1 UV-I 772 W/m 12,0 C 15,1 C 25,7 km/h (4 Bft) 100,00 %
09.05.2018 10:42 19,3 C 18,3 C 62 % 1006,2 hPa 0,0 l/m 17,6 km/h (3 Bft) O-NO 78 1 min 0,000 mm 3,1 UV-I 771 W/m 11,8 C 15,8 C 22,5 km/h (4 Bft) 95,45 %
09.05.2018 10:43 19,3 C 18,3 C 59 % 1006,2 hPa 0,0 l/m 19,2 km/h (3 Bft) NO 41 1 min 0,000 mm 3,0 UV-I 756 W/m 11,1 C 15,5 C 25,7 km/h (4 Bft) 100,00 %
09.05.2018 10:44 19,3 C 18,3 C 59 % 1006,2 hPa 0,0 l/m 13,3 km/h (3 Bft) O-NO 75 1 min 0,000 mm 3,0 UV-I 723 W/m 11,1 C 16,8 C 24,1 km/h (4 Bft) 100,00 %
09.05.2018 10:45 19,3 C 18,3 C 61 % 1006,2 hPa 0,0 l/m 19,5 km/h (3 Bft) NO 38 1 min 0,000 mm 2,8 UV-I 693 W/m 11,6 C 15,4 C 27,4 km/h (4 Bft) 100,00 %
09.05.2018 10:46 19,3 C 18,3 C 60 % 1006,2 hPa 0,0 l/m 18,2 km/h (3 Bft) NO 52 1 min 0,000 mm 2,9 UV-I 698 W/m 11,3 C 15,7 C 22,5 km/h (4 Bft) 95,65 %
09.05.2018 10:47 19,2 C 18,3 C 60 % 1006,1 hPa 0,0 l/m 20,0 km/h (4 Bft) O 87 1 min 0,000 mm 2,9 UV-I 694 W/m 11,2 C 15,2 C 25,7 km/h (4 Bft) 100,00 %
09.05.2018 10:48 19,2 C 18,3 C 60 % 1006,2 hPa 0,0 l/m 23,2 km/h (4 Bft) O-NO 78 1 min 0,000 mm 3,0 UV-I 748 W/m 11,2 C 14,6 C 27,4 km/h (4 Bft) 95,65 %
09.05.2018 10:49 19,2 C 18,3 C 57 % 1006,2 hPa 0,0 l/m 18,3 km/h (3 Bft) O-NO 71 1 min 0,000 mm 3,1 UV-I 781 W/m 10,5 C 15,5 C 20,9 km/h (4 Bft) 100,00 %
09.05.2018 10:50 19,1 C 18,3 C 57 % 1006,1 hPa 0,0 l/m 19,8 km/h (3 Bft) NO 50 1 min 0,000 mm 3,1 UV-I 790 W/m 10,4 C 15,1 C 25,7 km/h (4 Bft) 100,00 %
09.05.2018 10:51 19,1 C 18,3 C 60 % 1006,1 hPa 0,0 l/m 15,4 km/h (3 Bft) O 92 1 min 0,000 mm 3,1 UV-I 779 W/m 11,1 C 16,1 C 20,9 km/h (4 Bft) 100,00 %
09.05.2018 10:52 19,2 C 18,3 C 59 % 1006,1 hPa 0,0 l/m 16,6 km/h (3 Bft) O 90 1 min 0,000 mm 3,2 UV-I 780 W/m 11,0 C 15,9 C 24,1 km/h (4 Bft) 95,65 %
09.05.2018 10:53 19,3 C 18,3 C 60 % 1006,1 hPa 0,0 l/m 19,1 km/h (3 Bft) O 95 1 min 0,000 mm 3,0 UV-I 731 W/m 11,3 C 15,5 C 27,4 km/h (4 Bft) 100,00 %
09.05.2018 10:54 19,3 C 18,3 C 59 % 1006,1 hPa 0,0 l/m 18,3 km/h (3 Bft) O 94 1 min 0,000 mm 3,1 UV-I 747 W/m 11,1 C 15,6 C 25,7 km/h (4 Bft) 100,00 %
09.05.2018 10:55 19,4 C 18,3 C 57 % 1006,1 hPa 0,0 l/m 17,6 km/h (3 Bft) O-NO 73 1 min 0,000 mm 3,2 UV-I 791 W/m 10,7 C 15,9 C 22,5 km/h (4 Bft) 95,83 %
09.05.2018 10:56 19,4 C 18,3 C 57 % 1006,1 hPa 0,0 l/m 16,7 km/h (3 Bft) O-NO 66 1 min 0,000 mm 3,2 UV-I 794 W/m 10,7 C 16,1 C 22,5 km/h (4 Bft) 92,31 %
09.05.2018 10:57 19,5 C 18,3 C 60 % 1006,1 hPa 0,0 l/m 18,8 km/h (3 Bft) NO 44 1 min 0,000 mm 3,3 UV-I 794 W/m 11,5 C 15,8 C 24,1 km/h (4 Bft) 87,50 %
09.05.2018 10:58 19,6 C 18,3 C 58 % 1006,0 hPa 0,0 l/m 14,8 km/h (3 Bft) O 82 1 min 0,000 mm 3,3 UV-I 789 W/m 11,1 C 16,8 C 20,9 km/h (4 Bft) 95,83 %
09.05.2018 10:59 19,7 C 18,3 C 56 % 1006,1 hPa 0,0 l/m 14,6 km/h (3 Bft) O-NO 62 1 min 0,000 mm 3,3 UV-I 789 W/m 10,7 C 17,0 C 20,9 km/h (4 Bft) 95,65 %
09.05.2018 11:00 19,7 C 18,3 C 55 % 1006,0 hPa 0,0 l/m 16,2 km/h (3 Bft) NO 48 1 min 0,457 mm 3,3 UV-I 789 W/m 10,4 C 16,6 C 20,9 km/h (4 Bft) 95,83 %
09.05.2018 11:01 19,8 C 18,3 C 57 % 1006,0 hPa 0,0 l/m 23,6 km/h (4 Bft) O-NO 65 1 min 0,000 mm 3,3 UV-I 788 W/m 11,0 C 15,3 C 29,0 km/h (5 Bft) 91,30 %
09.05.2018 11:02 19,9 C 18,3 C 56 % 1006,0 hPa 0,0 l/m 19,2 km/h (3 Bft) NO 51 1 min 0,000 mm 3,3 UV-I 788 W/m 10,9 C 16,2 C 24,1 km/h (4 Bft) 95,83 %
09.05.2018 11:03 19,9 C 18,3 C 56 % 1006,0 hPa 0,0 l/m 15,0 km/h (3 Bft) N-NO 30 1 min 0,000 mm 3,3 UV-I 788 W/m 10,9 C 17,1 C 19,3 km/h (3 Bft) 95,65 %
09.05.2018 11:04 20,1 C 18,3 C 57 % 1006,0 hPa 0,0 l/m 17,7 km/h (3 Bft) NO 48 1 min 0,000 mm 3,3 UV-I 792 W/m 11,3 C 16,8 C 30,6 km/h (5 Bft) 91,67 %
09.05.2018 11:05 20,2 C 18,3 C 57 % 1006,0 hPa 0,0 l/m 23,2 km/h (4 Bft) O-NO 66 1 min 0,000 mm 3,4 UV-I 793 W/m 11,4 C 15,9 C 30,6 km/h (5 Bft) 100,00 %
09.05.2018 11:06 20,2 C 18,3 C 53 % 1006,0 hPa 0,0 l/m 16,5 km/h (3 Bft) O 92 1 min 0,000 mm 3,4 UV-I 794 W/m 10,3 C 17,2 C 24,1 km/h (4 Bft) 91,67 %
09.05.2018 11:07 20,2 C 18,3 C 53 % 1006,0 hPa 0,0 l/m 21,2 km/h (4 Bft) O 81 1 min 0,000 mm 3,4 UV-I 794 W/m 10,3 C 16,3 C 27,4 km/h (4 Bft) 100,00 %
09.05.2018 11:08 20,2 C 18,3 C 53 % 1006,0 hPa 0,0 l/m 19,4 km/h (3 Bft) O-NO 74 1 min 0,000 mm 3,4 UV-I 795 W/m 10,3 C 16,6 C 25,7 km/h (4 Bft) 91,67 %
09.05.2018 11:09 20,2 C 18,3 C 54 % 1006,0 hPa 0,0 l/m 21,5 km/h (4 Bft) O-SO 109 1 min 0,000 mm 3,4 UV-I 800 W/m 10,6 C 16,2 C 27,4 km/h (4 Bft) 95,65 %
09.05.2018 11:10 20,1 C 18,3 C 53 % 1006,0 hPa 0,0 l/m 19,7 km/h (3 Bft) O 101 1 min 0,000 mm 3,4 UV-I 802 W/m 10,2 C 16,4 C 24,1 km/h (4 Bft) 91,67 %
09.05.2018 11:11 20,1 C 18,3 C 53 % 1006,0 hPa 0,0 l/m 16,1 km/h (3 Bft) O-SO 111 1 min 0,000 mm 3,5 UV-I 802 W/m 10,2 C 17,1 C 22,5 km/h (4 Bft) 100,00 %
09.05.2018 11:12 20,1 C 18,3 C 53 % 1006,0 hPa 0,0 l/m 16,5 km/h (3 Bft) O-NO 76 1 min 0,000 mm 3,5 UV-I 806 W/m 10,2 C 17,0 C 30,6 km/h (5 Bft) 91,67 %
09.05.2018 11:13 20,0 C 18,3 C 53 % 1006,0 hPa 0,0 l/m 23,7 km/h (4 Bft) O 94 1 min 0,000 mm 3,5 UV-I 786 W/m 10,1 C 15,6 C 30,6 km/h (5 Bft) 96,15 %
09.05.2018 11:14 20,0 C 18,3 C 51 % 1006,1 hPa 0,0 l/m 23,5 km/h (4 Bft) O-NO 72 1 min 0,000 mm 3,4 UV-I 764 W/m 9,6 C 15,6 C 29,0 km/h (5 Bft) 95,83 %
09.05.2018 11:15 19,9 C 18,3 C 51 % 1006,0 hPa 0,0 l/m 20,3 km/h (4 Bft) O-SO 107 1 min 0,000 mm 3,5 UV-I 802 W/m 9,5 C 16,0 C 25,7 km/h (4 Bft) 87,50 %
09.05.2018 11:16 19,9 C 18,3 C 51 % 1006,0 hPa 0,0 l/m 22,7 km/h (4 Bft) O 97 1 min 0,000 mm 3,5 UV-I 818 W/m 9,5 C 15,6 C 32,2 km/h (5 Bft) 100,00 %
09.05.2018 11:17 19,9 C 18,3 C 51 % 1006,1 hPa 0,0 l/m 21,4 km/h (4 Bft) O-NO 71 1 min 0,000 mm 3,6 UV-I 813 W/m 9,5 C 15,8 C 27,4 km/h (4 Bft) 91,67 %
09.05.2018 11:18 20,0 C 18,3 C 50 % 1006,0 hPa 0,0 l/m 22,8 km/h (4 Bft) O-NO 68 1 min 0,000 mm 3,5 UV-I 789 W/m 9,3 C 15,7 C 27,4 km/h (4 Bft) 100,00 %
09.05.2018 11:19 19,9 C 18,3 C 50 % 1006,0 hPa 0,0 l/m 23,6 km/h (4 Bft) O 80 1 min 0,000 mm 3,5 UV-I 774 W/m 9,2 C 15,5 C 29,0 km/h (5 Bft) 91,67 %
09.05.2018 11:20 19,9 C 18,3 C 51 % 1006,0 hPa 0,0 l/m 16,9 km/h (3 Bft) O-NO 76 1 min 0,000 mm 3,4 UV-I 793 W/m 9,5 C 16,7 C 22,5 km/h (4 Bft) 100,00 %
09.05.2018 11:21 20,0 C 18,3 C 51 % 1006,0 hPa 0,0 l/m 15,4 km/h (3 Bft) O-NO 69 1 min 0,000 mm 3,6 UV-I 801 W/m 9,6 C 17,2 C 20,9 km/h (4 Bft) 95,83 %
09.05.2018 11:22 20,0 C 18,3 C 51 % 1006,0 hPa 0,0 l/m 16,2 km/h (3 Bft) NO 38 1 min 0,000 mm 3,6 UV-I 789 W/m 9,6 C 17,0 C 24,1 km/h (4 Bft) 91,30 %
09.05.2018 11:23 20,1 C 18,3 C 52 % 1005,9 hPa 0,0 l/m 20,3 km/h (4 Bft) O-SO 104 1 min 0,000 mm 3,6 UV-I 805 W/m 9,9 C 16,3 C 27,4 km/h (4 Bft) 100,00 %
09.05.2018 11:24 20,2 C 18,3 C 52 % 1006,0 hPa 0,0 l/m 16,6 km/h (3 Bft) O 93 1 min 0,000 mm 3,6 UV-I 818 W/m 10,0 C 17,1 C 25,7 km/h (4 Bft) 91,30 %
09.05.2018 11:25 20,2 C 18,3 C 51 % 1006,0 hPa 0,0 l/m 22,0 km/h (4 Bft) O-NO 77 1 min 0,000 mm 3,7 UV-I 824 W/m 9,7 C 16,1 C 29,0 km/h (5 Bft) 100,00 %
09.05.2018 11:26 20,3 C 18,3 C 51 % 1006,0 hPa 0,0 l/m 21,8 km/h (4 Bft) O-NO 78 1 min 0,000 mm 3,7 UV-I 828 W/m 9,8 C 16,3 C 25,7 km/h (4 Bft) 96,15 %
09.05.2018 11:27 20,3 C 18,3 C 50 % 1006,0 hPa 0,0 l/m 24,9 km/h (4 Bft) O 92 1 min 0,000 mm 3,7 UV-I 832 W/m 9,5 C 15,8 C 29,0 km/h (5 Bft) 100,00 %
09.05.2018 11:28 20,3 C 18,3 C 50 % 1006,0 hPa 0,0 l/m 20,5 km/h (4 Bft) O-NO 69 1 min 0,000 mm 3,7 UV-I 833 W/m 9,5 C 16,5 C 33,8 km/h (5 Bft) 95,65 %
09.05.2018 11:29 20,4 C 18,3 C 49 % 1006,0 hPa 0,0 l/m 24,0 km/h (4 Bft) O 86 1 min 0,000 mm 3,7 UV-I 831 W/m 9,3 C 16,1 C 30,6 km/h (5 Bft) 100,00 %
09.05.2018 11:30 20,4 C 18,3 C 47 % 1006,0 hPa 0,0 l/m 23,6 km/h (4 Bft) SO 124 1 min 0,000 mm 3,7 UV-I 827 W/m 8,7 C 16,1 C 29,0 km/h (5 Bft) 95,65 %
09.05.2018 11:31 20,3 C 18,3 C 46 % 1006,0 hPa 0,0 l/m 21,5 km/h (4 Bft) O-SO 109 1 min 0,000 mm 3,7 UV-I 824 W/m 8,3 C 16,3 C 27,4 km/h (4 Bft) 100,00 %
09.05.2018 11:32 20,3 C 18,3 C 47 % 1006,0 hPa 0,0 l/m 19,2 km/h (3 Bft) O-SO 120 1 min 0,000 mm 3,8 UV-I 837 W/m 8,6 C 16,7 C 25,7 km/h (4 Bft) 95,65 %
09.05.2018 11:33 20,3 C 18,3 C 49 % 1005,9 hPa 0,0 l/m 20,8 km/h (4 Bft) O 84 1 min 0,000 mm 3,8 UV-I 840 W/m 9,2 C 16,5 C 25,7 km/h (4 Bft) 93,33 %
09.05.2018 11:34 20,4 C 18,3 C 49 % 1006,0 hPa 0,0 l/m 23,1 km/h (4 Bft) O-SO 114 1 min 0,000 mm 3,8 UV-I 837 W/m 9,3 C 16,2 C 27,4 km/h (4 Bft) 100,00 %
09.05.2018 11:35 20,4 C 18,3 C 48 % 1005,9 hPa 0,0 l/m 16,0 km/h (3 Bft) O-SO 104 1 min 0,000 mm 3,8 UV-I 837 W/m 9,0 C 17,5 C 29,0 km/h (5 Bft) 95,83 %
09.05.2018 11:36 20,4 C 18,3 C 50 % 1005,9 hPa 0,0 l/m 22,0 km/h (4 Bft) O 84 1 min 0,000 mm 3,8 UV-I 809 W/m 9,6 C 16,4 C 30,6 km/h (5 Bft) 100,00 %
09.05.2018 11:37 20,4 C 18,3 C 49 % 1005,9 hPa 0,0 l/m 16,7 km/h (3 Bft) O-NO 59 1 min 0,000 mm 3,7 UV-I 796 W/m 9,3 C 17,4 C 24,1 km/h (4 Bft) 96,15 %
09.05.2018 11:38 20,4 C 18,3 C 50 % 1005,8 hPa 0,0 l/m 18,8 km/h (3 Bft) O-SO 102 1 min 0,000 mm 3,8 UV-I 812 W/m 9,6 C 16,9 C 24,1 km/h (4 Bft) 100,00 %
09.05.2018 11:39 20,6 C 18,3 C 51 % 1005,9 hPa 0,0 l/m 19,6 km/h (3 Bft) O 94 1 min 0,000 mm 3,8 UV-I 834 W/m 10,1 C 17,1 C 29,0 km/h (5 Bft) 95,65 %
09.05.2018 11:40 20,6 C 18,3 C 47 % 1005,9 hPa 0,0 l/m 21,6 km/h (4 Bft) O 89 1 min 0,000 mm 3,9 UV-I 839 W/m 8,9 C 16,7 C 25,7 km/h (4 Bft) 100,00 %
09.05.2018 11:41 20,6 C 18,3 C 48 % 1005,9 hPa 0,0 l/m 23,1 km/h (4 Bft) O-SO 104 1 min 0,000 mm 3,9 UV-I 832 W/m 9,2 C 16,5 C 29,0 km/h (5 Bft) 91,30 %
09.05.2018 11:42 20,7 C 18,3 C 48 % 1005,9 hPa 0,0 l/m 20,5 km/h (4 Bft) O 101 1 min 0,000 mm 3,8 UV-I 836 W/m 9,3 C 17,0 C 29,0 km/h (5 Bft) 100,00 %
09.05.2018 11:43 20,7 C 18,3 C 48 % 1005,9 hPa 0,0 l/m 19,8 km/h (3 Bft) O 82 1 min 0,000 mm 3,9 UV-I 840 W/m 9,3 C 17,1 C 27,4 km/h (4 Bft) 95,65 %
09.05.2018 11:44 20,7 C 18,3 C 46 % 1005,9 hPa 0,0 l/m 17,1 km/h (3 Bft) NO 55 1 min 0,000 mm 3,9 UV-I 841 W/m 8,7 C 17,7 C 24,1 km/h (4 Bft) 100,00 %
09.05.2018 11:45 20,7 C 18,3 C 48 % 1005,9 hPa 0,0 l/m 17,4 km/h (3 Bft) O 92 1 min 0,000 mm 3,9 UV-I 842 W/m 9,3 C 17,6 C 22,5 km/h (4 Bft) 96,15 %
09.05.2018 11:46 20,8 C 18,3 C 49 % 1005,9 hPa 0,0 l/m 15,2 km/h (3 Bft) O 90 1 min 0,000 mm 3,9 UV-I 838 W/m 9,7 C 18,2 C 20,9 km/h (4 Bft) 95,83 %
09.05.2018 11:47 20,8 C 18,3 C 50 % 1005,9 hPa 0,0 l/m 12,4 km/h (3 Bft) O 82 1 min 0,000 mm 3,9 UV-I 842 W/m 10,0 C 18,8 C 16,1 km/h (3 Bft) 100,00 %
09.05.2018 11:48 20,9 C 18,3 C 50 % 1005,9 hPa 0,0 l/m 12,9 km/h (3 Bft) O 93 1 min 0,000 mm 3,9 UV-I 845 W/m 10,1 C 18,8 C 17,7 km/h (3 Bft) 91,67 %
09.05.2018 11:49 21,0 C 18,3 C 52 % 1005,8 hPa 0,0 l/m 22,4 km/h (4 Bft) O 92 1 min 0,000 mm 3,9 UV-I 846 W/m 10,8 C 17,1 C 30,6 km/h (5 Bft) 95,65 %
09.05.2018 11:50 21,1 C 18,3 C 48 % 1005,8 hPa 0,0 l/m 18,5 km/h (3 Bft) O 96 1 min 0,000 mm 4,0 UV-I 849 W/m 9,7 C 17,9 C 27,4 km/h (4 Bft) 95,83 %
09.05.2018 11:51 21,1 C 18,3 C 49 % 1005,8 hPa 0,0 l/m 12,9 km/h (3 Bft) O-NO 76 1 min 0,000 mm 4,0 UV-I 853 W/m 10,0 C 19,1 C 17,7 km/h (3 Bft) 95,65 %
09.05.2018 11:52 21,1 C 18,3 C 48 % 1005,8 hPa 0,0 l/m 15,4 km/h (3 Bft) O 84 1 min 0,000 mm 4,0 UV-I 856 W/m 9,7 C 18,5 C 25,7 km/h (4 Bft) 95,83 %
09.05.2018 11:53 21,2 C 18,3 C 48 % 1005,8 hPa 0,0 l/m 18,4 km/h (3 Bft) O 96 1 min 0,000 mm 4,0 UV-I 856 W/m 9,7 C 18,0 C 24,1 km/h (4 Bft) 91,30 %
09.05.2018 11:54 21,1 C 18,3 C 48 % 1005,8 hPa 0,0 l/m 18,4 km/h (3 Bft) O-SO 103 1 min 0,000 mm 4,0 UV-I 858 W/m 9,7 C 17,9 C 22,5 km/h (4 Bft) 95,83 %
09.05.2018 11:55 21,1 C 18,3 C 48 % 1005,8 hPa 0,0 l/m 23,5 km/h (4 Bft) O 96 1 min 0,000 mm 4,0 UV-I 866 W/m 9,7 C 17,1 C 27,4 km/h (4 Bft) 95,65 %
09.05.2018 11:56 21,1 C 18,3 C 47 % 1005,8 hPa 0,0 l/m 18,9 km/h (3 Bft) O 101 1 min 0,000 mm 4,0 UV-I 871 W/m 9,3 C 17,8 C 25,7 km/h (4 Bft) 100,00 %
09.05.2018 11:57 20,9 C 18,3 C 47 % 1005,7 hPa 0,0 l/m 14,4 km/h (3 Bft) O-NO 71 1 min 0,000 mm 3,9 UV-I 851 W/m 9,2 C 18,5 C 22,5 km/h (4 Bft) 95,83 %
09.05.2018 11:58 20,9 C 18,3 C 49 % 1005,7 hPa 0,0 l/m 18,5 km/h (3 Bft) O-NO 57 1 min 0,000 mm 3,9 UV-I 837 W/m 9,8 C 17,6 C 24,1 km/h (4 Bft) 100,00 %
09.05.2018 11:59 20,9 C 18,3 C 49 % 1005,7 hPa 0,0 l/m 22,5 km/h (4 Bft) O-NO 57 1 min 0,000 mm 4,0 UV-I 833 W/m 9,8 C 17,0 C 29,0 km/h (5 Bft) 100,00 %
09.05.2018 12:00 21,1 C 18,3 C 50 % 1005,7 hPa 0,0 l/m 23,8 km/h (4 Bft) O-NO 57 1 min 0,000 mm 3,6 UV-I 821 W/m 10,3 C 17,0 C 32,2 km/h (5 Bft) 96,55 %
09.05.2018 12:01 21,0 C 18,3 C 49 % 1005,7 hPa 0,0 l/m 17,8 km/h (3 Bft) N-NO 26 1 min 0,609 mm 3,3 UV-I 821 W/m 9,9 C 17,9 C 20,9 km/h (4 Bft) 96,30 %
09.05.2018 12:03 21,1 C 18,3 C 52 % 1005,7 hPa 0,0 l/m 18,1 km/h (3 Bft) O-NO 59 2 min 0,000 mm 3,5 UV-I 716 W/m 10,9 C 18,0 C 24,1 km/h (4 Bft) 98,00 %
09.05.2018 12:04 21,1 C 18,3 C 49 % 1005,7 hPa 0,0 l/m 16,8 km/h (3 Bft) O 88 1 min 0,000 mm 3,4 UV-I 722 W/m 10,0 C 18,2 C 22,5 km/h (4 Bft) 100,00 %
09.05.2018 12:05 21,2 C 18,3 C 51 % 1005,7 hPa 0,0 l/m 17,6 km/h (3 Bft) O 80 1 min 0,000 mm 3,3 UV-I 669 W/m 10,7 C 18,2 C 25,7 km/h (4 Bft) 95,83 %
09.05.2018 12:06 21,1 C 18,3 C 48 % 1005,7 hPa 0,0 l/m 16,7 km/h (3 Bft) O 79 1 min 0,000 mm 3,0 UV-I 506 W/m 9,7 C 18,2 C 22,5 km/h (4 Bft) 91,30 %
09.05.2018 12:07 21,1 C 18,3 C 47 % 1005,8 hPa 0,0 l/m 17,0 km/h (3 Bft) O 90 0 min 0,000 mm 2,8 UV-I 451 W/m 9,3 C 18,2 C 22,5 km/h (4 Bft) 100,00 %
09.05.2018 12:08 21,0 C 18,3 C 49 % 1005,7 hPa 0,0 l/m 11,4 km/h (2 Bft) O-SO 122 0 min 0,000 mm 2,7 UV-I 442 W/m 9,9 C 19,3 C 14,5 km/h (3 Bft) 100,00 %
09.05.2018 12:09 21,0 C 18,3 C 50 % 1005,7 hPa 0,0 l/m 12,9 km/h (3 Bft) O-SO 102 0 min 0,000 mm 2,7 UV-I 425 W/m 10,2 C 19,0 C 17,7 km/h (3 Bft) 96,15 %
09.05.2018 12:10 21,0 C 18,3 C 49 % 1005,7 hPa 0,0 l/m 15,0 km/h (3 Bft) O-NO 61 0 min 0,000 mm 2,6 UV-I 410 W/m 9,9 C 18,5 C 17,7 km/h (3 Bft) 95,65 %
09.05.2018 12:11 20,9 C 18,3 C 47 % 1005,7 hPa 0,0 l/m 17,2 km/h (3 Bft) O 82 0 min 0,000 mm 2,5 UV-I 413 W/m 9,2 C 17,9 C 20,9 km/h (4 Bft) 100,00 %
09.05.2018 12:12 20,8 C 18,3 C 44 % 1005,7 hPa 0,0 l/m 14,3 km/h (3 Bft) O-SO 109 1 min 0,000 mm 2,7 UV-I 468 W/m 8,1 C 18,4 C 16,1 km/h (3 Bft) 96,15 %
09.05.2018 12:13 20,7 C 18,3 C 45 % 1005,7 hPa 0,0 l/m 9,8 km/h (2 Bft) O-NO 73 1 min 0,000 mm 2,8 UV-I 506 W/m 8,3 C 19,5 C 14,5 km/h (3 Bft) 95,83 %
09.05.2018 12:14 20,7 C 18,3 C 46 % 1005,7 hPa 0,0 l/m 15,6 km/h (3 Bft) O 89 1 min 0,000 mm 2,9 UV-I 517 W/m 8,7 C 18,0 C 25,7 km/h (4 Bft) 91,67 %
09.05.2018 12:15 20,6 C 18,3 C 47 % 1005,7 hPa 0,0 l/m 20,4 km/h (4 Bft) O-SO 105 1 min 0,000 mm 2,8 UV-I 488 W/m 8,9 C 16,9 C 29,0 km/h (5 Bft) 100,00 %
09.05.2018 12:16 20,6 C 18,3 C 46 % 1005,7 hPa 0,0 l/m 15,1 km/h (3 Bft) O 91 1 min 0,000 mm 2,7 UV-I 467 W/m 8,6 C 18,0 C 17,7 km/h (3 Bft) 93,33 %
09.05.2018 12:17 20,7 C 18,3 C 47 % 1005,7 hPa 0,0 l/m 15,4 km/h (3 Bft) O 82 1 min 0,000 mm 2,8 UV-I 476 W/m 9,0 C 18,0 C 24,1 km/h (4 Bft) 100,00 %
09.05.2018 12:18 20,7 C 18,3 C 48 % 1005,7 hPa 0,0 l/m 16,2 km/h (3 Bft) O 92 1 min 0,000 mm 2,8 UV-I 479 W/m 9,3 C 17,8 C 20,9 km/h (4 Bft) 95,83 %
09.05.2018 12:19 20,7 C 18,3 C 46 % 1005,7 hPa 0,0 l/m 19,6 km/h (3 Bft) O 100 1 min 0,000 mm 2,9 UV-I 503 W/m 8,7 C 17,2 C 22,5 km/h (4 Bft) 95,65 %
09.05.2018 12:20 20,7 C 18,3 C 47 % 1005,6 hPa 0,0 l/m 15,4 km/h (3 Bft) O 94 1 min 0,000 mm 2,9 UV-I 509 W/m 9,0 C 18,0 C 20,9 km/h (4 Bft) 100,00 %
09.05.2018 12:21 20,7 C 18,3 C 46 % 1005,7 hPa 0,0 l/m 16,4 km/h (3 Bft) O 82 1 min 0,000 mm 2,8 UV-I 468 W/m 8,7 C 17,8 C 20,9 km/h (4 Bft) 95,65 %
09.05.2018 12:22 20,7 C 18,3 C 47 % 1005,7 hPa 0,0 l/m 15,4 km/h (3 Bft) O-NO 68 0 min 0,000 mm 2,6 UV-I 420 W/m 9,0 C 18,0 C 19,3 km/h (3 Bft) 100,00 %
09.05.2018 12:23 20,7 C 18,3 C 46 % 1005,7 hPa 0,0 l/m 20,0 km/h (4 Bft) O-NO 68 0 min 0,000 mm 2,6 UV-I 407 W/m 8,7 C 17,1 C 24,1 km/h (4 Bft) 95,65 %
09.05.2018 12:24 20,6 C 18,3 C 47 % 1005,7 hPa 0,0 l/m 20,6 km/h (4 Bft) O 90 0 min 0,000 mm 2,6 UV-I 395 W/m 8,9 C 16,9 C 22,5 km/h (4 Bft) 100,00 %
09.05.2018 12:25 20,6 C 18,3 C 46 % 1005,7 hPa 0,0 l/m 14,4 km/h (3 Bft) O-NO 65 0 min 0,000 mm 2,6 UV-I 406 W/m 8,6 C 18,1 C 19,3 km/h (3 Bft) 100,00 %
09.05.2018 12:26 20,6 C 18,3 C 46 % 1005,7 hPa 0,0 l/m 16,1 km/h (3 Bft) O-SO 119 1 min 0,000 mm 2,8 UV-I 471 W/m 8,6 C 17,7 C 20,9 km/h (4 Bft) 100,00 %
09.05.2018 12:27 20,6 C 18,3 C 45 % 1005,7 hPa 0,0 l/m 19,8 km/h (3 Bft) O-SO 114 1 min 0,000 mm 2,9 UV-I 479 W/m 8,2 C 17,0 C 24,1 km/h (4 Bft) 95,65 %
09.05.2018 12:28 20,6 C 18,3 C 44 % 1005,7 hPa 0,0 l/m 14,1 km/h (3 Bft) O 97 1 min 0,000 mm 3,0 UV-I 525 W/m 7,9 C 18,2 C 17,7 km/h (3 Bft) 100,00 %
09.05.2018 12:29 20,6 C 18,3 C 44 % 1005,7 hPa 0,0 l/m 12,5 km/h (3 Bft) O-SO 103 1 min 0,000 mm 3,3 UV-I 564 W/m 7,9 C 18,6 C 16,1 km/h (3 Bft) 100,00 %
09.05.2018 12:30 20,7 C 18,3 C 45 % 1005,6 hPa 0,0 l/m 9,6 km/h (2 Bft) O-SO 104 1 min 0,000 mm 3,7 UV-I 687 W/m 8,3 C 19,5 C 12,9 km/h (3 Bft) 100,00 %
09.05.2018 12:31 20,8 C 18,3 C 43 % 1005,7 hPa 0,0 l/m 7,9 km/h (2 Bft) O-NO 77 1 min 0,000 mm 3,8 UV-I 750 W/m 7,8 C 20,2 C 11,3 km/h (2 Bft) 100,00 %
09.05.2018 12:32 20,8 C 18,3 C 45 % 1005,7 hPa 0,0 l/m 4,1 km/h (1 Bft) O-SO 117 1 min 0,000 mm 3,7 UV-I 711 W/m 8,4 C 20,8 C 6,4 km/h (2 Bft) 100,00 %
09.05.2018 12:33 20,9 C 18,3 C 46 % 1005,6 hPa 0,0 l/m 3,6 km/h (1 Bft) O 99 1 min 0,000 mm 3,9 UV-I 734 W/m 8,8 C 20,9 C 9,7 km/h (2 Bft) 100,00 %
09.05.2018 12:34 20,9 C 18,3 C 46 % 1005,6 hPa 0,0 l/m 6,1 km/h (2 Bft) O-NO 76 1 min 0,000 mm 3,5 UV-I 703 W/m 8,8 C 20,9 C 11,3 km/h (2 Bft) 86,96 %
09.05.2018 12:35 21,1 C 18,3 C 47 % 1005,6 hPa 0,0 l/m 8,3 km/h (2 Bft) SO 125 1 min 0,000 mm 3,1 UV-I 703 W/m 9,3 C 20,4 C 14,5 km/h (3 Bft) 100,00 %
09.05.2018 12:36 21,1 C 18,3 C 47 % 1005,6 hPa 0,0 l/m 5,3 km/h (1 Bft) O-SO 113 1 min 0,000 mm 2,8 UV-I 513 W/m 9,3 C 21,1 C 9,7 km/h (2 Bft) 100,00 %
09.05.2018 12:37 21,1 C 18,3 C 45 % 1005,6 hPa 0,0 l/m 11,5 km/h (2 Bft) O 97 0 min 0,000 mm 3,2 UV-I 353 W/m 8,7 C 19,4 C 14,5 km/h (3 Bft) 100,00 %
09.05.2018 12:38 21,2 C 18,3 C 45 % 1005,6 hPa 0,0 l/m 16,8 km/h (3 Bft) O 86 0 min 0,000 mm 3,9 UV-I 353 W/m 8,8 C 18,3 C 20,9 km/h (4 Bft) 100,00 %
09.05.2018 12:39 21,2 C 18,9 C 45 % 1005,6 hPa 0,0 l/m 14,3 km/h (3 Bft) O-SO 117 0 min 0,000 mm 4,3 UV-I 433 W/m 8,8 C 18,9 C 19,3 km/h (3 Bft) 100,00 %
09.05.2018 12:40 21,3 C 18,9 C 47 % 1005,6 hPa 0,0 l/m 11,3 km/h (2 Bft) O 96 1 min 0,000 mm 4,4 UV-I 966 W/m 9,5 C 19,7 C 19,3 km/h (3 Bft) 100,00 %
09.05.2018 12:41 21,5 C 18,9 C 46 % 1005,6 hPa 0,0 l/m 12,2 km/h (2 Bft) O-SO 113 1 min 0,000 mm 4,5 UV-I 965 W/m 9,4 C 19,7 C 19,3 km/h (3 Bft) 100,00 %
09.05.2018 12:42 21,6 C 18,9 C 44 % 1005,6 hPa 0,0 l/m 11,1 km/h (2 Bft) SO 133 1 min 0,000 mm 4,5 UV-I 957 W/m 8,8 C 20,1 C 16,1 km/h (3 Bft) 100,00 %
09.05.2018 12:43 21,8 C 18,9 C 46 % 1005,5 hPa 0,0 l/m 11,2 km/h (2 Bft) SO 128 1 min 0,000 mm 4,4 UV-I 953 W/m 9,7 C 20,3 C 19,3 km/h (3 Bft) 100,00 %
09.05.2018 12:44 21,9 C 18,9 C 44 % 1005,5 hPa 0,0 l/m 13,1 km/h (3 Bft) O-NO 71 1 min 0,000 mm 3,1 UV-I 953 W/m 9,1 C 20,0 C 19,3 km/h (3 Bft) 100,00 %
09.05.2018 12:45 21,9 C 18,9 C 45 % 1005,5 hPa 0,0 l/m 14,3 km/h (3 Bft) NO 40 1 min 0,000 mm 2,6 UV-I 940 W/m 9,4 C 19,7 C 19,3 km/h (3 Bft) 95,83 %
09.05.2018 12:46 21,9 C 18,9 C 46 % 1005,5 hPa 0,0 l/m 10,9 km/h (2 Bft) NO 36 1 min 0,000 mm 4,1 UV-I 859 W/m 9,7 C 20,5 C 17,7 km/h (3 Bft) 100,00 %
09.05.2018 12:47 21,9 C 18,9 C 47 % 1005,4 hPa 0,0 l/m 16,5 km/h (3 Bft) O 96 1 min 0,000 mm 3,7 UV-I 821 W/m 10,1 C 19,3 C 20,9 km/h (4 Bft) 95,83 %
09.05.2018 12:48 21,9 C 18,9 C 43 % 1005,5 hPa 0,0 l/m 18,0 km/h (3 Bft) O 92 1 min 0,000 mm 3,5 UV-I 821 W/m 8,7 C 19,0 C 22,5 km/h (4 Bft) 95,65 %
09.05.2018 12:49 21,9 C 18,9 C 43 % 1005,5 hPa 0,0 l/m 16,5 km/h (3 Bft) O-NO 76 1 min 0,000 mm 4,3 UV-I 876 W/m 8,7 C 19,3 C 22,5 km/h (4 Bft) 100,00 %
09.05.2018 12:50 21,9 C 18,9 C 41 % 1005,5 hPa 0,0 l/m 19,0 km/h (3 Bft) O-SO 110 1 min 0,000 mm 4,3 UV-I 896 W/m 8,0 C 18,8 C 24,1 km/h (4 Bft) 95,65 %
09.05.2018 12:51 22,0 C 18,9 C 43 % 1005,5 hPa 0,0 l/m 15,3 km/h (3 Bft) O-NO 59 1 min 0,000 mm 4,3 UV-I 904 W/m 8,8 C 19,6 C 20,9 km/h (4 Bft) 91,67 %
09.05.2018 12:52 22,0 C 18,9 C 42 % 1005,5 hPa 0,0 l/m 13,3 km/h (3 Bft) O 95 1 min 0,000 mm 4,3 UV-I 917 W/m 8,5 C 20,0 C 19,3 km/h (3 Bft) 96,30 %
09.05.2018 12:53 22,1 C 18,9 C 42 % 1005,5 hPa 0,0 l/m 15,1 km/h (3 Bft) O 93 1 min 0,000 mm 4,3 UV-I 933 W/m 8,6 C 19,8 C 20,9 km/h (4 Bft) 100,00 %
09.05.2018 12:54 22,0 C 18,9 C 40 % 1005,5 hPa 0,0 l/m 13,7 km/h (3 Bft) O-NO 69 1 min 0,000 mm 4,3 UV-I 955 W/m 7,8 C 19,9 C 16,1 km/h (3 Bft) 95,83 %
09.05.2018 12:55 22,0 C 18,9 C 41 % 1005,5 hPa 0,0 l/m 8,5 km/h (2 Bft) O 94 1 min 0,000 mm 4,4 UV-I 975 W/m 8,1 C 21,3 C 14,5 km/h (3 Bft) 95,65 %
09.05.2018 12:56 22,1 C 18,9 C 43 % 1005,5 hPa 0,0 l/m 9,3 km/h (2 Bft) O-SO 106 1 min 0,000 mm 4,5 UV-I 997 W/m 8,9 C 21,2 C 14,5 km/h (3 Bft) 95,83 %
09.05.2018 12:57 22,2 C 18,9 C 43 % 1005,4 hPa 0,0 l/m 11,7 km/h (2 Bft) O-SO 113 1 min 0,000 mm 4,4 UV-I 1005 W/m 9,0 C 20,6 C 14,5 km/h (3 Bft) 100,00 %
09.05.2018 12:58 22,2 C 18,9 C 43 % 1005,5 hPa 0,0 l/m 7,2 km/h (2 Bft) O 96 1 min 0,000 mm 3,3 UV-I 1005 W/m 9,0 C 21,9 C 11,3 km/h (2 Bft) 91,67 %
09.05.2018 12:59 22,2 C 18,9 C 42 % 1005,5 hPa 0,0 l/m 8,6 km/h (2 Bft) O-SO 115 1 min 0,000 mm 4,4 UV-I 1005 W/m 8,7 C 21,5 C 14,5 km/h (3 Bft) 91,30 %
09.05.2018 13:00 22,2 C 18,9 C 42 % 1005,4 hPa 0,0 l/m 10,3 km/h (2 Bft) O-NO 59 1 min 0,000 mm 4,5 UV-I 976 W/m 8,7 C 21,0 C 14,5 km/h (3 Bft) 100,00 %
09.05.2018 13:01 22,2 C 18,9 C 43 % 1005,5 hPa 0,0 l/m 6,4 km/h (2 Bft) O 96 1 min 0,483 mm 4,5 UV-I 961 W/m 9,0 C 22,2 C 14,5 km/h (3 Bft) 95,65 %
09.05.2018 13:02 22,2 C 18,9 C 42 % 1005,4 hPa 0,0 l/m 5,4 km/h (1 Bft) O 96 1 min 0,000 mm 4,5 UV-I 961 W/m 8,7 C 22,2 C 9,7 km/h (2 Bft) 100,00 %
09.05.2018 13:03 22,2 C 18,9 C 43 % 1005,3 hPa 0,0 l/m 11,0 km/h (2 Bft) O 90 1 min 0,000 mm 4,5 UV-I 949 W/m 9,0 C 20,8 C 14,5 km/h (3 Bft) 95,65 %
09.05.2018 13:04 22,3 C 18,9 C 45 % 1005,4 hPa 0,0 l/m 9,3 km/h (2 Bft) O-NO 75 1 min 0,000 mm 4,5 UV-I 930 W/m 9,8 C 21,4 C 12,9 km/h (3 Bft) 100,00 %
09.05.2018 13:05 22,3 C 18,9 C 43 % 1005,4 hPa 0,0 l/m 8,3 km/h (2 Bft) O 80 1 min 0,000 mm 4,4 UV-I 916 W/m 9,1 C 21,7 C 14,5 km/h (3 Bft) 91,30 %
09.05.2018 13:06 22,3 C 18,9 C 41 % 1005,4 hPa 0,0 l/m 12,0 km/h (2 Bft) SO 144 1 min 0,000 mm 4,4 UV-I 907 W/m 8,4 C 20,7 C 19,3 km/h (3 Bft) 95,83 %
09.05.2018 13:07 22,4 C 18,9 C 40 % 1005,4 hPa 0,0 l/m 8,2 km/h (2 Bft) O-SO 104 1 min 0,000 mm 4,3 UV-I 907 W/m 8,1 C 21,8 C 12,9 km/h (3 Bft) 95,65 %
09.05.2018 13:08 22,6 C 18,9 C 41 % 1005,4 hPa 0,0 l/m 10,8 km/h (2 Bft) O-NO 76 1 min 0,000 mm 4,3 UV-I 915 W/m 8,7 C 21,3 C 14,5 km/h (3 Bft) 92,59 %
09.05.2018 13:09 22,6 C 18,9 C 40 % 1005,4 hPa 0,0 l/m 13,0 km/h (3 Bft) O-SO 107 1 min 0,000 mm 4,2 UV-I 858 W/m 8,3 C 20,8 C 17,7 km/h (3 Bft) 100,00 %
09.05.2018 13:10 22,6 C 18,9 C 41 % 1005,4 hPa 0,0 l/m 5,6 km/h (1 Bft) N-NO 27 1 min 0,000 mm 4,3 UV-I 908 W/m 8,7 C 22,6 C 11,3 km/h (2 Bft) 95,83 %
09.05.2018 13:11 22,6 C 18,9 C 41 % 1005,4 hPa 0,0 l/m 6,1 km/h (2 Bft) O 84 1 min 0,000 mm 4,3 UV-I 920 W/m 8,7 C 22,6 C 11,3 km/h (2 Bft) 100,00 %
09.05.2018 13:12 22,6 C 18,9 C 43 % 1005,4 hPa 0,0 l/m 8,0 km/h (2 Bft) O 91 1 min 0,000 mm 4,3 UV-I 933 W/m 9,4 C 22,1 C 16,1 km/h (3 Bft) 95,65 %
09.05.2018 13:13 22,7 C 18,9 C 42 % 1005,4 hPa 0,0 l/m 9,0 km/h (2 Bft) S-SO 148 1 min 0,000 mm 4,3 UV-I 896 W/m 9,1 C 21,9 C 17,7 km/h (3 Bft) 91,67 %
09.05.2018 13:14 22,7 C 18,9 C 42 % 1005,4 hPa 0,0 l/m 14,1 km/h (3 Bft) O-SO 117 1 min 0,000 mm 4,3 UV-I 948 W/m 9,1 C 20,7 C 27,4 km/h (4 Bft) 100,00 %
09.05.2018 13:15 22,8 C 18,9 C 41 % 1005,4 hPa 0,0 l/m 21,0 km/h (4 Bft) O-SO 122 1 min 0,000 mm 4,2 UV-I 930 W/m 8,9 C 19,7 C 27,4 km/h (4 Bft) 95,83 %
09.05.2018 13:16 22,8 C 18,9 C 40 % 1005,4 hPa 0,0 l/m 14,7 km/h (3 Bft) O-SO 102 1 min 0,000 mm 4,0 UV-I 850 W/m 8,5 C 20,7 C 22,5 km/h (4 Bft) 100,00 %
09.05.2018 13:17 22,7 C 18,9 C 42 % 1005,4 hPa 0,0 l/m 11,7 km/h (2 Bft) O-SO 111 1 min 0,000 mm 3,2 UV-I 727 W/m 9,1 C 21,2 C 14,5 km/h (3 Bft) 100,00 %
09.05.2018 13:18 22,6 C 18,9 C 40 % 1005,4 hPa 0,0 l/m 13,9 km/h (3 Bft) O-SO 103 1 min 0,000 mm 4,1 UV-I 728 W/m 8,3 C 20,6 C 19,3 km/h (3 Bft) 100,00 %
09.05.2018 13:19 22,6 C 18,9 C 41 % 1005,4 hPa 0,0 l/m 15,8 km/h (3 Bft) O-NO 78 1 min 0,000 mm 3,9 UV-I 923 W/m 8,7 C 20,3 C 19,3 km/h (3 Bft) 100,00 %
09.05.2018 13:20 22,5 C 18,9 C 41 % 1005,4 hPa 0,0 l/m 19,1 km/h (3 Bft) O-SO 115 1 min 0,000 mm 3,1 UV-I 962 W/m 8,6 C 19,6 C 25,7 km/h (4 Bft) 100,00 %
09.05.2018 13:21 22,3 C 18,9 C 41 % 1005,4 hPa 0,0 l/m 12,2 km/h (2 Bft) O 87 1 min 0,000 mm 3,6 UV-I 962 W/m 8,4 C 20,6 C 17,7 km/h (3 Bft) 100,00 %
09.05.2018 13:22 22,2 C 18,9 C 40 % 1005,3 hPa 0,0 l/m 10,1 km/h (2 Bft) O-SO 103 1 min 0,000 mm 2,8 UV-I 767 W/m 8,0 C 21,0 C 17,7 km/h (3 Bft) 100,00 %
09.05.2018 13:23 22,1 C 18,9 C 42 % 1005,3 hPa 0,0 l/m 19,9 km/h (4 Bft) O 98 0 min 0,000 mm 3,4 UV-I 313 W/m 8,6 C 18,9 C 25,7 km/h (4 Bft) 100,00 %
09.05.2018 13:24 21,9 C 18,9 C 42 % 1005,4 hPa 0,0 l/m 15,3 km/h (3 Bft) O 92 0 min 0,000 mm 3,6 UV-I 313 W/m 8,4 C 19,5 C 24,1 km/h (4 Bft) 97,68 %
09.05.2018 13:25 21,9 C 18,9 C 43 % 1005,3 hPa 0,0 l/m 18,5 km/h (3 Bft) O 89 0 min 0,000 mm 2,8 UV-I 312 W/m 8,7 C 18,9 C 24,1 km/h (4 Bft) 100,00 %
09.05.2018 13:26 21,8 C 18,9 C 44 % 1005,3 hPa 0,0 l/m 14,1 km/h (3 Bft) O-NO 69 0 min 0,000 mm 2,5 UV-I 281 W/m 9,0 C 19,6 C 17,7 km/h (3 Bft) 100,00 %
09.05.2018 13:27 21,8 C 18,9 C 44 % 1005,3 hPa 0,0 l/m 14,8 km/h (3 Bft) O-NO 73 0 min 0,000 mm 2,4 UV-I 267 W/m 9,0 C 19,5 C 17,7 km/h (3 Bft) 100,00 %
09.05.2018 13:28 21,7 C 18,9 C 43 % 1005,3 hPa 0,0 l/m 10,9 km/h (2 Bft) NO 51 0 min 0,000 mm 2,3 UV-I 260 W/m 8,6 C 20,3 C 14,5 km/h (3 Bft) 100,00 %
09.05.2018 13:29 21,6 C 18,9 C 45 % 1005,3 hPa 0,0 l/m 9,9 km/h (2 Bft) O-NO 63 0 min 0,000 mm 2,2 UV-I 231 W/m 9,2 C 20,4 C 16,1 km/h (3 Bft) 100,00 %
09.05.2018 13:30 21,4 C 18,9 C 44 % 1005,2 hPa 0,0 l/m 11,0 km/h (2 Bft) O-NO 78 0 min 0,000 mm 2,0 UV-I 210 W/m 8,6 C 19,9 C 12,9 km/h (3 Bft) 100,00 %
09.05.2018 13:31 21,3 C 18,9 C 44 % 1005,2 hPa 0,0 l/m 10,3 km/h (2 Bft) O 82 0 min 0,000 mm 1,9 UV-I 203 W/m 8,5 C 20,0 C 14,5 km/h (3 Bft) 100,00 %
09.05.2018 13:32 21,2 C 18,9 C 45 % 1005,2 hPa 0,0 l/m 7,1 km/h (2 Bft) O-NO 63 0 min 0,000 mm 1,9 UV-I 207 W/m 8,8 C 20,9 C 12,9 km/h (3 Bft) 100,00 %
09.05.2018 13:33 21,2 C 18,9 C 46 % 1005,2 hPa 0,0 l/m 4,5 km/h (1 Bft) O-NO 57 0 min 0,000 mm 1,9 UV-I 219 W/m 9,1 C 21,2 C 6,4 km/h (2 Bft) 95,65 %
09.05.2018 13:34 21,1 C 18,9 C 47 % 1005,2 hPa 0,0 l/m 4,0 km/h (1 Bft) O-NO 74 0 min 0,000 mm 2,0 UV-I 247 W/m 9,3 C 21,1 C 4,8 km/h (1 Bft) 100,00 %
09.05.2018 13:35 21,1 C 18,9 C 49 % 1005,2 hPa 0,0 l/m 16,5 km/h (3 Bft) O-NO 76 0 min 0,000 mm 2,2 UV-I 281 W/m 10,0 C 18,3 C 22,5 km/h (4 Bft) 81,82 %
09.05.2018 13:36 21,1 C 18,9 C 48 % 1005,2 hPa 0,0 l/m 14,1 km/h (3 Bft) O 81 0 min 0,000 mm 2,4 UV-I 316 W/m 9,7 C 18,8 C 17,7 km/h (3 Bft) 100,00 %
09.05.2018 13:37 21,1 C 18,9 C 46 % 1005,2 hPa 0,0 l/m 11,8 km/h (2 Bft) O-NO 77 0 min 0,000 mm 2,5 UV-I 323 W/m 9,0 C 19,3 C 22,5 km/h (4 Bft) 100,00 %
09.05.2018 13:38 21,2 C 18,9 C 46 % 1005,1 hPa 0,0 l/m 11,5 km/h (2 Bft) NO 51 0 min 0,000 mm 2,8 UV-I 323 W/m 9,1 C 19,5 C 17,7 km/h (3 Bft) 100,00 %
09.05.2018 13:39 21,3 C 18,9 C 47 % 1005,1 hPa 0,0 l/m 13,1 km/h (3 Bft) O-NO 67 1 min 0,000 mm 4,2 UV-I 533 W/m 9,5 C 19,3 C 17,7 km/h (3 Bft) 95,65 %
09.05.2018 13:40 21,6 C 18,9 C 45 % 1005,2 hPa 0,0 l/m 13,9 km/h (3 Bft) O 99 1 min 0,000 mm 4,2 UV-I 954 W/m 9,2 C 19,4 C 19,3 km/h (3 Bft) 91,67 %
09.05.2018 13:41 21,8 C 18,9 C 49 % 1005,2 hPa 0,0 l/m 13,4 km/h (3 Bft) O-SO 121 1 min 0,000 mm 4,3 UV-I 920 W/m 10,6 C 19,8 C 17,7 km/h (3 Bft) 95,65 %
09.05.2018 13:42 22,2 C 18,9 C 46 % 1005,2 hPa 0,0 l/m 11,5 km/h (2 Bft) O-SO 119 1 min 0,000 mm 4,2 UV-I 887 W/m 10,0 C 20,7 C 14,5 km/h (3 Bft) 100,00 %
09.05.2018 13:43 22,4 C 18,9 C 45 % 1005,2 hPa 0,0 l/m 15,5 km/h (3 Bft) O-NO 78 1 min 0,000 mm 4,2 UV-I 875 W/m 9,9 C 20,1 C 22,5 km/h (4 Bft) 100,00 %
09.05.2018 13:44 22,5 C 18,9 C 44 % 1005,2 hPa 0,0 l/m 14,1 km/h (3 Bft) SO 126 1 min 0,000 mm 4,2 UV-I 873 W/m 9,6 C 20,5 C 20,9 km/h (4 Bft) 100,00 %
09.05.2018 13:45 22,6 C 18,9 C 44 % 1005,1 hPa 0,0 l/m 13,7 km/h (3 Bft) SO 142 1 min 0,000 mm 4,2 UV-I 868 W/m 9,7 C 20,7 C 17,7 km/h (3 Bft) 100,00 %
09.05.2018 13:46 22,6 C 18,9 C 45 % 1005,1 hPa 0,0 l/m 14,0 km/h (3 Bft) O-SO 103 1 min 0,000 mm 4,1 UV-I 868 W/m 10,1 C 20,6 C 17,7 km/h (3 Bft) 100,00 %
09.05.2018 13:47 22,6 C 18,9 C 42 % 1005,1 hPa 0,0 l/m 10,9 km/h (2 Bft) O-SO 104 1 min 0,000 mm 4,1 UV-I 868 W/m 9,0 C 21,3 C 12,9 km/h (3 Bft) 100,00 %
09.05.2018 13:48 22,6 C 18,9 C 47 % 1005,1 hPa 0,0 l/m 12,9 km/h (3 Bft) NO 52 1 min 0,000 mm 4,1 UV-I 855 W/m 10,7 C 20,8 C 19,3 km/h (3 Bft) 100,00 %
09.05.2018 13:49 22,7 C 18,9 C 48 % 1005,1 hPa 0,0 l/m 13,0 km/h (3 Bft) O-NO 68 1 min 0,000 mm 4,1 UV-I 852 W/m 11,1 C 20,9 C 14,5 km/h (3 Bft) 100,00 %
09.05.2018 13:50 22,8 C 18,9 C 45 % 1005,0 hPa 0,0 l/m 12,1 km/h (2 Bft) O-SO 111 1 min 0,000 mm 4,1 UV-I 861 W/m 10,2 C 21,2 C 17,7 km/h (3 Bft) 100,00 %
09.05.2018 13:51 22,8 C 18,9 C 44 % 1005,0 hPa 0,0 l/m 15,5 km/h (3 Bft) O-NO 65 1 min 0,000 mm 4,1 UV-I 863 W/m 9,9 C 20,6 C 20,9 km/h (4 Bft) 91,67 %
09.05.2018 13:52 22,8 C 18,9 C 48 % 1005,1 hPa 0,0 l/m 13,0 km/h (3 Bft) O-NO 65 1 min 0,000 mm 4,1 UV-I 874 W/m 11,2 C 21,0 C 17,7 km/h (3 Bft) 100,00 %
09.05.2018 13:53 22,8 C 18,9 C 44 % 1005,0 hPa 0,0 l/m 12,7 km/h (3 Bft) O-NO 76 1 min 0,000 mm 4,1 UV-I 887 W/m 9,9 C 21,1 C 17,7 km/h (3 Bft) 100,00 %
09.05.2018 13:54 22,8 C 18,9 C 44 % 1005,0 hPa 0,0 l/m 12,7 km/h (3 Bft) O-NO 64 1 min 0,000 mm 4,1 UV-I 892 W/m 9,9 C 21,1 C 19,3 km/h (3 Bft) 95,65 %
09.05.2018 13:55 22,8 C 18,9 C 43 % 1005,0 hPa 0,0 l/m 11,6 km/h (2 Bft) N-NO 27 1 min 0,000 mm 3,9 UV-I 893 W/m 9,6 C 21,3 C 16,1 km/h (3 Bft) 100,00 %
09.05.2018 13:56 22,7 C 18,9 C 45 % 1005,0 hPa 0,0 l/m 12,8 km/h (3 Bft) O 96 1 min 0,000 mm 3,8 UV-I 893 W/m 10,1 C 21,0 C 17,7 km/h (3 Bft) 95,65 %
09.05.2018 13:57 22,6 C 18,9 C 44 % 1005,0 hPa 0,0 l/m 14,3 km/h (3 Bft) NO 51 1 min 0,000 mm 4,0 UV-I 878 W/m 9,7 C 20,5 C 19,3 km/h (3 Bft) 100,00 %
09.05.2018 13:58 22,6 C 18,9 C 44 % 1004,9 hPa 0,0 l/m 15,8 km/h (3 Bft) O 90 1 min 0,000 mm 4,0 UV-I 862 W/m 9,7 C 20,3 C 17,7 km/h (3 Bft) 100,00 %
09.05.2018 13:59 22,7 C 18,9 C 44 % 1004,9 hPa 0,0 l/m 14,2 km/h (3 Bft) O-SO 107 1 min 0,000 mm 3,3 UV-I 881 W/m 9,8 C 20,7 C 17,7 km/h (3 Bft) 100,00 %
09.05.2018 14:00 22,7 C 18,9 C 45 % 1005,0 hPa 0,0 l/m 13,2 km/h (3 Bft) O 96 1 min 0,508 mm 2,4 UV-I 888 W/m 10,1 C 20,9 C 16,1 km/h (3 Bft) 95,65 %
09.05.2018 14:01 22,6 C 18,9 C 42 % 1004,9 hPa 0,0 l/m 12,8 km/h (3 Bft) O 99 1 min 0,000 mm 2,3 UV-I 888 W/m 9,0 C 20,8 C 16,1 km/h (3 Bft) 91,67 %
09.05.2018 14:02 22,6 C 18,9 C 43 % 1004,9 hPa 0,0 l/m 10,4 km/h (2 Bft) NO 39 1 min 0,000 mm 3,9 UV-I 886 W/m 9,4 C 21,4 C 16,1 km/h (3 Bft) 100,00 %
09.05.2018 14:03 22,6 C 18,9 C 48 % 1004,9 hPa 0,0 l/m 9,5 km/h (2 Bft) NO 43 1 min 0,000 mm 4,0 UV-I 878 W/m 11,0 C 21,6 C 16,1 km/h (3 Bft) 100,00 %
09.05.2018 14:04 22,6 C 18,9 C 48 % 1004,9 hPa 0,0 l/m 6,6 km/h (2 Bft) N-NO 26 1 min 0,000 mm 4,0 UV-I 867 W/m 11,0 C 22,5 C 9,7 km/h (2 Bft) 100,00 %
09.05.2018 14:05 22,6 C 18,9 C 48 % 1004,8 hPa 0,0 l/m 6,1 km/h (2 Bft) N-NO 19 1 min 0,000 mm 4,0 UV-I 853 W/m 11,0 C 22,6 C 8,0 km/h (2 Bft) 100,00 %
09.05.2018 14:06 22,6 C 18,9 C 47 % 1004,9 hPa 0,0 l/m 7,6 km/h (2 Bft) O-NO 78 1 min 0,000 mm 4,0 UV-I 846 W/m 10,7 C 22,2 C 12,9 km/h (3 Bft) 100,00 %
09.05.2018 14:07 22,8 C 18,9 C 45 % 1004,9 hPa 0,0 l/m 11,3 km/h (2 Bft) S-SO 148 1 min 0,000 mm 3,9 UV-I 842 W/m 10,2 C 21,4 C 19,3 km/h (3 Bft) 100,00 %
09.05.2018 14:08 22,9 C 18,9 C 43 % 1004,9 hPa 0,0 l/m 10,3 km/h (2 Bft) O-SO 119 1 min 0,000 mm 3,9 UV-I 843 W/m 9,6 C 21,8 C 16,1 km/h (3 Bft) 100,00 %
09.05.2018 14:09 23,2 C 18,9 C 42 % 1004,9 hPa 0,0 l/m 13,0 km/h (3 Bft) S 169 1 min 0,000 mm 3,9 UV-I 848 W/m 9,6 C 21,5 C 17,7 km/h (3 Bft) 100,00 %
09.05.2018 14:10 23,2 C 18,9 C 39 % 1004,9 hPa 0,0 l/m 11,6 km/h (2 Bft) S 169 1 min 0,000 mm 3,9 UV-I 855 W/m 8,5 C 21,8 C 20,9 km/h (4 Bft) 100,00 %
09.05.2018 14:11 23,3 C 18,9 C 42 % 1004,9 hPa 0,0 l/m 3,8 km/h (1 Bft) O-SO 109 1 min 0,000 mm 3,9 UV-I 856 W/m 9,7 C 23,3 C 9,7 km/h (2 Bft) 100,00 %
09.05.2018 14:12 23,5 C 18,9 C 44 % 1004,9 hPa 0,0 l/m 9,5 km/h (2 Bft) O 101 1 min 0,000 mm 3,9 UV-I 856 W/m 10,5 C 22,6 C 14,5 km/h (3 Bft) 100,00 %
09.05.2018 14:13 23,6 C 18,9 C 40 % 1004,8 hPa 0,0 l/m 13,5 km/h (3 Bft) NO 48 1 min 0,000 mm 3,9 UV-I 869 W/m 9,2 C 21,9 C 19,3 km/h (3 Bft) 100,00 %
09.05.2018 14:14 23,5 C 18,9 C 42 % 1004,8 hPa 0,0 l/m 12,1 km/h (2 Bft) O 80 1 min 0,000 mm 3,5 UV-I 874 W/m 9,8 C 22,0 C 17,7 km/h (3 Bft) 100,00 %
09.05.2018 14:15 23,3 C 18,9 C 41 % 1004,8 hPa 0,0 l/m 11,0 km/h (2 Bft) O-NO 74 1 min 0,000 mm 2,2 UV-I 868 W/m 9,3 C 22,0 C 16,1 km/h (3 Bft) 100,00 %
09.05.2018 14:16 23,1 C 18,9 C 38 % 1004,9 hPa 0,0 l/m 9,3 km/h (2 Bft) NO 54 0 min 0,000 mm 2,1 UV-I 443 W/m 8,0 C 22,2 C 12,9 km/h (3 Bft) 100,00 %
09.05.2018 14:17 22,9 C 18,9 C 41 % 1004,8 hPa 0,0 l/m 9,8 km/h (2 Bft) O-NO 69 0 min 0,000 mm 2,0 UV-I 210 W/m 8,9 C 21,9 C 14,5 km/h (3 Bft) 100,00 %
09.05.2018 14:18 22,6 C 18,9 C 41 % 1004,9 hPa 0,0 l/m 9,1 km/h (2 Bft) O-NO 62 0 min 0,000 mm 2,1 UV-I 234 W/m 8,7 C 21,8 C 14,5 km/h (3 Bft) 100,00 %
09.05.2018 14:19 22,5 C 18,9 C 44 % 1004,9 hPa 0,0 l/m 9,0 km/h (2 Bft) NO 34 0 min 0,000 mm 2,9 UV-I 360 W/m 9,6 C 21,7 C 16,1 km/h (3 Bft) 100,00 %
09.05.2018 14:20 22,4 C 18,9 C 46 % 1004,8 hPa 0,0 l/m 7,0 km/h (2 Bft) NO 52 1 min 0,000 mm 3,6 UV-I 947 W/m 10,2 C 22,2 C 9,7 km/h (2 Bft) 100,00 %
09.05.2018 14:21 22,6 C 18,9 C 48 % 1004,8 hPa 0,0 l/m 12,1 km/h (2 Bft) NO 46 1 min 0,000 mm 3,7 UV-I 947 W/m 11,0 C 21,0 C 20,9 km/h (4 Bft) 100,00 %
09.05.2018 14:22 22,8 C 18,9 C 44 % 1004,8 hPa 0,0 l/m 13,5 km/h (3 Bft) O 84 1 min 0,000 mm 3,8 UV-I 936 W/m 9,9 C 20,9 C 17,7 km/h (3 Bft) 95,83 %
09.05.2018 14:23 22,9 C 18,9 C 42 % 1004,8 hPa 0,0 l/m 11,3 km/h (2 Bft) O 89 1 min 0,000 mm 3,8 UV-I 927 W/m 9,3 C 21,5 C 12,9 km/h (3 Bft) 100,00 %
09.05.2018 14:24 23,1 C 18,9 C 44 % 1004,8 hPa 0,0 l/m 11,9 km/h (2 Bft) O-NO 73 1 min 0,000 mm 3,8 UV-I 932 W/m 10,2 C 21,6 C 17,7 km/h (3 Bft) 95,83 %
09.05.2018 14:25 23,3 C 18,9 C 42 % 1004,7 hPa 0,0 l/m 17,6 km/h (3 Bft) O 84 1 min 0,000 mm 3,7 UV-I 940 W/m 9,7 C 20,8 C 24,1 km/h (4 Bft) 100,00 %
09.05.2018 14:26 23,3 C 18,9 C 41 % 1004,8 hPa 0,0 l/m 15,2 km/h (3 Bft) O 86 1 min 0,000 mm 2,5 UV-I 935 W/m 9,3 C 21,2 C 19,3 km/h (3 Bft) 100,00 %
09.05.2018 14:27 23,3 C 18,9 C 41 % 1004,7 hPa 0,0 l/m 16,8 km/h (3 Bft) O-SO 111 1 min 0,000 mm 3,0 UV-I 935 W/m 9,3 C 20,9 C 20,9 km/h (4 Bft) 95,83 %
09.05.2018 14:28 23,2 C 18,9 C 42 % 1004,7 hPa 0,0 l/m 19,6 km/h (3 Bft) O-NO 70 1 min 0,000 mm 3,8 UV-I 968 W/m 9,6 C 20,4 C 27,4 km/h (4 Bft) 95,65 %
09.05.2018 14:29 23,3 C 18,9 C 46 % 1004,8 hPa 0,0 l/m 14,9 km/h (3 Bft) NO 50 1 min 0,000 mm 3,7 UV-I 984 W/m 11,0 C 21,3 C 17,7 km/h (3 Bft) 96,30 %
09.05.2018 14:30 23,4 C 18,9 C 46 % 1004,7 hPa 0,0 l/m 15,1 km/h (3 Bft) O-NO 68 1 min 0,000 mm 3,3 UV-I 951 W/m 11,1 C 21,4 C 19,3 km/h (3 Bft) 100,00 %
09.05.2018 14:31 23,3 C 18,9 C 43 % 1004,7 hPa 0,0 l/m 9,9 km/h (2 Bft) NO 40 1 min 0,000 mm 2,3 UV-I 784 W/m 10,0 C 22,3 C 14,5 km/h (3 Bft) 100,00 %
09.05.2018 14:32 23,2 C 18,9 C 43 % 1004,7 hPa 0,0 l/m 10,4 km/h (2 Bft) O 86 0 min 0,000 mm 2,6 UV-I 283 W/m 9,9 C 22,1 C 14,5 km/h (3 Bft) 100,00 %
09.05.2018 14:33 23,1 C 18,9 C 42 % 1004,7 hPa 0,0 l/m 10,6 km/h (2 Bft) O-NO 60 1 min 0,000 mm 3,8 UV-I 639 W/m 9,5 C 21,9 C 16,1 km/h (3 Bft) 100,00 %
09.05.2018 14:34 23,1 C 18,9 C 42 % 1004,7 hPa 0,0 l/m 9,8 km/h (2 Bft) O 98 1 min 0,000 mm 3,7 UV-I 940 W/m 9,5 C 22,1 C 16,1 km/h (3 Bft) 95,65 %
09.05.2018 14:35 23,1 C 18,9 C 42 % 1004,7 hPa 0,0 l/m 15,5 km/h (3 Bft) O-SO 105 1 min 0,000 mm 3,8 UV-I 940 W/m 9,5 C 20,9 C 20,9 km/h (4 Bft) 100,00 %
09.05.2018 14:36 23,2 C 18,9 C 44 % 1004,7 hPa 0,0 l/m 13,7 km/h (3 Bft) O-SO 113 1 min 0,000 mm 3,8 UV-I 934 W/m 10,3 C 21,4 C 16,1 km/h (3 Bft) 100,00 %
09.05.2018 14:37 23,3 C 18,9 C 43 % 1004,7 hPa 0,0 l/m 14,1 km/h (3 Bft) O-NO 77 1 min 0,000 mm 3,7 UV-I 891 W/m 10,0 C 21,4 C 19,3 km/h (3 Bft) 100,00 %
09.05.2018 14:38 23,3 C 18,9 C 42 % 1004,6 hPa 0,0 l/m 16,0 km/h (3 Bft) O 96 1 min 0,000 mm 3,7 UV-I 891 W/m 9,7 C 21,1 C 19,3 km/h (3 Bft) 100,00 %
09.05.2018 14:39 23,3 C 18,9 C 41 % 1004,6 hPa 0,0 l/m 14,4 km/h (3 Bft) O 98 1 min 0,000 mm 3,7 UV-I 890 W/m 9,3 C 21,4 C 16,1 km/h (3 Bft) 100,00 %
09.05.2018 14:40 23,3 C 19,4 C 42 % 1004,6 hPa 0,0 l/m 12,0 km/h (2 Bft) O-SO 104 1 min 0,000 mm 3,7 UV-I 892 W/m 9,7 C 21,8 C 17,7 km/h (3 Bft) 95,65 %
09.05.2018 14:41 23,3 C 19,4 C 41 % 1004,6 hPa 0,0 l/m 10,3 km/h (2 Bft) O-SO 107 1 min 0,000 mm 3,7 UV-I 898 W/m 9,3 C 22,2 C 14,5 km/h (3 Bft) 96,30 %
09.05.2018 14:42 23,3 C 19,4 C 41 % 1004,6 hPa 0,0 l/m 12,5 km/h (3 Bft) N-NO 32 1 min 0,000 mm 3,7 UV-I 906 W/m 9,3 C 21,7 C 17,7 km/h (3 Bft) 100,00 %
09.05.2018 14:43 23,4 C 19,4 C 41 % 1004,6 hPa 0,0 l/m 7,8 km/h (2 Bft) O-NO 61 1 min 0,000 mm 3,7 UV-I 921 W/m 9,4 C 23,0 C 11,3 km/h (2 Bft) 95,83 %
09.05.2018 14:44 23,5 C 19,4 C 46 % 1004,6 hPa 0,0 l/m 7,2 km/h (2 Bft) SO 128 1 min 0,000 mm 3,7 UV-I 923 W/m 11,2 C 23,3 C 11,3 km/h (2 Bft) 95,65 %
09.05.2018 14:45 23,6 C 19,4 C 41 % 1004,6 hPa 0,0 l/m 7,8 km/h (2 Bft) O-SO 105 1 min 0,000 mm 3,4 UV-I 919 W/m 9,6 C 23,2 C 11,3 km/h (2 Bft) 95,83 %
09.05.2018 14:46 23,6 C 19,4 C 40 % 1004,6 hPa 0,0 l/m 5,8 km/h (2 Bft) O-NO 75 1 min 0,000 mm 2,6 UV-I 919 W/m 9,2 C 23,6 C 9,7 km/h (2 Bft) 100,00 %
09.05.2018 14:47 23,6 C 19,4 C 41 % 1004,5 hPa 0,0 l/m 10,3 km/h (2 Bft) O-NO 67 1 min 0,000 mm 3,2 UV-I 919 W/m 9,6 C 22,5 C 16,1 km/h (3 Bft) 95,65 %
09.05.2018 14:48 23,7 C 19,4 C 43 % 1004,6 hPa 0,0 l/m 16,0 km/h (3 Bft) NO 46 1 min 0,000 mm 3,4 UV-I 923 W/m 10,4 C 21,6 C 22,5 km/h (4 Bft) 100,00 %
09.05.2018 14:49 23,7 C 19,4 C 42 % 1004,5 hPa 0,0 l/m 18,2 km/h (3 Bft) O-NO 65 1 min 0,000 mm 3,2 UV-I 842 W/m 10,0 C 21,2 C 29,0 km/h (5 Bft) 91,30 %
09.05.2018 14:50 23,6 C 19,4 C 42 % 1004,6 hPa 0,0 l/m 21,2 km/h (4 Bft) NO 52 1 min 0,000 mm 2,1 UV-I 582 W/m 9,9 C 20,7 C 25,7 km/h (4 Bft) 100,00 %
09.05.2018 14:51 23,3 C 19,4 C 44 % 1004,6 hPa 0,0 l/m 10,8 km/h (2 Bft) O-NO 58 0 min 0,000 mm 2,1 UV-I 276 W/m 10,4 C 22,1 C 19,3 km/h (3 Bft) 91,30 %
09.05.2018 14:52 23,1 C 19,4 C 45 % 1004,5 hPa 0,0 l/m 10,5 km/h (2 Bft) NO 48 0 min 0,000 mm 2,6 UV-I 295 W/m 10,5 C 21,9 C 14,5 km/h (3 Bft) 95,83 %
09.05.2018 14:53 22,9 C 19,4 C 43 % 1004,4 hPa 0,0 l/m 14,9 km/h (3 Bft) N-NO 22 0 min 0,000 mm 2,4 UV-I 314 W/m 9,6 C 20,8 C 22,5 km/h (4 Bft) 100,00 %
09.05.2018 14:54 22,8 C 19,4 C 45 % 1004,4 hPa 0,0 l/m 11,8 km/h (2 Bft) NO 41 0 min 0,000 mm 3,4 UV-I 315 W/m 10,2 C 21,3 C 16,1 km/h (3 Bft) 96,30 %
09.05.2018 14:55 22,8 C 19,4 C 48 % 1004,4 hPa 0,0 l/m 11,7 km/h (2 Bft) N-NO 19 0 min 0,000 mm 2,9 UV-I 315 W/m 11,2 C 21,3 C 24,1 km/h (4 Bft) 100,00 %
09.05.2018 14:56 22,7 C 19,4 C 48 % 1004,3 hPa 0,0 l/m 21,0 km/h (4 Bft) O-NO 63 0 min 0,000 mm 2,9 UV-I 315 W/m 11,1 C 19,6 C 29,0 km/h (5 Bft) 95,83 %
09.05.2018 14:57 22,8 C 19,4 C 44 % 1004,4 hPa 0,0 l/m 13,1 km/h (3 Bft) O-NO 70 1 min 0,000 mm 3,0 UV-I 452 W/m 9,9 C 21,0 C 19,3 km/h (3 Bft) 100,00 %
09.05.2018 14:58 22,8 C 19,4 C 45 % 1004,4 hPa 0,0 l/m 14,7 km/h (3 Bft) O-NO 57 1 min 0,000 mm 2,7 UV-I 516 W/m 10,2 C 20,7 C 19,3 km/h (3 Bft) 95,83 %
09.05.2018 14:59 22,9 C 19,4 C 45 % 1004,4 hPa 0,0 l/m 11,9 km/h (2 Bft) O-NO 57 1 min 0,000 mm 3,2 UV-I 524 W/m 10,3 C 21,4 C 17,7 km/h (3 Bft) 95,83 %
09.05.2018 15:00 23,1 C 19,4 C 46 % 1004,3 hPa 0,0 l/m 11,7 km/h (2 Bft) O-NO 59 1 min 0,559 mm 3,3 UV-I 852 W/m 10,8 C 21,7 C 19,3 km/h (3 Bft) 100,00 %
09.05.2018 15:01 23,3 C 19,4 C 46 % 1004,3 hPa 0,0 l/m 13,6 km/h (3 Bft) O-NO 68 1 min 0,000 mm 3,3 UV-I 888 W/m 11,0 C 21,5 C 17,7 km/h (3 Bft) 91,67 %
09.05.2018 15:02 23,4 C 19,4 C 45 % 1004,3 hPa 0,0 l/m 13,7 km/h (3 Bft) O-NO 69 1 min 0,000 mm 3,2 UV-I 910 W/m 10,8 C 21,6 C 19,3 km/h (3 Bft) 91,30 %
09.05.2018 15:03 23,5 C 19,4 C 44 % 1004,3 hPa 0,0 l/m 14,2 km/h (3 Bft) O-NO 67 1 min 0,000 mm 2,5 UV-I 919 W/m 10,5 C 21,6 C 19,3 km/h (3 Bft) 95,83 %
09.05.2018 15:04 23,4 C 19,4 C 43 % 1004,3 hPa 0,0 l/m 16,5 km/h (3 Bft) O 90 0 min 0,000 mm 1,6 UV-I 355 W/m 10,1 C 21,1 C 22,5 km/h (4 Bft) 100,00 %
09.05.2018 15:05 23,3 C 19,4 C 42 % 1004,3 hPa 0,0 l/m 16,1 km/h (3 Bft) NO 41 0 min 0,000 mm 1,6 UV-I 206 W/m 9,7 C 21,1 C 20,9 km/h (4 Bft) 91,67 %
09.05.2018 15:06 23,2 C 19,4 C 44 % 1004,3 hPa 0,0 l/m 15,3 km/h (3 Bft) O-NO 57 0 min 0,000 mm 1,6 UV-I 208 W/m 10,3 C 21,1 C 19,3 km/h (3 Bft) 95,65 %
09.05.2018 15:07 22,8 C 19,4 C 44 % 1004,3 hPa 0,0 l/m 14,0 km/h (3 Bft) NO 51 0 min 0,000 mm 1,6 UV-I 233 W/m 9,9 C 20,8 C 19,3 km/h (3 Bft) 100,00 %
09.05.2018 15:08 22,7 C 19,4 C 45 % 1004,3 hPa 0,0 l/m 10,8 km/h (2 Bft) NO 40 0 min 0,000 mm 1,8 UV-I 272 W/m 10,1 C 21,4 C 16,1 km/h (3 Bft) 100,00 %
09.05.2018 15:09 22,6 C 19,4 C 46 % 1004,2 hPa 0,0 l/m 12,7 km/h (3 Bft) NO 38 0 min 0,000 mm 2,2 UV-I 288 W/m 10,4 C 20,9 C 17,7 km/h (3 Bft) 96,30 %
09.05.2018 15:10 22,4 C 19,4 C 48 % 1004,2 hPa 0,0 l/m 10,1 km/h (2 Bft) O-NO 64 0 min 0,000 mm 2,1 UV-I 288 W/m 10,8 C 21,3 C 14,5 km/h (3 Bft) 95,65 %
09.05.2018 15:11 22,4 C 19,4 C 47 % 1004,2 hPa 0,0 l/m 7,7 km/h (2 Bft) O-NO 73 0 min 0,000 mm 1,9 UV-I 339 W/m 10,5 C 22,0 C 12,9 km/h (3 Bft) 100,00 %
09.05.2018 15:12 22,4 C 19,4 C 44 % 1004,2 hPa 0,0 l/m 11,9 km/h (2 Bft) O 90 0 min 0,000 mm 1,8 UV-I 308 W/m 9,5 C 20,8 C 14,5 km/h (3 Bft) 95,65 %
09.05.2018 15:13 22,3 C 19,4 C 41 % 1004,2 hPa 0,0 l/m 10,8 km/h (2 Bft) O 88 0 min 0,000 mm 1,8 UV-I 209 W/m 8,4 C 21,0 C 16,1 km/h (3 Bft) 95,83 %
09.05.2018 15:14 22,3 C 19,4 C 41 % 1004,2 hPa 0,0 l/m 10,4 km/h (2 Bft) O-NO 78 0 min 0,000 mm 2,3 UV-I 206 W/m 8,4 C 21,1 C 12,9 km/h (3 Bft) 100,00 %
09.05.2018 15:15 22,4 C 19,4 C 44 % 1004,2 hPa 0,0 l/m 10,5 km/h (2 Bft) O-NO 76 1 min 0,000 mm 3,0 UV-I 621 W/m 9,5 C 21,2 C 14,5 km/h (3 Bft) 100,00 %
09.05.2018 15:16 22,6 C 19,4 C 45 % 1004,2 hPa 0,0 l/m 14,8 km/h (3 Bft) O-SO 103 1 min 0,000 mm 3,1 UV-I 826 W/m 10,1 C 20,4 C 22,5 km/h (4 Bft) 100,00 %
09.05.2018 15:17 22,8 C 19,4 C 42 % 1004,1 hPa 0,0 l/m 17,8 km/h (3 Bft) O 96 1 min 0,000 mm 3,1 UV-I 826 W/m 9,2 C 20,2 C 24,1 km/h (4 Bft) 100,00 %
09.05.2018 15:18 22,9 C 19,4 C 42 % 1004,1 hPa 0,0 l/m 15,5 km/h (3 Bft) O-NO 74 1 min 0,000 mm 3,1 UV-I 827 W/m 9,3 C 20,7 C 20,9 km/h (4 Bft) 100,00 %
09.05.2018 15:19 23,1 C 19,4 C 41 % 1004,1 hPa 0,0 l/m 15,0 km/h (3 Bft) O 83 1 min 0,000 mm 3,1 UV-I 823 W/m 9,1 C 21,0 C 20,9 km/h (4 Bft) 95,65 %
09.05.2018 15:20 23,2 C 19,4 C 41 % 1004,1 hPa 0,0 l/m 12,3 km/h (3 Bft) O-NO 71 1 min 0,000 mm 3,1 UV-I 821 W/m 9,2 C 21,7 C 17,7 km/h (3 Bft) 100,00 %
09.05.2018 15:21 23,3 C 19,4 C 40 % 1004,1 hPa 0,0 l/m 12,1 km/h (2 Bft) O-NO 69 1 min 0,000 mm 3,1 UV-I 825 W/m 8,9 C 21,8 C 16,1 km/h (3 Bft) 100,00 %
09.05.2018 15:22 23,4 C 19,4 C 42 % 1004,1 hPa 0,0 l/m 9,5 km/h (2 Bft) SO 128 1 min 0,000 mm 3,1 UV-I 826 W/m 9,7 C 22,5 C 17,7 km/h (3 Bft) 100,00 %
09.05.2018 15:23 23,5 C 19,4 C 42 % 1004,1 hPa 0,0 l/m 16,3 km/h (3 Bft) S-SO 162 1 min 0,000 mm 3,0 UV-I 823 W/m 9,8 C 21,3 C 22,5 km/h (4 Bft) 100,00 %
09.05.2018 15:24 23,7 C 19,4 C 39 % 1004,1 hPa 0,0 l/m 20,6 km/h (4 Bft) SO 134 1 min 0,000 mm 3,0 UV-I 818 W/m 8,9 C 20,9 C 27,4 km/h (4 Bft) 100,00 %
09.05.2018 15:25 23,7 C 19,4 C 38 % 1004,1 hPa 0,0 l/m 17,6 km/h (3 Bft) O-SO 123 1 min 0,000 mm 3,0 UV-I 821 W/m 8,5 C 21,3 C 25,7 km/h (4 Bft) 100,00 %
09.05.2018 15:26 23,7 C 19,4 C 38 % 1004,1 hPa 0,0 l/m 10,7 km/h (2 Bft) SO 124 1 min 0,000 mm 3,0 UV-I 824 W/m 8,5 C 22,6 C 14,5 km/h (3 Bft) 95,83 %
09.05.2018 15:27 23,8 C 19,4 C 37 % 1004,0 hPa 0,0 l/m 6,7 km/h (2 Bft) SO 141 1 min 0,000 mm 3,0 UV-I 824 W/m 8,2 C 23,7 C 11,3 km/h (2 Bft) 81,82 %
09.05.2018 15:28 23,8 C 19,4 C 39 % 1004,0 hPa 0,0 l/m 7,5 km/h (2 Bft) O-SO 112 1 min 0,000 mm 3,0 UV-I 848 W/m 9,0 C 23,5 C 11,3 km/h (2 Bft) 96,30 %
09.05.2018 15:29 23,8 C 19,4 C 39 % 1004,0 hPa 0,0 l/m 8,3 km/h (2 Bft) O-SO 113 1 min 0,000 mm 2,3 UV-I 851 W/m 9,0 C 23,3 C 14,5 km/h (3 Bft) 100,00 %
09.05.2018 15:30 23,8 C 19,4 C 40 % 1004,0 hPa 0,0 l/m 14,3 km/h (3 Bft) O 94 1 min 0,000 mm 2,2 UV-I 851 W/m 9,4 C 22,0 C 20,9 km/h (4 Bft) 100,00 %
09.05.2018 15:31 23,7 C 19,4 C 39 % 1004,0 hPa 0,0 l/m 14,5 km/h (3 Bft) S-SO 155 1 min 0,000 mm 2,1 UV-I 569 W/m 8,9 C 21,8 C 19,3 km/h (3 Bft) 97,79 %
09.05.2018 15:32 23,7 C 19,4 C 40 % 1003,9 hPa 0,0 l/m 8,7 km/h (2 Bft) O-NO 74 0 min 0,000 mm 2,2 UV-I 334 W/m 9,3 C 23,0 C 14,5 km/h (3 Bft) 97,87 %
09.05.2018 15:33 23,6 C 19,4 C 39 % 1004,0 hPa 0,0 l/m 10,6 km/h (2 Bft) S-SO 148 1 min 0,000 mm 2,2 UV-I 402 W/m 8,8 C 22,5 C 12,9 km/h (3 Bft) 95,65 %
09.05.2018 15:34 23,6 C 19,4 C 40 % 1004,0 hPa 0,0 l/m 8,8 km/h (2 Bft) SO 146 1 min 0,000 mm 2,4 UV-I 433 W/m 9,2 C 22,9 C 12,9 km/h (3 Bft) 100,00 %
09.05.2018 15:35 23,6 C 19,4 C 39 % 1004,0 hPa 0,0 l/m 8,0 km/h (2 Bft) O-SO 110 1 min 0,000 mm 2,6 UV-I 552 W/m 8,8 C 23,1 C 12,9 km/h (3 Bft) 100,00 %
09.05.2018 15:36 23,7 C 19,4 C 41 % 1004,0 hPa 0,0 l/m 9,7 km/h (2 Bft) O 88 1 min 0,000 mm 2,5 UV-I 570 W/m 9,7 C 22,8 C 14,5 km/h (3 Bft) 100,00 %
09.05.2018 15:37 23,7 C 19,4 C 40 % 1004,0 hPa 0,0 l/m 13,1 km/h (3 Bft) O-NO 69 1 min 0,000 mm 1,8 UV-I 570 W/m 9,3 C 22,1 C 17,7 km/h (3 Bft) 100,00 %
09.05.2018 15:38 23,6 C 19,4 C 37 % 1003,9 hPa 0,0 l/m 15,3 km/h (3 Bft) O-SO 103 1 min 0,000 mm 1,9 UV-I 570 W/m 8,0 C 21,6 C 17,7 km/h (3 Bft) 100,00 %
09.05.2018 15:39 23,3 C 19,4 C 37 % 1004,0 hPa 0,0 l/m 13,9 km/h (3 Bft) O 100 0 min 0,000 mm 1,8 UV-I 280 W/m 7,8 C 21,4 C 19,3 km/h (3 Bft) 95,65 %
09.05.2018 15:40 23,2 C 19,4 C 38 % 1003,9 hPa 0,0 l/m 14,5 km/h (3 Bft) O 101 0 min 0,000 mm 1,6 UV-I 206 W/m 8,1 C 21,2 C 17,7 km/h (3 Bft) 95,83 %
09.05.2018 15:41 23,0 C 19,4 C 38 % 1003,9 hPa 0,0 l/m 13,0 km/h (3 Bft) O-SO 111 0 min 0,000 mm 1,6 UV-I 204 W/m 7,9 C 21,3 C 16,1 km/h (3 Bft) 100,00 %
09.05.2018 15:42 22,8 C 19,4 C 39 % 1003,9 hPa 0,0 l/m 8,0 km/h (2 Bft) O 87 0 min 0,000 mm 1,6 UV-I 202 W/m 8,1 C 22,3 C 11,3 km/h (2 Bft) 95,65 %
09.05.2018 15:43 22,8 C 19,4 C 40 % 1003,9 hPa 0,0 l/m 7,5 km/h (2 Bft) O 100 0 min 0,000 mm 2,0 UV-I 216 W/m 8,5 C 22,4 C 12,9 km/h (3 Bft) 100,00 %
09.05.2018 15:44 22,8 C 19,4 C 41 % 1003,9 hPa 0,0 l/m 7,6 km/h (2 Bft) O 87 1 min 0,000 mm 2,5 UV-I 568 W/m 8,9 C 22,4 C 12,9 km/h (3 Bft) 95,65 %
09.05.2018 15:45 22,9 C 19,4 C 40 % 1003,9 hPa 0,0 l/m 12,9 km/h (3 Bft) O-NO 78 1 min 0,000 mm 2,4 UV-I 780 W/m 8,6 C 21,2 C 16,1 km/h (3 Bft) 100,00 %
09.05.2018 15:46 22,9 C 19,4 C 39 % 1003,9 hPa 0,0 l/m 8,9 km/h (2 Bft) O 84 1 min 0,000 mm 2,5 UV-I 780 W/m 8,2 C 22,1 C 14,5 km/h (3 Bft) 95,65 %
09.05.2018 15:47 22,9 C 19,4 C 40 % 1003,9 hPa 0,0 l/m 10,1 km/h (2 Bft) O 86 1 min 0,000 mm 2,6 UV-I 780 W/m 8,6 C 21,8 C 12,9 km/h (3 Bft) 100,00 %
09.05.2018 15:48 23,1 C 19,4 C 41 % 1003,9 hPa 0,0 l/m 10,4 km/h (2 Bft) O-SO 109 1 min 0,000 mm 2,5 UV-I 780 W/m 9,1 C 22,0 C 16,1 km/h (3 Bft) 95,65 %
09.05.2018 15:49 23,1 C 19,4 C 41 % 1003,9 hPa 0,0 l/m 9,1 km/h (2 Bft) O-NO 63 1 min 0,000 mm 1,8 UV-I 576 W/m 9,1 C 22,3 C 12,9 km/h (3 Bft) 91,67 %
09.05.2018 15:50 23,2 C 19,4 C 40 % 1003,8 hPa 0,0 l/m 13,2 km/h (3 Bft) O-NO 71 0 min 0,000 mm 1,8 UV-I 371 W/m 8,8 C 21,5 C 19,3 km/h (3 Bft) 100,00 %
09.05.2018 15:51 23,1 C 19,4 C 40 % 1003,8 hPa 0,0 l/m 12,6 km/h (3 Bft) O-SO 111 0 min 0,000 mm 2,0 UV-I 371 W/m 8,8 C 21,5 C 16,1 km/h (3 Bft) 95,83 %
09.05.2018 15:52 23,1 C 19,4 C 40 % 1003,8 hPa 0,0 l/m 14,4 km/h (3 Bft) O 96 0 min 0,000 mm 1,9 UV-I 371 W/m 8,8 C 21,1 C 19,3 km/h (3 Bft) 100,00 %
09.05.2018 15:53 23,2 C 19,4 C 41 % 1003,8 hPa 0,0 l/m 14,7 km/h (3 Bft) SO 130 1 min 0,000 mm 2,4 UV-I 471 W/m 9,2 C 21,2 C 22,5 km/h (4 Bft) 100,00 %
09.05.2018 15:54 23,3 C 19,4 C 40 % 1003,8 hPa 0,0 l/m 12,0 km/h (2 Bft) S-SO 152 1 min 0,000 mm 2,4 UV-I 740 W/m 8,9 C 21,8 C 17,7 km/h (3 Bft) 95,65 %
09.05.2018 15:55 23,4 C 19,4 C 39 % 1003,8 hPa 0,0 l/m 10,1 km/h (2 Bft) SO 139 1 min 0,000 mm 2,2 UV-I 744 W/m 8,6 C 22,4 C 14,5 km/h (3 Bft) 95,83 %
09.05.2018 15:56 23,5 C 19,4 C 41 % 1003,8 hPa 0,0 l/m 7,1 km/h (2 Bft) O 96 1 min 0,000 mm 2,1 UV-I 753 W/m 9,5 C 23,3 C 9,7 km/h (2 Bft) 100,00 %
09.05.2018 15:57 23,7 C 19,4 C 41 % 1003,8 hPa 0,0 l/m 10,6 km/h (2 Bft) O-SO 115 1 min 0,000 mm 2,4 UV-I 746 W/m 9,7 C 22,6 C 14,5 km/h (3 Bft) 95,83 %
09.05.2018 15:58 23,7 C 19,4 C 40 % 1003,8 hPa 0,0 l/m 8,2 km/h (2 Bft) SO 131 1 min 0,000 mm 2,3 UV-I 737 W/m 9,3 C 23,2 C 14,5 km/h (3 Bft) 100,00 %
09.05.2018 15:59 23,8 C 19,4 C 40 % 1003,8 hPa 0,0 l/m 5,4 km/h (1 Bft) O-SO 114 1 min 0,000 mm 2,3 UV-I 729 W/m 9,4 C 23,8 C 8,0 km/h (2 Bft) 91,30 %
09.05.2018 16:00 23,8 C 19,4 C 41 % 1003,8 hPa 0,0 l/m 9,4 km/h (2 Bft) O-SO 106 1 min 0,000 mm 2,2 UV-I 707 W/m 9,7 C 23,0 C 12,9 km/h (3 Bft) 100,00 %
09.05.2018 16:01 23,9 C 19,4 C 40 % 1003,8 hPa 0,0 l/m 13,9 km/h (3 Bft) O 94 1 min 0,432 mm 2,2 UV-I 706 W/m 9,5 C 22,2 C 17,7 km/h (3 Bft) 95,65 %
09.05.2018 16:02 23,9 C 19,4 C 40 % 1003,8 hPa 0,0 l/m 11,9 km/h (2 Bft) O 98 1 min 0,000 mm 2,1 UV-I 710 W/m 9,5 C 22,5 C 16,1 km/h (3 Bft) 100,00 %
09.05.2018 16:03 23,8 C 19,4 C 42 % 1003,8 hPa 0,0 l/m 13,5 km/h (3 Bft) O-NO 67 1 min 0,000 mm 2,0 UV-I 684 W/m 10,1 C 22,1 C 17,7 km/h (3 Bft) 91,30 %
09.05.2018 16:04 23,8 C 19,4 C 42 % 1003,8 hPa 0,0 l/m 13,6 km/h (3 Bft) O 82 1 min 0,000 mm 1,8 UV-I 654 W/m 10,1 C 22,1 C 16,1 km/h (3 Bft) 95,83 %
09.05.2018 16:05 23,8 C 19,4 C 41 % 1003,8 hPa 0,0 l/m 10,7 km/h (2 Bft) O-SO 111 1 min 0,000 mm 1,8 UV-I 654 W/m 9,7 C 22,7 C 17,7 km/h (3 Bft) 96,15 %
09.05.2018 16:06 23,7 C 19,4 C 42 % 1003,7 hPa 0,0 l/m 10,7 km/h (2 Bft) SO 126 1 min 0,000 mm 1,6 UV-I 654 W/m 10,0 C 22,6 C 16,1 km/h (3 Bft) 100,00 %
09.05.2018 16:07 23,7 C 19,4 C 41 % 1003,8 hPa 0,0 l/m 12,3 km/h (3 Bft) SO 126 1 min 0,000 mm 1,2 UV-I 654 W/m 9,7 C 22,2 C 17,7 km/h (3 Bft) 96,15 %
09.05.2018 16:08 23,6 C 19,4 C 43 % 1003,8 hPa 0,0 l/m 14,1 km/h (3 Bft) O 101 0 min 0,000 mm 1,0 UV-I 332 W/m 10,3 C 21,8 C 16,1 km/h (3 Bft) 100,00 %
09.05.2018 16:09 23,4 C 19,4 C 45 % 1003,7 hPa 0,0 l/m 17,6 km/h (3 Bft) O-NO 76 0 min 0,000 mm 1,1 UV-I 178 W/m 10,8 C 20,9 C 25,7 km/h (4 Bft) 94,74 %
09.05.2018 16:10 23,2 C 19,4 C 43 % 1003,7 hPa 0,0 l/m 19,4 km/h (3 Bft) O 87 0 min 0,000 mm 1,1 UV-I 178 W/m 9,9 C 20,4 C 25,7 km/h (4 Bft) 96,30 %
09.05.2018 16:11 23,1 C 19,4 C 44 % 1003,8 hPa 0,0 l/m 18,0 km/h (3 Bft) O 88 0 min 0,000 mm 1,0 UV-I 172 W/m 10,2 C 20,5 C 24,1 km/h (4 Bft) 100,00 %
09.05.2018 16:12 22,8 C 19,4 C 45 % 1003,8 hPa 0,0 l/m 17,0 km/h (3 Bft) O-SO 103 0 min 0,000 mm 0,9 UV-I 167 W/m 10,2 C 20,3 C 19,3 km/h (3 Bft) 95,83 %
09.05.2018 16:13 22,7 C 19,4 C 45 % 1003,8 hPa 0,0 l/m 17,1 km/h (3 Bft) O 85 0 min 0,000 mm 0,9 UV-I 164 W/m 10,1 C 20,1 C 22,5 km/h (4 Bft) 88,46 %
09.05.2018 16:14 22,6 C 19,4 C 45 % 1003,8 hPa 0,0 l/m 16,2 km/h (3 Bft) O-NO 58 0 min 0,000 mm 0,9 UV-I 164 W/m 10,1 C 20,2 C 20,9 km/h (4 Bft) 100,00 %
09.05.2018 16:15 22,4 C 19,4 C 46 % 1003,8 hPa 0,0 l/m 15,7 km/h (3 Bft) O 98 0 min 0,000 mm 0,9 UV-I 169 W/m 10,2 C 20,0 C 20,9 km/h (4 Bft) 100,00 %
09.05.2018 16:16 22,3 C 19,4 C 46 % 1003,8 hPa 0,0 l/m 13,4 km/h (3 Bft) O 89 0 min 0,000 mm 0,9 UV-I 178 W/m 10,1 C 20,4 C 16,1 km/h (3 Bft) 95,65 %
09.05.2018 16:17 22,2 C 19,4 C 47 % 1003,8 hPa 0,0 l/m 15,8 km/h (3 Bft) O-NO 74 0 min 0,000 mm 0,9 UV-I 187 W/m 10,3 C 19,8 C 22,5 km/h (4 Bft) 95,83 %
09.05.2018 16:18 22,1 C 19,4 C 47 % 1003,8 hPa 0,0 l/m 8,9 km/h (2 Bft) O 86 0 min 0,000 mm 0,9 UV-I 192 W/m 10,3 C 21,3 C 12,9 km/h (3 Bft) 100,00 %
09.05.2018 16:19 22,1 C 19,4 C 48 % 1003,8 hPa 0,0 l/m 8,5 km/h (2 Bft) O-SO 104 0 min 0,000 mm 0,9 UV-I 197 W/m 10,6 C 21,4 C 12,9 km/h (3 Bft) 95,83 %
09.05.2018 16:20 22,1 C 19,4 C 49 % 1003,8 hPa 0,0 l/m 9,5 km/h (2 Bft) O 87 0 min 0,000 mm 0,8 UV-I 201 W/m 10,9 C 21,1 C 12,9 km/h (3 Bft) 96,15 %
09.05.2018 16:21 22,1 C 19,4 C 47 % 1003,8 hPa 0,0 l/m 13,3 km/h (3 Bft) O 83 0 min 0,000 mm 0,8 UV-I 202 W/m 10,3 C 20,1 C 16,1 km/h (3 Bft) 95,83 %
09.05.2018 16:22 22,1 C 19,4 C 47 % 1003,8 hPa 0,0 l/m 8,9 km/h (2 Bft) O-SO 107 0 min 0,000 mm 0,8 UV-I 198 W/m 10,3 C 21,3 C 12,9 km/h (3 Bft) 91,30 %
09.05.2018 16:23 22,1 C 19,4 C 47 % 1003,8 hPa 0,0 l/m 11,4 km/h (2 Bft) O-NO 75 0 min 0,000 mm 0,7 UV-I 186 W/m 10,3 C 20,6 C 16,1 km/h (3 Bft) 95,83 %
09.05.2018 16:24 22,1 C 19,4 C 48 % 1003,8 hPa 0,0 l/m 10,7 km/h (2 Bft) O 80 0 min 0,000 mm 0,6 UV-I 164 W/m 10,6 C 20,8 C 16,1 km/h (3 Bft) 100,00 %
09.05.2018 16:25 22,1 C 19,4 C 47 % 1003,8 hPa 0,0 l/m 9,3 km/h (2 Bft) O 88 0 min 0,000 mm 0,5 UV-I 144 W/m 10,3 C 21,2 C 12,9 km/h (3 Bft) 96,30 %
09.05.2018 16:26 22,0 C 19,4 C 49 % 1003,8 hPa 0,0 l/m 9,5 km/h (2 Bft) O-NO 78 0 min 0,000 mm 0,5 UV-I 135 W/m 10,8 C 21,0 C 12,9 km/h (3 Bft) 100,00 %
09.05.2018 16:27 21,9 C 19,4 C 51 % 1003,9 hPa 0,0 l/m 12,3 km/h (3 Bft) SO 128 0 min 0,000 mm 0,5 UV-I 128 W/m 11,3 C 20,1 C 16,1 km/h (3 Bft) 95,83 %
09.05.2018 16:28 21,8 C 19,4 C 54 % 1003,9 hPa 0,0 l/m 11,3 km/h (2 Bft) O 100 0 min 0,000 mm 0,5 UV-I 127 W/m 12,1 C 20,3 C 14,5 km/h (3 Bft) 100,00 %
09.05.2018 16:29 21,6 C 19,4 C 55 % 1003,9 hPa 0,2 l/m 11,9 km/h (2 Bft) O-SO 103 0 min 0,000 mm 0,0 UV-I 124 W/m 12,2 C 19,9 C 16,1 km/h (3 Bft) 95,83 %
09.05.2018 16:30 21,2 C 19,4 C 58 % 1003,9 hPa 0,2 l/m 13,5 km/h (3 Bft) O-SO 123 0 min 0,000 mm 0,0 UV-I 121 W/m 12,6 C 19,0 C 16,1 km/h (3 Bft) 95,83 %
09.05.2018 16:31 20,9 C 19,4 C 57 % 1004,0 hPa 0,0 l/m 17,6 km/h (3 Bft) O 96 0 min 0,000 mm 0,0 UV-I 119 W/m 12,1 C 17,8 C 22,5 km/h (4 Bft) 100,00 %
09.05.2018 16:32 20,6 C 19,4 C 60 % 1003,9 hPa 0,2 l/m 14,7 km/h (3 Bft) O-SO 109 0 min 0,000 mm 0,0 UV-I 118 W/m 12,6 C 18,0 C 17,7 km/h (3 Bft) 95,83 %
09.05.2018 16:33 20,1 C 19,4 C 61 % 1004,0 hPa 0,2 l/m 14,8 km/h (3 Bft) O-SO 115 0 min 0,000 mm 0,0 UV-I 118 W/m 12,3 C 17,4 C 17,7 km/h (3 Bft) 100,00 %
09.05.2018 16:34 19,8 C 19,4 C 65 % 1004,0 hPa 0,0 l/m 14,8 km/h (3 Bft) SO 134 0 min 0,000 mm 0,0 UV-I 120 W/m 13,0 C 17,1 C 16,1 km/h (3 Bft) 95,83 %
09.05.2018 16:35 19,6 C 19,4 C 65 % 1004,1 hPa 0,2 l/m 10,7 km/h (2 Bft) SO 131 0 min 0,000 mm 0,5 UV-I 124 W/m 12,8 C 18,0 C 16,1 km/h (3 Bft) 100,00 %
09.05.2018 16:36 19,3 C 19,4 C 67 % 1004,0 hPa 0,2 l/m 14,4 km/h (3 Bft) SO 132 0 min 0,000 mm 0,5 UV-I 125 W/m 13,0 C 16,6 C 22,5 km/h (4 Bft) 92,31 %
09.05.2018 16:37 19,1 C 19,4 C 69 % 1004,0 hPa 0,4 l/m 11,4 km/h (2 Bft) O-SO 109 0 min 0,000 mm 0,5 UV-I 130 W/m 13,3 C 17,2 C 16,1 km/h (3 Bft) 95,83 %
09.05.2018 16:38 18,9 C 19,4 C 66 % 1004,0 hPa 0,2 l/m 7,6 km/h (2 Bft) SO 136 0 min 0,000 mm 0,6 UV-I 132 W/m 12,4 C 18,4 C 12,9 km/h (3 Bft) 95,83 %
09.05.2018 16:39 18,8 C 19,4 C 69 % 1004,0 hPa 0,2 l/m 4,3 km/h (1 Bft) S-SO 161 0 min 0,000 mm 0,6 UV-I 128 W/m 13,0 C 18,8 C 6,4 km/h (2 Bft) 91,30 %
09.05.2018 16:40 18,7 C 19,4 C 68 % 1003,9 hPa 0,0 l/m 1,9 km/h (1 Bft) S-SO 161 0 min 0,000 mm 0,6 UV-I 131 W/m 12,7 C 18,7 C 3,2 km/h (1 Bft) 93,33 %
09.05.2018 16:41 18,7 C 19,4 C 67 % 1003,8 hPa 0,0 l/m 1,7 km/h (1 Bft) S 183 0 min 0,000 mm 0,7 UV-I 134 W/m 12,4 C 18,7 C 3,2 km/h (1 Bft) 95,65 %
09.05.2018 16:42 18,7 C 19,4 C 71 % 1003,8 hPa 0,0 l/m 0,0 km/h (0 Bft) S 183 0 min 0,000 mm 0,7 UV-I 139 W/m 13,3 C 18,7 C 0,0 km/h (0 Bft) 95,83 %
09.05.2018 16:43 18,5 C 19,4 C 69 % 1003,8 hPa 0,0 l/m 1,3 km/h (1 Bft) S 183 0 min 0,000 mm 0,8 UV-I 145 W/m 12,7 C 18,5 C 1,6 km/h (1 Bft) 92,31 %
09.05.2018 16:44 18,4 C 19,4 C 68 % 1003,7 hPa 0,0 l/m 1,7 km/h (1 Bft) S 183 0 min 0,000 mm 0,8 UV-I 150 W/m 12,4 C 18,4 C 3,2 km/h (1 Bft) 100,00 %
09.05.2018 16:45 18,4 C 19,4 C 68 % 1003,7 hPa 0,0 l/m 0,9 km/h (0 Bft) S 183 0 min 0,000 mm 0,8 UV-I 156 W/m 12,4 C 18,4 C 1,6 km/h (1 Bft) 91,30 %
09.05.2018 16:46 18,4 C 19,4 C 71 % 1003,7 hPa 0,0 l/m 0,1 km/h (0 Bft) S 183 0 min 0,000 mm 0,9 UV-I 162 W/m 13,0 C 18,4 C 1,6 km/h (1 Bft) 100,00 %
09.05.2018 16:47 18,6 C 19,4 C 71 % 1003,8 hPa 0,0 l/m 0,2 km/h (0 Bft) S 183 0 min 0,000 mm 1,0 UV-I 167 W/m 13,2 C 18,6 C 1,6 km/h (1 Bft) 82,61 %
09.05.2018 16:48 18,5 C 19,4 C 80 % 1003,8 hPa 0,0 l/m 3,2 km/h (1 Bft) S 182 0 min 0,000 mm 1,3 UV-I 167 W/m 15,0 C 18,5 C 4,8 km/h (1 Bft) 92,59 %
09.05.2018 16:49 18,3 C 19,4 C 80 % 1003,7 hPa 0,0 l/m 2,7 km/h (1 Bft) S 182 1 min 0,000 mm 1,3 UV-I 462 W/m 14,8 C 18,3 C 4,8 km/h (1 Bft) 91,30 %
09.05.2018 16:50 18,3 C 19,4 C 83 % 1003,8 hPa 0,0 l/m 3,1 km/h (1 Bft) S 182 1 min 0,000 mm 1,3 UV-I 571 W/m 15,4 C 18,3 C 4,8 km/h (1 Bft) 87,50 %
09.05.2018 16:51 18,3 C 19,4 C 82 % 1003,8 hPa 0,0 l/m 1,0 km/h (0 Bft) S 182 1 min 0,000 mm 1,3 UV-I 578 W/m 15,2 C 18,3 C 3,2 km/h (1 Bft) 95,65 %
09.05.2018 16:52 18,4 C 19,4 C 84 % 1003,8 hPa 0,0 l/m 0,1 km/h (0 Bft) S 182 1 min 0,000 mm 1,3 UV-I 582 W/m 15,6 C 18,4 C 1,6 km/h (1 Bft) 91,67 %
09.05.2018 16:53 18,6 C 19,4 C 82 % 1003,8 hPa 0,0 l/m 1,9 km/h (1 Bft) S 187 1 min 0,000 mm 1,4 UV-I 586 W/m 15,5 C 18,6 C 3,2 km/h (1 Bft) 100,00 %
09.05.2018 16:54 18,9 C 19,4 C 81 % 1003,7 hPa 0,0 l/m 2,3 km/h (1 Bft) S 188 1 min 0,000 mm 1,4 UV-I 587 W/m 15,6 C 18,9 C 3,2 km/h (1 Bft) 86,67 %
09.05.2018 16:55 19,4 C 19,4 C 73 % 1003,7 hPa 0,0 l/m 3,0 km/h (1 Bft) S 188 1 min 0,000 mm 1,4 UV-I 593 W/m 14,4 C 19,4 C 3,2 km/h (1 Bft) 100,00 %
09.05.2018 16:56 19,7 C 19,4 C 67 % 1003,6 hPa 0,0 l/m 3,1 km/h (1 Bft) S-SW 193 1 min 0,000 mm 1,3 UV-I 598 W/m 13,4 C 19,7 C 4,8 km/h (1 Bft) 96,15 %
09.05.2018 16:57 20,1 C 19,4 C 65 % 1003,6 hPa 0,0 l/m 3,7 km/h (1 Bft) S-SW 213 1 min 0,000 mm 1,3 UV-I 603 W/m 13,3 C 20,1 C 4,8 km/h (1 Bft) 100,00 %
09.05.2018 16:58 20,3 C 19,4 C 71 % 1003,7 hPa 0,0 l/m 4,0 km/h (1 Bft) W-SW 252 1 min 0,000 mm 1,3 UV-I 623 W/m 14,9 C 20,3 C 4,8 km/h (1 Bft) 95,65 %
09.05.2018 16:59 20,5 C 19,4 C 70 % 1003,6 hPa 0,0 l/m 3,4 km/h (1 Bft) W-SW 252 1 min 0,000 mm 1,3 UV-I 633 W/m 14,8 C 20,5 C 4,8 km/h (1 Bft) 100,00 %
09.05.2018 17:00 20,7 C 19,4 C 71 % 1003,6 hPa 0,0 l/m 5,4 km/h (1 Bft) W-SW 248 1 min 0,000 mm 1,3 UV-I 650 W/m 15,2 C 20,7 C 6,4 km/h (2 Bft) 95,65 %
09.05.2018 17:01 20,8 C 19,4 C 76 % 1003,7 hPa 0,0 l/m 5,4 km/h (1 Bft) W 259 1 min 0,228 mm 1,2 UV-I 651 W/m 16,4 C 20,8 C 6,4 km/h (2 Bft) 95,83 %
09.05.2018 17:02 20,9 C 19,4 C 80 % 1003,7 hPa 0,0 l/m 4,0 km/h (1 Bft) W-SW 245 1 min 0,000 mm 1,1 UV-I 645 W/m 17,3 C 20,9 C 4,8 km/h (1 Bft) 100,00 %
09.05.2018 17:03 21,1 C 19,4 C 78 % 1003,7 hPa 0,0 l/m 4,6 km/h (1 Bft) SW 216 1 min 0,000 mm 1,0 UV-I 620 W/m 17,1 C 21,1 C 6,4 km/h (2 Bft) 95,83 %
09.05.2018 17:04 21,1 C 19,4 C 76 % 1003,6 hPa 0,0 l/m 3,7 km/h (1 Bft) SW 223 1 min 0,000 mm 0,9 UV-I 585 W/m 16,7 C 21,1 C 6,4 km/h (2 Bft) 100,00 %
09.05.2018 17:05 21,2 C 19,4 C 72 % 1003,7 hPa 0,0 l/m 4,4 km/h (1 Bft) SW 223 1 min 0,000 mm 0,8 UV-I 561 W/m 15,9 C 21,2 C 8,0 km/h (2 Bft) 83,33 %
09.05.2018 17:06 21,3 C 19,4 C 67 % 1003,7 hPa 0,0 l/m 3,9 km/h (1 Bft) SW 223 1 min 0,000 mm 0,7 UV-I 510 W/m 14,9 C 21,3 C 4,8 km/h (1 Bft) 100,00 %
09.05.2018 17:07 21,4 C 19,4 C 67 % 1003,7 hPa 0,0 l/m 3,1 km/h (1 Bft) SW 223 1 min 0,000 mm 0,2 UV-I 487 W/m 15,0 C 21,4 C 3,2 km/h (1 Bft) 95,83 %
09.05.2018 17:08 21,4 C 19,4 C 67 % 1003,6 hPa 0,2 l/m 3,0 km/h (1 Bft) SW 223 0 min 0,000 mm 0,0 UV-I 182 W/m 15,0 C 21,4 C 4,8 km/h (1 Bft) 96,15 %
09.05.2018 17:09 21,4 C 19,4 C 57 % 1003,6 hPa 0,0 l/m 2,3 km/h (1 Bft) SW 223 0 min 0,000 mm 0,0 UV-I 169 W/m 12,5 C 21,4 C 3,2 km/h (1 Bft) 100,00 %
09.05.2018 17:10 21,4 C 19,4 C 59 % 1003,6 hPa 0,0 l/m 3,0 km/h (1 Bft) SW 223 0 min 0,000 mm 0,1 UV-I 179 W/m 13,0 C 21,4 C 4,8 km/h (1 Bft) 100,00 %
09.05.2018 17:11 21,4 C 19,4 C 56 % 1003,6 hPa 0,0 l/m 1,1 km/h (1 Bft) SW 223 0 min 0,000 mm 0,6 UV-I 186 W/m 12,3 C 21,4 C 3,2 km/h (1 Bft) 100,00 %
09.05.2018 17:12 21,6 C 19,4 C 56 % 1003,8 hPa 0,0 l/m 0,5 km/h (0 Bft) SW 223 1 min 0,000 mm 0,7 UV-I 390 W/m 12,4 C 21,6 C 1,6 km/h (1 Bft) 95,65 %
09.05.2018 17:13 21,6 C 19,4 C 56 % 1003,8 hPa 0,0 l/m 0,8 km/h (0 Bft) SW 223 1 min 0,000 mm 0,5 UV-I 492 W/m 12,4 C 21,6 C 3,2 km/h (1 Bft) 100,00 %
09.05.2018 17:14 21,6 C 19,4 C 55 % 1003,7 hPa 0,0 l/m 0,4 km/h (0 Bft) SW 223 1 min 0,000 mm 0,5 UV-I 479 W/m 12,2 C 21,6 C 1,6 km/h (1 Bft) 100,00 %
09.05.2018 17:15 21,7 C 19,4 C 50 % 1003,7 hPa 0,2 l/m 2,3 km/h (1 Bft) S-SW 196 0 min 0,000 mm 0,5 UV-I 220 W/m 10,8 C 21,7 C 3,2 km/h (1 Bft) 100,00 %
09.05.2018 17:16 21,7 C 19,4 C 58 % 1003,7 hPa 0,0 l/m 2,2 km/h (1 Bft) S-SW 196 0 min 0,000 mm 0,5 UV-I 198 W/m 13,1 C 21,7 C 3,2 km/h (1 Bft) 100,00 %
09.05.2018 17:17 21,6 C 19,4 C 65 % 1003,7 hPa 0,0 l/m 2,8 km/h (1 Bft) S 185 0 min 0,000 mm 0,5 UV-I 208 W/m 14,7 C 21,6 C 4,8 km/h (1 Bft) 100,00 %
09.05.2018 17:18 21,4 C 19,4 C 59 % 1003,7 hPa 0,0 l/m 3,6 km/h (1 Bft) O-SO 104 0 min 0,000 mm 0,7 UV-I 214 W/m 13,0 C 21,4 C 4,8 km/h (1 Bft) 100,00 %
09.05.2018 17:19 21,2 C 19,4 C 67 % 1003,7 hPa 0,0 l/m 4,1 km/h (1 Bft) O-NO 78 0 min 0,000 mm 0,6 UV-I 214 W/m 14,8 C 21,2 C 4,8 km/h (1 Bft) 96,15 %
09.05.2018 17:20 21,1 C 19,4 C 69 % 1003,7 hPa 0,0 l/m 6,4 km/h (2 Bft) O-NO 57 0 min 0,000 mm 0,6 UV-I 217 W/m 15,2 C 21,1 C 8,0 km/h (2 Bft) 100,00 %
09.05.2018 17:21 20,8 C 19,4 C 70 % 1003,8 hPa 0,2 l/m 6,1 km/h (2 Bft) NO 44 0 min 0,000 mm 0,6 UV-I 222 W/m 15,1 C 20,8 C 8,0 km/h (2 Bft) 95,65 %
09.05.2018 17:22 20,6 C 19,4 C 73 % 1003,8 hPa 0,0 l/m 5,4 km/h (1 Bft) N-NO 30 0 min 0,000 mm 0,6 UV-I 224 W/m 15,6 C 20,6 C 6,4 km/h (2 Bft) 100,00 %
09.05.2018 17:23 20,3 C 19,4 C 67 % 1003,8 hPa 0,0 l/m 8,1 km/h (2 Bft) N-NO 13 0 min 0,000 mm 0,6 UV-I 228 W/m 14,0 C 19,6 C 12,9 km/h (3 Bft) 95,65 %
09.05.2018 17:24 20,2 C 19,4 C 71 % 1003,7 hPa 0,0 l/m 14,3 km/h (3 Bft) N 9 0 min 0,000 mm 0,6 UV-I 230 W/m 14,8 C 17,7 C 16,1 km/h (3 Bft) 100,00 %
09.05.2018 17:25 20,1 C 19,4 C 70 % 1003,7 hPa 0,0 l/m 12,1 km/h (2 Bft) N-NO 19 0 min 0,000 mm 0,6 UV-I 230 W/m 14,5 C 18,1 C 12,9 km/h (3 Bft) 95,65 %
09.05.2018 17:26 19,9 C 19,4 C 72 % 1003,7 hPa 0,0 l/m 9,7 km/h (2 Bft) N-NO 16 1 min 0,000 mm 0,7 UV-I 280 W/m 14,7 C 18,6 C 11,3 km/h (2 Bft) 100,00 %
09.05.2018 17:27 19,7 C 19,4 C 74 % 1003,6 hPa 0,0 l/m 11,4 km/h (2 Bft) N-NO 32 1 min 0,000 mm 0,7 UV-I 491 W/m 14,9 C 17,9 C 14,5 km/h (3 Bft) 100,00 %
09.05.2018 17:28 19,7 C 19,4 C 78 % 1003,6 hPa 0,0 l/m 10,6 km/h (2 Bft) N 9 1 min 0,000 mm 0,7 UV-I 507 W/m 15,8 C 18,1 C 14,5 km/h (3 Bft) 100,00 %
09.05.2018 17:29 19,6 C 19,4 C 78 % 1003,7 hPa 0,0 l/m 9,1 km/h (2 Bft) N-NO 28 1 min 0,000 mm 0,6 UV-I 501 W/m 15,7 C 18,5 C 14,5 km/h (3 Bft) 95,65 %
09.05.2018 17:30 19,5 C 19,4 C 76 % 1003,6 hPa 0,0 l/m 8,1 km/h (2 Bft) NO 47 1 min 0,000 mm 0,7 UV-I 501 W/m 15,2 C 18,8 C 12,9 km/h (3 Bft) 100,00 %
09.05.2018 17:31 19,4 C 19,4 C 70 % 1003,6 hPa 0,0 l/m 6,6 km/h (2 Bft) N-NO 20 1 min 0,000 mm 0,7 UV-I 524 W/m 13,8 C 19,3 C 9,7 km/h (2 Bft) 100,00 %
09.05.2018 17:32 19,5 C 19,4 C 70 % 1003,6 hPa 0,0 l/m 5,5 km/h (1 Bft) N 355 1 min 0,000 mm 0,7 UV-I 521 W/m 13,9 C 19,5 C 8,0 km/h (2 Bft) 100,00 %
09.05.2018 17:33 19,6 C 19,4 C 70 % 1003,6 hPa 0,0 l/m 5,5 km/h (1 Bft) N-NO 19 1 min 0,000 mm 0,6 UV-I 503 W/m 14,0 C 19,6 C 6,4 km/h (2 Bft) 100,00 %
09.05.2018 17:34 19,7 C 19,4 C 69 % 1003,6 hPa 0,0 l/m 6,1 km/h (2 Bft) N-NO 26 1 min 0,000 mm 0,6 UV-I 480 W/m 13,8 C 19,7 C 8,0 km/h (2 Bft) 96,15 %
09.05.2018 17:35 19,8 C 19,4 C 72 % 1003,6 hPa 0,0 l/m 5,3 km/h (1 Bft) NO 56 1 min 0,000 mm 0,5 UV-I 330 W/m 14,6 C 19,8 C 6,4 km/h (2 Bft) 100,00 %
09.05.2018 17:36 19,8 C 19,4 C 72 % 1003,7 hPa 0,0 l/m 8,9 km/h (2 Bft) N-NO 33 1 min 0,000 mm 0,6 UV-I 288 W/m 14,6 C 18,8 C 12,9 km/h (3 Bft) 100,00 %
09.05.2018 17:37 19,8 C 19,4 C 73 % 1003,7 hPa 0,0 l/m 6,7 km/h (2 Bft) NO 48 1 min 0,000 mm 0,6 UV-I 317 W/m 14,8 C 19,7 C 9,7 km/h (2 Bft) 100,00 %
09.05.2018 17:38 19,6 C 19,4 C 67 % 1003,7 hPa 0,0 l/m 5,4 km/h (1 Bft) O-NO 69 1 min 0,000 mm 0,6 UV-I 475 W/m 13,3 C 19,6 C 8,0 km/h (2 Bft) 95,65 %
09.05.2018 17:39 19,4 C 19,4 C 71 % 1003,8 hPa 0,0 l/m 8,0 km/h (2 Bft) NO 38 1 min 0,000 mm 0,1 UV-I 408 W/m 14,0 C 18,7 C 14,5 km/h (3 Bft) 100,00 %
09.05.2018 17:40 19,2 C 19,4 C 69 % 1003,8 hPa 0,0 l/m 6,1 km/h (2 Bft) NO 47 1 min 0,000 mm 0,5 UV-I 274 W/m 13,4 C 19,2 C 11,3 km/h (2 Bft) 95,65 %
09.05.2018 17:41 19,1 C 19,4 C 70 % 1003,8 hPa 0,0 l/m 10,3 km/h (2 Bft) N 9 1 min 0,000 mm 0,6 UV-I 274 W/m 13,5 C 17,5 C 14,5 km/h (3 Bft) 100,00 %
09.05.2018 17:43 18,8 C 19,4 C 70 % 1003,9 hPa 0,0 l/m 7,6 km/h (2 Bft) N 355 2 min 0,000 mm 0,1 UV-I 260 W/m 13,2 C 18,3 C 12,9 km/h (3 Bft) 100,00 %
09.05.2018 17:44 18,7 C 19,4 C 71 % 1003,9 hPa 0,0 l/m 7,5 km/h (2 Bft) N 355 0 min 0,000 mm 0,0 UV-I 175 W/m 13,3 C 18,2 C 9,7 km/h (2 Bft) 100,00 %
09.05.2018 17:45 18,7 C 19,4 C 68 % 1003,9 hPa 0,0 l/m 6,2 km/h (2 Bft) N-NO 14 0 min 0,000 mm 0,0 UV-I 166 W/m 12,7 C 18,7 C 11,3 km/h (2 Bft) 100,00 %
09.05.2018 17:46 18,8 C 19,4 C 70 % 1003,9 hPa 0,0 l/m 3,1 km/h (1 Bft) SW 215 0 min 0,000 mm 0,1 UV-I 163 W/m 13,2 C 18,8 C 4,8 km/h (1 Bft) 100,00 %
09.05.2018 17:48 19,0 C 19,4 C 62 % 1004,0 hPa 0,0 l/m 6,6 km/h (2 Bft) O-NO 62 0 min 0,000 mm 0,5 UV-I 159 W/m 11,6 C 18,9 C 16,1 km/h (3 Bft) 100,00 %
09.05.2018 17:49 19,0 C 19,4 C 69 % 1004,0 hPa 0,0 l/m 9,1 km/h (2 Bft) N-NO 30 0 min 0,000 mm 0,5 UV-I 151 W/m 13,2 C 17,9 C 11,3 km/h (2 Bft) 100,00 %
09.05.2018 17:50 18,9 C 19,4 C 69 % 1004,0 hPa 0,0 l/m 8,3 km/h (2 Bft) N-NO 29 0 min 0,000 mm 0,5 UV-I 144 W/m 13,1 C 18,1 C 9,7 km/h (2 Bft) 95,65 %
09.05.2018 17:51 18,8 C 19,4 C 68 % 1004,0 hPa 0,0 l/m 8,6 km/h (2 Bft) N-NO 22 0 min 0,000 mm 0,5 UV-I 138 W/m 12,8 C 17,8 C 12,9 km/h (3 Bft) 100,00 %
09.05.2018 17:52 18,7 C 19,4 C 69 % 1003,9 hPa 0,0 l/m 12,3 km/h (3 Bft) N 5 0 min 0,000 mm 0,5 UV-I 134 W/m 12,9 C 16,4 C 14,5 km/h (3 Bft) 100,00 %
09.05.2018 17:53 18,7 C 19,4 C 70 % 1003,9 hPa 0,0 l/m 14,9 km/h (3 Bft) N 355 0 min 0,000 mm 0,5 UV-I 133 W/m 13,1 C 15,7 C 17,7 km/h (3 Bft) 100,00 %
09.05.2018 17:54 18,6 C 19,4 C 70 % 1003,9 hPa 0,0 l/m 10,4 km/h (2 Bft) N 355 0 min 0,000 mm 0,5 UV-I 143 W/m 13,0 C 17,0 C 12,9 km/h (3 Bft) 100,00 %
09.05.2018 17:55 18,6 C 19,4 C 67 % 1003,8 hPa 0,0 l/m 10,1 km/h (2 Bft) N-NW 348 0 min 0,000 mm 0,5 UV-I 133 W/m 12,3 C 17,1 C 12,9 km/h (3 Bft) 100,00 %
09.05.2018 17:56 18,7 C 19,4 C 65 % 1003,8 hPa 0,0 l/m 8,4 km/h (2 Bft) N 5 0 min 0,000 mm 0,5 UV-I 135 W/m 12,0 C 17,8 C 12,9 km/h (3 Bft) 100,00 %
09.05.2018 17:57 18,7 C 19,4 C 65 % 1003,8 hPa 0,0 l/m 6,6 km/h (2 Bft) N-NO 30 0 min 0,000 mm 0,6 UV-I 135 W/m 12,0 C 18,6 C 9,7 km/h (2 Bft) 100,00 %
09.05.2018 17:58 18,8 C 19,4 C 72 % 1003,8 hPa 0,0 l/m 6,7 km/h (2 Bft) N-NO 30 0 min 0,000 mm 0,6 UV-I 135 W/m 13,6 C 18,7 C 11,3 km/h (2 Bft) 100,00 %
09.05.2018 17:59 18,7 C 19,4 C 71 % 1003,8 hPa 0,0 l/m 7,7 km/h (2 Bft) NO 44 0 min 0,000 mm 0,5 UV-I 132 W/m 13,3 C 18,1 C 9,7 km/h (2 Bft) 95,65 %
09.05.2018 18:00 18,7 C 19,4 C 70 % 1003,8 hPa 0,0 l/m 9,1 km/h (2 Bft) NO 42 0 min 0,000 mm 0,5 UV-I 128 W/m 13,1 C 17,5 C 11,3 km/h (2 Bft) 100,00 %
09.05.2018 18:01 18,6 C 19,4 C 70 % 1003,8 hPa 0,0 l/m 7,9 km/h (2 Bft) NO 38 0 min 0,203 mm 0,5 UV-I 125 W/m 13,0 C 17,9 C 9,7 km/h (2 Bft) 86,67 %
09.05.2018 18:02 18,6 C 19,4 C 68 % 1003,8 hPa 0,0 l/m 6,2 km/h (2 Bft) NO 47 0 min 0,000 mm 0,5 UV-I 124 W/m 12,6 C 18,6 C 8,0 km/h (2 Bft) 100,00 %
09.05.2018 18:03 18,6 C 19,4 C 68 % 1003,7 hPa 0,0 l/m 8,0 km/h (2 Bft) N-NO 32 0 min 0,000 mm 0,5 UV-I 118 W/m 12,6 C 17,9 C 12,9 km/h (3 Bft) 100,00 %
09.05.2018 18:04 18,7 C 19,4 C 67 % 1003,7 hPa 0,0 l/m 11,3 km/h (2 Bft) NO 34 0 min 0,000 mm 0,5 UV-I 114 W/m 12,4 C 16,8 C 16,1 km/h (3 Bft) 100,00 %
09.05.2018 18:05 18,6 C 19,4 C 66 % 1003,8 hPa 0,0 l/m 12,7 km/h (3 Bft) N-NO 27 0 min 0,000 mm 0,6 UV-I 149 W/m 12,1 C 16,2 C 16,1 km/h (3 Bft) 100,00 %
09.05.2018 18:06 18,6 C 19,4 C 69 % 1003,7 hPa 0,0 l/m 9,6 km/h (2 Bft) N-NO 27 0 min 0,000 mm 0,6 UV-I 163 W/m 12,8 C 17,2 C 12,9 km/h (3 Bft) 100,00 %
09.05.2018 18:08 18,8 C 19,4 C 67 % 1003,6 hPa 0,0 l/m 9,7 km/h (2 Bft) N 360 2 min 0,000 mm 0,6 UV-I 346 W/m 12,5 C 17,4 C 14,5 km/h (3 Bft) 100,00 %
09.05.2018 18:09 18,9 C 19,4 C 65 % 1003,6 hPa 0,0 l/m 12,6 km/h (3 Bft) N-NO 26 1 min 0,000 mm 0,6 UV-I 340 W/m 12,2 C 16,6 C 14,5 km/h (3 Bft) 100,00 %
09.05.2018 18:10 19,1 C 19,4 C 64 % 1003,6 hPa 0,0 l/m 8,9 km/h (2 Bft) N-NO 27 1 min 0,000 mm 0,6 UV-I 336 W/m 12,1 C 18,0 C 14,5 km/h (3 Bft) 100,00 %
09.05.2018 18:11 19,2 C 19,4 C 67 % 1003,7 hPa 0,0 l/m 8,3 km/h (2 Bft) N-NO 27 1 min 0,000 mm 0,6 UV-I 330 W/m 12,9 C 18,4 C 9,7 km/h (2 Bft) 100,00 %
09.05.2018 18:12 19,2 C 19,4 C 67 % 1003,6 hPa 0,0 l/m 10,5 km/h (2 Bft) NO 36 1 min 0,000 mm 0,6 UV-I 324 W/m 12,9 C 17,6 C 14,5 km/h (3 Bft) 100,00 %
09.05.2018 18:13 19,3 C 19,4 C 66 % 1003,7 hPa 0,0 l/m 11,1 km/h (2 Bft) NO 36 1 min 0,000 mm 0,5 UV-I 320 W/m 12,8 C 17,5 C 14,5 km/h (3 Bft) 100,00 %
09.05.2018 18:14 19,4 C 19,4 C 64 % 1003,7 hPa 0,0 l/m 11,4 km/h (2 Bft) N-NO 17 1 min 0,000 mm 0,5 UV-I 317 W/m 12,4 C 17,5 C 14,5 km/h (3 Bft) 100,00 %
09.05.2018 18:15 19,4 C 19,4 C 64 % 1003,7 hPa 0,0 l/m 11,4 km/h (2 Bft) N-NO 25 1 min 0,000 mm 0,5 UV-I 311 W/m 12,4 C 17,5 C 16,1 km/h (3 Bft) 100,00 %
09.05.2018 18:16 19,5 C 19,4 C 65 % 1003,7 hPa 0,0 l/m 12,7 km/h (3 Bft) N-NO 29 1 min 0,000 mm 0,5 UV-I 308 W/m 12,7 C 17,3 C 16,1 km/h (3 Bft) 95,65 %
09.05.2018 18:17 19,5 C 19,4 C 65 % 1003,7 hPa 0,0 l/m 10,9 km/h (2 Bft) NO 40 1 min 0,000 mm 0,5 UV-I 307 W/m 12,7 C 17,8 C 14,5 km/h (3 Bft) 100,00 %
09.05.2018 18:18 19,5 C 19,4 C 65 % 1003,7 hPa 0,0 l/m 10,3 km/h (2 Bft) N-NO 28 1 min 0,000 mm 0,5 UV-I 304 W/m 12,7 C 18,0 C 16,1 km/h (3 Bft) 100,00 %
09.05.2018 18:19 19,4 C 19,4 C 64 % 1003,7 hPa 0,0 l/m 12,6 km/h (3 Bft) NO 38 1 min 0,000 mm 0,5 UV-I 301 W/m 12,4 C 17,2 C 16,1 km/h (3 Bft) 100,00 %
09.05.2018 18:20 19,5 C 19,4 C 62 % 1003,7 hPa 0,0 l/m 11,5 km/h (2 Bft) NO 47 1 min 0,000 mm 0,5 UV-I 298 W/m 12,0 C 17,6 C 16,1 km/h (3 Bft) 100,00 %
09.05.2018 18:21 19,4 C 19,4 C 61 % 1003,7 hPa 0,0 l/m 12,9 km/h (3 Bft) N-NO 26 1 min 0,000 mm 0,5 UV-I 294 W/m 11,7 C 17,1 C 14,5 km/h (3 Bft) 100,00 %
09.05.2018 18:22 19,4 C 19,4 C 63 % 1003,8 hPa 0,0 l/m 10,9 km/h (2 Bft) N-NO 31 1 min 0,000 mm 0,5 UV-I 292 W/m 12,2 C 17,7 C 14,5 km/h (3 Bft) 95,65 %
09.05.2018 18:23 19,4 C 19,4 C 65 % 1003,8 hPa 0,0 l/m 11,9 km/h (2 Bft) N-NO 18 1 min 0,000 mm 0,5 UV-I 288 W/m 12,6 C 17,4 C 14,5 km/h (3 Bft) 100,00 %
09.05.2018 18:24 19,4 C 19,4 C 66 % 1003,8 hPa 0,0 l/m 11,0 km/h (2 Bft) N-NO 18 1 min 0,000 mm 0,5 UV-I 283 W/m 12,9 C 17,6 C 12,9 km/h (3 Bft) 100,00 %
09.05.2018 18:25 19,4 C 19,4 C 66 % 1003,8 hPa 0,0 l/m 8,6 km/h (2 Bft) NO 40 1 min 0,000 mm 0,5 UV-I 278 W/m 12,9 C 18,5 C 12,9 km/h (3 Bft) 100,00 %
09.05.2018 18:26 19,4 C 19,4 C 66 % 1003,8 hPa 0,0 l/m 10,5 km/h (2 Bft) N-NO 24 1 min 0,000 mm 0,0 UV-I 275 W/m 12,9 C 17,8 C 14,5 km/h (3 Bft) 100,00 %
09.05.2018 18:27 19,4 C 19,4 C 64 % 1003,8 hPa 0,0 l/m 9,0 km/h (2 Bft) N-NO 22 1 min 0,000 mm 0,0 UV-I 273 W/m 12,4 C 18,3 C 12,9 km/h (3 Bft) 100,00 %
09.05.2018 18:28 19,4 C 19,4 C 65 % 1003,8 hPa 0,0 l/m 8,4 km/h (2 Bft) N-NO 28 1 min 0,000 mm 0,0 UV-I 270 W/m 12,6 C 18,6 C 14,5 km/h (3 Bft) 95,83 %
09.05.2018 18:29 19,4 C 19,4 C 63 % 1003,8 hPa 0,0 l/m 10,8 km/h (2 Bft) N-NO 32 1 min 0,000 mm 0,0 UV-I 266 W/m 12,2 C 17,7 C 14,5 km/h (3 Bft) 100,00 %
09.05.2018 18:30 19,4 C 19,4 C 63 % 1003,8 hPa 0,0 l/m 11,4 km/h (2 Bft) N-NO 20 1 min 0,000 mm 0,0 UV-I 264 W/m 12,2 C 17,5 C 12,9 km/h (3 Bft) 100,00 %
09.05.2018 18:31 19,5 C 19,4 C 65 % 1003,9 hPa 0,0 l/m 13,0 km/h (3 Bft) N-NO 22 1 min 0,000 mm 0,0 UV-I 260 W/m 12,7 C 17,2 C 16,1 km/h (3 Bft) 100,00 %
09.05.2018 18:33 19,4 C 19,4 C 64 % 1003,9 hPa 0,0 l/m 11,2 km/h (2 Bft) NO 35 2 min 0,000 mm 0,0 UV-I 255 W/m 12,4 C 17,6 C 16,1 km/h (3 Bft) 100,00 %
09.05.2018 18:34 19,3 C 19,4 C 65 % 1003,9 hPa 0,0 l/m 9,5 km/h (2 Bft) N-NO 23 1 min 0,000 mm 0,0 UV-I 251 W/m 12,6 C 18,0 C 12,9 km/h (3 Bft) 100,00 %
09.05.2018 18:35 19,3 C 19,4 C 65 % 1003,8 hPa 0,0 l/m 10,1 km/h (2 Bft) N-NO 22 1 min 0,000 mm 0,0 UV-I 250 W/m 12,6 C 17,8 C 14,5 km/h (3 Bft) 95,65 %
09.05.2018 18:36 19,3 C 19,4 C 64 % 1003,8 hPa 0,0 l/m 8,3 km/h (2 Bft) N-NO 24 1 min 0,000 mm 0,0 UV-I 250 W/m 12,3 C 18,5 C 11,3 km/h (2 Bft) 95,83 %
09.05.2018 18:37 19,3 C 19,4 C 64 % 1003,8 hPa 0,0 l/m 11,8 km/h (2 Bft) N-NO 32 1 min 0,000 mm 0,0 UV-I 246 W/m 12,3 C 17,3 C 17,7 km/h (3 Bft) 95,65 %
09.05.2018 18:38 19,3 C 19,4 C 62 % 1003,8 hPa 0,0 l/m 8,9 km/h (2 Bft) NO 47 1 min 0,000 mm 0,0 UV-I 246 W/m 11,8 C 18,3 C 14,5 km/h (3 Bft) 96,30 %
09.05.2018 18:39 19,3 C 19,4 C 64 % 1003,8 hPa 0,0 l/m 9,7 km/h (2 Bft) N 355 1 min 0,000 mm 0,0 UV-I 245 W/m 12,3 C 18,0 C 16,1 km/h (3 Bft) 100,00 %
09.05.2018 18:40 19,3 C 19,4 C 59 % 1003,8 hPa 0,0 l/m 11,2 km/h (2 Bft) N 5 1 min 0,000 mm 0,0 UV-I 243 W/m 11,1 C 17,5 C 14,5 km/h (3 Bft) 93,33 %
09.05.2018 18:41 19,3 C 19,4 C 60 % 1003,8 hPa 0,0 l/m 8,1 km/h (2 Bft) N-NO 30 1 min 0,000 mm 0,0 UV-I 241 W/m 11,3 C 18,6 C 11,3 km/h (2 Bft) 100,00 %
09.05.2018 18:42 19,3 C 19,4 C 61 % 1003,9 hPa 0,0 l/m 7,1 km/h (2 Bft) NW 320 1 min 0,000 mm 0,0 UV-I 241 W/m 11,6 C 19,0 C 11,3 km/h (2 Bft) 95,83 %
09.05.2018 18:43 19,3 C 19,4 C 63 % 1003,8 hPa 0,0 l/m 8,6 km/h (2 Bft) N 11 1 min 0,000 mm 0,0 UV-I 242 W/m 12,1 C 18,4 C 16,1 km/h (3 Bft) 100,00 %
09.05.2018 18:44 19,3 C 19,4 C 62 % 1003,8 hPa 0,0 l/m 7,7 km/h (2 Bft) N 11 1 min 0,000 mm 0,0 UV-I 243 W/m 11,8 C 18,7 C 12,9 km/h (3 Bft) 95,83 %
09.05.2018 18:45 19,3 C 19,4 C 63 % 1003,8 hPa 0,0 l/m 10,4 km/h (2 Bft) N-NO 28 1 min 0,000 mm 0,0 UV-I 243 W/m 12,1 C 17,7 C 14,5 km/h (3 Bft) 91,30 %
09.05.2018 18:46 19,3 C 19,4 C 64 % 1003,8 hPa 0,0 l/m 9,1 km/h (2 Bft) N 5 1 min 0,000 mm 0,0 UV-I 243 W/m 12,3 C 18,2 C 12,9 km/h (3 Bft) 95,83 %
09.05.2018 18:47 19,2 C 19,4 C 64 % 1003,8 hPa 0,0 l/m 10,2 km/h (2 Bft) N-NO 19 1 min 0,000 mm 0,0 UV-I 241 W/m 12,2 C 17,7 C 16,1 km/h (3 Bft) 95,83 %
09.05.2018 18:48 19,2 C 19,4 C 63 % 1003,8 hPa 0,0 l/m 11,8 km/h (2 Bft) NO 38 1 min 0,000 mm 0,0 UV-I 239 W/m 12,0 C 17,2 C 17,7 km/h (3 Bft) 95,65 %
09.05.2018 18:49 19,2 C 19,4 C 61 % 1003,8 hPa 0,0 l/m 10,1 km/h (2 Bft) N-NO 13 1 min 0,000 mm 0,0 UV-I 236 W/m 11,5 C 17,7 C 14,5 km/h (3 Bft) 95,83 %
09.05.2018 18:50 19,2 C 19,4 C 61 % 1003,8 hPa 0,0 l/m 12,2 km/h (2 Bft) N-NO 17 1 min 0,000 mm 0,0 UV-I 232 W/m 11,5 C 17,0 C 17,7 km/h (3 Bft) 95,65 %
09.05.2018 18:51 19,2 C 19,4 C 63 % 1003,8 hPa 0,0 l/m 12,0 km/h (2 Bft) N-NO 16 1 min 0,000 mm 0,0 UV-I 229 W/m 12,0 C 17,1 C 14,5 km/h (3 Bft) 95,83 %
09.05.2018 18:52 19,2 C 19,4 C 64 % 1003,8 hPa 0,0 l/m 7,2 km/h (2 Bft) N 355 1 min 0,000 mm 0,0 UV-I 228 W/m 12,2 C 18,9 C 11,3 km/h (2 Bft) 95,65 %
09.05.2018 18:53 19,2 C 19,4 C 63 % 1003,8 hPa 0,0 l/m 12,5 km/h (3 Bft) NO 36 1 min 0,000 mm 0,0 UV-I 222 W/m 12,0 C 17,0 C 17,7 km/h (3 Bft) 95,83 %
09.05.2018 18:54 19,1 C 19,4 C 63 % 1003,7 hPa 0,0 l/m 11,8 km/h (2 Bft) N-NO 26 1 min 0,000 mm 0,0 UV-I 219 W/m 11,9 C 17,1 C 14,5 km/h (3 Bft) 91,30 %
09.05.2018 18:55 19,1 C 19,4 C 62 % 1003,7 hPa 0,0 l/m 7,5 km/h (2 Bft) N 11 1 min 0,000 mm 0,0 UV-I 207 W/m 11,6 C 18,6 C 11,3 km/h (2 Bft) 100,00 %
09.05.2018 18:56 19,1 C 19,4 C 63 % 1003,7 hPa 0,0 l/m 8,6 km/h (2 Bft) N-NO 23 1 min 0,000 mm 0,0 UV-I 198 W/m 11,9 C 18,2 C 12,9 km/h (3 Bft) 95,65 %
09.05.2018 18:57 19,1 C 19,4 C 64 % 1003,7 hPa 0,0 l/m 8,5 km/h (2 Bft) N 350 1 min 0,000 mm 0,0 UV-I 190 W/m 12,1 C 18,2 C 12,9 km/h (3 Bft) 95,83 %
09.05.2018 18:58 19,1 C 19,4 C 63 % 1003,7 hPa 0,0 l/m 7,2 km/h (2 Bft) N 360 1 min 0,000 mm 0,0 UV-I 184 W/m 11,9 C 18,7 C 12,9 km/h (3 Bft) 95,65 %
09.05.2018 18:59 19,1 C 19,4 C 63 % 1003,7 hPa 0,0 l/m 8,9 km/h (2 Bft) N-NW 345 1 min 0,000 mm 0,0 UV-I 179 W/m 11,9 C 18,0 C 12,9 km/h (3 Bft) 95,83 %
09.05.2018 19:00 19,0 C 19,4 C 62 % 1003,7 hPa 0,0 l/m 6,8 km/h (2 Bft) N-NO 21 1 min 0,000 mm 0,0 UV-I 174 W/m 11,6 C 18,8 C 11,3 km/h (2 Bft) 91,30 %
09.05.2018 19:01 19,0 C 19,4 C 62 % 1003,7 hPa 0,0 l/m 8,0 km/h (2 Bft) N 5 1 min 0,204 mm 0,0 UV-I 169 W/m 11,6 C 18,3 C 9,7 km/h (2 Bft) 95,83 %
09.05.2018 19:02 19,0 C 19,4 C 63 % 1003,7 hPa 0,0 l/m 5,7 km/h (1 Bft) NO 44 1 min 0,000 mm 0,0 UV-I 164 W/m 11,8 C 19,0 C 8,0 km/h (2 Bft) 100,00 %
09.05.2018 19:03 18,9 C 19,4 C 63 % 1003,6 hPa 0,0 l/m 6,7 km/h (2 Bft) N 5 1 min 0,000 mm 0,0 UV-I 161 W/m 11,7 C 18,8 C 8,0 km/h (2 Bft) 95,83 %
09.05.2018 19:04 18,9 C 19,4 C 64 % 1003,7 hPa 0,0 l/m 6,0 km/h (2 Bft) N 9 1 min 0,000 mm 0,0 UV-I 157 W/m 11,9 C 18,9 C 8,0 km/h (2 Bft) 100,00 %
09.05.2018 19:05 18,9 C 19,4 C 64 % 1003,7 hPa 0,0 l/m 6,1 km/h (2 Bft) N-NO 22 1 min 0,000 mm 0,0 UV-I 155 W/m 11,9 C 18,9 C 8,0 km/h (2 Bft) 91,67 %
09.05.2018 19:06 18,9 C 19,4 C 65 % 1003,7 hPa 0,0 l/m 8,1 km/h (2 Bft) N 355 1 min 0,000 mm 0,0 UV-I 153 W/m 12,2 C 18,2 C 12,9 km/h (3 Bft) 100,00 %
09.05.2018 19:07 18,9 C 19,4 C 63 % 1003,7 hPa 0,0 l/m 5,8 km/h (2 Bft) N-NO 13 1 min 0,000 mm 0,0 UV-I 151 W/m 11,7 C 18,9 C 8,0 km/h (2 Bft) 91,30 %
09.05.2018 19:08 18,9 C 19,4 C 64 % 1003,6 hPa 0,0 l/m 7,0 km/h (2 Bft) N 355 1 min 0,000 mm 0,0 UV-I 150 W/m 11,9 C 18,6 C 9,7 km/h (2 Bft) 100,00 %
09.05.2018 19:09 18,9 C 19,4 C 63 % 1003,7 hPa 0,0 l/m 6,6 km/h (2 Bft) N 9 1 min 0,000 mm 0,0 UV-I 148 W/m 11,7 C 18,8 C 8,0 km/h (2 Bft) 100,00 %
09.05.2018 19:10 18,9 C 19,4 C 64 % 1003,7 hPa 0,0 l/m 6,4 km/h (2 Bft) N-NO 17 1 min 0,000 mm 0,0 UV-I 146 W/m 11,9 C 18,9 C 8,0 km/h (2 Bft) 100,00 %
09.05.2018 19:11 18,9 C 19,4 C 65 % 1003,6 hPa 0,0 l/m 6,0 km/h (2 Bft) N-NO 17 1 min 0,000 mm 0,0 UV-I 144 W/m 12,2 C 18,9 C 8,0 km/h (2 Bft) 100,00 %
09.05.2018 19:12 18,9 C 19,4 C 65 % 1003,7 hPa 0,0 l/m 8,5 km/h (2 Bft) N-NO 24 1 min 0,000 mm 0,0 UV-I 142 W/m 12,2 C 18,0 C 11,3 km/h (2 Bft) 100,00 %
09.05.2018 19:13 18,8 C 19,4 C 64 % 1003,7 hPa 0,0 l/m 6,4 km/h (2 Bft) N-NO 18 1 min 0,000 mm 0,0 UV-I 140 W/m 11,8 C 18,8 C 8,0 km/h (2 Bft) 100,00 %
09.05.2018 19:14 18,8 C 19,4 C 64 % 1003,7 hPa 0,0 l/m 6,0 km/h (2 Bft) N-NO 19 1 min 0,000 mm 0,0 UV-I 139 W/m 11,8 C 18,8 C 8,0 km/h (2 Bft) 95,83 %
09.05.2018 19:15 18,8 C 19,4 C 64 % 1003,7 hPa 0,0 l/m 3,6 km/h (1 Bft) N-NO 19 1 min 0,000 mm 0,0 UV-I 139 W/m 11,8 C 18,8 C 4,8 km/h (1 Bft) 100,00 %
09.05.2018 19:16 18,8 C 19,4 C 65 % 1003,7 hPa 0,0 l/m 5,4 km/h (1 Bft) N 5 1 min 0,000 mm 0,0 UV-I 141 W/m 12,1 C 18,8 C 6,4 km/h (2 Bft) 100,00 %
09.05.2018 19:17 18,8 C 19,4 C 63 % 1003,8 hPa 0,0 l/m 3,0 km/h (1 Bft) N 5 1 min 0,000 mm 0,0 UV-I 141 W/m 11,6 C 18,8 C 4,8 km/h (1 Bft) 100,00 %
09.05.2018 19:18 18,9 C 19,4 C 65 % 1003,8 hPa 0,0 l/m 2,3 km/h (1 Bft) N 5 1 min 0,000 mm 0,0 UV-I 140 W/m 12,2 C 18,9 C 3,2 km/h (1 Bft) 100,00 %
09.05.2018 19:19 18,9 C 19,4 C 65 % 1003,8 hPa 0,0 l/m 2,8 km/h (1 Bft) N 5 1 min 0,000 mm 0,0 UV-I 137 W/m 12,2 C 18,9 C 3,2 km/h (1 Bft) 100,00 %
09.05.2018 19:20 18,9 C 19,4 C 65 % 1003,8 hPa 0,0 l/m 2,7 km/h (1 Bft) N 9 1 min 0,000 mm 0,0 UV-I 132 W/m 12,2 C 18,9 C 3,2 km/h (1 Bft) 100,00 %
09.05.2018 19:21 18,9 C 19,4 C 66 % 1003,9 hPa 0,0 l/m 4,4 km/h (1 Bft) N-NO 19 1 min 0,000 mm 0,0 UV-I 128 W/m 12,4 C 18,9 C 6,4 km/h (2 Bft) 91,67 %
09.05.2018 19:22 18,9 C 19,4 C 66 % 1003,9 hPa 0,0 l/m 4,0 km/h (1 Bft) N-NO 19 1 min 0,000 mm 0,0 UV-I 124 W/m 12,4 C 18,9 C 4,8 km/h (1 Bft) 100,00 %
09.05.2018 19:23 18,8 C 19,4 C 66 % 1003,9 hPa 0,0 l/m 5,0 km/h (1 Bft) N-NO 29 1 min 0,000 mm 0,0 UV-I 120 W/m 12,3 C 18,8 C 6,4 km/h (2 Bft) 100,00 %
09.05.2018 19:24 18,8 C 19,4 C 63 % 1003,9 hPa 0,0 l/m 4,4 km/h (1 Bft) N-NO 22 1 min 0,000 mm 0,0 UV-I 117 W/m 11,6 C 18,8 C 6,4 km/h (2 Bft) 100,00 %
09.05.2018 19:25 18,8 C 19,4 C 65 % 1003,9 hPa 0,0 l/m 5,0 km/h (1 Bft) N-NO 19 1 min 0,000 mm 0,0 UV-I 113 W/m 12,1 C 18,8 C 6,4 km/h (2 Bft) 100,00 %
09.05.2018 19:26 18,8 C 19,4 C 66 % 1003,9 hPa 0,0 l/m 5,6 km/h (1 Bft) N 11 1 min 0,000 mm 0,0 UV-I 109 W/m 12,3 C 18,8 C 8,0 km/h (2 Bft) 91,30 %
09.05.2018 19:27 18,8 C 19,4 C 66 % 1004,0 hPa 0,0 l/m 5,4 km/h (1 Bft) N-NO 29 1 min 0,000 mm 0,0 UV-I 106 W/m 12,3 C 18,8 C 6,4 km/h (2 Bft) 100,00 %
09.05.2018 19:28 18,7 C 19,4 C 66 % 1004,0 hPa 0,0 l/m 5,0 km/h (1 Bft) N-NO 30 1 min 0,000 mm 0,0 UV-I 104 W/m 12,2 C 18,7 C 6,4 km/h (2 Bft) 100,00 %
09.05.2018 19:29 18,6 C 19,4 C 67 % 1003,9 hPa 0,0 l/m 6,4 km/h (2 Bft) N-NO 20 1 min 0,000 mm 0,0 UV-I 100 W/m 12,3 C 18,6 C 8,0 km/h (2 Bft) 100,00 %
09.05.2018 19:30 18,5 C 19,4 C 66 % 1003,9 hPa 0,0 l/m 6,6 km/h (2 Bft) N-NO 22 1 min 0,000 mm 0,0 UV-I 98 W/m 12,0 C 18,4 C 9,7 km/h (2 Bft) 96,15 %
09.05.2018 19:31 18,4 C 19,4 C 67 % 1003,9 hPa 0,0 l/m 7,2 km/h (2 Bft) N-NO 30 1 min 0,000 mm 0,0 UV-I 97 W/m 12,2 C 18,0 C 8,0 km/h (2 Bft) 100,00 %
09.05.2018 19:32 18,4 C 19,4 C 67 % 1003,9 hPa 0,0 l/m 8,3 km/h (2 Bft) N 9 1 min 0,000 mm 0,0 UV-I 96 W/m 12,2 C 17,5 C 11,3 km/h (2 Bft) 100,00 %
09.05.2018 19:33 18,3 C 19,4 C 66 % 1003,9 hPa 0,0 l/m 6,4 km/h (2 Bft) N-NO 13 1 min 0,000 mm 0,0 UV-I 94 W/m 11,8 C 18,3 C 8,0 km/h (2 Bft) 100,00 %
09.05.2018 19:34 18,3 C 19,4 C 68 % 1004,0 hPa 0,0 l/m 9,2 km/h (2 Bft) N-NO 19 1 min 0,000 mm 0,0 UV-I 91 W/m 12,3 C 17,1 C 12,9 km/h (3 Bft) 100,00 %
09.05.2018 19:35 18,2 C 19,4 C 68 % 1003,9 hPa 0,0 l/m 8,2 km/h (2 Bft) N-NO 24 1 min 0,000 mm 0,0 UV-I 91 W/m 12,2 C 17,4 C 12,9 km/h (3 Bft) 100,00 %
09.05.2018 19:36 18,2 C 19,4 C 67 % 1003,9 hPa 0,0 l/m 6,8 km/h (2 Bft) N-NO 32 1 min 0,000 mm 0,0 UV-I 89 W/m 12,0 C 18,0 C 11,3 km/h (2 Bft) 100,00 %
09.05.2018 19:37 18,2 C 19,4 C 66 % 1004,0 hPa 0,0 l/m 7,9 km/h (2 Bft) NO 37 1 min 0,000 mm 0,0 UV-I 87 W/m 11,7 C 17,5 C 9,7 km/h (2 Bft) 100,00 %
09.05.2018 19:38 18,2 C 19,4 C 66 % 1003,9 hPa 0,0 l/m 7,8 km/h (2 Bft) N-NO 30 1 min 0,000 mm 0,0 UV-I 85 W/m 11,7 C 17,6 C 9,7 km/h (2 Bft) 100,00 %
09.05.2018 19:39 18,2 C 19,4 C 67 % 1003,9 hPa 0,0 l/m 7,4 km/h (2 Bft) N-NO 24 1 min 0,000 mm 0,0 UV-I 83 W/m 12,0 C 17,7 C 8,0 km/h (2 Bft) 95,83 %
09.05.2018 19:40 18,1 C 19,4 C 67 % 1004,0 hPa 0,0 l/m 7,2 km/h (2 Bft) NO 42 1 min 0,000 mm 0,0 UV-I 81 W/m 11,9 C 17,7 C 9,7 km/h (2 Bft) 100,00 %
09.05.2018 19:41 18,1 C 19,4 C 65 % 1003,9 hPa 0,0 l/m 5,3 km/h (1 Bft) NO 44 1 min 0,000 mm 0,0 UV-I 77 W/m 11,4 C 18,1 C 8,0 km/h (2 Bft) 100,00 %
09.05.2018 19:42 18,1 C 19,4 C 66 % 1003,9 hPa 0,0 l/m 8,0 km/h (2 Bft) N-NO 33 1 min 0,000 mm 0,0 UV-I 76 W/m 11,6 C 17,4 C 11,3 km/h (2 Bft) 100,00 %
09.05.2018 19:43 18,1 C 19,4 C 66 % 1003,9 hPa 0,0 l/m 8,4 km/h (2 Bft) N-NO 19 1 min 0,000 mm 0,0 UV-I 74 W/m 11,6 C 17,2 C 11,3 km/h (2 Bft) 95,65 %
09.05.2018 19:44 18,1 C 19,4 C 64 % 1003,9 hPa 0,0 l/m 7,2 km/h (2 Bft) N-NO 22 1 min 0,000 mm 0,0 UV-I 69 W/m 11,2 C 17,7 C 11,3 km/h (2 Bft) 100,00 %
09.05.2018 19:45 18,1 C 19,4 C 65 % 1003,8 hPa 0,0 l/m 6,8 km/h (2 Bft) N-NO 28 1 min 0,000 mm 0,0 UV-I 68 W/m 11,4 C 17,9 C 8,0 km/h (2 Bft) 100,00 %
09.05.2018 19:46 18,1 C 19,4 C 66 % 1003,9 hPa 0,0 l/m 6,4 km/h (2 Bft) N-NO 16 1 min 0,000 mm 0,0 UV-I 65 W/m 11,6 C 18,1 C 8,0 km/h (2 Bft) 100,00 %
09.05.2018 19:47 18,0 C 19,4 C 65 % 1003,8 hPa 0,0 l/m 7,1 km/h (2 Bft) N-NO 14 1 min 0,000 mm 0,0 UV-I 65 W/m 11,3 C 17,7 C 8,0 km/h (2 Bft) 100,00 %
09.05.2018 19:48 17,9 C 19,4 C 66 % 1003,9 hPa 0,0 l/m 4,9 km/h (1 Bft) N-NO 16 1 min 0,000 mm 0,0 UV-I 63 W/m 11,5 C 17,9 C 6,4 km/h (2 Bft) 100,00 %
09.05.2018 19:49 17,9 C 19,4 C 66 % 1003,9 hPa 0,0 l/m 5,3 km/h (1 Bft) N-NO 15 1 min 0,000 mm 0,0 UV-I 60 W/m 11,5 C 17,9 C 6,4 km/h (2 Bft) 100,00 %
09.05.2018 19:50 17,8 C 19,4 C 68 % 1003,9 hPa 0,0 l/m 5,2 km/h (1 Bft) N-NO 16 1 min 0,000 mm 0,0 UV-I 57 W/m 11,8 C 17,8 C 6,4 km/h (2 Bft) 100,00 %
09.05.2018 19:51 17,7 C 19,4 C 66 % 1003,9 hPa 0,0 l/m 6,4 km/h (2 Bft) N-NO 19 1 min 0,000 mm 0,0 UV-I 54 W/m 11,3 C 17,7 C 8,0 km/h (2 Bft) 100,00 %
09.05.2018 19:52 17,7 C 19,4 C 67 % 1004,0 hPa 0,0 l/m 6,0 km/h (2 Bft) N 5 1 min 0,000 mm 0,0 UV-I 53 W/m 11,5 C 17,7 C 8,0 km/h (2 Bft) 95,83 %
09.05.2018 19:53 17,7 C 19,4 C 66 % 1004,0 hPa 0,0 l/m 7,9 km/h (2 Bft) N-NO 13 1 min 0,000 mm 0,0 UV-I 50 W/m 11,3 C 17,0 C 11,3 km/h (2 Bft) 100,00 %
09.05.2018 19:54 17,7 C 19,4 C 66 % 1004,0 hPa 0,0 l/m 7,5 km/h (2 Bft) N 5 1 min 0,000 mm 0,0 UV-I 44 W/m 11,3 C 17,2 C 11,3 km/h (2 Bft) 100,00 %
09.05.2018 19:55 17,7 C 19,4 C 65 % 1004,0 hPa 0,0 l/m 6,3 km/h (2 Bft) N-NO 27 0 min 0,000 mm 0,0 UV-I 36 W/m 11,0 C 17,7 C 8,0 km/h (2 Bft) 91,30 %
09.05.2018 19:56 17,7 C 19,4 C 66 % 1004,0 hPa 0,0 l/m 9,1 km/h (2 Bft) N 11 0 min 0,000 mm 0,0 UV-I 31 W/m 11,3 C 16,5 C 12,9 km/h (3 Bft) 100,00 %
09.05.2018 19:57 17,7 C 19,4 C 65 % 1004,0 hPa 0,0 l/m 6,8 km/h (2 Bft) N 355 0 min 0,000 mm 0,0 UV-I 30 W/m 11,0 C 17,5 C 8,0 km/h (2 Bft) 100,00 %
09.05.2018 19:58 17,7 C 19,4 C 65 % 1004,0 hPa 0,0 l/m 6,0 km/h (2 Bft) N-NO 17 0 min 0,000 mm 0,0 UV-I 28 W/m 11,0 C 17,7 C 8,0 km/h (2 Bft) 100,00 %
09.05.2018 19:59 17,7 C 19,4 C 66 % 1004,1 hPa 0,0 l/m 5,1 km/h (1 Bft) N-NO 17 0 min 0,000 mm 0,0 UV-I 28 W/m 11,3 C 17,7 C 6,4 km/h (2 Bft) 100,00 %
09.05.2018 20:00 17,6 C 19,4 C 66 % 1004,1 hPa 0,0 l/m 4,3 km/h (1 Bft) N 5 0 min 0,000 mm 0,0 UV-I 26 W/m 11,2 C 17,6 C 4,8 km/h (1 Bft) 95,83 %
09.05.2018 20:01 17,6 C 19,4 C 66 % 1004,1 hPa 0,0 l/m 5,5 km/h (1 Bft) N-NW 331 0 min 0,101 mm 0,0 UV-I 24 W/m 11,2 C 17,6 C 8,0 km/h (2 Bft) 100,00 %
09.05.2018 20:02 17,6 C 19,4 C 66 % 1004,1 hPa 0,0 l/m 5,1 km/h (1 Bft) N 10 0 min 0,000 mm 0,0 UV-I 22 W/m 11,2 C 17,6 C 6,4 km/h (2 Bft) 100,00 %
09.05.2018 20:03 17,5 C 19,4 C 67 % 1004,1 hPa 0,0 l/m 5,1 km/h (1 Bft) N 5 0 min 0,000 mm 0,0 UV-I 19 W/m 11,3 C 17,5 C 8,0 km/h (2 Bft) 100,00 %
09.05.2018 20:04 17,6 C 19,4 C 67 % 1004,1 hPa 0,0 l/m 5,2 km/h (1 Bft) N 5 0 min 0,000 mm 0,0 UV-I 19 W/m 11,4 C 17,6 C 8,0 km/h (2 Bft) 100,00 %
09.05.2018 20:05 17,5 C 19,4 C 67 % 1004,1 hPa 0,0 l/m 4,7 km/h (1 Bft) N 9 0 min 0,000 mm 0,0 UV-I 17 W/m 11,3 C 17,5 C 6,4 km/h (2 Bft) 100,00 %
09.05.2018 20:06 17,5 C 19,4 C 67 % 1004,1 hPa 0,0 l/m 5,7 km/h (1 Bft) N-NW 348 0 min 0,000 mm 0,0 UV-I 16 W/m 11,3 C 17,5 C 8,0 km/h (2 Bft) 95,65 %
09.05.2018 20:07 17,4 C 19,4 C 68 % 1004,1 hPa 0,0 l/m 4,0 km/h (1 Bft) N 355 0 min 0,000 mm 0,0 UV-I 15 W/m 11,4 C 17,4 C 4,8 km/h (1 Bft) 95,83 %
09.05.2018 20:08 17,4 C 19,4 C 68 % 1004,1 hPa 0,0 l/m 3,8 km/h (1 Bft) N 355 0 min 0,000 mm 0,0 UV-I 14 W/m 11,4 C 17,4 C 4,8 km/h (1 Bft) 100,00 %
09.05.2018 20:09 17,3 C 19,4 C 69 % 1004,1 hPa 0,0 l/m 3,4 km/h (1 Bft) N 360 0 min 0,000 mm 0,0 UV-I 14 W/m 11,6 C 17,3 C 4,8 km/h (1 Bft) 100,00 %
09.05.2018 20:10 17,2 C 19,4 C 69 % 1004,1 hPa 0,0 l/m 4,6 km/h (1 Bft) N-NO 19 0 min 0,000 mm 0,0 UV-I 14 W/m 11,5 C 17,2 C 6,4 km/h (2 Bft) 100,00 %
09.05.2018 20:11 17,1 C 19,4 C 69 % 1004,1 hPa 0,0 l/m 2,9 km/h (1 Bft) N-NO 19 0 min 0,000 mm 0,0 UV-I 12 W/m 11,4 C 17,1 C 4,8 km/h (1 Bft) 100,00 %
09.05.2018 20:12 17,0 C 19,4 C 70 % 1004,1 hPa 0,0 l/m 3,7 km/h (1 Bft) N-NO 19 0 min 0,000 mm 0,0 UV-I 12 W/m 11,5 C 17,0 C 4,8 km/h (1 Bft) 100,00 %
09.05.2018 20:13 16,9 C 19,4 C 71 % 1004,1 hPa 0,0 l/m 3,6 km/h (1 Bft) N-NO 19 0 min 0,000 mm 0,0 UV-I 12 W/m 11,6 C 16,9 C 4,8 km/h (1 Bft) 95,83 %
09.05.2018 20:14 16,8 C 19,4 C 71 % 1004,1 hPa 0,0 l/m 4,8 km/h (1 Bft) NO 36 1 min 0,000 mm 0,0 UV-I 12 W/m 11,5 C 16,8 C 6,4 km/h (2 Bft) 100,00 %
09.05.2018 20:15 16,8 C 19,4 C 71 % 1004,1 hPa 0,0 l/m 5,0 km/h (1 Bft) N-NO 17 1 min 0,000 mm 0,0 UV-I 11 W/m 11,5 C 16,8 C 6,4 km/h (2 Bft) 100,00 %
09.05.2018 20:16 16,7 C 19,4 C 71 % 1004,1 hPa 0,0 l/m 4,8 km/h (1 Bft) NO 46 1 min 0,000 mm 0,0 UV-I 11 W/m 11,4 C 16,7 C 6,4 km/h (2 Bft) 95,65 %
09.05.2018 20:17 16,7 C 19,4 C 71 % 1004,1 hPa 0,0 l/m 6,1 km/h (2 Bft) N-NO 24 0 min 0,000 mm 0,0 UV-I 11 W/m 11,4 C 16,7 C 8,0 km/h (2 Bft) 100,00 %
09.05.2018 20:18 16,6 C 19,4 C 71 % 1004,1 hPa 0,0 l/m 7,5 km/h (2 Bft) N-NO 32 0 min 0,000 mm 0,0 UV-I 11 W/m 11,3 C 16,0 C 9,7 km/h (2 Bft) 95,65 %
09.05.2018 20:19 16,6 C 19,4 C 71 % 1004,1 hPa 0,0 l/m 6,3 km/h (2 Bft) N-NO 33 0 min 0,000 mm 0,0 UV-I 10 W/m 11,3 C 16,6 C 9,7 km/h (2 Bft) 100,00 %
09.05.2018 20:20 16,5 C 19,4 C 72 % 1004,1 hPa 0,0 l/m 6,9 km/h (2 Bft) N-NO 22 0 min 0,000 mm 0,0 UV-I 9 W/m 11,4 C 16,2 C 9,7 km/h (2 Bft) 100,00 %
09.05.2018 20:21 16,4 C 19,4 C 72 % 1004,1 hPa 0,0 l/m 8,6 km/h (2 Bft) N-NO 27 0 min 0,000 mm 0,0 UV-I 9 W/m 11,3 C 15,3 C 12,9 km/h (3 Bft) 100,00 %
09.05.2018 20:22 16,3 C 19,4 C 73 % 1004,1 hPa 0,0 l/m 8,1 km/h (2 Bft) N-NO 32 0 min 0,000 mm 0,0 UV-I 9 W/m 11,4 C 15,4 C 11,3 km/h (2 Bft) 100,00 %
09.05.2018 20:23 16,2 C 19,4 C 73 % 1004,1 hPa 0,0 l/m 10,0 km/h (2 Bft) NO 38 0 min 0,000 mm 0,0 UV-I 9 W/m 11,4 C 14,4 C 12,9 km/h (3 Bft) 95,65 %
09.05.2018 20:24 16,2 C 19,4 C 73 % 1004,1 hPa 0,0 l/m 8,1 km/h (2 Bft) N-NO 15 0 min 0,000 mm 0,0 UV-I 9 W/m 11,4 C 15,3 C 12,9 km/h (3 Bft) 95,83 %
09.05.2018 20:25 16,2 C 19,4 C 72 % 1004,0 hPa 0,0 l/m 11,3 km/h (2 Bft) N-NO 15 0 min 0,000 mm 0,0 UV-I 8 W/m 11,1 C 13,9 C 14,5 km/h (3 Bft) 96,15 %
09.05.2018 20:26 16,1 C 19,4 C 72 % 1004,1 hPa 0,0 l/m 8,0 km/h (2 Bft) N-NO 26 0 min 0,000 mm 0,0 UV-I 7 W/m 11,0 C 15,3 C 12,9 km/h (3 Bft) 100,00 %
09.05.2018 20:27 16,2 C 19,4 C 72 % 1004,0 hPa 0,0 l/m 8,6 km/h (2 Bft) N-NO 30 0 min 0,000 mm 0,0 UV-I 7 W/m 11,1 C 15,1 C 11,3 km/h (2 Bft) 100,00 %
09.05.2018 20:28 16,1 C 19,4 C 72 % 1004,0 hPa 0,0 l/m 7,3 km/h (2 Bft) N-NO 29 0 min 0,000 mm 0,0 UV-I 7 W/m 11,0 C 15,6 C 11,3 km/h (2 Bft) 95,83 %
09.05.2018 20:29 16,1 C 19,4 C 72 % 1004,0 hPa 0,0 l/m 7,4 km/h (2 Bft) N-NO 24 0 min 0,000 mm 0,0 UV-I 7 W/m 11,0 C 15,6 C 9,7 km/h (2 Bft) 100,00 %
09.05.2018 20:30 16,1 C 19,4 C 72 % 1004,0 hPa 0,0 l/m 7,7 km/h (2 Bft) N-NO 31 0 min 0,000 mm 0,0 UV-I 7 W/m 11,0 C 15,4 C 9,7 km/h (2 Bft) 100,00 %
09.05.2018 20:31 16,0 C 19,4 C 72 % 1004,0 hPa 0,0 l/m 6,0 km/h (2 Bft) N-NO 23 0 min 0,000 mm 0,0 UV-I 7 W/m 11,0 C 16,0 C 8,0 km/h (2 Bft) 95,65 %
09.05.2018 20:32 15,9 C 19,4 C 73 % 1004,0 hPa 0,0 l/m 8,0 km/h (2 Bft) N-NO 31 0 min 0,000 mm 0,0 UV-I 5 W/m 11,1 C 15,0 C 9,7 km/h (2 Bft) 95,83 %
09.05.2018 20:33 15,9 C 19,4 C 72 % 1004,0 hPa 0,0 l/m 7,0 km/h (2 Bft) N-NO 32 0 min 0,000 mm 0,0 UV-I 5 W/m 10,9 C 15,6 C 9,7 km/h (2 Bft) 86,96 %
09.05.2018 20:34 15,8 C 19,4 C 72 % 1004,0 hPa 0,0 l/m 8,0 km/h (2 Bft) NO 38 0 min 0,000 mm 0,0 UV-I 5 W/m 10,8 C 14,9 C 12,9 km/h (3 Bft) 100,00 %
09.05.2018 20:35 15,8 C 19,4 C 72 % 1004,1 hPa 0,0 l/m 6,9 km/h (2 Bft) NO 35 0 min 0,000 mm 0,0 UV-I 5 W/m 10,8 C 15,5 C 9,7 km/h (2 Bft) 91,30 %
09.05.2018 20:36 15,9 C 19,4 C 72 % 1004,1 hPa 0,0 l/m 7,4 km/h (2 Bft) N-NO 26 0 min 0,000 mm 0,0 UV-I 5 W/m 10,9 C 15,4 C 9,7 km/h (2 Bft) 95,83 %
09.05.2018 20:37 15,9 C 19,4 C 72 % 1004,0 hPa 0,0 l/m 6,6 km/h (2 Bft) NO 36 0 min 0,000 mm 0,0 UV-I 5 W/m 10,9 C 15,8 C 8,0 km/h (2 Bft) 95,65 %
09.05.2018 20:38 15,9 C 19,4 C 72 % 1004,0 hPa 0,0 l/m 8,5 km/h (2 Bft) N-NO 28 0 min 0,000 mm 0,0 UV-I 5 W/m 10,9 C 14,8 C 12,9 km/h (3 Bft) 95,83 %
09.05.2018 20:39 15,9 C 19,4 C 72 % 1004,1 hPa 0,0 l/m 8,4 km/h (2 Bft) NO 37 0 min 0,000 mm 0,0 UV-I 5 W/m 10,9 C 14,8 C 12,9 km/h (3 Bft) 95,65 %
09.05.2018 20:40 15,9 C 19,4 C 72 % 1004,0 hPa 0,0 l/m 8,2 km/h (2 Bft) NO 45 0 min 0,000 mm 0,0 UV-I 5 W/m 10,9 C 14,9 C 9,7 km/h (2 Bft) 95,83 %
09.05.2018 20:41 15,9 C 19,4 C 72 % 1004,1 hPa 0,0 l/m 6,8 km/h (2 Bft) N-NO 26 0 min 0,000 mm 0,0 UV-I 5 W/m 10,9 C 15,7 C 8,0 km/h (2 Bft) 96,15 %
09.05.2018 20:42 15,8 C 19,4 C 72 % 1004,1 hPa 0,0 l/m 6,7 km/h (2 Bft) O-NO 63 0 min 0,000 mm 0,0 UV-I 2 W/m 10,8 C 15,6 C 9,7 km/h (2 Bft) 87,50 %
09.05.2018 20:43 15,8 C 19,4 C 72 % 1004,1 hPa 0,0 l/m 6,3 km/h (2 Bft) NO 44 0 min 0,000 mm 0,0 UV-I 0 W/m 10,8 C 15,8 C 8,0 km/h (2 Bft) 100,00 %
09.05.2018 20:44 15,8 C 19,4 C 72 % 1004,1 hPa 0,0 l/m 4,8 km/h (1 Bft) NO 54 0 min 0,000 mm 0,0 UV-I 0 W/m 10,8 C 15,8 C 6,4 km/h (2 Bft) 95,65 %
09.05.2018 20:45 15,8 C 19,4 C 72 % 1004,1 hPa 0,0 l/m 5,2 km/h (1 Bft) NO 43 0 min 0,000 mm 0,0 UV-I 0 W/m 10,8 C 15,8 C 6,4 km/h (2 Bft) 91,67 %
09.05.2018 20:46 15,8 C 19,4 C 72 % 1004,1 hPa 0,0 l/m 4,2 km/h (1 Bft) NO 43 0 min 0,000 mm 0,0 UV-I 0 W/m 10,8 C 15,8 C 4,8 km/h (1 Bft) 91,30 %
09.05.2018 20:47 15,8 C 19,4 C 72 % 1004,1 hPa 0,0 l/m 4,4 km/h (1 Bft) NO 42 0 min 0,000 mm 0,0 UV-I 0 W/m 10,8 C 15,8 C 4,8 km/h (1 Bft) 95,83 %
09.05.2018 20:48 15,8 C 19,4 C 72 % 1004,1 hPa 0,0 l/m 4,8 km/h (1 Bft) NO 49 0 min 0,000 mm 0,0 UV-I 0 W/m 10,8 C 15,8 C 6,4 km/h (2 Bft) 91,30 %
09.05.2018 20:49 15,8 C 19,4 C 73 % 1004,1 hPa 0,0 l/m 4,8 km/h (1 Bft) NO 56 0 min 0,000 mm 0,0 UV-I 0 W/m 11,0 C 15,8 C 6,4 km/h (2 Bft) 95,83 %
09.05.2018 20:50 15,8 C 19,4 C 73 % 1004,1 hPa 0,0 l/m 4,9 km/h (1 Bft) NO 44 0 min 0,000 mm 0,0 UV-I 0 W/m 11,0 C 15,8 C 6,4 km/h (2 Bft) 91,30 %
09.05.2018 20:51 15,8 C 19,4 C 73 % 1004,1 hPa 0,0 l/m 4,9 km/h (1 Bft) NO 48 0 min 0,000 mm 0,0 UV-I 0 W/m 11,0 C 15,8 C 6,4 km/h (2 Bft) 95,83 %
09.05.2018 20:52 15,8 C 19,4 C 74 % 1004,1 hPa 0,0 l/m 3,0 km/h (1 Bft) NO 49 0 min 0,000 mm 0,0 UV-I 0 W/m 11,2 C 15,8 C 4,8 km/h (1 Bft) 95,65 %
09.05.2018 20:53 15,6 C 19,4 C 76 % 1004,1 hPa 0,0 l/m 2,6 km/h (1 Bft) NO 49 0 min 0,000 mm 0,0 UV-I 0 W/m 11,4 C 15,6 C 4,8 km/h (1 Bft) 95,83 %
09.05.2018 20:54 15,3 C 19,4 C 79 % 1004,1 hPa 0,0 l/m 2,8 km/h (1 Bft) NO 49 0 min 0,000 mm 0,0 UV-I 0 W/m 11,7 C 15,3 C 4,8 km/h (1 Bft) 95,65 %
09.05.2018 20:55 15,2 C 19,4 C 79 % 1004,2 hPa 0,0 l/m 3,4 km/h (1 Bft) O-NO 72 0 min 0,000 mm 0,0 UV-I 0 W/m 11,6 C 15,2 C 4,8 km/h (1 Bft) 95,83 %
09.05.2018 20:56 15,1 C 19,4 C 79 % 1004,2 hPa 0,0 l/m 3,6 km/h (1 Bft) O-NO 72 0 min 0,000 mm 0,0 UV-I 0 W/m 11,5 C 15,1 C 4,8 km/h (1 Bft) 91,30 %
09.05.2018 20:57 15,1 C 19,4 C 78 % 1004,1 hPa 0,0 l/m 3,5 km/h (1 Bft) O-NO 71 0 min 0,000 mm 0,0 UV-I 0 W/m 11,3 C 15,1 C 4,8 km/h (1 Bft) 95,83 %
09.05.2018 20:58 15,2 C 19,4 C 77 % 1004,1 hPa 0,0 l/m 3,9 km/h (1 Bft) O-NO 71 0 min 0,000 mm 0,0 UV-I 0 W/m 11,2 C 15,2 C 4,8 km/h (1 Bft) 95,65 %
09.05.2018 20:59 15,3 C 19,4 C 76 % 1004,2 hPa 0,0 l/m 4,3 km/h (1 Bft) O-NO 64 0 min 0,000 mm 0,0 UV-I 0 W/m 11,1 C 15,3 C 6,4 km/h (2 Bft) 95,83 %
09.05.2018 21:00 15,3 C 19,4 C 76 % 1004,2 hPa 0,0 l/m 2,8 km/h (1 Bft) O-NO 64 0 min 0,000 mm 0,0 UV-I 0 W/m 11,1 C 15,3 C 4,8 km/h (1 Bft) 95,83 %
09.05.2018 21:01 15,4 C 19,4 C 76 % 1004,2 hPa 0,0 l/m 3,5 km/h (1 Bft) O-NO 64 0 min 0,026 mm 0,0 UV-I 0 W/m 11,2 C 15,4 C 4,8 km/h (1 Bft) 91,30 %
09.05.2018 21:02 15,4 C 19,4 C 74 % 1004,2 hPa 0,0 l/m 4,8 km/h (1 Bft) O-NO 66 0 min 0,000 mm 0,0 UV-I 0 W/m 10,8 C 15,4 C 6,4 km/h (2 Bft) 95,83 %
09.05.2018 21:03 15,4 C 19,4 C 74 % 1004,2 hPa 0,0 l/m 4,4 km/h (1 Bft) O-NO 65 0 min 0,000 mm 0,0 UV-I 0 W/m 10,8 C 15,4 C 4,8 km/h (1 Bft) 91,30 %
09.05.2018 21:04 15,3 C 19,4 C 74 % 1004,2 hPa 0,0 l/m 4,3 km/h (1 Bft) O-NO 65 0 min 0,000 mm 0,0 UV-I 0 W/m 10,7 C 15,3 C 4,8 km/h (1 Bft) 100,00 %
09.05.2018 21:05 15,2 C 19,4 C 74 % 1004,2 hPa 0,0 l/m 4,8 km/h (1 Bft) O-NO 57 0 min 0,000 mm 0,0 UV-I 0 W/m 10,6 C 15,2 C 6,4 km/h (2 Bft) 91,30 %
09.05.2018 21:06 15,2 C 19,4 C 74 % 1004,2 hPa 0,0 l/m 5,0 km/h (1 Bft) NO 38 0 min 0,000 mm 0,0 UV-I 0 W/m 10,6 C 15,2 C 8,0 km/h (2 Bft) 100,00 %
09.05.2018 21:07 15,2 C 19,4 C 75 % 1004,2 hPa 0,0 l/m 6,0 km/h (2 Bft) NO 44 0 min 0,000 mm 0,0 UV-I 0 W/m 10,8 C 15,2 C 9,7 km/h (2 Bft) 91,30 %
09.05.2018 21:08 15,1 C 19,4 C 75 % 1004,2 hPa 0,0 l/m 6,2 km/h (2 Bft) N-NO 30 0 min 0,000 mm 0,0 UV-I 0 W/m 10,7 C 15,1 C 6,4 km/h (2 Bft) 96,30 %
09.05.2018 21:09 15,2 C 19,4 C 75 % 1004,2 hPa 0,0 l/m 6,2 km/h (2 Bft) NO 50 0 min 0,000 mm 0,0 UV-I 0 W/m 10,8 C 15,2 C 8,0 km/h (2 Bft) 100,00 %
09.05.2018 21:10 15,2 C 19,4 C 74 % 1004,2 hPa 0,0 l/m 4,9 km/h (1 Bft) NO 52 0 min 0,000 mm 0,0 UV-I 0 W/m 10,6 C 15,2 C 6,4 km/h (2 Bft) 91,67 %
09.05.2018 21:11 15,2 C 19,4 C 74 % 1004,3 hPa 0,0 l/m 5,0 km/h (1 Bft) NO 56 0 min 0,000 mm 0,0 UV-I 0 W/m 10,6 C 15,2 C 6,4 km/h (2 Bft) 100,00 %
09.05.2018 21:12 15,2 C 19,4 C 74 % 1004,3 hPa 0,0 l/m 4,5 km/h (1 Bft) NO 38 0 min 0,000 mm 0,0 UV-I 0 W/m 10,6 C 15,2 C 8,0 km/h (2 Bft) 95,83 %
09.05.2018 21:13 15,2 C 19,4 C 74 % 1004,3 hPa 0,0 l/m 3,6 km/h (1 Bft) NO 44 0 min 0,000 mm 0,0 UV-I 0 W/m 10,6 C 15,2 C 4,8 km/h (1 Bft) 100,00 %
09.05.2018 21:14 15,2 C 19,4 C 75 % 1004,3 hPa 0,0 l/m 4,8 km/h (1 Bft) NO 47 0 min 0,000 mm 0,0 UV-I 0 W/m 10,8 C 15,2 C 6,4 km/h (2 Bft) 95,83 %
09.05.2018 21:15 15,2 C 19,4 C 75 % 1004,3 hPa 0,0 l/m 6,0 km/h (2 Bft) O-NO 61 0 min 0,000 mm 0,0 UV-I 0 W/m 10,8 C 15,2 C 8,0 km/h (2 Bft) 95,65 %
09.05.2018 21:16 15,1 C 19,4 C 75 % 1004,3 hPa 0,0 l/m 5,3 km/h (1 Bft) O-NO 63 0 min 0,000 mm 0,0 UV-I 0 W/m 10,7 C 15,1 C 6,4 km/h (2 Bft) 100,00 %
09.05.2018 21:17 15,1 C 19,4 C 75 % 1004,4 hPa 0,0 l/m 4,4 km/h (1 Bft) O-NO 63 0 min 0,000 mm 0,0 UV-I 0 W/m 10,7 C 15,1 C 6,4 km/h (2 Bft) 95,65 %
09.05.2018 21:18 15,1 C 19,4 C 75 % 1004,4 hPa 0,0 l/m 4,1 km/h (1 Bft) O-NO 66 0 min 0,000 mm 0,0 UV-I 0 W/m 10,7 C 15,1 C 4,8 km/h (1 Bft) 100,00 %
09.05.2018 21:19 15,2 C 19,4 C 75 % 1004,3 hPa 0,0 l/m 5,0 km/h (1 Bft) O-NO 63 0 min 0,000 mm 0,0 UV-I 0 W/m 10,8 C 15,2 C 6,4 km/h (2 Bft) 96,55 %
09.05.2018 21:20 15,2 C 19,4 C 75 % 1004,3 hPa 0,0 l/m 4,3 km/h (1 Bft) O-NO 65 0 min 0,000 mm 0,0 UV-I 0 W/m 10,8 C 15,2 C 4,8 km/h (1 Bft) 100,00 %
09.05.2018 21:21 15,2 C 19,4 C 75 % 1004,3 hPa 0,0 l/m 5,1 km/h (1 Bft) O-NO 69 0 min 0,000 mm 0,0 UV-I 0 W/m 10,8 C 15,2 C 6,4 km/h (2 Bft) 95,65 %
09.05.2018 21:22 15,2 C 19,4 C 75 % 1004,4 hPa 0,0 l/m 5,0 km/h (1 Bft) N-NO 33 0 min 0,000 mm 0,0 UV-I 0 W/m 10,8 C 15,2 C 8,0 km/h (2 Bft) 100,00 %
09.05.2018 21:23 15,2 C 19,4 C 75 % 1004,4 hPa 0,0 l/m 7,2 km/h (2 Bft) O-NO 68 0 min 0,000 mm 0,0 UV-I 0 W/m 10,8 C 14,8 C 9,7 km/h (2 Bft) 95,83 %
09.05.2018 21:24 15,2 C 19,4 C 75 % 1004,4 hPa 0,0 l/m 6,0 km/h (2 Bft) O-NO 64 0 min 0,000 mm 0,0 UV-I 0 W/m 10,8 C 15,2 C 8,0 km/h (2 Bft) 100,00 %
09.05.2018 21:25 15,2 C 19,4 C 75 % 1004,4 hPa 0,0 l/m 4,8 km/h (1 Bft) NO 49 0 min 0,000 mm 0,0 UV-I 0 W/m 10,8 C 15,2 C 6,4 km/h (2 Bft) 91,67 %
09.05.2018 21:26 15,2 C 19,4 C 75 % 1004,5 hPa 0,0 l/m 5,3 km/h (1 Bft) O-NO 57 0 min 0,000 mm 0,0 UV-I 0 W/m 10,8 C 15,2 C 6,4 km/h (2 Bft) 95,65 %
09.05.2018 21:27 15,1 C 19,4 C 76 % 1004,5 hPa 0,0 l/m 5,8 km/h (2 Bft) O-NO 73 0 min 0,000 mm 0,0 UV-I 0 W/m 10,9 C 15,1 C 8,0 km/h (2 Bft) 95,83 %
09.05.2018 21:28 15,1 C 19,4 C 76 % 1004,5 hPa 0,0 l/m 5,4 km/h (1 Bft) O-NO 58 0 min 0,000 mm 0,0 UV-I 0 W/m 10,9 C 15,1 C 6,4 km/h (2 Bft) 92,86 %
09.05.2018 21:29 15,0 C 19,4 C 76 % 1004,5 hPa 0,0 l/m 3,4 km/h (1 Bft) O-NO 59 0 min 0,000 mm 0,0 UV-I 0 W/m 10,8 C 15,0 C 6,4 km/h (2 Bft) 96,30 %
09.05.2018 21:30 15,0 C 19,4 C 76 % 1004,5 hPa 0,0 l/m 3,6 km/h (1 Bft) O-NO 61 0 min 0,000 mm 0,0 UV-I 0 W/m 10,8 C 15,0 C 4,8 km/h (1 Bft) 95,65 %
09.05.2018 21:31 15,0 C 19,4 C 76 % 1004,5 hPa 0,0 l/m 3,4 km/h (1 Bft) O-NO 78 0 min 0,000 mm 0,0 UV-I 0 W/m 10,8 C 15,0 C 4,8 km/h (1 Bft) 95,83 %
09.05.2018 21:32 15,1 C 19,4 C 76 % 1004,6 hPa 0,0 l/m 5,0 km/h (1 Bft) NO 55 0 min 0,000 mm 0,0 UV-I 0 W/m 10,9 C 15,1 C 6,4 km/h (2 Bft) 100,00 %
09.05.2018 21:33 15,1 C 19,4 C 76 % 1004,6 hPa 0,0 l/m 3,0 km/h (1 Bft) NO 55 0 min 0,000 mm 0,0 UV-I 0 W/m 10,9 C 15,1 C 3,2 km/h (1 Bft) 100,00 %
09.05.2018 21:34 15,1 C 19,4 C 76 % 1004,6 hPa 0,0 l/m 5,0 km/h (1 Bft) O 82 0 min 0,000 mm 0,0 UV-I 0 W/m 10,9 C 15,1 C 6,4 km/h (2 Bft) 100,00 %
09.05.2018 21:35 15,1 C 19,4 C 76 % 1004,6 hPa 0,0 l/m 5,8 km/h (2 Bft) O 99 0 min 0,000 mm 0,0 UV-I 0 W/m 10,9 C 15,1 C 6,4 km/h (2 Bft) 100,00 %
09.05.2018 21:36 15,2 C 19,4 C 75 % 1004,6 hPa 0,0 l/m 4,1 km/h (1 Bft) O-NO 63 0 min 0,000 mm 0,0 UV-I 0 W/m 10,8 C 15,2 C 6,4 km/h (2 Bft) 95,65 %
09.05.2018 21:37 15,2 C 19,4 C 75 % 1004,6 hPa 0,0 l/m 5,4 km/h (1 Bft) O 85 0 min 0,000 mm 0,0 UV-I 0 W/m 10,8 C 15,2 C 6,4 km/h (2 Bft) 100,00 %
09.05.2018 21:38 15,3 C 19,4 C 75 % 1004,5 hPa 0,0 l/m 6,6 km/h (2 Bft) O 88 0 min 0,000 mm 0,0 UV-I 0 W/m 10,9 C 15,2 C 9,7 km/h (2 Bft) 100,00 %
09.05.2018 21:39 15,3 C 19,4 C 75 % 1004,6 hPa 0,0 l/m 5,8 km/h (2 Bft) O 84 0 min 0,000 mm 0,0 UV-I 0 W/m 10,9 C 15,3 C 8,0 km/h (2 Bft) 100,00 %
09.05.2018 21:40 15,3 C 19,4 C 75 % 1004,6 hPa 0,0 l/m 4,9 km/h (1 Bft) O-NO 72 0 min 0,000 mm 0,0 UV-I 0 W/m 10,9 C 15,3 C 6,4 km/h (2 Bft) 100,00 %
09.05.2018 21:41 15,3 C 19,4 C 74 % 1004,5 hPa 0,0 l/m 6,4 km/h (2 Bft) O 79 0 min 0,000 mm 0,0 UV-I 0 W/m 10,7 C 15,3 C 9,7 km/h (2 Bft) 100,00 %
09.05.2018 21:42 15,3 C 19,4 C 74 % 1004,6 hPa 0,0 l/m 5,6 km/h (1 Bft) O 91 0 min 0,000 mm 0,0 UV-I 0 W/m 10,7 C 15,3 C 8,0 km/h (2 Bft) 100,00 %
09.05.2018 21:43 15,4 C 19,4 C 74 % 1004,6 hPa 0,0 l/m 7,6 km/h (2 Bft) O 90 0 min 0,000 mm 0,0 UV-I 0 W/m 10,8 C 14,7 C 11,3 km/h (2 Bft) 95,65 %
09.05.2018 21:44 15,4 C 19,4 C 74 % 1004,6 hPa 0,0 l/m 6,4 km/h (2 Bft) O-NO 67 0 min 0,000 mm 0,0 UV-I 0 W/m 10,8 C 15,4 C 9,7 km/h (2 Bft) 100,00 %
09.05.2018 21:45 15,4 C 19,4 C 74 % 1004,6 hPa 0,0 l/m 6,2 km/h (2 Bft) O 93 0 min 0,000 mm 0,0 UV-I 0 W/m 10,8 C 15,4 C 11,3 km/h (2 Bft) 92,31 %
09.05.2018 21:46 15,5 C 19,4 C 74 % 1004,6 hPa 0,0 l/m 5,9 km/h (2 Bft) O-NO 59 0 min 0,000 mm 0,0 UV-I 0 W/m 10,9 C 15,5 C 8,0 km/h (2 Bft) 100,00 %
09.05.2018 21:47 15,4 C 19,4 C 74 % 1004,6 hPa 0,0 l/m 6,2 km/h (2 Bft) O 98 0 min 0,000 mm 0,0 UV-I 0 W/m 10,8 C 15,4 C 8,0 km/h (2 Bft) 100,00 %
09.05.2018 21:48 15,4 C 19,4 C 74 % 1004,6 hPa 0,0 l/m 7,0 km/h (2 Bft) O-NO 67 0 min 0,000 mm 0,0 UV-I 0 W/m 10,8 C 15,1 C 11,3 km/h (2 Bft) 100,00 %
09.05.2018 21:49 15,4 C 19,4 C 74 % 1004,6 hPa 0,0 l/m 6,5 km/h (2 Bft) O 94 0 min 0,000 mm 0,0 UV-I 0 W/m 10,8 C 15,4 C 9,7 km/h (2 Bft) 95,65 %
09.05.2018 21:50 15,4 C 19,4 C 74 % 1004,6 hPa 0,0 l/m 8,1 km/h (2 Bft) NO 51 0 min 0,000 mm 0,0 UV-I 0 W/m 10,8 C 14,5 C 11,3 km/h (2 Bft) 100,00 %
09.05.2018 21:51 15,4 C 19,4 C 74 % 1004,5 hPa 0,0 l/m 6,0 km/h (2 Bft) O 84 0 min 0,000 mm 0,0 UV-I 0 W/m 10,8 C 15,4 C 8,0 km/h (2 Bft) 92,31 %
09.05.2018 21:52 15,4 C 19,4 C 74 % 1004,6 hPa 0,0 l/m 6,0 km/h (2 Bft) O-NO 73 0 min 0,000 mm 0,0 UV-I 0 W/m 10,8 C 15,4 C 8,0 km/h (2 Bft) 100,00 %
09.05.2018 21:53 15,4 C 19,4 C 74 % 1004,6 hPa 0,0 l/m 6,8 km/h (2 Bft) O-NO 67 0 min 0,000 mm 0,0 UV-I 0 W/m 10,8 C 15,2 C 8,0 km/h (2 Bft) 100,00 %
09.05.2018 21:54 15,4 C 19,4 C 74 % 1004,5 hPa 0,0 l/m 7,4 km/h (2 Bft) O 94 0 min 0,000 mm 0,0 UV-I 0 W/m 10,8 C 14,8 C 11,3 km/h (2 Bft) 100,00 %
09.05.2018 21:55 15,4 C 19,4 C 74 % 1004,6 hPa 0,0 l/m 7,4 km/h (2 Bft) O 82 0 min 0,000 mm 0,0 UV-I 0 W/m 10,8 C 14,8 C 12,9 km/h (3 Bft) 95,65 %
09.05.2018 21:56 15,4 C 19,4 C 74 % 1004,6 hPa 0,0 l/m 4,7 km/h (1 Bft) O-NO 67 0 min 0,000 mm 0,0 UV-I 0 W/m 10,8 C 15,4 C 6,4 km/h (2 Bft) 100,00 %
09.05.2018 21:57 15,3 C 19,4 C 74 % 1004,6 hPa 0,0 l/m 4,6 km/h (1 Bft) O 85 0 min 0,000 mm 0,0 UV-I 0 W/m 10,7 C 15,3 C 6,4 km/h (2 Bft) 100,00 %
09.05.2018 21:58 15,3 C 19,4 C 74 % 1004,6 hPa 0,0 l/m 5,6 km/h (1 Bft) O 93 0 min 0,000 mm 0,0 UV-I 0 W/m 10,7 C 15,3 C 6,4 km/h (2 Bft) 100,00 %
09.05.2018 21:59 15,3 C 19,4 C 74 % 1004,6 hPa 0,0 l/m 6,2 km/h (2 Bft) O-NO 61 0 min 0,000 mm 0,0 UV-I 0 W/m 10,7 C 15,3 C 8,0 km/h (2 Bft) 100,00 %
09.05.2018 22:00 15,2 C 19,4 C 74 % 1004,6 hPa 0,0 l/m 5,8 km/h (2 Bft) NO 56 0 min 0,000 mm 0,0 UV-I 0 W/m 10,6 C 15,2 C 6,4 km/h (2 Bft) 100,00 %
09.05.2018 22:01 15,2 C 19,4 C 74 % 1004,6 hPa 0,0 l/m 4,4 km/h (1 Bft) O 91 0 min 0,025 mm 0,0 UV-I 0 W/m 10,6 C 15,2 C 6,4 km/h (2 Bft) 100,00 %
09.05.2018 22:02 15,1 C 19,4 C 74 % 1004,6 hPa 0,0 l/m 4,7 km/h (1 Bft) O-NO 62 0 min 0,000 mm 0,0 UV-I 0 W/m 10,5 C 15,1 C 6,4 km/h (2 Bft) 100,00 %
09.05.2018 22:03 15,1 C 19,4 C 74 % 1004,6 hPa 0,0 l/m 4,3 km/h (1 Bft) NO 48 0 min 0,000 mm 0,0 UV-I 0 W/m 10,5 C 15,1 C 6,4 km/h (2 Bft) 100,00 %
09.05.2018 22:04 14,9 C 19,4 C 75 % 1004,6 hPa 0,0 l/m 4,1 km/h (1 Bft) NO 47 0 min 0,000 mm 0,0 UV-I 0 W/m 10,5 C 14,9 C 4,8 km/h (1 Bft) 100,00 %
09.05.2018 22:05 14,8 C 19,4 C 76 % 1004,7 hPa 0,0 l/m 2,8 km/h (1 Bft) NO 47 0 min 0,000 mm 0,0 UV-I 0 W/m 10,6 C 14,8 C 4,8 km/h (1 Bft) 100,00 %
09.05.2018 22:06 14,6 C 19,4 C 77 % 1004,7 hPa 0,0 l/m 0,8 km/h (0 Bft) NO 47 0 min 0,000 mm 0,0 UV-I 0 W/m 10,6 C 14,6 C 1,6 km/h (1 Bft) 100,00 %
09.05.2018 22:07 14,4 C 19,4 C 77 % 1004,7 hPa 0,0 l/m 2,1 km/h (1 Bft) NO 47 0 min 0,000 mm 0,0 UV-I 0 W/m 10,4 C 14,4 C 3,2 km/h (1 Bft) 100,00 %
09.05.2018 22:08 14,3 C 19,4 C 78 % 1004,6 hPa 0,0 l/m 2,6 km/h (1 Bft) NO 47 0 min 0,000 mm 0,0 UV-I 0 W/m 10,5 C 14,3 C 3,2 km/h (1 Bft) 100,00 %
09.05.2018 22:09 14,3 C 19,4 C 78 % 1004,7 hPa 0,0 l/m 0,8 km/h (0 Bft) NO 47 0 min 0,000 mm 0,0 UV-I 0 W/m 10,5 C 14,3 C 1,6 km/h (1 Bft) 100,00 %
09.05.2018 22:10 14,3 C 19,4 C 78 % 1004,7 hPa 0,0 l/m 1,9 km/h (1 Bft) NO 47 0 min 0,000 mm 0,0 UV-I 0 W/m 10,5 C 14,3 C 3,2 km/h (1 Bft) 100,00 %
09.05.2018 22:11 14,4 C 19,4 C 78 % 1004,7 hPa 0,0 l/m 1,6 km/h (1 Bft) NO 47 0 min 0,000 mm 0,0 UV-I 0 W/m 10,6 C 14,4 C 3,2 km/h (1 Bft) 100,00 %
09.05.2018 22:12 14,4 C 19,4 C 77 % 1004,7 hPa 0,0 l/m 1,8 km/h (1 Bft) NO 47 0 min 0,000 mm 0,0 UV-I 0 W/m 10,4 C 14,4 C 3,2 km/h (1 Bft) 95,65 %
09.05.2018 22:13 14,4 C 19,4 C 78 % 1004,7 hPa 0,0 l/m 3,9 km/h (1 Bft) NO 47 0 min 0,000 mm 0,0 UV-I 0 W/m 10,6 C 14,4 C 4,8 km/h (1 Bft) 100,00 %
09.05.2018 22:14 14,3 C 19,4 C 78 % 1004,7 hPa 0,0 l/m 4,9 km/h (1 Bft) NO 41 0 min 0,000 mm 0,0 UV-I 0 W/m 10,5 C 14,3 C 6,4 km/h (2 Bft) 95,65 %
09.05.2018 22:15 14,2 C 19,4 C 78 % 1004,7 hPa 0,0 l/m 3,6 km/h (1 Bft) NO 41 0 min 0,000 mm 0,0 UV-I 0 W/m 10,4 C 14,2 C 4,8 km/h (1 Bft) 100,00 %
09.05.2018 22:16 14,2 C 19,4 C 78 % 1004,7 hPa 0,0 l/m 5,7 km/h (1 Bft) NO 51 0 min 0,000 mm 0,0 UV-I 0 W/m 10,4 C 14,2 C 6,4 km/h (2 Bft) 95,83 %
09.05.2018 22:17 14,2 C 19,4 C 78 % 1004,7 hPa 0,0 l/m 5,2 km/h (1 Bft) NO 55 0 min 0,000 mm 0,0 UV-I 0 W/m 10,4 C 14,2 C 6,4 km/h (2 Bft) 95,65 %
09.05.2018 22:18 14,2 C 19,4 C 78 % 1004,7 hPa 0,0 l/m 4,9 km/h (1 Bft) NO 42 0 min 0,000 mm 0,0 UV-I 0 W/m 10,4 C 14,2 C 6,4 km/h (2 Bft) 100,00 %
09.05.2018 22:19 14,2 C 19,4 C 78 % 1004,7 hPa 0,0 l/m 5,2 km/h (1 Bft) NO 52 0 min 0,000 mm 0,0 UV-I 0 W/m 10,4 C 14,2 C 8,0 km/h (2 Bft) 100,00 %
09.05.2018 22:20 14,2 C 19,4 C 78 % 1004,7 hPa 0,0 l/m 5,7 km/h (1 Bft) NO 45 0 min 0,000 mm 0,0 UV-I 0 W/m 10,4 C 14,2 C 8,0 km/h (2 Bft) 100,00 %
09.05.2018 22:21 14,2 C 19,4 C 78 % 1004,8 hPa 0,0 l/m 6,0 km/h (2 Bft) O-NO 64 0 min 0,000 mm 0,0 UV-I 0 W/m 10,4 C 14,2 C 6,4 km/h (2 Bft) 100,00 %
09.05.2018 22:22 14,3 C 19,4 C 78 % 1004,8 hPa 0,0 l/m 7,2 km/h (2 Bft) NO 56 0 min 0,000 mm 0,0 UV-I 0 W/m 10,5 C 13,8 C 9,7 km/h (2 Bft) 100,00 %
09.05.2018 22:23 14,3 C 19,4 C 77 % 1004,8 hPa 0,0 l/m 5,1 km/h (1 Bft) NO 42 0 min 0,000 mm 0,0 UV-I 0 W/m 10,3 C 14,3 C 6,4 km/h (2 Bft) 100,00 %
09.05.2018 22:24 14,4 C 19,4 C 77 % 1004,7 hPa 0,0 l/m 6,1 km/h (2 Bft) NO 55 0 min 0,000 mm 0,0 UV-I 0 W/m 10,4 C 14,4 C 8,0 km/h (2 Bft) 100,00 %
09.05.2018 22:25 14,4 C 19,4 C 77 % 1004,8 hPa 0,0 l/m 6,2 km/h (2 Bft) O-NO 61 0 min 0,000 mm 0,0 UV-I 0 W/m 10,4 C 14,4 C 9,7 km/h (2 Bft) 95,65 %
09.05.2018 22:26 14,3 C 19,4 C 77 % 1004,8 hPa 0,0 l/m 6,6 km/h (2 Bft) NO 40 0 min 0,000 mm 0,0 UV-I 0 W/m 10,3 C 14,2 C 9,7 km/h (2 Bft) 100,00 %
09.05.2018 22:27 14,3 C 19,4 C 77 % 1004,8 hPa 0,0 l/m 5,0 km/h (1 Bft) NO 45 0 min 0,000 mm 0,0 UV-I 0 W/m 10,3 C 14,3 C 8,0 km/h (2 Bft) 100,00 %
09.05.2018 22:28 14,3 C 19,4 C 77 % 1004,7 hPa 0,0 l/m 4,9 km/h (1 Bft) NO 39 0 min 0,000 mm 0,0 UV-I 0 W/m 10,3 C 14,3 C 8,0 km/h (2 Bft) 100,00 %
09.05.2018 22:29 14,3 C 19,4 C 77 % 1004,7 hPa 0,0 l/m 6,2 km/h (2 Bft) NO 50 0 min 0,000 mm 0,0 UV-I 0 W/m 10,3 C 14,3 C 8,0 km/h (2 Bft) 100,00 %
09.05.2018 22:30 14,4 C 19,4 C 77 % 1004,7 hPa 0,0 l/m 6,4 km/h (2 Bft) NO 51 0 min 0,000 mm 0,0 UV-I 0 W/m 10,4 C 14,4 C 8,0 km/h (2 Bft) 100,00 %
09.05.2018 22:31 14,4 C 19,4 C 77 % 1004,7 hPa 0,0 l/m 5,1 km/h (1 Bft) O 80 0 min 0,000 mm 0,0 UV-I 0 W/m 10,4 C 14,4 C 8,0 km/h (2 Bft) 100,00 %
09.05.2018 22:32 14,4 C 19,4 C 77 % 1004,7 hPa 0,0 l/m 3,4 km/h (1 Bft) O 82 0 min 0,000 mm 0,0 UV-I 0 W/m 10,4 C 14,4 C 4,8 km/h (1 Bft) 100,00 %
09.05.2018 22:33 14,5 C 19,4 C 77 % 1004,7 hPa 0,0 l/m 3,6 km/h (1 Bft) O 82 0 min 0,000 mm 0,0 UV-I 0 W/m 10,5 C 14,5 C 4,8 km/h (1 Bft) 100,00 %
09.05.2018 22:34 14,6 C 19,4 C 77 % 1004,7 hPa 0,0 l/m 3,9 km/h (1 Bft) O 82 0 min 0,000 mm 0,0 UV-I 0 W/m 10,6 C 14,6 C 6,4 km/h (2 Bft) 100,00 %
09.05.2018 22:35 14,6 C 19,4 C 77 % 1004,7 hPa 0,0 l/m 3,8 km/h (1 Bft) O-NO 61 0 min 0,000 mm 0,0 UV-I 0 W/m 10,6 C 14,6 C 4,8 km/h (1 Bft) 95,65 %
09.05.2018 22:36 14,6 C 19,4 C 77 % 1004,7 hPa 0,0 l/m 4,2 km/h (1 Bft) O 94 0 min 0,000 mm 0,0 UV-I 0 W/m 10,6 C 14,6 C 6,4 km/h (2 Bft) 95,83 %
09.05.2018 22:37 14,6 C 19,4 C 77 % 1004,7 hPa 0,0 l/m 4,1 km/h (1 Bft) O 80 0 min 0,000 mm 0,0 UV-I 0 W/m 10,6 C 14,6 C 6,4 km/h (2 Bft) 100,00 %
09.05.2018 22:38 14,6 C 19,4 C 77 % 1004,8 hPa 0,0 l/m 3,4 km/h (1 Bft) O 80 0 min 0,000 mm 0,0 UV-I 0 W/m 10,6 C 14,6 C 4,8 km/h (1 Bft) 95,83 %
09.05.2018 22:39 14,6 C 19,4 C 77 % 1004,8 hPa 0,0 l/m 3,5 km/h (1 Bft) O 96 0 min 0,000 mm 0,0 UV-I 0 W/m 10,6 C 14,6 C 4,8 km/h (1 Bft) 100,00 %
09.05.2018 22:40 14,6 C 19,4 C 77 % 1004,8 hPa 0,0 l/m 5,3 km/h (1 Bft) O-SO 105 0 min 0,000 mm 0,0 UV-I 0 W/m 10,6 C 14,6 C 6,4 km/h (2 Bft) 96,67 %
09.05.2018 22:41 14,5 C 19,4 C 77 % 1004,8 hPa 0,0 l/m 5,1 km/h (1 Bft) O 83 0 min 0,000 mm 0,0 UV-I 0 W/m 10,5 C 14,5 C 6,4 km/h (2 Bft) 100,00 %
09.05.2018 22:42 14,4 C 19,4 C 77 % 1004,8 hPa 0,0 l/m 3,1 km/h (1 Bft) O 83 0 min 0,000 mm 0,0 UV-I 0 W/m 10,4 C 14,4 C 4,8 km/h (1 Bft) 95,65 %
09.05.2018 22:43 14,4 C 19,4 C 77 % 1004,8 hPa 0,0 l/m 4,5 km/h (1 Bft) O 90 0 min 0,000 mm 0,0 UV-I 0 W/m 10,4 C 14,4 C 4,8 km/h (1 Bft) 100,00 %
09.05.2018 22:44 14,3 C 19,4 C 78 % 1004,8 hPa 0,0 l/m 2,7 km/h (1 Bft) O 90 0 min 0,000 mm 0,0 UV-I 0 W/m 10,5 C 14,3 C 4,8 km/h (1 Bft) 95,65 %
09.05.2018 22:45 14,3 C 19,4 C 78 % 1004,8 hPa 0,0 l/m 3,8 km/h (1 Bft) O 93 0 min 0,000 mm 0,0 UV-I 0 W/m 10,5 C 14,3 C 6,4 km/h (2 Bft) 100,00 %
09.05.2018 22:46 14,2 C 19,4 C 79 % 1004,8 hPa 0,0 l/m 3,0 km/h (1 Bft) O 93 0 min 0,000 mm 0,0 UV-I 0 W/m 10,6 C 14,2 C 4,8 km/h (1 Bft) 95,65 %
09.05.2018 22:47 14,2 C 19,4 C 78 % 1004,8 hPa 0,0 l/m 2,7 km/h (1 Bft) O 88 0 min 0,000 mm 0,0 UV-I 0 W/m 10,4 C 14,2 C 4,8 km/h (1 Bft) 95,83 %
09.05.2018 22:48 14,3 C 19,4 C 78 % 1004,8 hPa 0,0 l/m 3,2 km/h (1 Bft) O 88 0 min 0,000 mm 0,0 UV-I 0 W/m 10,5 C 14,3 C 4,8 km/h (1 Bft) 100,00 %
09.05.2018 22:49 14,4 C 19,4 C 78 % 1004,9 hPa 0,0 l/m 3,2 km/h (1 Bft) O 88 0 min 0,000 mm 0,0 UV-I 0 W/m 10,6 C 14,4 C 4,8 km/h (1 Bft) 95,83 %
09.05.2018 22:50 14,4 C 19,4 C 77 % 1004,8 hPa 0,0 l/m 2,6 km/h (1 Bft) O 88 0 min 0,000 mm 0,0 UV-I 0 W/m 10,4 C 14,4 C 4,8 km/h (1 Bft) 100,00 %
09.05.2018 22:51 14,4 C 19,4 C 78 % 1004,8 hPa 0,0 l/m 2,9 km/h (1 Bft) O 88 0 min 0,000 mm 0,0 UV-I 0 W/m 10,6 C 14,4 C 4,8 km/h (1 Bft) 96,30 %
09.05.2018 22:52 14,4 C 19,4 C 78 % 1004,8 hPa 0,0 l/m 3,0 km/h (1 Bft) O 98 0 min 0,000 mm 0,0 UV-I 0 W/m 10,6 C 14,4 C 4,8 km/h (1 Bft) 100,00 %
09.05.2018 22:53 14,4 C 19,4 C 78 % 1004,8 hPa 0,0 l/m 3,6 km/h (1 Bft) O 100 0 min 0,000 mm 0,0 UV-I 0 W/m 10,6 C 14,4 C 4,8 km/h (1 Bft) 95,83 %
09.05.2018 22:54 14,4 C 19,4 C 78 % 1004,8 hPa 0,0 l/m 4,4 km/h (1 Bft) O 90 0 min 0,000 mm 0,0 UV-I 0 W/m 10,6 C 14,4 C 6,4 km/h (2 Bft) 100,00 %
09.05.2018 22:55 14,4 C 19,4 C 77 % 1004,8 hPa 0,0 l/m 3,2 km/h (1 Bft) O 89 0 min 0,000 mm 0,0 UV-I 0 W/m 10,4 C 14,4 C 4,8 km/h (1 Bft) 96,15 %
09.05.2018 22:56 14,4 C 19,4 C 78 % 1004,8 hPa 0,0 l/m 4,2 km/h (1 Bft) O 94 0 min 0,000 mm 0,0 UV-I 0 W/m 10,6 C 14,4 C 4,8 km/h (1 Bft) 91,67 %
09.05.2018 22:57 14,3 C 19,4 C 78 % 1004,8 hPa 0,0 l/m 4,0 km/h (1 Bft) O 96 0 min 0,000 mm 0,0 UV-I 0 W/m 10,5 C 14,3 C 4,8 km/h (1 Bft) 100,00 %
09.05.2018 22:58 14,3 C 19,4 C 78 % 1004,8 hPa 0,0 l/m 3,4 km/h (1 Bft) O 101 0 min 0,000 mm 0,0 UV-I 0 W/m 10,5 C 14,3 C 4,8 km/h (1 Bft) 96,30 %
09.05.2018 22:59 14,3 C 19,4 C 78 % 1004,8 hPa 0,0 l/m 4,2 km/h (1 Bft) O-SO 103 0 min 0,000 mm 0,0 UV-I 0 W/m 10,5 C 14,3 C 6,4 km/h (2 Bft) 100,00 %
09.05.2018 23:00 14,3 C 18,9 C 78 % 1004,9 hPa 0,0 l/m 3,2 km/h (1 Bft) O-SO 103 0 min 0,000 mm 0,0 UV-I 0 W/m 10,5 C 14,3 C 4,8 km/h (1 Bft) 95,83 %
09.05.2018 23:01 14,4 C 18,9 C 77 % 1004,9 hPa 0,0 l/m 3,3 km/h (1 Bft) O-SO 103 0 min 0,025 mm 0,0 UV-I 0 W/m 10,4 C 14,4 C 4,8 km/h (1 Bft) 100,00 %
09.05.2018 23:02 14,4 C 18,9 C 77 % 1004,9 hPa 0,0 l/m 3,2 km/h (1 Bft) O-SO 103 0 min 0,000 mm 0,0 UV-I 0 W/m 10,4 C 14,4 C 4,8 km/h (1 Bft) 95,83 %
09.05.2018 23:03 14,4 C 18,9 C 77 % 1004,9 hPa 0,0 l/m 4,2 km/h (1 Bft) O-SO 103 0 min 0,000 mm 0,0 UV-I 0 W/m 10,4 C 14,4 C 4,8 km/h (1 Bft) 95,65 %
09.05.2018 23:04 14,4 C 18,9 C 78 % 1004,9 hPa 0,0 l/m 3,0 km/h (1 Bft) O-SO 103 0 min 0,000 mm 0,0 UV-I 0 W/m 10,6 C 14,4 C 4,8 km/h (1 Bft) 95,83 %
09.05.2018 23:05 14,3 C 18,9 C 78 % 1004,9 hPa 0,0 l/m 2,3 km/h (1 Bft) O-SO 103 0 min 0,000 mm 0,0 UV-I 0 W/m 10,5 C 14,3 C 3,2 km/h (1 Bft) 96,15 %
09.05.2018 23:06 14,4 C 18,9 C 78 % 1004,9 hPa 0,0 l/m 2,5 km/h (1 Bft) O-SO 103 0 min 0,000 mm 0,0 UV-I 0 W/m 10,6 C 14,4 C 4,8 km/h (1 Bft) 100,00 %
09.05.2018 23:07 14,4 C 18,9 C 78 % 1004,9 hPa 0,0 l/m 0,8 km/h (0 Bft) O-SO 103 0 min 0,000 mm 0,0 UV-I 0 W/m 10,6 C 14,4 C 1,6 km/h (1 Bft) 92,59 %
09.05.2018 23:08 14,4 C 18,9 C 78 % 1004,9 hPa 0,0 l/m 0,8 km/h (0 Bft) O-SO 103 0 min 0,000 mm 0,0 UV-I 0 W/m 10,6 C 14,4 C 3,2 km/h (1 Bft) 100,00 %
09.05.2018 23:09 14,4 C 18,9 C 78 % 1004,9 hPa 0,0 l/m 0,2 km/h (0 Bft) O-SO 103 0 min 0,000 mm 0,0 UV-I 0 W/m 10,6 C 14,4 C 1,6 km/h (1 Bft) 95,83 %
09.05.2018 23:10 14,4 C 18,9 C 78 % 1004,9 hPa 0,0 l/m 0,1 km/h (0 Bft) O-SO 103 0 min 0,000 mm 0,0 UV-I 0 W/m 10,6 C 14,4 C 1,6 km/h (1 Bft) 100,00 %
09.05.2018 23:11 14,4 C 18,9 C 78 % 1004,9 hPa 0,0 l/m 0,2 km/h (0 Bft) O-SO 103 0 min 0,000 mm 0,0 UV-I 0 W/m 10,6 C 14,4 C 1,6 km/h (1 Bft) 95,83 %
09.05.2018 23:12 14,3 C 18,9 C 78 % 1004,9 hPa 0,0 l/m 1,4 km/h (1 Bft) O-SO 103 0 min 0,000 mm 0,0 UV-I 0 W/m 10,5 C 14,3 C 4,8 km/h (1 Bft) 100,00 %
09.05.2018 23:13 14,3 C 18,9 C 78 % 1004,9 hPa 0,0 l/m 2,1 km/h (1 Bft) O-SO 103 0 min 0,000 mm 0,0 UV-I 0 W/m 10,5 C 14,3 C 3,2 km/h (1 Bft) 95,83 %
09.05.2018 23:14 14,3 C 18,9 C 78 % 1004,9 hPa 0,0 l/m 2,2 km/h (1 Bft) O-SO 103 0 min 0,000 mm 0,0 UV-I 0 W/m 10,5 C 14,3 C 4,8 km/h (1 Bft) 95,65 %
09.05.2018 23:15 14,3 C 18,9 C 78 % 1004,9 hPa 0,0 l/m 3,6 km/h (1 Bft) O-SO 103 0 min 0,000 mm 0,0 UV-I 0 W/m 10,5 C 14,3 C 4,8 km/h (1 Bft) 100,00 %
09.05.2018 23:16 14,3 C 18,9 C 78 % 1004,9 hPa 0,0 l/m 4,1 km/h (1 Bft) O-SO 102 0 min 0,000 mm 0,0 UV-I 0 W/m 10,5 C 14,3 C 4,8 km/h (1 Bft) 95,65 %
09.05.2018 23:17 14,4 C 18,9 C 78 % 1004,9 hPa 0,0 l/m 4,2 km/h (1 Bft) O 98 0 min 0,000 mm 0,0 UV-I 0 W/m 10,6 C 14,4 C 4,8 km/h (1 Bft) 100,00 %
09.05.2018 23:18 14,5 C 18,9 C 78 % 1004,9 hPa 0,0 l/m 3,6 km/h (1 Bft) O 98 0 min 0,000 mm 0,0 UV-I 0 W/m 10,7 C 14,5 C 4,8 km/h (1 Bft) 95,65 %
09.05.2018 23:19 14,5 C 18,9 C 77 % 1004,9 hPa 0,0 l/m 5,3 km/h (1 Bft) O-SO 109 0 min 0,000 mm 0,0 UV-I 0 W/m 10,5 C 14,5 C 6,4 km/h (2 Bft) 100,00 %
09.05.2018 23:20 14,5 C 18,9 C 78 % 1004,9 hPa 0,0 l/m 3,9 km/h (1 Bft) O-SO 109 0 min 0,000 mm 0,0 UV-I 0 W/m 10,7 C 14,5 C 4,8 km/h (1 Bft) 100,00 %
09.05.2018 23:21 14,5 C 18,9 C 77 % 1004,8 hPa 0,0 l/m 4,2 km/h (1 Bft) O 99 0 min 0,000 mm 0,0 UV-I 0 W/m 10,5 C 14,5 C 4,8 km/h (1 Bft) 100,00 %
09.05.2018 23:22 14,5 C 18,9 C 77 % 1004,9 hPa 0,0 l/m 3,1 km/h (1 Bft) O 99 0 min 0,000 mm 0,0 UV-I 0 W/m 10,5 C 14,5 C 4,8 km/h (1 Bft) 100,00 %
09.05.2018 23:23 14,5 C 18,9 C 77 % 1004,9 hPa 0,0 l/m 4,5 km/h (1 Bft) O-SO 102 0 min 0,000 mm 0,0 UV-I 0 W/m 10,5 C 14,5 C 6,4 km/h (2 Bft) 100,00 %
09.05.2018 23:24 14,5 C 18,9 C 77 % 1004,9 hPa 0,0 l/m 4,8 km/h (1 Bft) O-SO 109 0 min 0,000 mm 0,0 UV-I 0 W/m 10,5 C 14,5 C 6,4 km/h (2 Bft) 95,65 %
09.05.2018 23:25 14,5 C 18,9 C 78 % 1004,9 hPa 0,0 l/m 4,0 km/h (1 Bft) O 96 0 min 0,000 mm 0,0 UV-I 0 W/m 10,7 C 14,5 C 6,4 km/h (2 Bft) 100,00 %
09.05.2018 23:26 14,4 C 18,9 C 78 % 1004,9 hPa 0,0 l/m 4,8 km/h (1 Bft) O-SO 107 0 min 0,000 mm 0,0 UV-I 0 W/m 10,6 C 14,4 C 6,4 km/h (2 Bft) 100,00 %
09.05.2018 23:27 14,3 C 18,9 C 78 % 1004,9 hPa 0,0 l/m 4,3 km/h (1 Bft) O-SO 107 0 min 0,000 mm 0,0 UV-I 0 W/m 10,5 C 14,3 C 6,4 km/h (2 Bft) 95,83 %
09.05.2018 23:28 14,2 C 18,9 C 79 % 1005,0 hPa 0,0 l/m 3,9 km/h (1 Bft) O-SO 106 0 min 0,000 mm 0,0 UV-I 0 W/m 10,6 C 14,2 C 4,8 km/h (1 Bft) 100,00 %
09.05.2018 23:29 14,1 C 18,9 C 79 % 1004,9 hPa 0,0 l/m 3,7 km/h (1 Bft) O-SO 106 0 min 0,000 mm 0,0 UV-I 0 W/m 10,5 C 14,1 C 4,8 km/h (1 Bft) 100,00 %
09.05.2018 23:30 13,9 C 18,9 C 80 % 1005,0 hPa 0,0 l/m 5,0 km/h (1 Bft) O 98 0 min 0,000 mm 0,0 UV-I 0 W/m 10,5 C 13,9 C 6,4 km/h (2 Bft) 100,00 %
09.05.2018 23:31 13,8 C 18,9 C 80 % 1005,0 hPa 0,0 l/m 4,6 km/h (1 Bft) O 89 0 min 0,000 mm 0,0 UV-I 0 W/m 10,4 C 13,8 C 6,4 km/h (2 Bft) 95,65 %
09.05.2018 23:32 13,8 C 18,9 C 80 % 1005,0 hPa 0,0 l/m 5,0 km/h (1 Bft) O-SO 103 0 min 0,000 mm 0,0 UV-I 0 W/m 10,4 C 13,8 C 6,4 km/h (2 Bft) 100,00 %
09.05.2018 23:33 13,8 C 18,9 C 81 % 1005,0 hPa 0,0 l/m 5,2 km/h (1 Bft) O-SO 102 0 min 0,000 mm 0,0 UV-I 0 W/m 10,6 C 13,8 C 6,4 km/h (2 Bft) 100,00 %
09.05.2018 23:34 13,8 C 18,9 C 81 % 1005,0 hPa 0,0 l/m 3,3 km/h (1 Bft) O-SO 102 0 min 0,000 mm 0,0 UV-I 0 W/m 10,6 C 13,8 C 4,8 km/h (1 Bft) 100,00 %
09.05.2018 23:35 13,9 C 18,9 C 80 % 1005,0 hPa 0,0 l/m 3,6 km/h (1 Bft) O-SO 102 0 min 0,000 mm 0,0 UV-I 0 W/m 10,5 C 13,9 C 4,8 km/h (1 Bft) 97,37 %
09.05.2018 23:36 13,8 C 18,9 C 81 % 1005,0 hPa 0,0 l/m 2,9 km/h (1 Bft) O-SO 102 0 min 0,000 mm 0,0 UV-I 0 W/m 10,6 C 13,8 C 4,8 km/h (1 Bft) 100,00 %
09.05.2018 23:37 13,7 C 18,9 C 81 % 1005,0 hPa 0,0 l/m 2,8 km/h (1 Bft) O-SO 102 0 min 0,000 mm 0,0 UV-I 0 W/m 10,5 C 13,7 C 3,2 km/h (1 Bft) 100,00 %
09.05.2018 23:38 13,6 C 18,9 C 81 % 1005,0 hPa 0,0 l/m 2,7 km/h (1 Bft) O-SO 102 0 min 0,000 mm 0,0 UV-I 0 W/m 10,4 C 13,6 C 4,8 km/h (1 Bft) 100,00 %
09.05.2018 23:39 13,7 C 18,9 C 81 % 1005,0 hPa 0,0 l/m 1,8 km/h (1 Bft) O-SO 102 0 min 0,000 mm 0,0 UV-I 0 W/m 10,5 C 13,7 C 3,2 km/h (1 Bft) 95,65 %
09.05.2018 23:40 13,7 C 18,9 C 81 % 1005,0 hPa 0,0 l/m 1,5 km/h (1 Bft) O-SO 102 0 min 0,000 mm 0,0 UV-I 0 W/m 10,5 C 13,7 C 1,6 km/h (1 Bft) 100,00 %
09.05.2018 23:41 13,6 C 18,9 C 81 % 1005,0 hPa 0,0 l/m 0,6 km/h (0 Bft) O-SO 102 0 min 0,000 mm 0,0 UV-I 0 W/m 10,4 C 13,6 C 1,6 km/h (1 Bft) 95,65 %
09.05.2018 23:43 13,4 C 18,9 C 82 % 1005,1 hPa 0,0 l/m 0,0 km/h (0 Bft) O-SO 102 0 min 0,000 mm 0,0 UV-I 0 W/m 10,4 C 13,4 C 0,0 km/h (0 Bft) 100,00 %
09.05.2018 23:44 13,3 C 18,9 C 83 % 1005,1 hPa 0,0 l/m 0,0 km/h (0 Bft) O-SO 102 0 min 0,000 mm 0,0 UV-I 0 W/m 10,5 C 13,3 C 0,0 km/h (0 Bft) 100,00 %
09.05.2018 23:45 13,2 C 18,9 C 83 % 1005,1 hPa 0,0 l/m 0,0 km/h (0 Bft) O-SO 102 0 min 0,000 mm 0,0 UV-I 0 W/m 10,4 C 13,2 C 0,0 km/h (0 Bft) 95,65 %
09.05.2018 23:46 13,1 C 18,9 C 83 % 1005,0 hPa 0,0 l/m 0,0 km/h (0 Bft) O-SO 102 0 min 0,000 mm 0,0 UV-I 0 W/m 10,3 C 13,1 C 0,0 km/h (0 Bft) 100,00 %
09.05.2018 23:47 13,0 C 18,9 C 84 % 1005,1 hPa 0,0 l/m 0,9 km/h (0 Bft) O-SO 102 0 min 0,000 mm 0,0 UV-I 0 W/m 10,4 C 13,0 C 1,6 km/h (1 Bft) 91,30 %
09.05.2018 23:48 12,9 C 18,9 C 84 % 1005,1 hPa 0,0 l/m 1,6 km/h (1 Bft) O-SO 102 0 min 0,000 mm 0,0 UV-I 0 W/m 10,3 C 12,9 C 3,2 km/h (1 Bft) 100,00 %
09.05.2018 23:49 12,8 C 18,9 C 84 % 1005,1 hPa 0,0 l/m 1,9 km/h (1 Bft) O-SO 102 0 min 0,000 mm 0,0 UV-I 0 W/m 10,2 C 12,8 C 3,2 km/h (1 Bft) 100,00 %
09.05.2018 23:50 12,8 C 18,9 C 84 % 1005,1 hPa 0,0 l/m 1,5 km/h (1 Bft) O-SO 107 0 min 0,000 mm 0,0 UV-I 0 W/m 10,2 C 12,8 C 3,2 km/h (1 Bft) 100,00 %
09.05.2018 23:51 12,8 C 18,9 C 85 % 1005,0 hPa 0,0 l/m 2,6 km/h (1 Bft) O-SO 107 0 min 0,000 mm 0,0 UV-I 0 W/m 10,3 C 12,8 C 3,2 km/h (1 Bft) 100,00 %
09.05.2018 23:53 12,8 C 18,9 C 85 % 1005,1 hPa 0,0 l/m 3,1 km/h (1 Bft) O-SO 120 0 min 0,000 mm 0,0 UV-I 0 W/m 10,3 C 12,8 C 3,2 km/h (1 Bft) 100,00 %
09.05.2018 23:54 12,8 C 18,9 C 85 % 1005,1 hPa 0,0 l/m 3,7 km/h (1 Bft) O-SO 122 0 min 0,000 mm 0,0 UV-I 0 W/m 10,3 C 12,8 C 4,8 km/h (1 Bft) 100,00 %
09.05.2018 23:55 12,9 C 18,9 C 85 % 1005,1 hPa 0,0 l/m 3,4 km/h (1 Bft) O-SO 122 0 min 0,000 mm 0,0 UV-I 0 W/m 10,4 C 12,9 C 4,8 km/h (1 Bft) 100,00 %
09.05.2018 23:56 12,8 C 18,9 C 85 % 1005,1 hPa 0,0 l/m 3,1 km/h (1 Bft) O-SO 122 0 min 0,000 mm 0,0 UV-I 0 W/m 10,3 C 12,8 C 3,2 km/h (1 Bft) 100,00 %
09.05.2018 23:58 12,6 C 18,9 C 85 % 1005,0 hPa 0,0 l/m 3,4 km/h (1 Bft) O-SO 122 0 min 0,000 mm 0,0 UV-I 0 W/m 10,1 C 12,6 C 4,8 km/h (1 Bft) 100,00 %
09.05.2018 23:59 12,4 C 18,9 C 85 % 1005,0 hPa 0,0 l/m 3,3 km/h (1 Bft) O-SO 122 0 min 0,000 mm 0,0 UV-I 0 W/m 9,9 C 12,4 C 4,8 km/h (1 Bft) 100,00 %
_ Min-Zeit 05:30 04:18 15:27 16:56 - 16:42 - - - - - - 04:55 06:16 16:42 13:35
Minimum _ 9,1 C 17,8 C 37 % 1003,6 hPa - 0,0 km/h (0 Bft) - - - - - - 7,2 C 6,5 C 0,0 km/h (0 Bft) 81,82 %
_ Max-Zeit 16:01 14:40 05:19 00:08 16:37 11:27 - - 07:09 12:01 12:41 12:57 17:02 15:59 11:28 00:00
Maximum _ 23,9 C 19,4 C 89 % 1007,0 hPa 0,4 l/m 24,9 km/h
O (4 Bft)
- - 2 min 0,609 mm 4,5 UV-I 1005 W/m 17,3 C 23,8 C 33,8 km/h
O (5 Bft)
100,00 %
Durchschnitt _ 16,1 C 18,7 C 69 % 1005,3 hPa #2,6 l/m 9,4 km/h (2 Bft) O-NO - #11:49 h #4,851 mm 2,2 UV-I 430 W/m 10,0 C 14,8 C 13,1 km/h (3 Bft) 97,78 %